<?xml version='1.0' encoding='UTF-8'?><gpx version="1.1" creator="JPX - https://github.com/jenetics/jpx" xmlns="http://www.topografix.com/GPX/1/1"><trk><trkseg><trkpt lat="44.7582411177273" lon="8.784197012113486"><ele>207.0</ele><time>2026-03-28T12:47:56Z</time></trkpt><trkpt lat="44.75819810523988" lon="8.784131432714638"><ele>207.0</ele><time>2026-03-28T12:47:58Z</time></trkpt><trkpt lat="44.75812342083117" lon="8.784049997678348"><ele>207.0</ele><time>2026-03-28T12:48:00Z</time></trkpt><trkpt lat="44.75805524027391" lon="8.78407715906775"><ele>207.0</ele><time>2026-03-28T12:48:02Z</time></trkpt><trkpt lat="44.7580344101254" lon="8.784259286103044"><ele>207.0</ele><time>2026-03-28T12:48:03Z</time></trkpt><trkpt lat="44.75797434854058" lon="8.784376995572256"><ele>207.5</ele><time>2026-03-28T12:48:04Z</time></trkpt><trkpt lat="44.75789649754777" lon="8.784500621181978"><ele>208.0</ele><time>2026-03-28T12:48:05Z</time></trkpt><trkpt lat="44.75780725582948" lon="8.784650567255357"><ele>208.5</ele><time>2026-03-28T12:48:06Z</time></trkpt><trkpt lat="44.757711307596146" lon="8.784811675694932"><ele>209.0</ele><time>2026-03-28T12:48:07Z</time></trkpt><trkpt lat="44.75760789323787" lon="8.784984348746782"><ele>209.25</ele><time>2026-03-28T12:48:08Z</time></trkpt><trkpt lat="44.757517609843234" lon="8.785132798132343"><ele>209.5</ele><time>2026-03-28T12:48:09Z</time></trkpt><trkpt lat="44.75743370239276" lon="8.78525934066991"><ele>209.75</ele><time>2026-03-28T12:48:10Z</time></trkpt><trkpt lat="44.75736530414835" lon="8.785369960369831"><ele>210.0</ele><time>2026-03-28T12:48:11Z</time></trkpt><trkpt lat="44.75729931171673" lon="8.78547981099154"><ele>211.8</ele><time>2026-03-28T12:48:12Z</time></trkpt><trkpt lat="44.75724347514374" lon="8.785580178899972"><ele>213.6</ele><time>2026-03-28T12:48:13Z</time></trkpt><trkpt lat="44.75715633068204" lon="8.785677676680129"><ele>215.39999999999998</ele><time>2026-03-28T12:48:15Z</time></trkpt><trkpt lat="44.75708202306013" lon="8.785743258003874"><ele>217.2</ele><time>2026-03-28T12:48:17Z</time></trkpt><trkpt lat="44.75708296592081" lon="8.785899985795925"><ele>219.0</ele><time>2026-03-28T12:48:19Z</time></trkpt><trkpt lat="44.75707796137482" lon="8.786071214369874"><ele>221.25</ele><time>2026-03-28T12:48:21Z</time></trkpt><trkpt lat="44.75706609948554" lon="8.786201062155499"><ele>223.5</ele><time>2026-03-28T12:48:22Z</time></trkpt><trkpt lat="44.7570603639387" lon="8.786353012160294"><ele>225.75</ele><time>2026-03-28T12:48:23Z</time></trkpt><trkpt lat="44.75705175666107" lon="8.786523295513428"><ele>228.0</ele><time>2026-03-28T12:48:24Z</time></trkpt><trkpt lat="44.75704394415678" lon="8.78671354458827"><ele>229.0</ele><time>2026-03-28T12:48:25Z</time></trkpt><trkpt lat="44.757035690941265" lon="8.78689435489483"><ele>230.0</ele><time>2026-03-28T12:48:26Z</time></trkpt><trkpt lat="44.75702358948816" lon="8.787055759276349"><ele>231.0</ele><time>2026-03-28T12:48:27Z</time></trkpt><trkpt lat="44.75702003130547" lon="8.787218434862162"><ele>232.0</ele><time>2026-03-28T12:48:28Z</time></trkpt><trkpt lat="44.75701619145551" lon="8.78739457077099"><ele>232.0</ele><time>2026-03-28T12:48:29Z</time></trkpt><trkpt lat="44.75700640554732" lon="8.78759363324093"><ele>232.0</ele><time>2026-03-28T12:48:30Z</time></trkpt><trkpt lat="44.756992787896465" lon="8.787810612483899"><ele>232.0</ele><time>2026-03-28T12:48:31Z</time></trkpt><trkpt lat="44.75697981646711" lon="8.788007531266818"><ele>232.0</ele><time>2026-03-28T12:48:32Z</time></trkpt><trkpt lat="44.756970450280825" lon="8.788174308977911"><ele>232.0</ele><time>2026-03-28T12:48:32.999Z</time></trkpt><trkpt lat="44.756964101026654" lon="8.788319560171884"><ele>232.0</ele><time>2026-03-28T12:48:33.999Z</time></trkpt><trkpt lat="44.75695806490696" lon="8.788461246800571"><ele>232.0</ele><time>2026-03-28T12:48:34.999Z</time></trkpt><trkpt lat="44.75695869628113" lon="8.788624408169566"><ele>232.0</ele><time>2026-03-28T12:48:35.999Z</time></trkpt><trkpt lat="44.756986149021536" lon="8.788795943175199"><ele>232.0</ele><time>2026-03-28T12:48:36.999Z</time></trkpt><trkpt lat="44.757040013243106" lon="8.788951010091246"><ele>230.5</ele><time>2026-03-28T12:48:37.999Z</time></trkpt><trkpt lat="44.75714372134809" lon="8.789091043748261"><ele>229.0</ele><time>2026-03-28T12:48:38.999Z</time></trkpt><trkpt lat="44.75727330191292" lon="8.789195700806921"><ele>227.5</ele><time>2026-03-28T12:48:39.999Z</time></trkpt><trkpt lat="44.757406049471165" lon="8.78928581932431"><ele>226.0</ele><time>2026-03-28T12:48:40.999Z</time></trkpt><trkpt lat="44.7575244227533" lon="8.789375388755168"><ele>224.0</ele><time>2026-03-28T12:48:41.999Z</time></trkpt><trkpt lat="44.757635777695754" lon="8.78946941686755"><ele>222.0</ele><time>2026-03-28T12:48:42.999Z</time></trkpt><trkpt lat="44.757746151052594" lon="8.789561504696724"><ele>220.0</ele><time>2026-03-28T12:48:43.999Z</time></trkpt><trkpt lat="44.7578518010529" lon="8.789663747571868"><ele>218.0</ele><time>2026-03-28T12:48:44.999Z</time></trkpt><trkpt lat="44.75796094031969" lon="8.789746966892022"><ele>214.75</ele><time>2026-03-28T12:48:45.999Z</time></trkpt><trkpt lat="44.75806737660341" lon="8.78985122445572"><ele>211.5</ele><time>2026-03-28T12:48:46.999Z</time></trkpt><trkpt lat="44.75817487490245" lon="8.789935530241893"><ele>208.25</ele><time>2026-03-28T12:48:47.999Z</time></trkpt><trkpt lat="44.758278839838454" lon="8.790015230268548"><ele>205.0</ele><time>2026-03-28T12:48:48.999Z</time></trkpt><trkpt lat="44.75837245284737" lon="8.790090440436032"><ele>205.0</ele><time>2026-03-28T12:48:49.999Z</time></trkpt><trkpt lat="44.75845648715577" lon="8.79016649560826"><ele>205.0</ele><time>2026-03-28T12:48:50.999Z</time></trkpt><trkpt lat="44.758533413468776" lon="8.790237553737347"><ele>205.0</ele><time>2026-03-28T12:48:51.999Z</time></trkpt><trkpt lat="44.758609947309246" lon="8.790303039291953"><ele>205.0</ele><time>2026-03-28T12:48:52.999Z</time></trkpt><trkpt lat="44.75869251241331" lon="8.790371335839932"><ele>205.0</ele><time>2026-03-28T12:48:54Z</time></trkpt><trkpt lat="44.75877697136783" lon="8.79043721118917"><ele>204.33333333333331</ele><time>2026-03-28T12:48:55Z</time></trkpt><trkpt lat="44.75885114359141" lon="8.790507320353555"><ele>203.66666666666666</ele><time>2026-03-28T12:48:56Z</time></trkpt><trkpt lat="44.75892593452342" lon="8.790566687972012"><ele>203.0</ele><time>2026-03-28T12:48:57Z</time></trkpt><trkpt lat="44.75899428434353" lon="8.790628748263224"><ele>202.33333333333331</ele><time>2026-03-28T12:48:58Z</time></trkpt><trkpt lat="44.75906670754697" lon="8.790683042722586"><ele>201.66666666666666</ele><time>2026-03-28T12:48:59Z</time></trkpt><trkpt lat="44.7591333671417" lon="8.790731650545863"><ele>201.0</ele><time>2026-03-28T12:49:00Z</time></trkpt><trkpt lat="44.75918774954537" lon="8.790784436835636"><ele>201.0</ele><time>2026-03-28T12:49:01Z</time></trkpt><trkpt lat="44.759233475043104" lon="8.790849765175135"><ele>201.0</ele><time>2026-03-28T12:49:02Z</time></trkpt><trkpt lat="44.75925741754008" lon="8.79093666111392"><ele>201.0</ele><time>2026-03-28T12:49:03Z</time></trkpt><trkpt lat="44.75921281435275" lon="8.79103516758727"><ele>201.0</ele><time>2026-03-28T12:49:04Z</time></trkpt><trkpt lat="44.75914660510173" lon="8.79114860056679"><ele>201.0</ele><time>2026-03-28T12:49:05Z</time></trkpt><trkpt lat="44.75910537032364" lon="8.791305736972248"><ele>201.0</ele><time>2026-03-28T12:49:06Z</time></trkpt><trkpt lat="44.75906827811417" lon="8.791426294816409"><ele>200.60000000000002</ele><time>2026-03-28T12:49:07Z</time></trkpt><trkpt lat="44.75903563672602" lon="8.79152375974846"><ele>200.2</ele><time>2026-03-28T12:49:08Z</time></trkpt><trkpt lat="44.759002933690944" lon="8.791599969501815"><ele>199.8</ele><time>2026-03-28T12:49:09Z</time></trkpt><trkpt lat="44.7589542019686" lon="8.791754734939996"><ele>199.39999999999998</ele><time>2026-03-28T12:49:11Z</time></trkpt><trkpt lat="44.758908902927615" lon="8.791861282272095"><ele>199.0</ele><time>2026-03-28T12:49:13Z</time></trkpt><trkpt lat="44.759046371592866" lon="8.791965535586277"><ele>198.83333333333331</ele><time>2026-03-28T12:49:15Z</time></trkpt><trkpt lat="44.75913971944533" lon="8.792009969036592"><ele>198.66666666666666</ele><time>2026-03-28T12:49:17Z</time></trkpt><trkpt lat="44.75920449938832" lon="8.792049142676358"><ele>198.5</ele><time>2026-03-28T12:49:21Z</time></trkpt><trkpt lat="44.75926213750905" lon="8.792088459995416"><ele>198.33333333333331</ele><time>2026-03-28T12:49:25Z</time></trkpt><trkpt lat="44.75933752082016" lon="8.792137556190879"><ele>198.16666666666666</ele><time>2026-03-28T12:49:28Z</time></trkpt><trkpt lat="44.75940176707063" lon="8.792172373640083"><ele>198.0</ele><time>2026-03-28T12:49:34Z</time></trkpt><trkpt lat="44.75941007814178" lon="8.792339251010839"><ele>198.0</ele><time>2026-03-28T12:49:36Z</time></trkpt><trkpt lat="44.75936101537532" lon="8.792397967677251"><ele>198.0</ele><time>2026-03-28T12:49:37Z</time></trkpt><trkpt lat="44.75929125947375" lon="8.792499712033333"><ele>198.0</ele><time>2026-03-28T12:49:38Z</time></trkpt><trkpt lat="44.759228494534824" lon="8.792598663584613"><ele>198.0</ele><time>2026-03-28T12:49:39Z</time></trkpt><trkpt lat="44.759158057765276" lon="8.792723854909285"><ele>198.0</ele><time>2026-03-28T12:49:40Z</time></trkpt><trkpt lat="44.75907729720627" lon="8.792856901143942"><ele>198.0</ele><time>2026-03-28T12:49:41Z</time></trkpt><trkpt lat="44.75899873831841" lon="8.792980097973029"><ele>198.0</ele><time>2026-03-28T12:49:42Z</time></trkpt><trkpt lat="44.758920159475004" lon="8.79310954406875"><ele>198.0</ele><time>2026-03-28T12:49:43Z</time></trkpt><trkpt lat="44.758838230881416" lon="8.793243533332202"><ele>198.0</ele><time>2026-03-28T12:49:44Z</time></trkpt><trkpt lat="44.758762811720175" lon="8.793366303335059"><ele>198.0</ele><time>2026-03-28T12:49:45Z</time></trkpt><trkpt lat="44.75868666233164" lon="8.793483481788535"><ele>198.0</ele><time>2026-03-28T12:49:46Z</time></trkpt><trkpt lat="44.758621186746836" lon="8.793598703821855"><ele>198.0</ele><time>2026-03-28T12:49:47Z</time></trkpt><trkpt lat="44.75854865217666" lon="8.793717032054808"><ele>198.0</ele><time>2026-03-28T12:49:48Z</time></trkpt><trkpt lat="44.75847947634582" lon="8.793833762945441"><ele>198.0</ele><time>2026-03-28T12:49:49Z</time></trkpt><trkpt lat="44.758413228385336" lon="8.79394737638832"><ele>198.25</ele><time>2026-03-28T12:49:50Z</time></trkpt><trkpt lat="44.75833914829811" lon="8.794063938515544"><ele>198.5</ele><time>2026-03-28T12:49:51Z</time></trkpt><trkpt lat="44.758263771284504" lon="8.794188370378992"><ele>198.75</ele><time>2026-03-28T12:49:52Z</time></trkpt><trkpt lat="44.758189658828925" lon="8.794314334148195"><ele>199.0</ele><time>2026-03-28T12:49:53Z</time></trkpt><trkpt lat="44.758114570701146" lon="8.794440009342152"><ele>199.0</ele><time>2026-03-28T12:49:54Z</time></trkpt><trkpt lat="44.758039605789676" lon="8.79457754174921"><ele>199.0</ele><time>2026-03-28T12:49:55Z</time></trkpt><trkpt lat="44.757963368949106" lon="8.794702432917598"><ele>199.0</ele><time>2026-03-28T12:49:56Z</time></trkpt><trkpt lat="44.757889454894325" lon="8.794818404923122"><ele>199.0</ele><time>2026-03-28T12:49:57Z</time></trkpt><trkpt lat="44.75781962482466" lon="8.794941754095996"><ele>199.0</ele><time>2026-03-28T12:49:58Z</time></trkpt><trkpt lat="44.75774387380617" lon="8.795065801974992"><ele>199.0</ele><time>2026-03-28T12:49:59Z</time></trkpt><trkpt lat="44.7576629361948" lon="8.79519875681999"><ele>199.0</ele><time>2026-03-28T12:50:00Z</time></trkpt><trkpt lat="44.75757794532783" lon="8.795349947397575"><ele>199.0</ele><time>2026-03-28T12:50:01Z</time></trkpt><trkpt lat="44.75749217898259" lon="8.795494480375103"><ele>199.75</ele><time>2026-03-28T12:50:02Z</time></trkpt><trkpt lat="44.757411958449495" lon="8.79563098350568"><ele>200.5</ele><time>2026-03-28T12:50:03Z</time></trkpt><trkpt lat="44.75733007272176" lon="8.795773974229915"><ele>201.25</ele><time>2026-03-28T12:50:04Z</time></trkpt><trkpt lat="44.75723964918462" lon="8.795925845917578"><ele>202.0</ele><time>2026-03-28T12:50:05Z</time></trkpt><trkpt lat="44.75715281583667" lon="8.796076650576888"><ele>202.0</ele><time>2026-03-28T12:50:06Z</time></trkpt><trkpt lat="44.75707056865042" lon="8.796208573465265"><ele>202.0</ele><time>2026-03-28T12:50:07Z</time></trkpt><trkpt lat="44.756997325086594" lon="8.79633310147809"><ele>202.0</ele><time>2026-03-28T12:50:08Z</time></trkpt><trkpt lat="44.756924580348894" lon="8.796461638189493"><ele>202.0</ele><time>2026-03-28T12:50:09Z</time></trkpt><trkpt lat="44.75684860757557" lon="8.796593802431246"><ele>202.0</ele><time>2026-03-28T12:50:10Z</time></trkpt><trkpt lat="44.75676812789445" lon="8.796729174623541"><ele>202.0</ele><time>2026-03-28T12:50:11Z</time></trkpt><trkpt lat="44.75668724683466" lon="8.796861966792102"><ele>202.0</ele><time>2026-03-28T12:50:12Z</time></trkpt><trkpt lat="44.75660458391065" lon="8.796995191534497"><ele>202.0</ele><time>2026-03-28T12:50:13Z</time></trkpt><trkpt lat="44.75651961172069" lon="8.797137696412216"><ele>202.0</ele><time>2026-03-28T12:50:14Z</time></trkpt><trkpt lat="44.75643108270869" lon="8.797282269324297"><ele>202.0</ele><time>2026-03-28T12:50:15Z</time></trkpt><trkpt lat="44.756351031464234" lon="8.79741495392384"><ele>202.0</ele><time>2026-03-28T12:50:16Z</time></trkpt><trkpt lat="44.75627797859479" lon="8.797538066640675"><ele>202.0</ele><time>2026-03-28T12:50:17Z</time></trkpt><trkpt lat="44.75620417367988" lon="8.797665486280511"><ele>202.0</ele><time>2026-03-28T12:50:18Z</time></trkpt><trkpt lat="44.75612333785059" lon="8.797806027090195"><ele>202.0</ele><time>2026-03-28T12:50:19Z</time></trkpt><trkpt lat="44.756050736246365" lon="8.79793156302677"><ele>202.0</ele><time>2026-03-28T12:50:20Z</time></trkpt><trkpt lat="44.75598343153767" lon="8.798044747749143"><ele>202.0</ele><time>2026-03-28T12:50:21Z</time></trkpt><trkpt lat="44.75592186177713" lon="8.798141562234953"><ele>202.0</ele><time>2026-03-28T12:50:22Z</time></trkpt><trkpt lat="44.75585828006729" lon="8.798238221589244"><ele>202.49999999999997</ele><time>2026-03-28T12:50:23Z</time></trkpt><trkpt lat="44.75579663338487" lon="8.798343326840445"><ele>203.0</ele><time>2026-03-28T12:50:24Z</time></trkpt><trkpt lat="44.755741566582074" lon="8.798437052534801"><ele>203.5</ele><time>2026-03-28T12:50:25Z</time></trkpt><trkpt lat="44.755687498980166" lon="8.798521447186351"><ele>204.0</ele><time>2026-03-28T12:50:26Z</time></trkpt><trkpt lat="44.75563596945522" lon="8.798603693044466"><ele>204.49999999999997</ele><time>2026-03-28T12:50:27Z</time></trkpt><trkpt lat="44.755588298531755" lon="8.798681467383023"><ele>205.0</ele><time>2026-03-28T12:50:28Z</time></trkpt><trkpt lat="44.755538968675026" lon="8.798764139765947"><ele>205.0</ele><time>2026-03-28T12:50:29Z</time></trkpt><trkpt lat="44.75548043463574" lon="8.798864897155312"><ele>205.0</ele><time>2026-03-28T12:50:30Z</time></trkpt><trkpt lat="44.75542204041105" lon="8.7989704932212"><ele>205.0</ele><time>2026-03-28T12:50:31Z</time></trkpt><trkpt lat="44.755354591002764" lon="8.799095430800229"><ele>205.0</ele><time>2026-03-28T12:50:32Z</time></trkpt><trkpt lat="44.755275474940376" lon="8.7992381951186"><ele>205.0</ele><time>2026-03-28T12:50:33Z</time></trkpt><trkpt lat="44.75520129538096" lon="8.79937074881771"><ele>206.5</ele><time>2026-03-28T12:50:34Z</time></trkpt><trkpt lat="44.755115614562115" lon="8.7995099254749"><ele>208.0</ele><time>2026-03-28T12:50:35Z</time></trkpt><trkpt lat="44.75502287759525" lon="8.799661348267763"><ele>209.5</ele><time>2026-03-28T12:50:36Z</time></trkpt><trkpt lat="44.75492522899055" lon="8.799823034801522"><ele>211.0</ele><time>2026-03-28T12:50:37Z</time></trkpt><trkpt lat="44.75482476877152" lon="8.799992134989964"><ele>209.33333333333331</ele><time>2026-03-28T12:50:38Z</time></trkpt><trkpt lat="44.75472158106007" lon="8.800173382141118"><ele>207.66666666666669</ele><time>2026-03-28T12:50:38.998Z</time></trkpt><trkpt lat="44.754596280511734" lon="8.800381978946405"><ele>206.0</ele><time>2026-03-28T12:50:39.998Z</time></trkpt><trkpt lat="44.75444693359968" lon="8.800604668921325"><ele>208.5</ele><time>2026-03-28T12:50:40.998Z</time></trkpt><trkpt lat="44.75428645705928" lon="8.800873253120033"><ele>211.0</ele><time>2026-03-28T12:50:41.998Z</time></trkpt><trkpt lat="44.754115347628804" lon="8.801159634036155"><ele>211.0</ele><time>2026-03-28T12:50:42.998Z</time></trkpt><trkpt lat="44.75397046933884" lon="8.801423167007469"><ele>211.0</ele><time>2026-03-28T12:50:43.998Z</time></trkpt><trkpt lat="44.75382338280131" lon="8.801666522371525"><ele>210.66666666666666</ele><time>2026-03-28T12:50:44.998Z</time></trkpt><trkpt lat="44.753684427613194" lon="8.80188522574901"><ele>210.33333333333331</ele><time>2026-03-28T12:50:45.998Z</time></trkpt><trkpt lat="44.753552582877994" lon="8.802101291516781"><ele>210.0</ele><time>2026-03-28T12:50:46.998Z</time></trkpt><trkpt lat="44.75342043855016" lon="8.802319467086136"><ele>210.0</ele><time>2026-03-28T12:50:47.999Z</time></trkpt><trkpt lat="44.75328487896873" lon="8.802554408718034"><ele>210.0</ele><time>2026-03-28T12:50:48.999Z</time></trkpt><trkpt lat="44.753143977590426" lon="8.802800102719505"><ele>210.0</ele><time>2026-03-28T12:50:49.999Z</time></trkpt><trkpt lat="44.753000748626924" lon="8.803055591144767"><ele>210.0</ele><time>2026-03-28T12:50:50.999Z</time></trkpt><trkpt lat="44.75285309725018" lon="8.803325336042159"><ele>210.0</ele><time>2026-03-28T12:50:51.999Z</time></trkpt><trkpt lat="44.75269776697994" lon="8.803604019438612"><ele>210.0</ele><time>2026-03-28T12:50:52.999Z</time></trkpt><trkpt lat="44.75253847887735" lon="8.803870691790072"><ele>210.0</ele><time>2026-03-28T12:50:53.999Z</time></trkpt><trkpt lat="44.75236030933918" lon="8.804110491159992"><ele>210.0</ele><time>2026-03-28T12:50:54.999Z</time></trkpt><trkpt lat="44.75221645143233" lon="8.804379226409335"><ele>210.0</ele><time>2026-03-28T12:50:55.999Z</time></trkpt><trkpt lat="44.7520649551816" lon="8.804614682149733"><ele>210.0</ele><time>2026-03-28T12:50:56.999Z</time></trkpt><trkpt lat="44.75191786627237" lon="8.804850068839881"><ele>210.0</ele><time>2026-03-28T12:50:57.999Z</time></trkpt><trkpt lat="44.751780542536245" lon="8.80508054459059"><ele>210.0</ele><time>2026-03-28T12:50:58.999Z</time></trkpt><trkpt lat="44.75164018737147" lon="8.805318527433927"><ele>210.0</ele><time>2026-03-28T12:50:59.999Z</time></trkpt><trkpt lat="44.7515048793296" lon="8.805559321575581"><ele>210.0</ele><time>2026-03-28T12:51:00.999Z</time></trkpt><trkpt lat="44.75136404724894" lon="8.805796276949383"><ele>210.0</ele><time>2026-03-28T12:51:01.999Z</time></trkpt><trkpt lat="44.75122346623003" lon="8.806028862519971"><ele>210.0</ele><time>2026-03-28T12:51:02.999Z</time></trkpt><trkpt lat="44.75108582410496" lon="8.806261365458619"><ele>210.0</ele><time>2026-03-28T12:51:03.999Z</time></trkpt><trkpt lat="44.75094866700989" lon="8.806490777380823"><ele>210.0</ele><time>2026-03-28T12:51:04.999Z</time></trkpt><trkpt lat="44.75081719647239" lon="8.806715465558218"><ele>210.33333333333331</ele><time>2026-03-28T12:51:05.999Z</time></trkpt><trkpt lat="44.75069618696368" lon="8.806910779851991"><ele>210.66666666666666</ele><time>2026-03-28T12:51:06.999Z</time></trkpt><trkpt lat="44.75058839850885" lon="8.807087302235967"><ele>211.0</ele><time>2026-03-28T12:51:07.999Z</time></trkpt><trkpt lat="44.75049251104702" lon="8.807243304547093"><ele>211.0</ele><time>2026-03-28T12:51:08.999Z</time></trkpt><trkpt lat="44.750405461035236" lon="8.807392215202851"><ele>211.0</ele><time>2026-03-28T12:51:09.999Z</time></trkpt><trkpt lat="44.75032380031946" lon="8.807533474569091"><ele>211.0</ele><time>2026-03-28T12:51:10.999Z</time></trkpt><trkpt lat="44.75026945015679" lon="8.807652278388023"><ele>211.0</ele><time>2026-03-28T12:51:11.999Z</time></trkpt><trkpt lat="44.75022560442524" lon="8.807794505261514"><ele>211.60000000000002</ele><time>2026-03-28T12:51:12.999Z</time></trkpt><trkpt lat="44.750204468276436" lon="8.807893051538851"><ele>212.2</ele><time>2026-03-28T12:51:13.999Z</time></trkpt><trkpt lat="44.750185799090204" lon="8.808007935881239"><ele>212.79999999999998</ele><time>2026-03-28T12:51:14.999Z</time></trkpt><trkpt lat="44.75014046936516" lon="8.8081290031604"><ele>213.39999999999998</ele><time>2026-03-28T12:51:15.999Z</time></trkpt><trkpt lat="44.74999656266093" lon="8.808195082454722"><ele>214.0</ele><time>2026-03-28T12:51:17Z</time></trkpt><trkpt lat="44.74987824054828" lon="8.80844058548527"><ele>212.5</ele><time>2026-03-28T12:51:18Z</time></trkpt><trkpt lat="44.74963440181046" lon="8.808743606726775"><ele>211.0</ele><time>2026-03-28T12:51:19Z</time></trkpt><trkpt lat="44.74941929096556" lon="8.808983764713634"><ele>211.0</ele><time>2026-03-28T12:51:20Z</time></trkpt><trkpt lat="44.74922573169667" lon="8.809223988466053"><ele>211.0</ele><time>2026-03-28T12:51:21Z</time></trkpt><trkpt lat="44.749100950811446" lon="8.80946537247746"><ele>211.0</ele><time>2026-03-28T12:51:22Z</time></trkpt><trkpt lat="44.74894158564066" lon="8.809740844356373"><ele>211.0</ele><time>2026-03-28T12:51:23Z</time></trkpt><trkpt lat="44.74896625142919" lon="8.809846879001944"><ele>211.0</ele><time>2026-03-28T12:51:24Z</time></trkpt><trkpt lat="44.74883366655882" lon="8.810049331212502"><ele>211.0</ele><time>2026-03-28T12:51:25Z</time></trkpt><trkpt lat="44.74869781666342" lon="8.8102789503861"><ele>211.0</ele><time>2026-03-28T12:51:26Z</time></trkpt><trkpt lat="44.74855003797049" lon="8.810528732105638"><ele>211.0</ele><time>2026-03-28T12:51:27Z</time></trkpt><trkpt lat="44.74839528740112" lon="8.810790298204289"><ele>211.5</ele><time>2026-03-28T12:51:28Z</time></trkpt><trkpt lat="44.74824609623413" lon="8.811055257946425"><ele>212.0</ele><time>2026-03-28T12:51:29Z</time></trkpt><trkpt lat="44.748090642805046" lon="8.811309317208497"><ele>212.0</ele><time>2026-03-28T12:51:30Z</time></trkpt><trkpt lat="44.74793687862686" lon="8.811558474124528"><ele>212.0</ele><time>2026-03-28T12:51:31Z</time></trkpt><trkpt lat="44.74778935804198" lon="8.81179681538393"><ele>212.5</ele><time>2026-03-28T12:51:32Z</time></trkpt><trkpt lat="44.74764730874403" lon="8.812041470256094"><ele>213.0</ele><time>2026-03-28T12:51:33Z</time></trkpt><trkpt lat="44.74750267044684" lon="8.812286037945588"><ele>213.0</ele><time>2026-03-28T12:51:34Z</time></trkpt><trkpt lat="44.74735923543263" lon="8.812530897595016"><ele>213.0</ele><time>2026-03-28T12:51:35Z</time></trkpt><trkpt lat="44.74721605102317" lon="8.812773280344937"><ele>213.0</ele><time>2026-03-28T12:51:36Z</time></trkpt><trkpt lat="44.74707338499368" lon="8.813020586003462"><ele>213.5</ele><time>2026-03-28T12:51:37Z</time></trkpt><trkpt lat="44.74692962961838" lon="8.813265652992706"><ele>214.0</ele><time>2026-03-28T12:51:38Z</time></trkpt><trkpt lat="44.74678751545819" lon="8.813510062407804"><ele>214.0</ele><time>2026-03-28T12:51:39Z</time></trkpt><trkpt lat="44.74664608346535" lon="8.813749947669454"><ele>214.0</ele><time>2026-03-28T12:51:40Z</time></trkpt><trkpt lat="44.74650722349808" lon="8.813991745298132"><ele>214.0</ele><time>2026-03-28T12:51:41Z</time></trkpt><trkpt lat="44.74636631865364" lon="8.814224038738056"><ele>214.33333333333331</ele><time>2026-03-28T12:51:42Z</time></trkpt><trkpt lat="44.74622568415811" lon="8.814456013723408"><ele>214.66666666666669</ele><time>2026-03-28T12:51:43Z</time></trkpt><trkpt lat="44.74609868613734" lon="8.814675691972665"><ele>215.0</ele><time>2026-03-28T12:51:44Z</time></trkpt><trkpt lat="44.745977035751324" lon="8.814879673100346"><ele>215.66666666666669</ele><time>2026-03-28T12:51:45Z</time></trkpt><trkpt lat="44.74586364683401" lon="8.815082369958073"><ele>216.33333333333331</ele><time>2026-03-28T12:51:46Z</time></trkpt><trkpt lat="44.745703557896356" lon="8.815316613098123"><ele>217.0</ele><time>2026-03-28T12:51:47Z</time></trkpt><trkpt lat="44.745553659780434" lon="8.815569625024057"><ele>218.0</ele><time>2026-03-28T12:51:48Z</time></trkpt><trkpt lat="44.74542204367267" lon="8.815791140283524"><ele>219.0</ele><time>2026-03-28T12:51:49Z</time></trkpt><trkpt lat="44.745299378133645" lon="8.815997001843465"><ele>220.0</ele><time>2026-03-28T12:51:50Z</time></trkpt><trkpt lat="44.7451705347519" lon="8.816213371397373"><ele>220.33333333333331</ele><time>2026-03-28T12:51:51Z</time></trkpt><trkpt lat="44.745039481295954" lon="8.816433531396251"><ele>220.66666666666669</ele><time>2026-03-28T12:51:52Z</time></trkpt><trkpt lat="44.744915333730454" lon="8.816642090021732"><ele>221.0</ele><time>2026-03-28T12:51:53Z</time></trkpt><trkpt lat="44.74479048375452" lon="8.816851828628186"><ele>220.0</ele><time>2026-03-28T12:51:54Z</time></trkpt><trkpt lat="44.74466095211075" lon="8.817069432101336"><ele>219.0</ele><time>2026-03-28T12:51:55Z</time></trkpt><trkpt lat="44.74451925527424" lon="8.817307273964982"><ele>218.0</ele><time>2026-03-28T12:51:56Z</time></trkpt><trkpt lat="44.744373178051426" lon="8.817552361693958"><ele>218.66666666666669</ele><time>2026-03-28T12:51:57Z</time></trkpt><trkpt lat="44.744243331603066" lon="8.817803152105297"><ele>219.33333333333331</ele><time>2026-03-28T12:51:58Z</time></trkpt><trkpt lat="44.7441024417543" lon="8.818027686786285"><ele>220.0</ele><time>2026-03-28T12:51:59Z</time></trkpt><trkpt lat="44.74396195479271" lon="8.818258682947238"><ele>220.33333333333331</ele><time>2026-03-28T12:52:00Z</time></trkpt><trkpt lat="44.7438203790273" lon="8.818494335393003"><ele>220.66666666666669</ele><time>2026-03-28T12:52:01Z</time></trkpt><trkpt lat="44.74368004841649" lon="8.818735397463904"><ele>221.0</ele><time>2026-03-28T12:52:02Z</time></trkpt><trkpt lat="44.74354397758182" lon="8.818969297843626"><ele>221.0</ele><time>2026-03-28T12:52:03Z</time></trkpt><trkpt lat="44.74340652925339" lon="8.819209270089027"><ele>221.0</ele><time>2026-03-28T12:52:04Z</time></trkpt><trkpt lat="44.74325419359789" lon="8.819432492557182"><ele>221.0</ele><time>2026-03-28T12:52:05Z</time></trkpt><trkpt lat="44.74311517937115" lon="8.819666027200181"><ele>221.33333333333334</ele><time>2026-03-28T12:52:06Z</time></trkpt><trkpt lat="44.74298612422168" lon="8.81991149608353"><ele>221.66666666666669</ele><time>2026-03-28T12:52:07Z</time></trkpt><trkpt lat="44.74285041583673" lon="8.820134840250423"><ele>222.0</ele><time>2026-03-28T12:52:08Z</time></trkpt><trkpt lat="44.74272194586748" lon="8.820358162572417"><ele>222.66666666666669</ele><time>2026-03-28T12:52:09Z</time></trkpt><trkpt lat="44.74259120541897" lon="8.820578988127904"><ele>223.33333333333334</ele><time>2026-03-28T12:52:10Z</time></trkpt><trkpt lat="44.74244585349798" lon="8.820792003850455"><ele>224.0</ele><time>2026-03-28T12:52:11Z</time></trkpt><trkpt lat="44.74231561396398" lon="8.821011261828076"><ele>224.0</ele><time>2026-03-28T12:52:12Z</time></trkpt><trkpt lat="44.742193480235784" lon="8.821253014961831"><ele>224.0</ele><time>2026-03-28T12:52:13Z</time></trkpt><trkpt lat="44.742054820655376" lon="8.821450306837319"><ele>224.0</ele><time>2026-03-28T12:52:14Z</time></trkpt><trkpt lat="44.74192960342655" lon="8.821661109780365"><ele>224.33333333333334</ele><time>2026-03-28T12:52:15Z</time></trkpt><trkpt lat="44.74182678263733" lon="8.821869201659752"><ele>224.66666666666669</ele><time>2026-03-28T12:52:16Z</time></trkpt><trkpt lat="44.741697112392444" lon="8.822053163990383"><ele>225.0</ele><time>2026-03-28T12:52:17Z</time></trkpt><trkpt lat="44.74157566679233" lon="8.822257558738139"><ele>225.0</ele><time>2026-03-28T12:52:18Z</time></trkpt><trkpt lat="44.74144736203536" lon="8.82247349754261"><ele>225.0</ele><time>2026-03-28T12:52:19Z</time></trkpt><trkpt lat="44.741309663001836" lon="8.822705524062028"><ele>225.0</ele><time>2026-03-28T12:52:20Z</time></trkpt><trkpt lat="44.74118175088029" lon="8.822956975547289"><ele>225.33333333333331</ele><time>2026-03-28T12:52:21Z</time></trkpt><trkpt lat="44.741040059212025" lon="8.823179855548146"><ele>225.66666666666666</ele><time>2026-03-28T12:52:22Z</time></trkpt><trkpt lat="44.740909438274386" lon="8.823391388463005"><ele>226.0</ele><time>2026-03-28T12:52:23Z</time></trkpt><trkpt lat="44.740793655788615" lon="8.823584398861602"><ele>226.0</ele><time>2026-03-28T12:52:24Z</time></trkpt><trkpt lat="44.74069028531406" lon="8.823756281977042"><ele>226.0</ele><time>2026-03-28T12:52:25Z</time></trkpt><trkpt lat="44.740591395216256" lon="8.823923562799228"><ele>226.0</ele><time>2026-03-28T12:52:26Z</time></trkpt><trkpt lat="44.74048873118316" lon="8.824099026191154"><ele>226.0</ele><time>2026-03-28T12:52:27Z</time></trkpt><trkpt lat="44.74037639346779" lon="8.824290353806056"><ele>226.0</ele><time>2026-03-28T12:52:28Z</time></trkpt><trkpt lat="44.74026440497636" lon="8.824479689110293"><ele>226.0</ele><time>2026-03-28T12:52:29Z</time></trkpt><trkpt lat="44.74015545268998" lon="8.824663741840201"><ele>227.0</ele><time>2026-03-28T12:52:30Z</time></trkpt><trkpt lat="44.74005534793105" lon="8.824838463595714"><ele>228.0</ele><time>2026-03-28T12:52:31Z</time></trkpt><trkpt lat="44.73995357518585" lon="8.825013092362624"><ele>229.0</ele><time>2026-03-28T12:52:32Z</time></trkpt><trkpt lat="44.73983645822888" lon="8.825181751080363"><ele>229.0</ele><time>2026-03-28T12:52:33Z</time></trkpt><trkpt lat="44.739723316023934" lon="8.825371659515293"><ele>229.0</ele><time>2026-03-28T12:52:34Z</time></trkpt><trkpt lat="44.73960732746358" lon="8.825566345538865"><ele>229.0</ele><time>2026-03-28T12:52:35Z</time></trkpt><trkpt lat="44.73948973798195" lon="8.825763729424379"><ele>229.33333333333331</ele><time>2026-03-28T12:52:36Z</time></trkpt><trkpt lat="44.73937208248971" lon="8.825961225994252"><ele>229.66666666666669</ele><time>2026-03-28T12:52:37Z</time></trkpt><trkpt lat="44.739263982612016" lon="8.826174400231016"><ele>230.0</ele><time>2026-03-28T12:52:38Z</time></trkpt><trkpt lat="44.73914395996349" lon="8.826356600566905"><ele>230.0</ele><time>2026-03-28T12:52:39Z</time></trkpt><trkpt lat="44.739030842253506" lon="8.826532749877359"><ele>230.0</ele><time>2026-03-28T12:52:40Z</time></trkpt><trkpt lat="44.738916673430566" lon="8.826722875760186"><ele>230.0</ele><time>2026-03-28T12:52:41Z</time></trkpt><trkpt lat="44.738803695734525" lon="8.8269165959811"><ele>229.66666666666669</ele><time>2026-03-28T12:52:42Z</time></trkpt><trkpt lat="44.738690681635525" lon="8.827111120344853"><ele>229.33333333333331</ele><time>2026-03-28T12:52:43Z</time></trkpt><trkpt lat="44.738588499656" lon="8.827288273101445"><ele>229.0</ele><time>2026-03-28T12:52:44Z</time></trkpt><trkpt lat="44.738487659120985" lon="8.827455746578027"><ele>229.5</ele><time>2026-03-28T12:52:44.999Z</time></trkpt><trkpt lat="44.73838519612217" lon="8.827630620588598"><ele>230.0</ele><time>2026-03-28T12:52:45.999Z</time></trkpt><trkpt lat="44.73829211342029" lon="8.827789307443192"><ele>230.5</ele><time>2026-03-28T12:52:46.999Z</time></trkpt><trkpt lat="44.738201989212854" lon="8.827940331851755"><ele>231.0</ele><time>2026-03-28T12:52:47.999Z</time></trkpt><trkpt lat="44.73811408742113" lon="8.828076967716399"><ele>231.0</ele><time>2026-03-28T12:52:48.999Z</time></trkpt><trkpt lat="44.73802595436677" lon="8.82819437383875"><ele>231.0</ele><time>2026-03-28T12:52:49.999Z</time></trkpt><trkpt lat="44.737929616685" lon="8.828279303678682"><ele>231.0</ele><time>2026-03-28T12:52:50.999Z</time></trkpt><trkpt lat="44.737852032584286" lon="8.828380891969617"><ele>231.0</ele><time>2026-03-28T12:52:51.999Z</time></trkpt><trkpt lat="44.7376994208047" lon="8.828350474408985"><ele>231.20000000000002</ele><time>2026-03-28T12:52:52.999Z</time></trkpt><trkpt lat="44.737614246605006" lon="8.828404513920528"><ele>231.40000000000003</ele><time>2026-03-28T12:52:53.999Z</time></trkpt><trkpt lat="44.73753995815572" lon="8.828487847340549"><ele>231.6</ele><time>2026-03-28T12:52:54.999Z</time></trkpt><trkpt lat="44.73751535731663" lon="8.828666020346509"><ele>231.8</ele><time>2026-03-28T12:52:55.999Z</time></trkpt><trkpt lat="44.737501177207115" lon="8.828843251949904"><ele>232.0</ele><time>2026-03-28T12:52:56.999Z</time></trkpt><trkpt lat="44.737475238697016" lon="8.829034151174248"><ele>232.0</ele><time>2026-03-28T12:52:57.999Z</time></trkpt><trkpt lat="44.73740401764205" lon="8.82922561984157"><ele>232.0</ele><time>2026-03-28T12:52:58.999Z</time></trkpt><trkpt lat="44.73728978745705" lon="8.829429842172638"><ele>232.0</ele><time>2026-03-28T12:52:59.999Z</time></trkpt><trkpt lat="44.73714441493956" lon="8.82966705354144"><ele>232.5</ele><time>2026-03-28T12:53:00.999Z</time></trkpt><trkpt lat="44.736984223929106" lon="8.829918295520839"><ele>233.0</ele><time>2026-03-28T12:53:01.999Z</time></trkpt><trkpt lat="44.736809712450295" lon="8.830181505468994"><ele>233.5</ele><time>2026-03-28T12:53:02.999Z</time></trkpt><trkpt lat="44.736636082209394" lon="8.83044076286915"><ele>234.0</ele><time>2026-03-28T12:53:03.999Z</time></trkpt><trkpt lat="44.7364761526268" lon="8.830701916531817"><ele>234.0</ele><time>2026-03-28T12:53:04.999Z</time></trkpt><trkpt lat="44.73631993570943" lon="8.830959863266704"><ele>234.0</ele><time>2026-03-28T12:53:05.999Z</time></trkpt><trkpt lat="44.736169068907046" lon="8.83122112366147"><ele>233.66666666666669</ele><time>2026-03-28T12:53:06.999Z</time></trkpt><trkpt lat="44.73602530563579" lon="8.83146852194253"><ele>233.33333333333334</ele><time>2026-03-28T12:53:07.999Z</time></trkpt><trkpt lat="44.73588415412074" lon="8.83170411385221"><ele>233.0</ele><time>2026-03-28T12:53:08.999Z</time></trkpt><trkpt lat="44.73574658396323" lon="8.831932383981833"><ele>232.66666666666669</ele><time>2026-03-28T12:53:09.999Z</time></trkpt><trkpt lat="44.73560736927412" lon="8.832163155534763"><ele>232.33333333333331</ele><time>2026-03-28T12:53:10.999Z</time></trkpt><trkpt lat="44.73546902297052" lon="8.832398998977661"><ele>232.0</ele><time>2026-03-28T12:53:12Z</time></trkpt><trkpt lat="44.73533739252956" lon="8.832625232720579"><ele>233.0</ele><time>2026-03-28T12:53:13Z</time></trkpt><trkpt lat="44.73521568466703" lon="8.83282984147657"><ele>234.0</ele><time>2026-03-28T12:53:14Z</time></trkpt><trkpt lat="44.73510136914385" lon="8.83302613854745"><ele>235.0</ele><time>2026-03-28T12:53:15Z</time></trkpt><trkpt lat="44.73499570055828" lon="8.833205547196643"><ele>235.0</ele><time>2026-03-28T12:53:16Z</time></trkpt><trkpt lat="44.73489782091951" lon="8.833368193573031"><ele>235.0</ele><time>2026-03-28T12:53:17Z</time></trkpt><trkpt lat="44.73480821162673" lon="8.833516777037078"><ele>235.0</ele><time>2026-03-28T12:53:18Z</time></trkpt><trkpt lat="44.73472252222966" lon="8.833642693609779"><ele>235.0</ele><time>2026-03-28T12:53:19Z</time></trkpt><trkpt lat="44.73462528004317" lon="8.833737845650298"><ele>234.75</ele><time>2026-03-28T12:53:20Z</time></trkpt><trkpt lat="44.73451218178005" lon="8.83379742772615"><ele>234.5</ele><time>2026-03-28T12:53:21Z</time></trkpt><trkpt lat="44.73438720621678" lon="8.83386734949232"><ele>234.25</ele><time>2026-03-28T12:53:22Z</time></trkpt><trkpt lat="44.73430484575806" lon="8.833993138699276"><ele>234.0</ele><time>2026-03-28T12:53:23Z</time></trkpt><trkpt lat="44.734267605090444" lon="8.834159873602216"><ele>233.33333333333331</ele><time>2026-03-28T12:53:24Z</time></trkpt><trkpt lat="44.734264916027406" lon="8.834364750724056"><ele>232.66666666666666</ele><time>2026-03-28T12:53:25Z</time></trkpt><trkpt lat="44.7341823197495" lon="8.834581907202397"><ele>232.0</ele><time>2026-03-28T12:53:26Z</time></trkpt><trkpt lat="44.734078373536754" lon="8.834804161341443"><ele>232.0</ele><time>2026-03-28T12:53:27Z</time></trkpt><trkpt lat="44.73393610565282" lon="8.835024331284558"><ele>232.0</ele><time>2026-03-28T12:53:28Z</time></trkpt><trkpt lat="44.733792669468116" lon="8.835238783587856"><ele>232.0</ele><time>2026-03-28T12:53:29Z</time></trkpt><trkpt lat="44.73364596852747" lon="8.83547531529039"><ele>231.0</ele><time>2026-03-28T12:53:30Z</time></trkpt><trkpt lat="44.73349617424376" lon="8.835741660326203"><ele>230.0</ele><time>2026-03-28T12:53:31Z</time></trkpt><trkpt lat="44.73336015754413" lon="8.835969991007468"><ele>229.33333333333334</ele><time>2026-03-28T12:53:32Z</time></trkpt><trkpt lat="44.73323272629136" lon="8.836188812963044"><ele>228.66666666666669</ele><time>2026-03-28T12:53:33Z</time></trkpt><trkpt lat="44.73311214170501" lon="8.836391332182334"><ele>228.0</ele><time>2026-03-28T12:53:34Z</time></trkpt><trkpt lat="44.73300475665057" lon="8.836572506117985"><ele>228.0</ele><time>2026-03-28T12:53:35Z</time></trkpt><trkpt lat="44.732910711135595" lon="8.836732351440892"><ele>228.0</ele><time>2026-03-28T12:53:36Z</time></trkpt><trkpt lat="44.732821832217454" lon="8.836875684032417"><ele>228.0</ele><time>2026-03-28T12:53:37Z</time></trkpt><trkpt lat="44.73274575006026" lon="8.837000291369547"><ele>228.0</ele><time>2026-03-28T12:53:38Z</time></trkpt><trkpt lat="44.73268113652136" lon="8.837091074491223"><ele>227.8</ele><time>2026-03-28T12:53:39Z</time></trkpt><trkpt lat="44.73261289515914" lon="8.83715233409098"><ele>227.60000000000002</ele><time>2026-03-28T12:53:40Z</time></trkpt><trkpt lat="44.73252824999644" lon="8.837186153756841"><ele>227.39999999999998</ele><time>2026-03-28T12:53:41Z</time></trkpt><trkpt lat="44.732417174493875" lon="8.837218674913975"><ele>227.2</ele><time>2026-03-28T12:53:42Z</time></trkpt><trkpt lat="44.73230350050935" lon="8.83727321760901"><ele>227.0</ele><time>2026-03-28T12:53:43Z</time></trkpt><trkpt lat="44.73224644853643" lon="8.837421324928746"><ele>227.0</ele><time>2026-03-28T12:53:44Z</time></trkpt><trkpt lat="44.732229174157894" lon="8.837572388467136"><ele>227.0</ele><time>2026-03-28T12:53:45Z</time></trkpt><trkpt lat="44.732234050292924" lon="8.837744760758103"><ele>227.0</ele><time>2026-03-28T12:53:46Z</time></trkpt><trkpt lat="44.73221517689533" lon="8.837907414070564"><ele>227.0</ele><time>2026-03-28T12:53:47Z</time></trkpt><trkpt lat="44.73214061290447" lon="8.838072081972053"><ele>227.66666666666669</ele><time>2026-03-28T12:53:48Z</time></trkpt><trkpt lat="44.732012309174436" lon="8.838220698326648"><ele>228.33333333333331</ele><time>2026-03-28T12:53:49Z</time></trkpt><trkpt lat="44.731897270513024" lon="8.838417173012974"><ele>229.0</ele><time>2026-03-28T12:53:50Z</time></trkpt><trkpt lat="44.73176190869912" lon="8.838613867407377"><ele>229.33333333333331</ele><time>2026-03-28T12:53:51Z</time></trkpt><trkpt lat="44.73163980029318" lon="8.838815331247527"><ele>229.66666666666669</ele><time>2026-03-28T12:53:52Z</time></trkpt><trkpt lat="44.731525215252475" lon="8.839040484130306"><ele>230.0</ele><time>2026-03-28T12:53:53Z</time></trkpt><trkpt lat="44.7314315560907" lon="8.839311478214766"><ele>230.0</ele><time>2026-03-28T12:53:54Z</time></trkpt><trkpt lat="44.731371365491285" lon="8.839607035342032"><ele>230.0</ele><time>2026-03-28T12:53:55Z</time></trkpt><trkpt lat="44.731354117247314" lon="8.8399003987455"><ele>230.0</ele><time>2026-03-28T12:53:56Z</time></trkpt><trkpt lat="44.73135747707641" lon="8.840166715026244"><ele>230.0</ele><time>2026-03-28T12:53:57Z</time></trkpt><trkpt lat="44.73136677699385" lon="8.840392465333412"><ele>230.0</ele><time>2026-03-28T12:53:58Z</time></trkpt><trkpt lat="44.73137025103021" lon="8.840576892986633"><ele>230.0</ele><time>2026-03-28T12:53:59Z</time></trkpt><trkpt lat="44.73137663165393" lon="8.840734272399981"><ele>230.0</ele><time>2026-03-28T12:54:00Z</time></trkpt><trkpt lat="44.73137470706233" lon="8.840880068942043"><ele>230.8</ele><time>2026-03-28T12:54:01Z</time></trkpt><trkpt lat="44.7313406732463" lon="8.84101938777417"><ele>231.6</ele><time>2026-03-28T12:54:02Z</time></trkpt><trkpt lat="44.73127478603783" lon="8.84114784602823"><ele>232.39999999999998</ele><time>2026-03-28T12:54:03Z</time></trkpt><trkpt lat="44.73120570180202" lon="8.841277196045553"><ele>233.2</ele><time>2026-03-28T12:54:04Z</time></trkpt><trkpt lat="44.73118838110193" lon="8.841422607895305"><ele>234.0</ele><time>2026-03-28T12:54:05Z</time></trkpt><trkpt lat="44.73121572525838" lon="8.841555546880993"><ele>234.0</ele><time>2026-03-28T12:54:06Z</time></trkpt><trkpt lat="44.73127601957161" lon="8.841678227908433"><ele>234.0</ele><time>2026-03-28T12:54:07Z</time></trkpt><trkpt lat="44.73136379576604" lon="8.841812106792274"><ele>234.0</ele><time>2026-03-28T12:54:08Z</time></trkpt><trkpt lat="44.7314174905823" lon="8.84200709710339"><ele>234.0</ele><time>2026-03-28T12:54:09Z</time></trkpt><trkpt lat="44.731438046583676" lon="8.842253831692046"><ele>234.33333333333331</ele><time>2026-03-28T12:54:10Z</time></trkpt><trkpt lat="44.73144123662589" lon="8.842529534116487"><ele>234.66666666666666</ele><time>2026-03-28T12:54:11Z</time></trkpt><trkpt lat="44.73144404285251" lon="8.842834851799514"><ele>235.0</ele><time>2026-03-28T12:54:12.001Z</time></trkpt><trkpt lat="44.73145769389352" lon="8.843156486035618"><ele>234.66666666666666</ele><time>2026-03-28T12:54:13.001Z</time></trkpt><trkpt lat="44.7314706878847" lon="8.843466750788487"><ele>234.33333333333331</ele><time>2026-03-28T12:54:14.001Z</time></trkpt><trkpt lat="44.731479936291585" lon="8.843765629080602"><ele>234.0</ele><time>2026-03-28T12:54:15.001Z</time></trkpt><trkpt lat="44.73148926482247" lon="8.844070485211432"><ele>232.66666666666669</ele><time>2026-03-28T12:54:16.001Z</time></trkpt><trkpt lat="44.73150272050864" lon="8.844354684652195"><ele>231.33333333333334</ele><time>2026-03-28T12:54:17.001Z</time></trkpt><trkpt lat="44.731513307788255" lon="8.844630509770154"><ele>230.0</ele><time>2026-03-28T12:54:18.001Z</time></trkpt><trkpt lat="44.7315142184192" lon="8.844905442847145"><ele>227.66666666666669</ele><time>2026-03-28T12:54:19.001Z</time></trkpt><trkpt lat="44.73149042394673" lon="8.845162330207888"><ele>225.33333333333331</ele><time>2026-03-28T12:54:20.001Z</time></trkpt><trkpt lat="44.73143856440824" lon="8.845418493880043"><ele>223.0</ele><time>2026-03-28T12:54:21.001Z</time></trkpt><trkpt lat="44.73136036142077" lon="8.845672349790942"><ele>223.0</ele><time>2026-03-28T12:54:22.001Z</time></trkpt><trkpt lat="44.73128026373925" lon="8.845945332195898"><ele>223.0</ele><time>2026-03-28T12:54:23.001Z</time></trkpt><trkpt lat="44.73120663408695" lon="8.846222863023025"><ele>223.0</ele><time>2026-03-28T12:54:24.001Z</time></trkpt><trkpt lat="44.73113653388541" lon="8.846493067513938"><ele>223.66666666666666</ele><time>2026-03-28T12:54:25.001Z</time></trkpt><trkpt lat="44.73106467054771" lon="8.84676317232198"><ele>224.33333333333331</ele><time>2026-03-28T12:54:26.001Z</time></trkpt><trkpt lat="44.73099136053217" lon="8.847036868194781"><ele>225.0</ele><time>2026-03-28T12:54:27.001Z</time></trkpt><trkpt lat="44.73091886557946" lon="8.847304949122778"><ele>225.0</ele><time>2026-03-28T12:54:28.001Z</time></trkpt><trkpt lat="44.73084495580197" lon="8.847574426430326"><ele>225.0</ele><time>2026-03-28T12:54:29.001Z</time></trkpt><trkpt lat="44.73077220328011" lon="8.847836217761037"><ele>225.0</ele><time>2026-03-28T12:54:30.001Z</time></trkpt><trkpt lat="44.73069970822748" lon="8.848086258973995"><ele>223.0</ele><time>2026-03-28T12:54:31.001Z</time></trkpt><trkpt lat="44.73062670213453" lon="8.848340123117703"><ele>221.0</ele><time>2026-03-28T12:54:32.001Z</time></trkpt><trkpt lat="44.73055454791144" lon="8.848591215641543"><ele>219.0</ele><time>2026-03-28T12:54:33.001Z</time></trkpt><trkpt lat="44.73047446421831" lon="8.848842836440477"><ele>218.66666666666669</ele><time>2026-03-28T12:54:34.001Z</time></trkpt><trkpt lat="44.73039509221948" lon="8.849097348494178"><ele>218.33333333333334</ele><time>2026-03-28T12:54:35.001Z</time></trkpt><trkpt lat="44.73033019659297" lon="8.849331758463583"><ele>218.0</ele><time>2026-03-28T12:54:36.001Z</time></trkpt><trkpt lat="44.73027071998038" lon="8.849554729128245"><ele>217.75</ele><time>2026-03-28T12:54:37.001Z</time></trkpt><trkpt lat="44.73021372689162" lon="8.849766384514032"><ele>217.5</ele><time>2026-03-28T12:54:38.001Z</time></trkpt><trkpt lat="44.73015921868222" lon="8.849958474739335"><ele>217.25</ele><time>2026-03-28T12:54:39.001Z</time></trkpt><trkpt lat="44.73010810191154" lon="8.850133771729807"><ele>217.0</ele><time>2026-03-28T12:54:40.001Z</time></trkpt><trkpt lat="44.730057026606254" lon="8.850296675427915"><ele>217.0</ele><time>2026-03-28T12:54:41.001Z</time></trkpt><trkpt lat="44.73000447814514" lon="8.85044887339462"><ele>217.0</ele><time>2026-03-28T12:54:42.001Z</time></trkpt><trkpt lat="44.729947521407496" lon="8.85059136282494"><ele>217.0</ele><time>2026-03-28T12:54:43.001Z</time></trkpt><trkpt lat="44.72987662616996" lon="8.850729090586404"><ele>217.0</ele><time>2026-03-28T12:54:44.001Z</time></trkpt><trkpt lat="44.72978723306583" lon="8.850870515635842"><ele>216.75</ele><time>2026-03-28T12:54:45.001Z</time></trkpt><trkpt lat="44.7296916211717" lon="8.850986502628562"><ele>216.5</ele><time>2026-03-28T12:54:46.001Z</time></trkpt><trkpt lat="44.72958462191325" lon="8.851077064961807"><ele>216.25</ele><time>2026-03-28T12:54:47.001Z</time></trkpt><trkpt lat="44.729470222535554" lon="8.851211052316213"><ele>216.0</ele><time>2026-03-28T12:54:48.001Z</time></trkpt><trkpt lat="44.7294028194313" lon="8.851394696217758"><ele>215.66666666666669</ele><time>2026-03-28T12:54:49.001Z</time></trkpt><trkpt lat="44.72933764719454" lon="8.851620061438132"><ele>215.33333333333334</ele><time>2026-03-28T12:54:50.001Z</time></trkpt><trkpt lat="44.729273945323776" lon="8.851815798546449"><ele>215.0</ele><time>2026-03-28T12:54:50.999Z</time></trkpt><trkpt lat="44.72922077160689" lon="8.851986083599352"><ele>215.0</ele><time>2026-03-28T12:54:51.999Z</time></trkpt><trkpt lat="44.72916380330263" lon="8.852134858052255"><ele>215.0</ele><time>2026-03-28T12:54:52.999Z</time></trkpt><trkpt lat="44.72907805908093" lon="8.852249397272185"><ele>215.0</ele><time>2026-03-28T12:54:53.999Z</time></trkpt><trkpt lat="44.72897552228841" lon="8.852360583826002"><ele>215.0</ele><time>2026-03-28T12:54:54.999Z</time></trkpt><trkpt lat="44.72888054712718" lon="8.852487382030127"><ele>215.0</ele><time>2026-03-28T12:54:55.999Z</time></trkpt><trkpt lat="44.72879628984313" lon="8.852627124457811"><ele>215.0</ele><time>2026-03-28T12:54:56.999Z</time></trkpt><trkpt lat="44.728714650416244" lon="8.852792758037683"><ele>215.0</ele><time>2026-03-28T12:54:57.999Z</time></trkpt><trkpt lat="44.72864637226626" lon="8.852976253059959"><ele>215.0</ele><time>2026-03-28T12:54:58.999Z</time></trkpt><trkpt lat="44.72859225022891" lon="8.85313988331955"><ele>215.2</ele><time>2026-03-28T12:54:59.999Z</time></trkpt><trkpt lat="44.72853775726849" lon="8.853284252485128"><ele>215.4</ele><time>2026-03-28T12:55:00.999Z</time></trkpt><trkpt lat="44.72848521101326" lon="8.853403686050266"><ele>215.60000000000002</ele><time>2026-03-28T12:55:01.999Z</time></trkpt><trkpt lat="44.72842676694193" lon="8.853513266126761"><ele>215.8</ele><time>2026-03-28T12:55:02.999Z</time></trkpt><trkpt lat="44.728362335337216" lon="8.85360390469483"><ele>216.0</ele><time>2026-03-28T12:55:03.999Z</time></trkpt><trkpt lat="44.72828558777603" lon="8.853677026168086"><ele>216.33333333333334</ele><time>2026-03-28T12:55:04.999Z</time></trkpt><trkpt lat="44.7282123734078" lon="8.853730368896633"><ele>216.66666666666669</ele><time>2026-03-28T12:55:06Z</time></trkpt><trkpt lat="44.728146681409115" lon="8.853772899150904"><ele>217.0</ele><time>2026-03-28T12:55:07Z</time></trkpt><trkpt lat="44.72806379157168" lon="8.853838907822231"><ele>217.33333333333334</ele><time>2026-03-28T12:55:09Z</time></trkpt><trkpt lat="44.7279884357792" lon="8.85388411014609"><ele>217.66666666666669</ele><time>2026-03-28T12:55:11Z</time></trkpt><trkpt lat="44.727930968764475" lon="8.853929935507535"><ele>218.0</ele><time>2026-03-28T12:55:12Z</time></trkpt><trkpt lat="44.72784029696615" lon="8.854002181206504"><ele>218.0</ele><time>2026-03-28T12:55:13Z</time></trkpt><trkpt lat="44.72773718500121" lon="8.854104806064809"><ele>218.0</ele><time>2026-03-28T12:55:14Z</time></trkpt><trkpt lat="44.7276095778193" lon="8.854198191766846"><ele>218.0</ele><time>2026-03-28T12:55:15Z</time></trkpt><trkpt lat="44.72748576776051" lon="8.854296047879707"><ele>218.0</ele><time>2026-03-28T12:55:16Z</time></trkpt><trkpt lat="44.72737350478379" lon="8.8543848214361"><ele>217.75</ele><time>2026-03-28T12:55:17Z</time></trkpt><trkpt lat="44.72726070418439" lon="8.854474553086597"><ele>217.5</ele><time>2026-03-28T12:55:18Z</time></trkpt><trkpt lat="44.727147780781486" lon="8.854564433587033"><ele>217.25</ele><time>2026-03-28T12:55:19Z</time></trkpt><trkpt lat="44.727037193154814" lon="8.854650328846846"><ele>217.0</ele><time>2026-03-28T12:55:20Z</time></trkpt><trkpt lat="44.72692552902685" lon="8.854735746018557"><ele>218.75</ele><time>2026-03-28T12:55:21Z</time></trkpt><trkpt lat="44.72681868692086" lon="8.85481733650175"><ele>220.5</ele><time>2026-03-28T12:55:22Z</time></trkpt><trkpt lat="44.72671217539248" lon="8.854899062907403"><ele>222.25</ele><time>2026-03-28T12:55:23Z</time></trkpt><trkpt lat="44.726609041786546" lon="8.854986863122162"><ele>224.0</ele><time>2026-03-28T12:55:24Z</time></trkpt><trkpt lat="44.7265001029701" lon="8.855076598287988"><ele>223.5</ele><time>2026-03-28T12:55:25Z</time></trkpt><trkpt lat="44.7263824515692" lon="8.855169061589296"><ele>223.0</ele><time>2026-03-28T12:55:26Z</time></trkpt><trkpt lat="44.7262785485428" lon="8.855255892279825"><ele>222.5</ele><time>2026-03-28T12:55:27Z</time></trkpt><trkpt lat="44.72617909780709" lon="8.855335796518467"><ele>222.0</ele><time>2026-03-28T12:55:28Z</time></trkpt><trkpt lat="44.726077729337966" lon="8.855418410665033"><ele>222.75</ele><time>2026-03-28T12:55:29Z</time></trkpt><trkpt lat="44.725971113546336" lon="8.855504521807346"><ele>223.5</ele><time>2026-03-28T12:55:30Z</time></trkpt><trkpt lat="44.72586209144376" lon="8.855592219669541"><ele>224.25</ele><time>2026-03-28T12:55:31Z</time></trkpt><trkpt lat="44.72576041098977" lon="8.855674350606122"><ele>225.0</ele><time>2026-03-28T12:55:32Z</time></trkpt><trkpt lat="44.72565987265909" lon="8.855755073893887"><ele>225.0</ele><time>2026-03-28T12:55:33Z</time></trkpt><trkpt lat="44.72556195295369" lon="8.855833892632052"><ele>225.0</ele><time>2026-03-28T12:55:34Z</time></trkpt><trkpt lat="44.72546945255386" lon="8.855908602666007"><ele>225.0</ele><time>2026-03-28T12:55:35Z</time></trkpt><trkpt lat="44.725390039522026" lon="8.855973961339881"><ele>225.0</ele><time>2026-03-28T12:55:36Z</time></trkpt><trkpt lat="44.72531164978517" lon="8.856012999922205"><ele>225.0</ele><time>2026-03-28T12:55:37Z</time></trkpt><trkpt lat="44.725245557881536" lon="8.856065351256955"><ele>224.5</ele><time>2026-03-28T12:55:38Z</time></trkpt><trkpt lat="44.72517954262618" lon="8.856117642231398"><ele>224.0</ele><time>2026-03-28T12:55:39Z</time></trkpt><trkpt lat="44.725123577238904" lon="8.856163022138292"><ele>223.5</ele><time>2026-03-28T12:55:40Z</time></trkpt><trkpt lat="44.72506107909604" lon="8.85621324417608"><ele>223.0</ele><time>2026-03-28T12:55:41Z</time></trkpt><trkpt lat="44.725006175415785" lon="8.856257363488185"><ele>222.5</ele><time>2026-03-28T12:55:42Z</time></trkpt><trkpt lat="44.72490857787091" lon="8.856335790634063"><ele>222.0</ele><time>2026-03-28T12:55:44Z</time></trkpt><trkpt lat="44.72483572406332" lon="8.85639391044911"><ele>222.0</ele><time>2026-03-28T12:55:46Z</time></trkpt><trkpt lat="44.72476288565328" lon="8.856451735091207"><ele>222.0</ele><time>2026-03-28T12:55:48Z</time></trkpt><trkpt lat="44.72470031474196" lon="8.856501408663984"><ele>222.0</ele><time>2026-03-28T12:55:50Z</time></trkpt><trkpt lat="44.72461252144861" lon="8.856571105411962"><ele>222.0</ele><time>2026-03-28T12:56:08.001Z</time></trkpt><trkpt lat="44.72455031686037" lon="8.85662037196623"><ele>222.0</ele><time>2026-03-28T12:56:09.001Z</time></trkpt><trkpt lat="44.724473007044814" lon="8.856681515028859"><ele>222.0</ele><time>2026-03-28T12:56:10.001Z</time></trkpt><trkpt lat="44.72439677795922" lon="8.856741802827552"><ele>222.0</ele><time>2026-03-28T12:56:11.001Z</time></trkpt><trkpt lat="44.72430937285903" lon="8.856826557133518"><ele>222.0</ele><time>2026-03-28T12:56:12.001Z</time></trkpt><trkpt lat="44.724211070988744" lon="8.856881469997433"><ele>222.0</ele><time>2026-03-28T12:56:13.001Z</time></trkpt><trkpt lat="44.724136061030116" lon="8.856945339217427"><ele>222.0</ele><time>2026-03-28T12:56:14.001Z</time></trkpt><trkpt lat="44.724070902832096" lon="8.857003343697635"><ele>222.0</ele><time>2026-03-28T12:56:15.001Z</time></trkpt><trkpt lat="44.724013079785976" lon="8.85705040502712"><ele>222.0</ele><time>2026-03-28T12:56:16.001Z</time></trkpt><trkpt lat="44.72391441945928" lon="8.85712474833832"><ele>222.0</ele><time>2026-03-28T12:56:18.001Z</time></trkpt><trkpt lat="44.72383569967973" lon="8.857188614331058"><ele>222.0</ele><time>2026-03-28T12:56:20.001Z</time></trkpt><trkpt lat="44.72371800873486" lon="8.85727178213108"><ele>222.0</ele><time>2026-03-28T12:56:22.001Z</time></trkpt><trkpt lat="44.723663094767446" lon="8.857321411030604"><ele>222.0</ele><time>2026-03-28T12:56:23.001Z</time></trkpt><trkpt lat="44.72359474770552" lon="8.857376890088991"><ele>222.0</ele><time>2026-03-28T12:56:24.001Z</time></trkpt><trkpt lat="44.723518337790104" lon="8.85743330051418"><ele>222.0</ele><time>2026-03-28T12:56:25.001Z</time></trkpt><trkpt lat="44.72344671801585" lon="8.85748702432136"><ele>222.0</ele><time>2026-03-28T12:56:26.001Z</time></trkpt><trkpt lat="44.72337816854782" lon="8.857526962601836"><ele>222.0</ele><time>2026-03-28T12:56:27.001Z</time></trkpt><trkpt lat="44.723311905133926" lon="8.857576963486915"><ele>222.0</ele><time>2026-03-28T12:56:28.001Z</time></trkpt><trkpt lat="44.72320930794687" lon="8.857674371001929"><ele>222.0</ele><time>2026-03-28T12:56:30.001Z</time></trkpt><trkpt lat="44.723110937944625" lon="8.857751257132495"><ele>222.0</ele><time>2026-03-28T12:56:32.001Z</time></trkpt><trkpt lat="44.72301151243332" lon="8.857819007778586"><ele>222.0</ele><time>2026-03-28T12:56:34.001Z</time></trkpt><trkpt lat="44.722915834360904" lon="8.857898002251918"><ele>222.0</ele><time>2026-03-28T12:56:36.001Z</time></trkpt><trkpt lat="44.72280708905273" lon="8.857987101932943"><ele>222.0</ele><time>2026-03-28T12:56:38.001Z</time></trkpt><trkpt lat="44.722735946070145" lon="8.858033297087365"><ele>222.0</ele><time>2026-03-28T12:56:39.001Z</time></trkpt><trkpt lat="44.722660855314686" lon="8.858082300015548"><ele>222.28571428571428</ele><time>2026-03-28T12:56:40.001Z</time></trkpt><trkpt lat="44.722583863339935" lon="8.858131788276847"><ele>222.57142857142858</ele><time>2026-03-28T12:56:41.001Z</time></trkpt><trkpt lat="44.72251491910352" lon="8.858176936114862"><ele>222.85714285714286</ele><time>2026-03-28T12:56:42.001Z</time></trkpt><trkpt lat="44.722454458066494" lon="8.858221970286666"><ele>223.14285714285714</ele><time>2026-03-28T12:56:43.001Z</time></trkpt><trkpt lat="44.72238947912879" lon="8.858269365669422"><ele>223.42857142857144</ele><time>2026-03-28T12:56:44.001Z</time></trkpt><trkpt lat="44.72232833736863" lon="8.858311354131603"><ele>223.71428571428572</ele><time>2026-03-28T12:56:45.001Z</time></trkpt><trkpt lat="44.72226362511298" lon="8.858344972739518"><ele>224.0</ele><time>2026-03-28T12:56:46.001Z</time></trkpt><trkpt lat="44.72214630065053" lon="8.858397314519717"><ele>224.0</ele><time>2026-03-28T12:56:48.001Z</time></trkpt><trkpt lat="44.72208281213309" lon="8.858426435134938"><ele>224.0</ele><time>2026-03-28T12:56:49.001Z</time></trkpt><trkpt lat="44.72201947627042" lon="8.858451417667293"><ele>224.0</ele><time>2026-03-28T12:56:50.001Z</time></trkpt><trkpt lat="44.72195981939668" lon="8.858480263099501"><ele>224.0</ele><time>2026-03-28T12:56:51.001Z</time></trkpt><trkpt lat="44.72189314963613" lon="8.858500270493575"><ele>224.0</ele><time>2026-03-28T12:56:52.001Z</time></trkpt><trkpt lat="44.72182384317245" lon="8.858539111482424"><ele>224.0</ele><time>2026-03-28T12:56:53.001Z</time></trkpt><trkpt lat="44.72172627012207" lon="8.85857186033031"><ele>224.0</ele><time>2026-03-28T12:56:54.001Z</time></trkpt><trkpt lat="44.721641620924956" lon="8.85859619425818"><ele>223.6</ele><time>2026-03-28T12:56:55.001Z</time></trkpt><trkpt lat="44.72156270646643" lon="8.858626353288688"><ele>223.2</ele><time>2026-03-28T12:56:56.001Z</time></trkpt><trkpt lat="44.72148171929269" lon="8.858653602811524"><ele>222.79999999999998</ele><time>2026-03-28T12:56:57Z</time></trkpt><trkpt lat="44.72140743187047" lon="8.858688457848293"><ele>222.39999999999998</ele><time>2026-03-28T12:56:58Z</time></trkpt><trkpt lat="44.721298204042014" lon="8.858743941875755"><ele>222.0</ele><time>2026-03-28T12:57:00Z</time></trkpt><trkpt lat="44.7213332517974" lon="8.858936808922083"><ele>222.0</ele><time>2026-03-28T12:57:02Z</time></trkpt><trkpt lat="44.721335569366865" lon="8.859060390919714"><ele>222.0</ele><time>2026-03-28T12:57:03Z</time></trkpt><trkpt lat="44.721370598438114" lon="8.859147139711418"><ele>222.0</ele><time>2026-03-28T12:57:04Z</time></trkpt><trkpt lat="44.72137813186519" lon="8.859287132699134"><ele>222.0</ele><time>2026-03-28T12:57:06Z</time></trkpt><trkpt lat="44.72127256085026" lon="8.859327398059582"><ele>222.0</ele><time>2026-03-28T12:57:08Z</time></trkpt><trkpt lat="44.72119030119595" lon="8.859333040142985"><ele>220.33333333333334</ele><time>2026-03-28T12:57:11Z</time></trkpt><trkpt lat="44.72107292138908" lon="8.859318514782046"><ele>218.66666666666669</ele><time>2026-03-28T12:58:09.001Z</time></trkpt><trkpt lat="44.721001123158345" lon="8.85933758567328"><ele>217.0</ele><time>2026-03-28T12:58:10.001Z</time></trkpt><trkpt lat="44.72093515877848" lon="8.859366993500938"><ele>215.33333333333334</ele><time>2026-03-28T12:58:11.001Z</time></trkpt><trkpt lat="44.72088074923775" lon="8.859427357270022"><ele>213.66666666666669</ele><time>2026-03-28T12:58:12.001Z</time></trkpt><trkpt lat="44.72081414648551" lon="8.8594911551511"><ele>212.0</ele><time>2026-03-28T12:58:14.001Z</time></trkpt><trkpt lat="44.72070058219294" lon="8.859535670028082"><ele>209.8</ele><time>2026-03-28T12:58:16.001Z</time></trkpt><trkpt lat="44.720612206611165" lon="8.859527888818384"><ele>207.6</ele><time>2026-03-28T12:58:17.001Z</time></trkpt><trkpt lat="44.720514731811996" lon="8.859538135935994"><ele>205.4</ele><time>2026-03-28T12:58:18.001Z</time></trkpt><trkpt lat="44.72041480403765" lon="8.859554294576645"><ele>203.20000000000002</ele><time>2026-03-28T12:58:19.001Z</time></trkpt><trkpt lat="44.720319150886205" lon="8.859589161201773"><ele>201.0</ele><time>2026-03-28T12:58:20.001Z</time></trkpt><trkpt lat="44.720235908514894" lon="8.859635435962463"><ele>201.75</ele><time>2026-03-28T12:58:21.001Z</time></trkpt><trkpt lat="44.72016222554088" lon="8.859712307633329"><ele>202.5</ele><time>2026-03-28T12:58:22.001Z</time></trkpt><trkpt lat="44.72011767336198" lon="8.859843947344492"><ele>203.25</ele><time>2026-03-28T12:58:23.001Z</time></trkpt><trkpt lat="44.72010073243118" lon="8.860017759086732"><ele>204.0</ele><time>2026-03-28T12:58:24.001Z</time></trkpt><trkpt lat="44.720111915235414" lon="8.860229471482265"><ele>204.66666666666669</ele><time>2026-03-28T12:58:25.001Z</time></trkpt><trkpt lat="44.72013335926277" lon="8.860463926095235"><ele>205.33333333333334</ele><time>2026-03-28T12:58:26.001Z</time></trkpt><trkpt lat="44.72015362690413" lon="8.860734422523697"><ele>206.0</ele><time>2026-03-28T12:58:27.001Z</time></trkpt><trkpt lat="44.72017680419247" lon="8.861007442438272"><ele>206.0</ele><time>2026-03-28T12:58:28.001Z</time></trkpt><trkpt lat="44.72019958233885" lon="8.8612908354097"><ele>206.0</ele><time>2026-03-28T12:58:29.001Z</time></trkpt><trkpt lat="44.72022237840272" lon="8.861549402493294"><ele>206.0</ele><time>2026-03-28T12:58:30.001Z</time></trkpt><trkpt lat="44.72024663168975" lon="8.861787577985764"><ele>208.33333333333334</ele><time>2026-03-28T12:58:31.001Z</time></trkpt><trkpt lat="44.72027200140341" lon="8.862031238435758"><ele>210.66666666666669</ele><time>2026-03-28T12:58:32.001Z</time></trkpt><trkpt lat="44.72026723071922" lon="8.862284969609826"><ele>213.0</ele><time>2026-03-28T12:58:33.001Z</time></trkpt><trkpt lat="44.72027553120928" lon="8.862546621819849"><ele>214.0</ele><time>2026-03-28T12:58:34.001Z</time></trkpt><trkpt lat="44.72030215450094" lon="8.862820766905903"><ele>215.0</ele><time>2026-03-28T12:58:35.001Z</time></trkpt><trkpt lat="44.720293531706844" lon="8.863058441206748"><ele>216.0</ele><time>2026-03-28T12:58:36.001Z</time></trkpt><trkpt lat="44.72029777230734" lon="8.863265782099461"><ele>217.0</ele><time>2026-03-28T12:58:37.001Z</time></trkpt><trkpt lat="44.72031331286176" lon="8.863450669674577"><ele>218.00000000000003</ele><time>2026-03-28T12:58:38.001Z</time></trkpt><trkpt lat="44.720302662846784" lon="8.863606850883263"><ele>219.00000000000003</ele><time>2026-03-28T12:58:39.001Z</time></trkpt><trkpt lat="44.72028267303556" lon="8.863730227435882"><ele>220.0</ele><time>2026-03-28T12:58:40.001Z</time></trkpt><trkpt lat="44.72025611873408" lon="8.86383210837707"><ele>221.0</ele><time>2026-03-28T12:58:41.001Z</time></trkpt><trkpt lat="44.72023708683644" lon="8.863927325059741"><ele>221.0</ele><time>2026-03-28T12:58:42.001Z</time></trkpt><trkpt lat="44.72023896993295" lon="8.864045424217492"><ele>221.00000000000003</ele><time>2026-03-28T12:58:44.001Z</time></trkpt><trkpt lat="44.72036309514715" lon="8.864077531419374"><ele>221.00000000000003</ele><time>2026-03-28T12:58:45.002Z</time></trkpt><trkpt lat="44.720470675310416" lon="8.864071391653106"><ele>221.0</ele><time>2026-03-28T12:58:46.002Z</time></trkpt><trkpt lat="44.720597883818556" lon="8.864095520128522"><ele>221.0</ele><time>2026-03-28T12:58:47.002Z</time></trkpt><trkpt lat="44.72072433533576" lon="8.864129601278925"><ele>221.0</ele><time>2026-03-28T12:58:48.002Z</time></trkpt><trkpt lat="44.720822383642435" lon="8.864241569320397"><ele>221.0</ele><time>2026-03-28T12:58:49.002Z</time></trkpt><trkpt lat="44.72094124876855" lon="8.864325584034662"><ele>221.0</ele><time>2026-03-28T12:58:50.002Z</time></trkpt><trkpt lat="44.721062268766275" lon="8.864424978421608"><ele>221.0</ele><time>2026-03-28T12:58:51.002Z</time></trkpt><trkpt lat="44.72119437231602" lon="8.864532201392596"><ele>221.0</ele><time>2026-03-28T12:58:52.002Z</time></trkpt><trkpt lat="44.72132896303611" lon="8.864642369675265"><ele>221.0</ele><time>2026-03-28T12:58:53.002Z</time></trkpt><trkpt lat="44.72146508234908" lon="8.864759318126833"><ele>221.0</ele><time>2026-03-28T12:58:54.002Z</time></trkpt><trkpt lat="44.721611913362175" lon="8.864884713300455"><ele>221.0</ele><time>2026-03-28T12:58:55.002Z</time></trkpt><trkpt lat="44.72174605516166" lon="8.86499970695589"><ele>221.0</ele><time>2026-03-28T12:58:56.002Z</time></trkpt><trkpt lat="44.72186321044729" lon="8.865101065954581"><ele>221.0</ele><time>2026-03-28T12:58:57.002Z</time></trkpt><trkpt lat="44.72198113933519" lon="8.865210288150383"><ele>221.0</ele><time>2026-03-28T12:58:58.002Z</time></trkpt><trkpt lat="44.72210465899066" lon="8.865343201083505"><ele>221.0</ele><time>2026-03-28T12:58:59.002Z</time></trkpt><trkpt lat="44.722216021887824" lon="8.865507188555686"><ele>221.0</ele><time>2026-03-28T12:59:00.002Z</time></trkpt><trkpt lat="44.72231372392757" lon="8.865667179447193"><ele>221.0</ele><time>2026-03-28T12:59:01.002Z</time></trkpt><trkpt lat="44.72237452583503" lon="8.865809577376334"><ele>221.0</ele><time>2026-03-28T12:59:02.002Z</time></trkpt><trkpt lat="44.72238714399198" lon="8.865939350284297"><ele>221.20000000000002</ele><time>2026-03-28T12:59:03.001Z</time></trkpt><trkpt lat="44.722372438021814" lon="8.8660701743228"><ele>221.40000000000003</ele><time>2026-03-28T12:59:04.001Z</time></trkpt><trkpt lat="44.72238939936404" lon="8.8662234894792"><ele>221.6</ele><time>2026-03-28T12:59:05.001Z</time></trkpt><trkpt lat="44.72244521294263" lon="8.866340961930613"><ele>221.8</ele><time>2026-03-28T12:59:06Z</time></trkpt><trkpt lat="44.72250760514215" lon="8.866444165499194"><ele>222.0</ele><time>2026-03-28T12:59:07Z</time></trkpt><trkpt lat="44.72256246742842" lon="8.866542713585565"><ele>222.0</ele><time>2026-03-28T12:59:08Z</time></trkpt><trkpt lat="44.72259362573046" lon="8.866637829088656"><ele>222.0</ele><time>2026-03-28T12:59:09Z</time></trkpt><trkpt lat="44.72263771660105" lon="8.866729246746958"><ele>222.0</ele><time>2026-03-28T12:59:11Z</time></trkpt><trkpt lat="44.72268828900955" lon="8.866815991720397"><ele>222.0</ele><time>2026-03-28T13:04:05.001Z</time></trkpt><trkpt lat="44.722772112747975" lon="8.866908476989261"><ele>222.0</ele><time>2026-03-28T13:04:07.001Z</time></trkpt><trkpt lat="44.72284160624794" lon="8.866979224946423"><ele>222.0</ele><time>2026-03-28T13:04:08.001Z</time></trkpt><trkpt lat="44.722920967735874" lon="8.867032928469902"><ele>222.2</ele><time>2026-03-28T13:04:09.001Z</time></trkpt><trkpt lat="44.72299687566945" lon="8.86707112985815"><ele>222.39999999999998</ele><time>2026-03-28T13:04:10.001Z</time></trkpt><trkpt lat="44.72308415645112" lon="8.867106261666592"><ele>222.60000000000002</ele><time>2026-03-28T13:04:11.001Z</time></trkpt><trkpt lat="44.72318742741982" lon="8.8671426367425"><ele>222.8</ele><time>2026-03-28T13:04:12.001Z</time></trkpt><trkpt lat="44.72330313087384" lon="8.867177894152173"><ele>223.0</ele><time>2026-03-28T13:04:13.001Z</time></trkpt><trkpt lat="44.72340813485808" lon="8.867212910297543"><ele>223.0</ele><time>2026-03-28T13:04:14.001Z</time></trkpt><trkpt lat="44.723505264704336" lon="8.86724903159785"><ele>223.0</ele><time>2026-03-28T13:04:15.001Z</time></trkpt><trkpt lat="44.723599764157676" lon="8.867282358830092"><ele>223.0</ele><time>2026-03-28T13:04:16.001Z</time></trkpt><trkpt lat="44.7236982160404" lon="8.867317188930118"><ele>223.0</ele><time>2026-03-28T13:04:17.001Z</time></trkpt><trkpt lat="44.72381311088571" lon="8.867352401554355"><ele>223.0</ele><time>2026-03-28T13:04:18.001Z</time></trkpt><trkpt lat="44.72392745464601" lon="8.867388993220555"><ele>222.8</ele><time>2026-03-28T13:04:19.001Z</time></trkpt><trkpt lat="44.72403767098221" lon="8.867425481965023"><ele>222.60000000000002</ele><time>2026-03-28T13:04:20.001Z</time></trkpt><trkpt lat="44.72414347545317" lon="8.867463105560747"><ele>222.39999999999998</ele><time>2026-03-28T13:04:21.001Z</time></trkpt><trkpt lat="44.72424792672677" lon="8.86749773137673"><ele>222.2</ele><time>2026-03-28T13:04:22.001Z</time></trkpt><trkpt lat="44.724348533394526" lon="8.867540211504451"><ele>222.0</ele><time>2026-03-28T13:04:23.001Z</time></trkpt><trkpt lat="44.72443790235023" lon="8.867594195714517"><ele>223.0</ele><time>2026-03-28T13:04:24.001Z</time></trkpt><trkpt lat="44.72452286711378" lon="8.867669091257858"><ele>224.0</ele><time>2026-03-28T13:04:25.001Z</time></trkpt><trkpt lat="44.724598684266276" lon="8.867750155892315"><ele>225.0</ele><time>2026-03-28T13:04:26.001Z</time></trkpt><trkpt lat="44.724675006743304" lon="8.867836992770686"><ele>226.0</ele><time>2026-03-28T13:04:27.001Z</time></trkpt><trkpt lat="44.72475829367535" lon="8.86793179860966"><ele>227.0</ele><time>2026-03-28T13:04:28.001Z</time></trkpt><trkpt lat="44.72484048077176" lon="8.868020105810915"><ele>227.0</ele><time>2026-03-28T13:04:29.001Z</time></trkpt><trkpt lat="44.72492713090946" lon="8.868131145220143"><ele>227.0</ele><time>2026-03-28T13:04:30.001Z</time></trkpt><trkpt lat="44.72501482618299" lon="8.868225184460632"><ele>227.0</ele><time>2026-03-28T13:04:31.001Z</time></trkpt><trkpt lat="44.72513663760327" lon="8.868280287109174"><ele>227.0</ele><time>2026-03-28T13:04:32.001Z</time></trkpt><trkpt lat="44.72525603857152" lon="8.868284266682489"><ele>227.25</ele><time>2026-03-28T13:04:33.001Z</time></trkpt><trkpt lat="44.72539179553488" lon="8.868268096358392"><ele>227.5</ele><time>2026-03-28T13:04:34.001Z</time></trkpt><trkpt lat="44.72551346656417" lon="8.86824647977606"><ele>227.75</ele><time>2026-03-28T13:04:35.001Z</time></trkpt><trkpt lat="44.7256236560281" lon="8.868234581040323"><ele>228.0</ele><time>2026-03-28T13:04:36.001Z</time></trkpt><trkpt lat="44.725724580299776" lon="8.868220337056075"><ele>228.0</ele><time>2026-03-28T13:04:37.001Z</time></trkpt><trkpt lat="44.72582136021332" lon="8.868204855939426"><ele>228.0</ele><time>2026-03-28T13:04:38.001Z</time></trkpt><trkpt lat="44.72591700597826" lon="8.868189820809299"><ele>228.0</ele><time>2026-03-28T13:04:39.001Z</time></trkpt><trkpt lat="44.72601362241163" lon="8.868178899309191"><ele>228.0</ele><time>2026-03-28T13:04:40.001Z</time></trkpt><trkpt lat="44.72610469234799" lon="8.868167296471194"><ele>228.0</ele><time>2026-03-28T13:04:41.001Z</time></trkpt><trkpt lat="44.72619275325571" lon="8.86815346377095"><ele>227.83333333333334</ele><time>2026-03-28T13:04:42.001Z</time></trkpt><trkpt lat="44.72628704588259" lon="8.868140491829108"><ele>227.66666666666669</ele><time>2026-03-28T13:04:43.001Z</time></trkpt><trkpt lat="44.72636334476266" lon="8.86813167330877"><ele>227.5</ele><time>2026-03-28T13:04:44.001Z</time></trkpt><trkpt lat="44.726432781009166" lon="8.86812448218315"><ele>227.33333333333334</ele><time>2026-03-28T13:04:45.001Z</time></trkpt><trkpt lat="44.72656115452246" lon="8.86810249467851"><ele>227.16666666666669</ele><time>2026-03-28T13:04:47.001Z</time></trkpt><trkpt lat="44.72663389200669" lon="8.868095799073911"><ele>227.0</ele><time>2026-03-28T13:04:48.001Z</time></trkpt><trkpt lat="44.72670328852958" lon="8.868094390510388"><ele>227.0</ele><time>2026-03-28T13:04:49.001Z</time></trkpt><trkpt lat="44.72677321433201" lon="8.868103179486479"><ele>227.0</ele><time>2026-03-28T13:04:50.001Z</time></trkpt><trkpt lat="44.72684134166477" lon="8.868135306401719"><ele>227.0</ele><time>2026-03-28T13:04:51.001Z</time></trkpt><trkpt lat="44.72691258668215" lon="8.868322329054799"><ele>227.0</ele><time>2026-03-28T13:04:53.001Z</time></trkpt><trkpt lat="44.726940953728544" lon="8.868458772763766"><ele>227.0</ele><time>2026-03-28T13:04:54.001Z</time></trkpt><trkpt lat="44.72696933839407" lon="8.868587266321146"><ele>226.16666666666669</ele><time>2026-03-28T13:04:55.001Z</time></trkpt><trkpt lat="44.72699151233593" lon="8.868689336989425"><ele>225.33333333333334</ele><time>2026-03-28T13:04:56.001Z</time></trkpt><trkpt lat="44.72701310783732" lon="8.868788557762889"><ele>224.5</ele><time>2026-03-28T13:04:57.001Z</time></trkpt><trkpt lat="44.72703435893906" lon="8.868888113735423"><ele>223.66666666666669</ele><time>2026-03-28T13:04:58.001Z</time></trkpt><trkpt lat="44.72705285973689" lon="8.868979005113234"><ele>222.83333333333334</ele><time>2026-03-28T13:04:59.001Z</time></trkpt><trkpt lat="44.72707017438456" lon="8.869127593686311"><ele>222.0</ele><time>2026-03-28T13:05:01.001Z</time></trkpt><trkpt lat="44.72707625287221" lon="8.869258597787164"><ele>221.83333333333334</ele><time>2026-03-28T13:05:03.001Z</time></trkpt><trkpt lat="44.72707012720488" lon="8.869370473710564"><ele>221.66666666666669</ele><time>2026-03-28T13:05:05.001Z</time></trkpt><trkpt lat="44.72704930751294" lon="8.869495880652947"><ele>221.5</ele><time>2026-03-28T13:05:07.001Z</time></trkpt><trkpt lat="44.72703464479229" lon="8.86958252574579"><ele>221.33333333333334</ele><time>2026-03-28T13:05:08.001Z</time></trkpt><trkpt lat="44.727012448513115" lon="8.869739967068876"><ele>221.16666666666669</ele><time>2026-03-28T13:05:10.001Z</time></trkpt><trkpt lat="44.72698801715503" lon="8.869846912152626"><ele>221.0</ele><time>2026-03-28T13:05:11.001Z</time></trkpt><trkpt lat="44.72696085130197" lon="8.869944705666889"><ele>221.00000000000003</ele><time>2026-03-28T13:05:12.001Z</time></trkpt><trkpt lat="44.726927463657056" lon="8.870023768153873"><ele>221.0</ele><time>2026-03-28T13:05:13.001Z</time></trkpt><trkpt lat="44.7268846029099" lon="8.870165738994274"><ele>221.0</ele><time>2026-03-28T13:05:15.002Z</time></trkpt><trkpt lat="44.7268569082044" lon="8.870283309282673"><ele>221.0</ele><time>2026-03-28T13:05:17.002Z</time></trkpt><trkpt lat="44.726847260432024" lon="8.870401384972244"><ele>221.00000000000003</ele><time>2026-03-28T13:05:19.002Z</time></trkpt><trkpt lat="44.726812043238155" lon="8.870528104456096"><ele>221.0</ele><time>2026-03-28T13:05:21Z</time></trkpt><trkpt lat="44.72679329967879" lon="8.870694747640787"><ele>221.16666666666669</ele><time>2026-03-28T13:05:23Z</time></trkpt><trkpt lat="44.72675361600046" lon="8.870774119706617"><ele>221.33333333333334</ele><time>2026-03-28T13:05:24Z</time></trkpt><trkpt lat="44.72673040800825" lon="8.87086893373046"><ele>221.5</ele><time>2026-03-28T13:05:25Z</time></trkpt><trkpt lat="44.72672396965466" lon="8.870983633545658"><ele>221.66666666666669</ele><time>2026-03-28T13:05:26Z</time></trkpt><trkpt lat="44.72670816182151" lon="8.87113452594508"><ele>221.83333333333334</ele><time>2026-03-28T13:05:28Z</time></trkpt><trkpt lat="44.726703726051035" lon="8.871301715933521"><ele>222.0</ele><time>2026-03-28T13:05:30Z</time></trkpt><trkpt lat="44.72672171818718" lon="8.871476178516158"><ele>221.66666666666666</ele><time>2026-03-28T13:05:32Z</time></trkpt><trkpt lat="44.72674727058705" lon="8.871561665375008"><ele>221.33333333333331</ele><time>2026-03-28T13:05:33Z</time></trkpt><trkpt lat="44.726781997629814" lon="8.87172221405929"><ele>221.0</ele><time>2026-03-28T13:05:35Z</time></trkpt><trkpt lat="44.72685447686608" lon="8.871855503466177"><ele>220.66666666666666</ele><time>2026-03-28T13:05:37Z</time></trkpt><trkpt lat="44.72691670878625" lon="8.871897959264457"><ele>220.33333333333331</ele><time>2026-03-28T13:05:38Z</time></trkpt><trkpt lat="44.72695364455382" lon="8.87196989496427"><ele>220.0</ele><time>2026-03-28T13:05:39Z</time></trkpt><trkpt lat="44.72699593583233" lon="8.872035917407027"><ele>219.99999999999997</ele><time>2026-03-28T13:05:40Z</time></trkpt><trkpt lat="44.72703514956574" lon="8.872108409470139"><ele>220.0</ele><time>2026-03-28T13:05:41Z</time></trkpt><trkpt lat="44.72705508320841" lon="8.87220770617367"><ele>220.0</ele><time>2026-03-28T13:05:42Z</time></trkpt><trkpt lat="44.72709465130052" lon="8.872285313206723"><ele>220.0</ele><time>2026-03-28T13:05:43Z</time></trkpt><trkpt lat="44.72712999457574" lon="8.87236640413664"><ele>220.0</ele><time>2026-03-28T13:05:44Z</time></trkpt><trkpt lat="44.727165737591726" lon="8.872451526017102"><ele>219.99999999999997</ele><time>2026-03-28T13:05:45Z</time></trkpt><trkpt lat="44.72720014538613" lon="8.872535881499392"><ele>220.0</ele><time>2026-03-28T13:05:46Z</time></trkpt><trkpt lat="44.72723302344821" lon="8.872616486623853"><ele>220.66666666666666</ele><time>2026-03-28T13:05:47Z</time></trkpt><trkpt lat="44.727268193996466" lon="8.872702169705759"><ele>221.33333333333331</ele><time>2026-03-28T13:05:48Z</time></trkpt><trkpt lat="44.72730450289357" lon="8.872784134319144"><ele>222.0</ele><time>2026-03-28T13:05:49Z</time></trkpt><trkpt lat="44.72734630981728" lon="8.872875246234178"><ele>222.66666666666669</ele><time>2026-03-28T13:05:50Z</time></trkpt><trkpt lat="44.727399138354556" lon="8.872971599866961"><ele>223.33333333333334</ele><time>2026-03-28T13:05:51Z</time></trkpt><trkpt lat="44.727477123180655" lon="8.873050146593044"><ele>224.0</ele><time>2026-03-28T13:05:52Z</time></trkpt><trkpt lat="44.727534535288584" lon="8.873149699423687"><ele>224.0</ele><time>2026-03-28T13:05:53Z</time></trkpt><trkpt lat="44.7275505605181" lon="8.873284219857412"><ele>223.99999999999997</ele><time>2026-03-28T13:05:54Z</time></trkpt><trkpt lat="44.72757302777104" lon="8.8734115693552"><ele>223.99999999999997</ele><time>2026-03-28T13:05:55Z</time></trkpt><trkpt lat="44.727596215887054" lon="8.873541891325694"><ele>224.0</ele><time>2026-03-28T13:05:56Z</time></trkpt><trkpt lat="44.72761940420988" lon="8.873666591205685"><ele>224.0</ele><time>2026-03-28T13:05:57Z</time></trkpt><trkpt lat="44.7276290299265" lon="8.873785403069379"><ele>225.2</ele><time>2026-03-28T13:05:58Z</time></trkpt><trkpt lat="44.72762297785376" lon="8.873904588897231"><ele>226.39999999999998</ele><time>2026-03-28T13:05:59Z</time></trkpt><trkpt lat="44.727600441363656" lon="8.874020545629074"><ele>227.6</ele><time>2026-03-28T13:06:00Z</time></trkpt><trkpt lat="44.72757566850231" lon="8.87414682523289"><ele>228.8</ele><time>2026-03-28T13:06:01Z</time></trkpt><trkpt lat="44.727551825395416" lon="8.87427886425848"><ele>230.0</ele><time>2026-03-28T13:06:02Z</time></trkpt><trkpt lat="44.727536908927725" lon="8.87441388859113"><ele>231.00000000000003</ele><time>2026-03-28T13:06:03Z</time></trkpt><trkpt lat="44.727535659589265" lon="8.874535213817087"><ele>232.0</ele><time>2026-03-28T13:06:04Z</time></trkpt><trkpt lat="44.727537871390304" lon="8.874648889829581"><ele>233.0</ele><time>2026-03-28T13:06:05Z</time></trkpt><trkpt lat="44.72754168644342" lon="8.87474247833351"><ele>234.0</ele><time>2026-03-28T13:06:06Z</time></trkpt><trkpt lat="44.72756187927994" lon="8.874911404595732"><ele>235.00000000000003</ele><time>2026-03-28T13:06:08Z</time></trkpt><trkpt lat="44.72757127079531" lon="8.875017024327427"><ele>236.0</ele><time>2026-03-28T13:06:09Z</time></trkpt><trkpt lat="44.72757702849839" lon="8.875119369457325"><ele>236.83333333333334</ele><time>2026-03-28T13:06:10Z</time></trkpt><trkpt lat="44.72758079872851" lon="8.875212305483243"><ele>237.66666666666669</ele><time>2026-03-28T13:06:11Z</time></trkpt><trkpt lat="44.72758566584107" lon="8.8753040586603"><ele>238.5</ele><time>2026-03-28T13:06:12Z</time></trkpt><trkpt lat="44.727591731641375" lon="8.875488410296905"><ele>239.33333333333331</ele><time>2026-03-28T13:06:14Z</time></trkpt><trkpt lat="44.72759049443189" lon="8.875597653251395"><ele>240.16666666666666</ele><time>2026-03-28T13:06:15Z</time></trkpt><trkpt lat="44.72759792724102" lon="8.875734736761707"><ele>241.0</ele><time>2026-03-28T13:06:16Z</time></trkpt><trkpt lat="44.727611291287346" lon="8.875880488961826"><ele>242.0</ele><time>2026-03-28T13:06:17Z</time></trkpt><trkpt lat="44.72762044828128" lon="8.876021780428088"><ele>243.00000000000003</ele><time>2026-03-28T13:06:18Z</time></trkpt><trkpt lat="44.727633672124256" lon="8.876157930053301"><ele>244.00000000000003</ele><time>2026-03-28T13:06:19Z</time></trkpt><trkpt lat="44.7276511181434" lon="8.876288699795076"><ele>245.0</ele><time>2026-03-28T13:06:20Z</time></trkpt><trkpt lat="44.727672581010815" lon="8.876412238433478"><ele>246.0</ele><time>2026-03-28T13:06:21.001Z</time></trkpt><trkpt lat="44.72769573709097" lon="8.876533575141973"><ele>246.0</ele><time>2026-03-28T13:06:22.001Z</time></trkpt><trkpt lat="44.727719101804176" lon="8.876653309363407"><ele>246.0</ele><time>2026-03-28T13:06:23.001Z</time></trkpt><trkpt lat="44.727739002141945" lon="8.876769223821427"><ele>246.0</ele><time>2026-03-28T13:06:24.001Z</time></trkpt><trkpt lat="44.727759292687914" lon="8.876880593342698"><ele>246.0</ele><time>2026-03-28T13:06:25.001Z</time></trkpt><trkpt lat="44.7277857039702" lon="8.876985754550361"><ele>246.0</ele><time>2026-03-28T13:06:26.001Z</time></trkpt><trkpt lat="44.72781569973819" lon="8.877087239652463"><ele>246.0</ele><time>2026-03-28T13:06:27.001Z</time></trkpt><trkpt lat="44.727842766627305" lon="8.877188311664778"><ele>249.60000000000002</ele><time>2026-03-28T13:06:28.001Z</time></trkpt><trkpt lat="44.72787401919666" lon="8.87729132099256"><ele>253.20000000000002</ele><time>2026-03-28T13:06:29.001Z</time></trkpt><trkpt lat="44.72790596259688" lon="8.877400101347193"><ele>256.79999999999995</ele><time>2026-03-28T13:06:30.001Z</time></trkpt><trkpt lat="44.72794038595779" lon="8.877519858689062"><ele>260.4</ele><time>2026-03-28T13:06:31.001Z</time></trkpt><trkpt lat="44.72798472809072" lon="8.877655099758785"><ele>264.0</ele><time>2026-03-28T13:06:32.001Z</time></trkpt><trkpt lat="44.72803361829256" lon="8.877799948262455"><ele>264.0</ele><time>2026-03-28T13:06:33.001Z</time></trkpt><trkpt lat="44.72807556994441" lon="8.877921853123981"><ele>264.0</ele><time>2026-03-28T13:06:34.001Z</time></trkpt><trkpt lat="44.72811874759109" lon="8.87802460640517"><ele>264.0</ele><time>2026-03-28T13:06:35.001Z</time></trkpt><trkpt lat="44.72818031550703" lon="8.878122645060797"><ele>264.0</ele><time>2026-03-28T13:06:36.001Z</time></trkpt><trkpt lat="44.72825674341756" lon="8.878208506039456"><ele>264.0</ele><time>2026-03-28T13:06:37.001Z</time></trkpt><trkpt lat="44.728344653151424" lon="8.878295738681599"><ele>264.0</ele><time>2026-03-28T13:06:38.001Z</time></trkpt><trkpt lat="44.728424463647016" lon="8.878388105312666"><ele>264.0</ele><time>2026-03-28T13:06:39.001Z</time></trkpt><trkpt lat="44.72850736398702" lon="8.878487584216694"><ele>264.0</ele><time>2026-03-28T13:06:40.001Z</time></trkpt><trkpt lat="44.72858666793266" lon="8.878587712722647"><ele>264.0</ele><time>2026-03-28T13:06:41.001Z</time></trkpt><trkpt lat="44.72868000406651" lon="8.878687779848855"><ele>264.0</ele><time>2026-03-28T13:06:42.001Z</time></trkpt><trkpt lat="44.7287584731123" lon="8.878767781888412"><ele>265.3333333333333</ele><time>2026-03-28T13:06:43.001Z</time></trkpt><trkpt lat="44.72884236490545" lon="8.878833762663318"><ele>266.6666666666667</ele><time>2026-03-28T13:06:44.001Z</time></trkpt><trkpt lat="44.72892838697089" lon="8.87888037140217"><ele>268.0</ele><time>2026-03-28T13:06:45.001Z</time></trkpt><trkpt lat="44.729009212839" lon="8.878929078841708"><ele>269.33333333333337</ele><time>2026-03-28T13:06:46.001Z</time></trkpt><trkpt lat="44.72907452097733" lon="8.878985546410256"><ele>270.6666666666667</ele><time>2026-03-28T13:06:47.001Z</time></trkpt><trkpt lat="44.72914026549047" lon="8.879067523124572"><ele>272.0</ele><time>2026-03-28T13:06:48.001Z</time></trkpt><trkpt lat="44.72917721623439" lon="8.879194006059336"><ele>273.8</ele><time>2026-03-28T13:06:49.001Z</time></trkpt><trkpt lat="44.72922079504121" lon="8.879318573332286"><ele>275.6</ele><time>2026-03-28T13:06:50.001Z</time></trkpt><trkpt lat="44.729247676387004" lon="8.879447944319216"><ele>277.40000000000003</ele><time>2026-03-28T13:06:51.001Z</time></trkpt><trkpt lat="44.72926499359753" lon="8.879580503639788"><ele>279.2</ele><time>2026-03-28T13:06:52.001Z</time></trkpt><trkpt lat="44.72927432565822" lon="8.87971284137372"><ele>281.0</ele><time>2026-03-28T13:06:53.001Z</time></trkpt><trkpt lat="44.72927760535702" lon="8.879852100084317"><ele>281.0</ele><time>2026-03-28T13:06:54.001Z</time></trkpt><trkpt lat="44.72928079788135" lon="8.880015254780638"><ele>281.0</ele><time>2026-03-28T13:06:55.001Z</time></trkpt><trkpt lat="44.72928418439737" lon="8.880188323516212"><ele>281.0</ele><time>2026-03-28T13:06:56.001Z</time></trkpt><trkpt lat="44.729302126258" lon="8.880360144579807"><ele>281.0</ele><time>2026-03-28T13:06:57.001Z</time></trkpt><trkpt lat="44.72930665331579" lon="8.88051939544288"><ele>281.25</ele><time>2026-03-28T13:06:58.001Z</time></trkpt><trkpt lat="44.729314108785964" lon="8.880682882145543"><ele>281.5</ele><time>2026-03-28T13:06:59.001Z</time></trkpt><trkpt lat="44.7293184043072" lon="8.880851499049658"><ele>281.75</ele><time>2026-03-28T13:07:00.001Z</time></trkpt><trkpt lat="44.729368839277825" lon="8.881016949903955"><ele>282.0</ele><time>2026-03-28T13:07:01.001Z</time></trkpt><trkpt lat="44.72940754747814" lon="8.88119091134662"><ele>282.6</ele><time>2026-03-28T13:07:02.001Z</time></trkpt><trkpt lat="44.72944350237095" lon="8.881336122764857"><ele>283.2</ele><time>2026-03-28T13:07:03.001Z</time></trkpt><trkpt lat="44.72947882135922" lon="8.881465134501832"><ele>283.8</ele><time>2026-03-28T13:07:04.001Z</time></trkpt><trkpt lat="44.72952136545684" lon="8.881613815341515"><ele>284.4</ele><time>2026-03-28T13:07:05.001Z</time></trkpt><trkpt lat="44.72956182120681" lon="8.881758778841048"><ele>285.0</ele><time>2026-03-28T13:07:06.001Z</time></trkpt><trkpt lat="44.72960806054114" lon="8.881899422531925"><ele>285.0</ele><time>2026-03-28T13:07:07.001Z</time></trkpt><trkpt lat="44.72966366259351" lon="8.882031662041994"><ele>285.0</ele><time>2026-03-28T13:07:08.001Z</time></trkpt><trkpt lat="44.7297128472362" lon="8.882163299520258"><ele>285.0</ele><time>2026-03-28T13:07:09.001Z</time></trkpt><trkpt lat="44.72975962794629" lon="8.882299660606988"><ele>285.0</ele><time>2026-03-28T13:07:10.001Z</time></trkpt><trkpt lat="44.72980440768362" lon="8.882443406550575"><ele>285.0</ele><time>2026-03-28T13:07:11.001Z</time></trkpt><trkpt lat="44.72983749890846" lon="8.88260016275729"><ele>285.8</ele><time>2026-03-28T13:07:12.001Z</time></trkpt><trkpt lat="44.729859361497965" lon="8.882758795729318"><ele>286.6</ele><time>2026-03-28T13:07:13.001Z</time></trkpt><trkpt lat="44.72988712256443" lon="8.882908240701891"><ele>287.4</ele><time>2026-03-28T13:07:14.001Z</time></trkpt><trkpt lat="44.72992585323016" lon="8.883053144880003"><ele>288.2</ele><time>2026-03-28T13:07:15.001Z</time></trkpt><trkpt lat="44.729970833613976" lon="8.883192192231082"><ele>289.0</ele><time>2026-03-28T13:07:16.001Z</time></trkpt><trkpt lat="44.73000491860837" lon="8.883350625017046"><ele>289.0</ele><time>2026-03-28T13:07:17.001Z</time></trkpt><trkpt lat="44.730046516419314" lon="8.883506446883688"><ele>289.0</ele><time>2026-03-28T13:07:18.001Z</time></trkpt><trkpt lat="44.730087979123425" lon="8.88367277368268"><ele>289.0</ele><time>2026-03-28T13:07:19.001Z</time></trkpt><trkpt lat="44.73012585551556" lon="8.883841745744306"><ele>289.0</ele><time>2026-03-28T13:07:20.001Z</time></trkpt><trkpt lat="44.73016141983045" lon="8.884001184572242"><ele>289.0</ele><time>2026-03-28T13:07:21.001Z</time></trkpt><trkpt lat="44.730201995819115" lon="8.884171294764542"><ele>289.0</ele><time>2026-03-28T13:07:22.001Z</time></trkpt><trkpt lat="44.730248564862904" lon="8.884342862612575"><ele>289.0</ele><time>2026-03-28T13:07:23.001Z</time></trkpt><trkpt lat="44.73029643816312" lon="8.884492404575303"><ele>289.0</ele><time>2026-03-28T13:07:24.001Z</time></trkpt><trkpt lat="44.73034225011667" lon="8.884626071420573"><ele>290.4</ele><time>2026-03-28T13:07:25.001Z</time></trkpt><trkpt lat="44.73038661616485" lon="8.884747036054234"><ele>291.79999999999995</ele><time>2026-03-28T13:07:26.001Z</time></trkpt><trkpt lat="44.730430984457826" lon="8.884858728914383"><ele>293.20000000000005</ele><time>2026-03-28T13:07:27Z</time></trkpt><trkpt lat="44.73046937536597" lon="8.884963102219617"><ele>294.6</ele><time>2026-03-28T13:07:28Z</time></trkpt><trkpt lat="44.73050481749794" lon="8.885062148682396"><ele>296.0</ele><time>2026-03-28T13:07:29Z</time></trkpt><trkpt lat="44.7305500349743" lon="8.885188869644548"><ele>297.0</ele><time>2026-03-28T13:07:30Z</time></trkpt><trkpt lat="44.73060295921004" lon="8.88535196854217"><ele>298.0</ele><time>2026-03-28T13:07:31Z</time></trkpt><trkpt lat="44.730658435699404" lon="8.885530654436796"><ele>299.0</ele><time>2026-03-28T13:07:32Z</time></trkpt><trkpt lat="44.73071052446696" lon="8.885726553162785"><ele>300.0</ele><time>2026-03-28T13:07:33Z</time></trkpt><trkpt lat="44.73080252892955" lon="8.885911338656324"><ele>298.0</ele><time>2026-03-28T13:07:34Z</time></trkpt><trkpt lat="44.73089499595808" lon="8.886080769642833"><ele>296.0</ele><time>2026-03-28T13:07:35Z</time></trkpt><trkpt lat="44.73099258795023" lon="8.886206871087351"><ele>294.0</ele><time>2026-03-28T13:07:36Z</time></trkpt><trkpt lat="44.73107893520924" lon="8.88636131136514"><ele>292.0</ele><time>2026-03-28T13:07:37Z</time></trkpt><trkpt lat="44.731164664351176" lon="8.886507258413767"><ele>291.5</ele><time>2026-03-28T13:07:38Z</time></trkpt><trkpt lat="44.73123669464141" lon="8.886643591085482"><ele>291.0</ele><time>2026-03-28T13:07:39Z</time></trkpt><trkpt lat="44.73128578323099" lon="8.886802365055654"><ele>290.5</ele><time>2026-03-28T13:07:40Z</time></trkpt><trkpt lat="44.73130166937017" lon="8.886980064361298"><ele>290.0</ele><time>2026-03-28T13:07:41Z</time></trkpt><trkpt lat="44.731323025252394" lon="8.887150976516942"><ele>291.25</ele><time>2026-03-28T13:07:42Z</time></trkpt><trkpt lat="44.73134220747702" lon="8.887327696693069"><ele>292.5</ele><time>2026-03-28T13:07:43Z</time></trkpt><trkpt lat="44.73135985724527" lon="8.887490298757585"><ele>293.75</ele><time>2026-03-28T13:07:44Z</time></trkpt><trkpt lat="44.73139258999017" lon="8.887641232416085"><ele>295.0</ele><time>2026-03-28T13:07:45Z</time></trkpt><trkpt lat="44.73140613335182" lon="8.88779565711966"><ele>296.4</ele><time>2026-03-28T13:07:46Z</time></trkpt><trkpt lat="44.73140782468955" lon="8.887940261513439"><ele>297.8</ele><time>2026-03-28T13:07:47Z</time></trkpt><trkpt lat="44.73139647263515" lon="8.888080455970458"><ele>299.2</ele><time>2026-03-28T13:07:48Z</time></trkpt><trkpt lat="44.73135249271143" lon="8.888215768811136"><ele>300.6</ele><time>2026-03-28T13:07:49Z</time></trkpt><trkpt lat="44.731327892547746" lon="8.888380797528821"><ele>302.0</ele><time>2026-03-28T13:07:50Z</time></trkpt><trkpt lat="44.73134464402971" lon="8.888564095196465"><ele>306.0</ele><time>2026-03-28T13:07:51Z</time></trkpt><trkpt lat="44.731366996386775" lon="8.888736174517971"><ele>310.0</ele><time>2026-03-28T13:07:52Z</time></trkpt><trkpt lat="44.73141487817893" lon="8.888890727953973"><ele>314.0</ele><time>2026-03-28T13:07:53Z</time></trkpt><trkpt lat="44.73148655281265" lon="8.889011258154962"><ele>318.0</ele><time>2026-03-28T13:07:54Z</time></trkpt><trkpt lat="44.73156142971768" lon="8.889103868687737"><ele>318.0</ele><time>2026-03-28T13:07:55Z</time></trkpt><trkpt lat="44.731632337003155" lon="8.88917989739897"><ele>318.0</ele><time>2026-03-28T13:07:56Z</time></trkpt><trkpt lat="44.73168508030382" lon="8.889249785414265"><ele>318.0</ele><time>2026-03-28T13:07:57Z</time></trkpt><trkpt lat="44.73176226908031" lon="8.889397982257115"><ele>318.0</ele><time>2026-03-28T13:07:59Z</time></trkpt><trkpt lat="44.731817723824" lon="8.889565381238382"><ele>318.0</ele><time>2026-03-28T13:08:01Z</time></trkpt><trkpt lat="44.73182599934348" lon="8.88967796723242"><ele>318.85714285714283</ele><time>2026-03-28T13:08:02Z</time></trkpt><trkpt lat="44.731847987724166" lon="8.88978448040795"><ele>319.7142857142857</ele><time>2026-03-28T13:08:03Z</time></trkpt><trkpt lat="44.731868462413885" lon="8.889887319533699"><ele>320.57142857142856</ele><time>2026-03-28T13:08:04Z</time></trkpt><trkpt lat="44.731888757812015" lon="8.889989258181323"><ele>321.42857142857144</ele><time>2026-03-28T13:08:05Z</time></trkpt><trkpt lat="44.73192505019792" lon="8.890087424743298"><ele>322.2857142857143</ele><time>2026-03-28T13:08:06Z</time></trkpt><trkpt lat="44.7319412756653" lon="8.890183041651074"><ele>323.14285714285717</ele><time>2026-03-28T13:08:07Z</time></trkpt><trkpt lat="44.731958142984205" lon="8.89027068884259"><ele>324.0</ele><time>2026-03-28T13:08:08Z</time></trkpt><trkpt lat="44.73197920048241" lon="8.89037489106298"><ele>324.8333333333333</ele><time>2026-03-28T13:08:09Z</time></trkpt><trkpt lat="44.732001966198865" lon="8.890492821471348"><ele>325.6666666666667</ele><time>2026-03-28T13:08:10Z</time></trkpt><trkpt lat="44.7320205768748" lon="8.890605714515333"><ele>326.5</ele><time>2026-03-28T13:08:11Z</time></trkpt><trkpt lat="44.7320325046563" lon="8.890728585506489"><ele>327.33333333333337</ele><time>2026-03-28T13:08:12Z</time></trkpt><trkpt lat="44.7319975073669" lon="8.890843144974852"><ele>328.1666666666667</ele><time>2026-03-28T13:08:13Z</time></trkpt><trkpt lat="44.73195752005342" lon="8.890946935255233"><ele>329.0</ele><time>2026-03-28T13:08:14Z</time></trkpt><trkpt lat="44.73190622027437" lon="8.891054126069072"><ele>330.0</ele><time>2026-03-28T13:08:15Z</time></trkpt><trkpt lat="44.731861408505395" lon="8.891185810099948"><ele>331.0</ele><time>2026-03-28T13:08:16Z</time></trkpt><trkpt lat="44.731804788830054" lon="8.891310719255909"><ele>332.0</ele><time>2026-03-28T13:08:17Z</time></trkpt><trkpt lat="44.73173225874489" lon="8.891429607497152"><ele>333.0</ele><time>2026-03-28T13:08:18Z</time></trkpt><trkpt lat="44.73169598864139" lon="8.891579433574815"><ele>334.0</ele><time>2026-03-28T13:08:19Z</time></trkpt><trkpt lat="44.73166213536466" lon="8.891735105941605"><ele>333.5</ele><time>2026-03-28T13:08:20Z</time></trkpt><trkpt lat="44.73163698302401" lon="8.891886662892038"><ele>333.0</ele><time>2026-03-28T13:08:21Z</time></trkpt><trkpt lat="44.73161263975805" lon="8.892042468538712"><ele>332.5</ele><time>2026-03-28T13:08:22Z</time></trkpt><trkpt lat="44.731584937962474" lon="8.892208405297621"><ele>332.0</ele><time>2026-03-28T13:08:23Z</time></trkpt><trkpt lat="44.73155742917285" lon="8.89237977423879"><ele>332.0</ele><time>2026-03-28T13:08:24Z</time></trkpt><trkpt lat="44.731528670356774" lon="8.89255552292072"><ele>332.0</ele><time>2026-03-28T13:08:25Z</time></trkpt><trkpt lat="44.73150166272013" lon="8.892732850018644"><ele>332.0</ele><time>2026-03-28T13:08:26Z</time></trkpt><trkpt lat="44.731465749876435" lon="8.892888001135812"><ele>332.0</ele><time>2026-03-28T13:08:27Z</time></trkpt><trkpt lat="44.7314489828169" lon="8.893050393973416"><ele>332.25</ele><time>2026-03-28T13:08:28Z</time></trkpt><trkpt lat="44.73139619263665" lon="8.893192127115086"><ele>332.5</ele><time>2026-03-28T13:08:29Z</time></trkpt><trkpt lat="44.73133003743892" lon="8.893331098993533"><ele>332.75</ele><time>2026-03-28T13:08:30Z</time></trkpt><trkpt lat="44.731260048764774" lon="8.893475770060633"><ele>333.0</ele><time>2026-03-28T13:08:31Z</time></trkpt><trkpt lat="44.73119870405496" lon="8.893606525356823"><ele>334.4</ele><time>2026-03-28T13:08:32Z</time></trkpt><trkpt lat="44.73114376710248" lon="8.893732015858582"><ele>335.79999999999995</ele><time>2026-03-28T13:08:33Z</time></trkpt><trkpt lat="44.731089318909255" lon="8.893851060206197"><ele>337.2</ele><time>2026-03-28T13:08:34Z</time></trkpt><trkpt lat="44.73102455962484" lon="8.893964960242968"><ele>338.6</ele><time>2026-03-28T13:08:35Z</time></trkpt><trkpt lat="44.73095038111511" lon="8.894061165631614"><ele>340.0</ele><time>2026-03-28T13:08:36Z</time></trkpt><trkpt lat="44.730864178403664" lon="8.894128254173703"><ele>340.0</ele><time>2026-03-28T13:08:37Z</time></trkpt><trkpt lat="44.73077451808253" lon="8.894179007222485"><ele>340.0</ele><time>2026-03-28T13:08:38Z</time></trkpt><trkpt lat="44.730678286788795" lon="8.89423602163571"><ele>340.0</ele><time>2026-03-28T13:08:39.001Z</time></trkpt><trkpt lat="44.730579943528596" lon="8.894310546346153"><ele>340.0</ele><time>2026-03-28T13:08:40.001Z</time></trkpt><trkpt lat="44.73048447692833" lon="8.894387321625988"><ele>340.0</ele><time>2026-03-28T13:08:41.001Z</time></trkpt><trkpt lat="44.73038729328496" lon="8.894446243694318"><ele>339.3333333333333</ele><time>2026-03-28T13:08:42.001Z</time></trkpt><trkpt lat="44.73029584050116" lon="8.89450229845366"><ele>338.66666666666663</ele><time>2026-03-28T13:08:43.001Z</time></trkpt><trkpt lat="44.73021598761914" lon="8.89457402080478"><ele>338.0</ele><time>2026-03-28T13:08:44.001Z</time></trkpt><trkpt lat="44.73016331805743" lon="8.894660072472622"><ele>337.3333333333333</ele><time>2026-03-28T13:08:45.001Z</time></trkpt><trkpt lat="44.730121532165434" lon="8.894756652576245"><ele>336.6666666666667</ele><time>2026-03-28T13:08:46.001Z</time></trkpt><trkpt lat="44.73008909598898" lon="8.89485873195012"><ele>336.0</ele><time>2026-03-28T13:08:47.001Z</time></trkpt><trkpt lat="44.730065914043564" lon="8.894984466210191"><ele>336.1666666666667</ele><time>2026-03-28T13:08:48.001Z</time></trkpt><trkpt lat="44.73005606016836" lon="8.8951109752381"><ele>336.3333333333333</ele><time>2026-03-28T13:08:49.001Z</time></trkpt><trkpt lat="44.73004665156153" lon="8.895223519596582"><ele>336.5</ele><time>2026-03-28T13:08:50.001Z</time></trkpt><trkpt lat="44.730034141641816" lon="8.89533568745407"><ele>336.66666666666663</ele><time>2026-03-28T13:08:51.001Z</time></trkpt><trkpt lat="44.730009416321764" lon="8.895440502291484"><ele>336.8333333333333</ele><time>2026-03-28T13:08:52.001Z</time></trkpt><trkpt lat="44.729971379953064" lon="8.895550519437332"><ele>337.0</ele><time>2026-03-28T13:08:53.001Z</time></trkpt><trkpt lat="44.7299430404854" lon="8.895675675409485"><ele>337.0</ele><time>2026-03-28T13:08:54.001Z</time></trkpt><trkpt lat="44.729931873363086" lon="8.895825343271456"><ele>337.0</ele><time>2026-03-28T13:08:55.001Z</time></trkpt><trkpt lat="44.72993125163809" lon="8.895975246539106"><ele>337.0</ele><time>2026-03-28T13:08:56.001Z</time></trkpt><trkpt lat="44.7299360237426" lon="8.896134206443032"><ele>337.0</ele><time>2026-03-28T13:08:57.001Z</time></trkpt><trkpt lat="44.72993096092576" lon="8.896298223728419"><ele>337.0</ele><time>2026-03-28T13:08:58.001Z</time></trkpt><trkpt lat="44.72991462979079" lon="8.896463009764702"><ele>337.0</ele><time>2026-03-28T13:08:59.001Z</time></trkpt><trkpt lat="44.72988961392757" lon="8.896623747994127"><ele>337.0</ele><time>2026-03-28T13:09:00.001Z</time></trkpt><trkpt lat="44.72987390899496" lon="8.896770520389785"><ele>337.0</ele><time>2026-03-28T13:09:01.001Z</time></trkpt><trkpt lat="44.72986629268126" lon="8.89691694326713"><ele>337.0</ele><time>2026-03-28T13:09:02.001Z</time></trkpt><trkpt lat="44.729865973499194" lon="8.897067701319923"><ele>337.0</ele><time>2026-03-28T13:09:03.001Z</time></trkpt><trkpt lat="44.72984573325779" lon="8.897213090700344"><ele>337.0</ele><time>2026-03-28T13:09:04.001Z</time></trkpt><trkpt lat="44.7298491804213" lon="8.89734479048853"><ele>337.0</ele><time>2026-03-28T13:09:05.001Z</time></trkpt><trkpt lat="44.72983516699016" lon="8.89746726928877"><ele>337.0</ele><time>2026-03-28T13:09:06.001Z</time></trkpt><trkpt lat="44.72982019654724" lon="8.897577558926319"><ele>337.0</ele><time>2026-03-28T13:09:07.001Z</time></trkpt><trkpt lat="44.72980690159676" lon="8.897702750737094"><ele>337.0</ele><time>2026-03-28T13:09:08.001Z</time></trkpt><trkpt lat="44.72980399893672" lon="8.897824805383296"><ele>337.0</ele><time>2026-03-28T13:09:09.001Z</time></trkpt><trkpt lat="44.729827727897124" lon="8.897929406018788"><ele>338.28571428571433</ele><time>2026-03-28T13:09:10.001Z</time></trkpt><trkpt lat="44.729857443499846" lon="8.898008174053961"><ele>339.57142857142856</ele><time>2026-03-28T13:09:11.001Z</time></trkpt><trkpt lat="44.72988924700085" lon="8.898089746509918"><ele>340.8571428571429</ele><time>2026-03-28T13:09:12.001Z</time></trkpt><trkpt lat="44.729942505541025" lon="8.898241851025949"><ele>342.14285714285717</ele><time>2026-03-28T13:09:14.001Z</time></trkpt><trkpt lat="44.72997206824472" lon="8.898321497651855"><ele>343.42857142857144</ele><time>2026-03-28T13:09:15.001Z</time></trkpt><trkpt lat="44.73000234331539" lon="8.898403358739836"><ele>344.7142857142857</ele><time>2026-03-28T13:09:16.001Z</time></trkpt><trkpt lat="44.73003403761638" lon="8.89848380334342"><ele>346.0</ele><time>2026-03-28T13:09:17.001Z</time></trkpt><trkpt lat="44.73007461622405" lon="8.898574634593334"><ele>344.6</ele><time>2026-03-28T13:09:18.001Z</time></trkpt><trkpt lat="44.73012376279987" lon="8.898671618943922"><ele>343.20000000000005</ele><time>2026-03-28T13:09:19.001Z</time></trkpt><trkpt lat="44.730172112904306" lon="8.898772391903737"><ele>341.79999999999995</ele><time>2026-03-28T13:09:20.001Z</time></trkpt><trkpt lat="44.73022133869209" lon="8.89888716073763"><ele>340.4</ele><time>2026-03-28T13:09:21.001Z</time></trkpt><trkpt lat="44.730265214958045" lon="8.89902402114825"><ele>339.0</ele><time>2026-03-28T13:09:22.001Z</time></trkpt><trkpt lat="44.730313541059566" lon="8.899164716888519"><ele>342.6</ele><time>2026-03-28T13:09:23.001Z</time></trkpt><trkpt lat="44.730360128989126" lon="8.899306958281796"><ele>346.2</ele><time>2026-03-28T13:09:24.001Z</time></trkpt><trkpt lat="44.73040895503579" lon="8.899445536989626"><ele>349.8</ele><time>2026-03-28T13:09:25.001Z</time></trkpt><trkpt lat="44.730452958463275" lon="8.899587533692321"><ele>353.40000000000003</ele><time>2026-03-28T13:09:26.001Z</time></trkpt><trkpt lat="44.730500341823195" lon="8.89973492907401"><ele>357.0</ele><time>2026-03-28T13:09:27.001Z</time></trkpt><trkpt lat="44.73049791616646" lon="8.899886972671547"><ele>357.0</ele><time>2026-03-28T13:09:28.001Z</time></trkpt><trkpt lat="44.73051359042508" lon="8.900031106236675"><ele>357.0</ele><time>2026-03-28T13:09:29.001Z</time></trkpt><trkpt lat="44.73051529327285" lon="8.900154459562605"><ele>357.0</ele><time>2026-03-28T13:09:30.001Z</time></trkpt><trkpt lat="44.73052933405152" lon="8.900276552077315"><ele>357.0</ele><time>2026-03-28T13:09:31.001Z</time></trkpt><trkpt lat="44.73056163724703" lon="8.90040569474817"><ele>357.0</ele><time>2026-03-28T13:09:32.001Z</time></trkpt><trkpt lat="44.7305796778273" lon="8.900538415181956"><ele>359.8</ele><time>2026-03-28T13:09:33Z</time></trkpt><trkpt lat="44.730583200090635" lon="8.900678954818746"><ele>362.6</ele><time>2026-03-28T13:09:34Z</time></trkpt><trkpt lat="44.73059954128125" lon="8.900825605892829"><ele>365.40000000000003</ele><time>2026-03-28T13:09:35Z</time></trkpt><trkpt lat="44.730622164842046" lon="8.900962229148078"><ele>368.20000000000005</ele><time>2026-03-28T13:09:36Z</time></trkpt><trkpt lat="44.73065352376244" lon="8.90111252375899"><ele>371.0</ele><time>2026-03-28T13:09:37Z</time></trkpt><trkpt lat="44.73070333650193" lon="8.901252175703624"><ele>374.0</ele><time>2026-03-28T13:09:38Z</time></trkpt><trkpt lat="44.73075555025192" lon="8.901365826607973"><ele>377.0</ele><time>2026-03-28T13:09:39Z</time></trkpt><trkpt lat="44.73081358684367" lon="8.901467301446552"><ele>380.0</ele><time>2026-03-28T13:09:40Z</time></trkpt><trkpt lat="44.73087686567244" lon="8.901570545965837"><ele>383.0</ele><time>2026-03-28T13:09:41Z</time></trkpt><trkpt lat="44.730950893501024" lon="8.901645460497887"><ele>386.0</ele><time>2026-03-28T13:09:42Z</time></trkpt><trkpt lat="44.731033028912215" lon="8.901702595167967"><ele>383.8</ele><time>2026-03-28T13:09:43Z</time></trkpt><trkpt lat="44.73110984624644" lon="8.901782671677125"><ele>381.6</ele><time>2026-03-28T13:09:44Z</time></trkpt><trkpt lat="44.73115013585826" lon="8.901886102058308"><ele>379.4</ele><time>2026-03-28T13:09:45Z</time></trkpt><trkpt lat="44.7311682213436" lon="8.90200282661849"><ele>377.2</ele><time>2026-03-28T13:09:46Z</time></trkpt><trkpt lat="44.73116806026524" lon="8.902151036552409"><ele>375.0</ele><time>2026-03-28T13:09:47Z</time></trkpt><trkpt lat="44.73116834530451" lon="8.902300842894137"><ele>375.0</ele><time>2026-03-28T13:09:48Z</time></trkpt><trkpt lat="44.73119631372776" lon="8.90241733544308"><ele>375.0</ele><time>2026-03-28T13:09:49Z</time></trkpt><trkpt lat="44.731253961447415" lon="8.902518364949078"><ele>375.0</ele><time>2026-03-28T13:09:50Z</time></trkpt><trkpt lat="44.73131488687107" lon="8.902636318000866"><ele>375.0</ele><time>2026-03-28T13:09:51Z</time></trkpt><trkpt lat="44.73137127403691" lon="8.902762536021994"><ele>375.0</ele><time>2026-03-28T13:09:52Z</time></trkpt><trkpt lat="44.73141174322568" lon="8.902879817100267"><ele>376.0</ele><time>2026-03-28T13:09:53Z</time></trkpt><trkpt lat="44.73144259484863" lon="8.90298230024417"><ele>377.0</ele><time>2026-03-28T13:09:54Z</time></trkpt><trkpt lat="44.73144899673133" lon="8.903096797259993"><ele>378.0</ele><time>2026-03-28T13:09:55Z</time></trkpt><trkpt lat="44.731420375723495" lon="8.903207879133692"><ele>379.0</ele><time>2026-03-28T13:09:56Z</time></trkpt><trkpt lat="44.73141125334424" lon="8.903331309851932"><ele>380.0</ele><time>2026-03-28T13:09:57Z</time></trkpt><trkpt lat="44.731402343888554" lon="8.903468063015431"><ele>381.0</ele><time>2026-03-28T13:09:58Z</time></trkpt><trkpt lat="44.731414817299765" lon="8.903592325197438"><ele>381.20000000000005</ele><time>2026-03-28T13:09:59Z</time></trkpt><trkpt lat="44.73145953894644" lon="8.90369980184723"><ele>381.40000000000003</ele><time>2026-03-28T13:10:00Z</time></trkpt><trkpt lat="44.73151689852387" lon="8.903797046618568"><ele>381.6</ele><time>2026-03-28T13:10:01Z</time></trkpt><trkpt lat="44.73158312481936" lon="8.90388999175857"><ele>381.8</ele><time>2026-03-28T13:10:02Z</time></trkpt><trkpt lat="44.73165642569003" lon="8.903977182730538"><ele>382.0</ele><time>2026-03-28T13:10:03Z</time></trkpt><trkpt lat="44.73173883395893" lon="8.904056393165773"><ele>382.0</ele><time>2026-03-28T13:10:04Z</time></trkpt><trkpt lat="44.73180900995149" lon="8.904159901741574"><ele>382.0</ele><time>2026-03-28T13:10:05Z</time></trkpt><trkpt lat="44.7318701406582" lon="8.904270944796842"><ele>382.0</ele><time>2026-03-28T13:10:06Z</time></trkpt><trkpt lat="44.73193047333559" lon="8.904389235255577"><ele>382.0</ele><time>2026-03-28T13:10:07Z</time></trkpt><trkpt lat="44.73198512664958" lon="8.904509031384924"><ele>382.0</ele><time>2026-03-28T13:10:08Z</time></trkpt><trkpt lat="44.73203824965754" lon="8.904618692676726"><ele>381.16666666666663</ele><time>2026-03-28T13:10:09Z</time></trkpt><trkpt lat="44.73209446201004" lon="8.904724621581856"><ele>380.3333333333333</ele><time>2026-03-28T13:10:10Z</time></trkpt><trkpt lat="44.73214264804347" lon="8.904823346281399"><ele>379.5</ele><time>2026-03-28T13:10:11Z</time></trkpt><trkpt lat="44.73217331662685" lon="8.904922268969592"><ele>378.6666666666667</ele><time>2026-03-28T13:10:12Z</time></trkpt><trkpt lat="44.73217655145676" lon="8.905042796357758"><ele>377.83333333333337</ele><time>2026-03-28T13:10:13Z</time></trkpt><trkpt lat="44.732170453323754" lon="8.905136742014786"><ele>377.0</ele><time>2026-03-28T13:10:14Z</time></trkpt><trkpt lat="44.73213991646275" lon="8.90521894589132"><ele>381.0</ele><time>2026-03-28T13:10:15Z</time></trkpt><trkpt lat="44.73207019572509" lon="8.905201627281217"><ele>385.0</ele><time>2026-03-28T13:10:17Z</time></trkpt><trkpt lat="44.73197858104283" lon="8.905236422749212"><ele>389.0</ele><time>2026-03-28T13:10:19Z</time></trkpt><trkpt lat="44.7318465757902" lon="8.90524674681051"><ele>393.0</ele><time>2026-03-28T13:10:21Z</time></trkpt><trkpt lat="44.7317663985771" lon="8.905234268808874"><ele>397.0</ele><time>2026-03-28T13:10:22Z</time></trkpt><trkpt lat="44.731665621305886" lon="8.905221147802212"><ele>397.00000000000006</ele><time>2026-03-28T13:10:23Z</time></trkpt><trkpt lat="44.73156965313658" lon="8.90522577588458"><ele>397.0</ele><time>2026-03-28T13:10:24Z</time></trkpt><trkpt lat="44.731493920594005" lon="8.905245703754911"><ele>397.0</ele><time>2026-03-28T13:10:25Z</time></trkpt><trkpt lat="44.73140526205277" lon="8.90530524512666"><ele>397.0</ele><time>2026-03-28T13:10:27Z</time></trkpt><trkpt lat="44.73137266445602" lon="8.905411170736048"><ele>397.00000000000006</ele><time>2026-03-28T13:10:29Z</time></trkpt><trkpt lat="44.7313478795653" lon="8.90552588898231"><ele>397.0</ele><time>2026-03-28T13:10:31Z</time></trkpt><trkpt lat="44.73148736775934" lon="8.90560036276949"><ele>397.0</ele><time>2026-03-28T13:10:32Z</time></trkpt><trkpt lat="44.73159608843668" lon="8.905599555209712"><ele>397.0</ele><time>2026-03-28T13:10:33Z</time></trkpt><trkpt lat="44.73168028693855" lon="8.905634686681744"><ele>397.0</ele><time>2026-03-28T13:10:34Z</time></trkpt><trkpt lat="44.73174643393987" lon="8.905663011963782"><ele>397.0</ele><time>2026-03-28T13:10:35Z</time></trkpt><trkpt lat="44.731779023515074" lon="8.905745568957537"><ele>397.0</ele><time>2026-03-28T13:10:36Z</time></trkpt><trkpt lat="44.73186348125337" lon="8.905859336136091"><ele>401.0</ele><time>2026-03-28T13:10:38Z</time></trkpt><trkpt lat="44.731906094584275" lon="8.905955251011022"><ele>405.0</ele><time>2026-03-28T13:10:39Z</time></trkpt><trkpt lat="44.731958334169" lon="8.906061922156788"><ele>409.0</ele><time>2026-03-28T13:10:40Z</time></trkpt><trkpt lat="44.732032687143274" lon="8.906150226325796"><ele>413.0</ele><time>2026-03-28T13:10:41Z</time></trkpt><trkpt lat="44.73210619278862" lon="8.906236795346686"><ele>417.0</ele><time>2026-03-28T13:10:42Z</time></trkpt><trkpt lat="44.732206885193655" lon="8.906320854421468"><ele>417.0</ele><time>2026-03-28T13:10:43Z</time></trkpt><trkpt lat="44.732295079487905" lon="8.906425327559441"><ele>417.0</ele><time>2026-03-28T13:10:44.001Z</time></trkpt><trkpt lat="44.73236866784853" lon="8.906524118088178"><ele>417.0</ele><time>2026-03-28T13:10:45.001Z</time></trkpt><trkpt lat="44.732444756907746" lon="8.906631108645744"><ele>417.0</ele><time>2026-03-28T13:10:46.001Z</time></trkpt><trkpt lat="44.73250168877637" lon="8.906745349795708"><ele>417.0</ele><time>2026-03-28T13:10:47.001Z</time></trkpt><trkpt lat="44.732547755310975" lon="8.906840857167028"><ele>415.25</ele><time>2026-03-28T13:10:48.001Z</time></trkpt><trkpt lat="44.73254524547814" lon="8.906956957568939"><ele>413.5</ele><time>2026-03-28T13:10:49.001Z</time></trkpt><trkpt lat="44.73257489835676" lon="8.907122988938076"><ele>411.75</ele><time>2026-03-28T13:10:50.001Z</time></trkpt><trkpt lat="44.732595288914034" lon="8.907313563949069"><ele>410.0</ele><time>2026-03-28T13:10:51.001Z</time></trkpt><trkpt lat="44.73262118685769" lon="8.907488453457015"><ele>409.75</ele><time>2026-03-28T13:10:52.001Z</time></trkpt><trkpt lat="44.73266409140568" lon="8.907666634368812"><ele>409.5</ele><time>2026-03-28T13:10:53.001Z</time></trkpt><trkpt lat="44.73271092967797" lon="8.907834337846117"><ele>409.25</ele><time>2026-03-28T13:10:54.001Z</time></trkpt><trkpt lat="44.73273892937134" lon="8.908008497807568"><ele>409.0</ele><time>2026-03-28T13:10:55.001Z</time></trkpt><trkpt lat="44.732761451525306" lon="8.908192146696589"><ele>407.75</ele><time>2026-03-28T13:10:56.001Z</time></trkpt><trkpt lat="44.73279803679211" lon="8.908363236435198"><ele>406.5</ele><time>2026-03-28T13:10:57.001Z</time></trkpt><trkpt lat="44.7328147115784" lon="8.908525844938923"><ele>405.25</ele><time>2026-03-28T13:10:58.001Z</time></trkpt><trkpt lat="44.732820289619326" lon="8.908674721067898"><ele>404.0</ele><time>2026-03-28T13:10:59.001Z</time></trkpt><trkpt lat="44.73281944364278" lon="8.908836689741793"><ele>404.0</ele><time>2026-03-28T13:11:00.001Z</time></trkpt><trkpt lat="44.73281878157276" lon="8.909012872629912"><ele>404.0</ele><time>2026-03-28T13:11:01.001Z</time></trkpt><trkpt lat="44.7328078374565" lon="8.909180627284366"><ele>404.0</ele><time>2026-03-28T13:11:02.001Z</time></trkpt><trkpt lat="44.73281808460686" lon="8.909340590962325"><ele>404.0</ele><time>2026-03-28T13:11:03.001Z</time></trkpt><trkpt lat="44.73285832027794" lon="8.90948548870512"><ele>407.75</ele><time>2026-03-28T13:11:04.001Z</time></trkpt><trkpt lat="44.732925985769235" lon="8.90960122634807"><ele>411.5</ele><time>2026-03-28T13:11:05.001Z</time></trkpt><trkpt lat="44.73301465192808" lon="8.909717958190548"><ele>415.25</ele><time>2026-03-28T13:11:06.001Z</time></trkpt><trkpt lat="44.73311474631589" lon="8.90981257565424"><ele>419.0</ele><time>2026-03-28T13:11:07.001Z</time></trkpt><trkpt lat="44.73322380990631" lon="8.90986503266453"><ele>419.0</ele><time>2026-03-28T13:11:08.001Z</time></trkpt><trkpt lat="44.73332346715612" lon="8.909960151281844"><ele>419.0</ele><time>2026-03-28T13:11:09.001Z</time></trkpt><trkpt lat="44.73341367074301" lon="8.91005867093116"><ele>419.0</ele><time>2026-03-28T13:11:10.001Z</time></trkpt><trkpt lat="44.733502769209885" lon="8.91017460264682"><ele>419.0</ele><time>2026-03-28T13:11:11.001Z</time></trkpt><trkpt lat="44.73359697768071" lon="8.910303509531467"><ele>419.3333333333333</ele><time>2026-03-28T13:11:12.001Z</time></trkpt><trkpt lat="44.733691101775236" lon="8.910400102894892"><ele>419.66666666666663</ele><time>2026-03-28T13:11:13.001Z</time></trkpt><trkpt lat="44.7337581749679" lon="8.910478400382623"><ele>420.0</ele><time>2026-03-28T13:11:14.001Z</time></trkpt><trkpt lat="44.73382418691581" lon="8.910488903074583"><ele>420.33333333333337</ele><time>2026-03-28T13:11:15.001Z</time></trkpt><trkpt lat="44.73389386936784" lon="8.910453003509021"><ele>420.6666666666667</ele><time>2026-03-28T13:11:16.001Z</time></trkpt><trkpt lat="44.733984921420884" lon="8.910466652671424"><ele>421.0</ele><time>2026-03-28T13:11:17.001Z</time></trkpt><trkpt lat="44.73410504034904" lon="8.910480519712044"><ele>421.0</ele><time>2026-03-28T13:11:18.001Z</time></trkpt><trkpt lat="44.73423928092587" lon="8.910524548305927"><ele>421.0</ele><time>2026-03-28T13:11:19.001Z</time></trkpt><trkpt lat="44.73435751518436" lon="8.91055863789908"><ele>421.0</ele><time>2026-03-28T13:11:20.001Z</time></trkpt><trkpt lat="44.73443319648501" lon="8.910624396222223"><ele>421.0</ele><time>2026-03-28T13:11:21.001Z</time></trkpt><trkpt lat="44.7345067731541" lon="8.910674645151133"><ele>421.0</ele><time>2026-03-28T13:11:22.001Z</time></trkpt><trkpt lat="44.73455129668588" lon="8.910795503189403"><ele>422.0</ele><time>2026-03-28T13:11:23.001Z</time></trkpt><trkpt lat="44.73462633767493" lon="8.91088404840644"><ele>423.0</ele><time>2026-03-28T13:11:24.001Z</time></trkpt><trkpt lat="44.73469366804088" lon="8.91100397271817"><ele>424.0</ele><time>2026-03-28T13:11:25.001Z</time></trkpt><trkpt lat="44.734755226452116" lon="8.911092269244152"><ele>425.0</ele><time>2026-03-28T13:11:26.001Z</time></trkpt><trkpt lat="44.73481214337859" lon="8.911167345416718"><ele>426.0</ele><time>2026-03-28T13:11:27.001Z</time></trkpt><trkpt lat="44.73488977598489" lon="8.911220027869655"><ele>426.0</ele><time>2026-03-28T13:11:28.001Z</time></trkpt><trkpt lat="44.73499995527131" lon="8.911259239686112"><ele>426.0</ele><time>2026-03-28T13:11:29.001Z</time></trkpt><trkpt lat="44.735101082147" lon="8.911279709750518"><ele>426.0</ele><time>2026-03-28T13:11:30.001Z</time></trkpt><trkpt lat="44.73518711515337" lon="8.911241700296221"><ele>426.0</ele><time>2026-03-28T13:11:31.001Z</time></trkpt><trkpt lat="44.73528115814742" lon="8.911167411266772"><ele>426.0</ele><time>2026-03-28T13:11:32.001Z</time></trkpt><trkpt lat="44.735381350104376" lon="8.911151943415534"><ele>426.6666666666667</ele><time>2026-03-28T13:11:33.001Z</time></trkpt><trkpt lat="44.73544957873306" lon="8.911171222964764"><ele>427.33333333333337</ele><time>2026-03-28T13:11:34.001Z</time></trkpt><trkpt lat="44.735540168121915" lon="8.911176533785218"><ele>428.0</ele><time>2026-03-28T13:11:35.001Z</time></trkpt><trkpt lat="44.735626513676785" lon="8.911192711736778"><ele>428.6666666666667</ele><time>2026-03-28T13:11:36.001Z</time></trkpt><trkpt lat="44.73570699030324" lon="8.911139327319955"><ele>429.33333333333337</ele><time>2026-03-28T13:11:37.001Z</time></trkpt><trkpt lat="44.735809740266326" lon="8.911114402839473"><ele>430.0</ele><time>2026-03-28T13:11:38.001Z</time></trkpt><trkpt lat="44.735938984650154" lon="8.911088920339854"><ele>432.8</ele><time>2026-03-28T13:11:39Z</time></trkpt><trkpt lat="44.736057699780346" lon="8.91109095362426"><ele>435.6</ele><time>2026-03-28T13:11:40Z</time></trkpt><trkpt lat="44.736166040209746" lon="8.911118909867836"><ele>438.4</ele><time>2026-03-28T13:11:41Z</time></trkpt><trkpt lat="44.73626562539245" lon="8.911156809979563"><ele>441.2</ele><time>2026-03-28T13:11:42Z</time></trkpt><trkpt lat="44.73636577831014" lon="8.911178030435845"><ele>444.0</ele><time>2026-03-28T13:11:43Z</time></trkpt><trkpt lat="44.736451006828695" lon="8.91121731566649"><ele>444.0</ele><time>2026-03-28T13:11:44Z</time></trkpt><trkpt lat="44.736521496432644" lon="8.911285289041826"><ele>444.0</ele><time>2026-03-28T13:11:45Z</time></trkpt><trkpt lat="44.736560353419684" lon="8.911421333457504"><ele>444.0</ele><time>2026-03-28T13:11:46Z</time></trkpt><trkpt lat="44.736627963644885" lon="8.911569617308926"><ele>444.0</ele><time>2026-03-28T13:11:47Z</time></trkpt><trkpt lat="44.73671810051883" lon="8.911725101869282"><ele>445.25</ele><time>2026-03-28T13:11:48Z</time></trkpt><trkpt lat="44.73678508848124" lon="8.911885999193334"><ele>446.5</ele><time>2026-03-28T13:11:49Z</time></trkpt><trkpt lat="44.73686192479333" lon="8.911997940814146"><ele>447.75</ele><time>2026-03-28T13:11:50Z</time></trkpt><trkpt lat="44.736941379716065" lon="8.912102997302311"><ele>449.0</ele><time>2026-03-28T13:11:51Z</time></trkpt><trkpt lat="44.737013865299076" lon="8.912228722478302"><ele>449.0</ele><time>2026-03-28T13:11:52Z</time></trkpt><trkpt lat="44.73710940400779" lon="8.91233983422182"><ele>449.0</ele><time>2026-03-28T13:11:53Z</time></trkpt><trkpt lat="44.737195101684314" lon="8.912444255096268"><ele>449.0</ele><time>2026-03-28T13:11:54Z</time></trkpt><trkpt lat="44.737283148861465" lon="8.91253398487562"><ele>449.0</ele><time>2026-03-28T13:11:55Z</time></trkpt><trkpt lat="44.73736718574902" lon="8.912638736998245"><ele>448.25</ele><time>2026-03-28T13:11:56Z</time></trkpt><trkpt lat="44.737464421882606" lon="8.91275230068268"><ele>447.5</ele><time>2026-03-28T13:11:57Z</time></trkpt><trkpt lat="44.737578972795184" lon="8.91282916645768"><ele>446.75</ele><time>2026-03-28T13:11:58Z</time></trkpt><trkpt lat="44.73769633298879" lon="8.912888006586996"><ele>446.0</ele><time>2026-03-28T13:11:59Z</time></trkpt><trkpt lat="44.73782022379008" lon="8.91293222573405"><ele>446.0</ele><time>2026-03-28T13:12:00Z</time></trkpt><trkpt lat="44.737930188914795" lon="8.913013387641836"><ele>446.0</ele><time>2026-03-28T13:12:01Z</time></trkpt><trkpt lat="44.73804270106704" lon="8.913069368350847"><ele>446.0</ele><time>2026-03-28T13:12:02Z</time></trkpt><trkpt lat="44.73813222023209" lon="8.913110573697136"><ele>446.0</ele><time>2026-03-28T13:12:03Z</time></trkpt><trkpt lat="44.738211371284834" lon="8.913146044546645"><ele>446.0</ele><time>2026-03-28T13:12:04Z</time></trkpt><trkpt lat="44.73829306143052" lon="8.91317278235946"><ele>446.0</ele><time>2026-03-28T13:12:05Z</time></trkpt><trkpt lat="44.738355978591876" lon="8.913200582047917"><ele>446.0</ele><time>2026-03-28T13:12:06Z</time></trkpt><trkpt lat="44.7384322999485" lon="8.913261432761113"><ele>446.0</ele><time>2026-03-28T13:12:07Z</time></trkpt><trkpt lat="44.738488725923744" lon="8.913395880607672"><ele>446.0</ele><time>2026-03-28T13:12:08Z</time></trkpt><trkpt lat="44.738557448073045" lon="8.9135087680549"><ele>446.0</ele><time>2026-03-28T13:12:09Z</time></trkpt><trkpt lat="44.7386376233627" lon="8.913615424279618"><ele>448.20000000000005</ele><time>2026-03-28T13:12:10Z</time></trkpt><trkpt lat="44.738698981064815" lon="8.91372949197808"><ele>450.40000000000003</ele><time>2026-03-28T13:12:11Z</time></trkpt><trkpt lat="44.73877201587385" lon="8.91382992128656"><ele>452.6</ele><time>2026-03-28T13:12:12Z</time></trkpt><trkpt lat="44.73883424162968" lon="8.913917036597509"><ele>454.8</ele><time>2026-03-28T13:12:13Z</time></trkpt><trkpt lat="44.73887425289774" lon="8.914014482359644"><ele>457.0</ele><time>2026-03-28T13:12:14Z</time></trkpt><trkpt lat="44.73892842394637" lon="8.914117412600495"><ele>457.00000000000006</ele><time>2026-03-28T13:12:15Z</time></trkpt><trkpt lat="44.73898770812134" lon="8.914202607219304"><ele>457.0</ele><time>2026-03-28T13:12:16Z</time></trkpt><trkpt lat="44.73901736335715" lon="8.914285771847501"><ele>457.0</ele><time>2026-03-28T13:12:17Z</time></trkpt><trkpt lat="44.73907952065678" lon="8.914404413447404"><ele>457.0</ele><time>2026-03-28T13:12:19Z</time></trkpt><trkpt lat="44.739091303327584" lon="8.91450740897594"><ele>457.00000000000006</ele><time>2026-03-28T13:12:23Z</time></trkpt><trkpt lat="44.739141014543" lon="8.914604633240783"><ele>457.0</ele><time>2026-03-28T13:12:26Z</time></trkpt><trkpt lat="44.73917084022306" lon="8.914722212446192"><ele>456.6</ele><time>2026-03-28T13:12:28Z</time></trkpt><trkpt lat="44.73920315325719" lon="8.914888136778739"><ele>456.20000000000005</ele><time>2026-03-28T13:12:30Z</time></trkpt><trkpt lat="44.73921852981279" lon="8.914975738509051"><ele>455.8</ele><time>2026-03-28T13:12:31Z</time></trkpt><trkpt lat="44.73924860701812" lon="8.915148131433446"><ele>455.4</ele><time>2026-03-28T13:12:33Z</time></trkpt><trkpt lat="44.73927427176183" lon="8.91531424173053"><ele>455.0</ele><time>2026-03-28T13:12:35Z</time></trkpt><trkpt lat="44.73929350644506" lon="8.915463003136416"><ele>457.16666666666663</ele><time>2026-03-28T13:12:36Z</time></trkpt><trkpt lat="44.739278569705924" lon="8.915599024696848"><ele>459.3333333333333</ele><time>2026-03-28T13:12:37Z</time></trkpt><trkpt lat="44.7392461992302" lon="8.915710330526897"><ele>461.5</ele><time>2026-03-28T13:12:38Z</time></trkpt><trkpt lat="44.73918717593617" lon="8.915819779096404"><ele>463.66666666666663</ele><time>2026-03-28T13:12:39Z</time></trkpt><trkpt lat="44.73911608343344" lon="8.915911781535451"><ele>465.8333333333333</ele><time>2026-03-28T13:12:40Z</time></trkpt><trkpt lat="44.73906375966664" lon="8.915981680214585"><ele>468.0</ele><time>2026-03-28T13:12:41Z</time></trkpt><trkpt lat="44.738962561412514" lon="8.916097948398932"><ele>470.0</ele><time>2026-03-28T13:12:43Z</time></trkpt><trkpt lat="44.73884764535648" lon="8.916166807079101"><ele>471.99999999999994</ele><time>2026-03-28T13:12:44Z</time></trkpt><trkpt lat="44.73876974250707" lon="8.91619923947205"><ele>473.99999999999994</ele><time>2026-03-28T13:12:45Z</time></trkpt><trkpt lat="44.73867434908089" lon="8.916253416594811"><ele>476.0</ele><time>2026-03-28T13:12:47Z</time></trkpt><trkpt lat="44.73858105609891" lon="8.916302883371525"><ele>478.0</ele><time>2026-03-28T13:12:49Z</time></trkpt><trkpt lat="44.73851788560487" lon="8.916337432985642"><ele>478.00000000000006</ele><time>2026-03-28T13:12:50.001Z</time></trkpt><trkpt lat="44.73845553660245" lon="8.916373357182568"><ele>478.0</ele><time>2026-03-28T13:12:51.001Z</time></trkpt><trkpt lat="44.738392293848435" lon="8.916413552167572"><ele>478.00000000000006</ele><time>2026-03-28T13:12:52.001Z</time></trkpt><trkpt lat="44.738318427850224" lon="8.916460498312418"><ele>478.00000000000006</ele><time>2026-03-28T13:12:54.001Z</time></trkpt><trkpt lat="44.73824998653388" lon="8.91650399387761"><ele>478.0</ele><time>2026-03-28T13:12:56.001Z</time></trkpt><trkpt lat="44.73818749527683" lon="8.916543708088993"><ele>478.00000000000006</ele><time>2026-03-28T13:12:58.001Z</time></trkpt><trkpt lat="44.73810958624677" lon="8.916593220541627"><ele>478.00000000000006</ele><time>2026-03-28T13:13:00.001Z</time></trkpt><trkpt lat="44.738033062657976" lon="8.916580916634711"><ele>478.0</ele><time>2026-03-28T13:13:01.001Z</time></trkpt><trkpt lat="44.73791921306204" lon="8.916656631411861"><ele>477.99999999999994</ele><time>2026-03-28T13:13:03.001Z</time></trkpt><trkpt lat="44.73781418486165" lon="8.916731457961433"><ele>477.99999999999994</ele><time>2026-03-28T13:13:05.001Z</time></trkpt><trkpt lat="44.73772596415904" lon="8.916768740192882"><ele>478.0</ele><time>2026-03-28T13:13:07.001Z</time></trkpt><trkpt lat="44.73766709340754" lon="8.916716935426024"><ele>478.0</ele><time>2026-03-28T13:13:09.001Z</time></trkpt><trkpt lat="44.737636766050706" lon="8.916611097929783"><ele>477.75</ele><time>2026-03-28T13:13:11.001Z</time></trkpt><trkpt lat="44.73758264575094" lon="8.916485320386183"><ele>477.5</ele><time>2026-03-28T13:13:13.001Z</time></trkpt><trkpt lat="44.737505968192785" lon="8.916353844239127"><ele>477.25</ele><time>2026-03-28T13:13:15.001Z</time></trkpt><trkpt lat="44.73745394305526" lon="8.91623036090902"><ele>477.0</ele><time>2026-03-28T13:13:17.001Z</time></trkpt><trkpt lat="44.73740173405538" lon="8.916039363121568"><ele>477.0</ele><time>2026-03-28T13:13:19.001Z</time></trkpt><trkpt lat="44.73735583737574" lon="8.915907293695678"><ele>477.00000000000006</ele><time>2026-03-28T13:13:20.001Z</time></trkpt><trkpt lat="44.73731366635716" lon="8.915801506152087"><ele>477.00000000000006</ele><time>2026-03-28T13:13:21.001Z</time></trkpt><trkpt lat="44.73727266718318" lon="8.91571210939351"><ele>477.0</ele><time>2026-03-28T13:13:22.001Z</time></trkpt><trkpt lat="44.737211958844654" lon="8.915605862470192"><ele>477.0</ele><time>2026-03-28T13:13:24.001Z</time></trkpt><trkpt lat="44.73711853521946" lon="8.915610819049675"><ele>477.5</ele><time>2026-03-28T13:13:26.001Z</time></trkpt><trkpt lat="44.7370663720635" lon="8.915670867889057"><ele>478.0</ele><time>2026-03-28T13:13:27.001Z</time></trkpt><trkpt lat="44.73701131761256" lon="8.915760183198486"><ele>478.5</ele><time>2026-03-28T13:13:28.001Z</time></trkpt><trkpt lat="44.7369643868307" lon="8.9158271801804"><ele>479.0</ele><time>2026-03-28T13:13:29.001Z</time></trkpt><trkpt lat="44.73687956361591" lon="8.915921246573877"><ele>479.5</ele><time>2026-03-28T13:13:31.001Z</time></trkpt><trkpt lat="44.73681536285892" lon="8.916052313513955"><ele>480.0</ele><time>2026-03-28T13:13:33.001Z</time></trkpt><trkpt lat="44.736788722294264" lon="8.91615463894523"><ele>480.0</ele><time>2026-03-28T13:13:34.001Z</time></trkpt><trkpt lat="44.73676176999261" lon="8.916246187506301"><ele>480.0</ele><time>2026-03-28T13:13:35.001Z</time></trkpt><trkpt lat="44.73672331646232" lon="8.916354617953942"><ele>480.0</ele><time>2026-03-28T13:13:36.001Z</time></trkpt><trkpt lat="44.73668895515947" lon="8.916438027190823"><ele>480.0</ele><time>2026-03-28T13:13:37.001Z</time></trkpt><trkpt lat="44.73662644928533" lon="8.916521962716303"><ele>480.0</ele><time>2026-03-28T13:13:39.001Z</time></trkpt><trkpt lat="44.7365606346333" lon="8.916520588965875"><ele>480.0</ele><time>2026-03-28T13:13:42.001Z</time></trkpt><trkpt lat="44.73650815333594" lon="8.916458698139795"><ele>480.0</ele><time>2026-03-28T13:13:44.001Z</time></trkpt><trkpt lat="44.73645191113695" lon="8.916341278215095"><ele>480.0</ele><time>2026-03-28T13:13:46Z</time></trkpt><trkpt lat="44.736408022359164" lon="8.916207765512796"><ele>480.0</ele><time>2026-03-28T13:13:48Z</time></trkpt><trkpt lat="44.73633775799179" lon="8.91611808549829"><ele>480.0</ele><time>2026-03-28T13:13:50Z</time></trkpt><trkpt lat="44.73626014616161" lon="8.916086256301638"><ele>480.0</ele><time>2026-03-28T13:13:51Z</time></trkpt><trkpt lat="44.736180702386335" lon="8.916053793004421"><ele>480.0</ele><time>2026-03-28T13:13:52Z</time></trkpt><trkpt lat="44.73611120790325" lon="8.916026095467524"><ele>480.0</ele><time>2026-03-28T13:13:53Z</time></trkpt><trkpt lat="44.73606505086641" lon="8.91596395466732"><ele>476.6</ele><time>2026-03-28T13:13:54Z</time></trkpt><trkpt lat="44.73601274407982" lon="8.915877449859797"><ele>473.2</ele><time>2026-03-28T13:13:55Z</time></trkpt><trkpt lat="44.735954201848095" lon="8.91580743684608"><ele>469.79999999999995</ele><time>2026-03-28T13:13:56Z</time></trkpt><trkpt lat="44.73589587523633" lon="8.91574587126822"><ele>466.4</ele><time>2026-03-28T13:13:57Z</time></trkpt><trkpt lat="44.73578925806222" lon="8.91574175896125"><ele>463.0</ele><time>2026-03-28T13:13:59Z</time></trkpt><trkpt lat="44.735685308940695" lon="8.91581902708424"><ele>463.00000000000006</ele><time>2026-03-28T13:14:01Z</time></trkpt><trkpt lat="44.73561849215819" lon="8.915893571059186"><ele>463.0</ele><time>2026-03-28T13:14:02Z</time></trkpt><trkpt lat="44.735551991910654" lon="8.915936630858706"><ele>463.0</ele><time>2026-03-28T13:14:03Z</time></trkpt><trkpt lat="44.73547856555338" lon="8.915954344781763"><ele>463.0</ele><time>2026-03-28T13:14:04Z</time></trkpt><trkpt lat="44.735367717299674" lon="8.916019653392608"><ele>463.00000000000006</ele><time>2026-03-28T13:14:06Z</time></trkpt><trkpt lat="44.73529958901765" lon="8.916033503149341"><ele>463.0</ele><time>2026-03-28T13:14:08Z</time></trkpt><trkpt lat="44.735198900528445" lon="8.916028583144188"><ele>462.33333333333337</ele><time>2026-03-28T13:14:10Z</time></trkpt><trkpt lat="44.735131472530625" lon="8.916010877649441"><ele>461.6666666666667</ele><time>2026-03-28T13:14:11Z</time></trkpt><trkpt lat="44.73506287871603" lon="8.915982891148335"><ele>461.0</ele><time>2026-03-28T13:14:12Z</time></trkpt><trkpt lat="44.73499130846163" lon="8.91592777814057"><ele>460.33333333333337</ele><time>2026-03-28T13:14:13Z</time></trkpt><trkpt lat="44.73492798175684" lon="8.915912566169451"><ele>459.6666666666667</ele><time>2026-03-28T13:14:14Z</time></trkpt><trkpt lat="44.73485635625923" lon="8.915860782461962"><ele>459.0</ele><time>2026-03-28T13:14:15Z</time></trkpt><trkpt lat="44.73477640198584" lon="8.91580844122154"><ele>459.0</ele><time>2026-03-28T13:14:16Z</time></trkpt><trkpt lat="44.73465184484501" lon="8.915801343867821"><ele>459.0</ele><time>2026-03-28T13:14:18Z</time></trkpt><trkpt lat="44.73455935518955" lon="8.915825221060684"><ele>459.0</ele><time>2026-03-28T13:14:19Z</time></trkpt><trkpt lat="44.73446763090955" lon="8.915841845174516"><ele>459.0</ele><time>2026-03-28T13:14:20Z</time></trkpt><trkpt lat="44.73438250075555" lon="8.915860057482595"><ele>459.0</ele><time>2026-03-28T13:14:21Z</time></trkpt><trkpt lat="44.734310178013565" lon="8.915869929173347"><ele>458.3333333333333</ele><time>2026-03-28T13:14:22Z</time></trkpt><trkpt lat="44.734231194349874" lon="8.915875576366982"><ele>457.66666666666663</ele><time>2026-03-28T13:14:23Z</time></trkpt><trkpt lat="44.73414936389727" lon="8.915870483542145"><ele>457.0</ele><time>2026-03-28T13:14:24Z</time></trkpt><trkpt lat="44.73407394725435" lon="8.915877981600742"><ele>456.3333333333333</ele><time>2026-03-28T13:14:25Z</time></trkpt><trkpt lat="44.733963377068086" lon="8.915875210261673"><ele>455.66666666666663</ele><time>2026-03-28T13:14:27Z</time></trkpt><trkpt lat="44.733879211321685" lon="8.915850032404931"><ele>455.0</ele><time>2026-03-28T13:14:30Z</time></trkpt><trkpt lat="44.73381464902817" lon="8.915838974464794"><ele>455.0</ele><time>2026-03-28T13:14:31Z</time></trkpt><trkpt lat="44.73371719434989" lon="8.915822505189361"><ele>455.0</ele><time>2026-03-28T13:14:33Z</time></trkpt><trkpt lat="44.73360432480374" lon="8.915799257031363"><ele>455.0</ele><time>2026-03-28T13:14:35Z</time></trkpt><trkpt lat="44.73354999529305" lon="8.915750629593669"><ele>455.0</ele><time>2026-03-28T13:14:36Z</time></trkpt><trkpt lat="44.73343646589534" lon="8.915641245912045"><ele>455.0</ele><time>2026-03-28T13:14:38Z</time></trkpt><trkpt lat="44.73335540092978" lon="8.915613681762641"><ele>456.0</ele><time>2026-03-28T13:14:39Z</time></trkpt><trkpt lat="44.73327692200106" lon="8.915619507729591"><ele>457.0</ele><time>2026-03-28T13:14:40Z</time></trkpt><trkpt lat="44.73320410580329" lon="8.915632969707437"><ele>458.0</ele><time>2026-03-28T13:14:41Z</time></trkpt><trkpt lat="44.73313471193796" lon="8.915680970372458"><ele>459.0</ele><time>2026-03-28T13:14:42Z</time></trkpt><trkpt lat="44.733094396241086" lon="8.915761066820355"><ele>460.0</ele><time>2026-03-28T13:14:43Z</time></trkpt><trkpt lat="44.733021915449505" lon="8.915947616837833"><ele>463.1666666666667</ele><time>2026-03-28T13:14:45Z</time></trkpt><trkpt lat="44.73298331393321" lon="8.91602817898902"><ele>466.33333333333337</ele><time>2026-03-28T13:14:46Z</time></trkpt><trkpt lat="44.732987371317236" lon="8.916154967741226"><ele>469.5</ele><time>2026-03-28T13:14:48.001Z</time></trkpt><trkpt lat="44.73293493249008" lon="8.916239552732549"><ele>472.66666666666663</ele><time>2026-03-28T13:14:51.001Z</time></trkpt><trkpt lat="44.732839507854834" lon="8.916271453886251"><ele>475.8333333333333</ele><time>2026-03-28T13:14:53.001Z</time></trkpt><trkpt lat="44.73277422954142" lon="8.916284886263695"><ele>479.0</ele><time>2026-03-28T13:14:54.001Z</time></trkpt><trkpt lat="44.73270556916554" lon="8.9163012043876"><ele>479.0</ele><time>2026-03-28T13:14:55.001Z</time></trkpt><trkpt lat="44.73257966177882" lon="8.916271726897987"><ele>479.0</ele><time>2026-03-28T13:14:57.001Z</time></trkpt><trkpt lat="44.73249296456776" lon="8.916266270334164"><ele>479.0</ele><time>2026-03-28T13:14:58.001Z</time></trkpt><trkpt lat="44.73241480522591" lon="8.916270808069603"><ele>479.0</ele><time>2026-03-28T13:14:59.001Z</time></trkpt><trkpt lat="44.732334143697294" lon="8.91626310233073"><ele>479.0</ele><time>2026-03-28T13:22:39Z</time></trkpt><trkpt lat="44.732235116863855" lon="8.916208648933452"><ele>478.99999999999994</ele><time>2026-03-28T13:22:42Z</time></trkpt><trkpt lat="44.732143642760164" lon="8.916142146437172"><ele>479.0</ele><time>2026-03-28T13:22:44Z</time></trkpt><trkpt lat="44.732061265368394" lon="8.916144550694984"><ele>479.0</ele><time>2026-03-28T13:22:47Z</time></trkpt><trkpt lat="44.73207660859152" lon="8.91624592658905"><ele>479.0</ele><time>2026-03-28T13:22:49Z</time></trkpt><trkpt lat="44.73212507194129" lon="8.916326859493106"><ele>478.99999999999994</ele><time>2026-03-28T13:22:51Z</time></trkpt><trkpt lat="44.732139287932846" lon="8.916450410747085"><ele>479.0</ele><time>2026-03-28T13:26:55Z</time></trkpt><trkpt lat="44.732083356858695" lon="8.916501561372215"><ele>478.99999999999994</ele><time>2026-03-28T13:29:20Z</time></trkpt><trkpt lat="44.73201264667243" lon="8.916529334510411"><ele>479.0</ele><time>2026-03-28T13:29:23Z</time></trkpt><trkpt lat="44.731975344496824" lon="8.916604515590567"><ele>479.0</ele><time>2026-03-28T13:29:38Z</time></trkpt><trkpt lat="44.731973064842364" lon="8.916702829409145"><ele>479.0</ele><time>2026-03-28T13:29:41Z</time></trkpt><trkpt lat="44.73197785198504" lon="8.91680241115318"><ele>478.99999999999994</ele><time>2026-03-28T13:29:44.001Z</time></trkpt><trkpt lat="44.73198621146831" lon="8.916931625251621"><ele>479.0</ele><time>2026-03-28T13:29:46.001Z</time></trkpt><trkpt lat="44.73202335491338" lon="8.917081080176736"><ele>479.0</ele><time>2026-03-28T13:29:48.001Z</time></trkpt><trkpt lat="44.73203856232496" lon="8.917223410973145"><ele>479.0</ele><time>2026-03-28T13:29:50.001Z</time></trkpt><trkpt lat="44.732032431306045" lon="8.917355161582583"><ele>479.0</ele><time>2026-03-28T13:29:52.001Z</time></trkpt><trkpt lat="44.732055616717076" lon="8.9174794439997"><ele>479.0</ele><time>2026-03-28T13:29:54.001Z</time></trkpt><trkpt lat="44.732058074904536" lon="8.91759278494711"><ele>479.0</ele><time>2026-03-28T13:29:56.001Z</time></trkpt><trkpt lat="44.73200768500136" lon="8.91773481226293"><ele>478.99999999999994</ele><time>2026-03-28T13:29:58.001Z</time></trkpt><trkpt lat="44.731961831619685" lon="8.917809985460405"><ele>479.0</ele><time>2026-03-28T13:29:59.001Z</time></trkpt><trkpt lat="44.731912057482205" lon="8.917888452722968"><ele>479.0</ele><time>2026-03-28T13:30:00.001Z</time></trkpt><trkpt lat="44.73186583451716" lon="8.91795151459119"><ele>479.0</ele><time>2026-03-28T13:30:01.001Z</time></trkpt><trkpt lat="44.73177750666158" lon="8.918056977210954"><ele>478.99999999999994</ele><time>2026-03-28T13:30:03.001Z</time></trkpt><trkpt lat="44.731706027927785" lon="8.918129280592598"><ele>479.0</ele><time>2026-03-28T13:30:05.001Z</time></trkpt><trkpt lat="44.731676330065866" lon="8.918238347234835"><ele>474.16666666666663</ele><time>2026-03-28T13:30:08.001Z</time></trkpt><trkpt lat="44.73164930790826" lon="8.918341977646964"><ele>469.3333333333333</ele><time>2026-03-28T13:30:10.001Z</time></trkpt><trkpt lat="44.73160170841494" lon="8.918404552671811"><ele>464.5</ele><time>2026-03-28T13:30:12.001Z</time></trkpt><trkpt lat="44.73156084864468" lon="8.918479448609881"><ele>459.66666666666663</ele><time>2026-03-28T13:30:14.001Z</time></trkpt><trkpt lat="44.73154819239147" lon="8.918586691742066"><ele>454.8333333333333</ele><time>2026-03-28T13:30:16.001Z</time></trkpt><trkpt lat="44.73158627016304" lon="8.91869265348036"><ele>450.0</ele><time>2026-03-28T13:30:18.001Z</time></trkpt><trkpt lat="44.73169637655661" lon="8.918748021753395"><ele>448.8333333333333</ele><time>2026-03-28T13:30:20.001Z</time></trkpt><trkpt lat="44.73177010993816" lon="8.9187736748965"><ele>447.66666666666663</ele><time>2026-03-28T13:30:22.001Z</time></trkpt><trkpt lat="44.731850632785935" lon="8.918812629962925"><ele>446.5</ele><time>2026-03-28T13:30:24.001Z</time></trkpt><trkpt lat="44.731909217126976" lon="8.918869583052336"><ele>445.3333333333333</ele><time>2026-03-28T13:30:28.001Z</time></trkpt><trkpt lat="44.73194574339826" lon="8.918955005332908"><ele>444.16666666666663</ele><time>2026-03-28T13:30:41Z</time></trkpt><trkpt lat="44.73198056374355" lon="8.919042058079812"><ele>443.0</ele><time>2026-03-28T13:30:44Z</time></trkpt><trkpt lat="44.7320447205347" lon="8.919120112225212"><ele>442.99999999999994</ele><time>2026-03-28T13:30:47Z</time></trkpt><trkpt lat="44.73213208036813" lon="8.919119747137424"><ele>443.0</ele><time>2026-03-28T13:30:50Z</time></trkpt><trkpt lat="44.732215013810645" lon="8.919177404227472"><ele>443.0</ele><time>2026-03-28T13:30:53Z</time></trkpt><trkpt lat="44.73229570525322" lon="8.919197414229854"><ele>443.0</ele><time>2026-03-28T13:30:56Z</time></trkpt><trkpt lat="44.7324057077521" lon="8.919207061901096"><ele>442.99999999999994</ele><time>2026-03-28T13:32:38.999Z</time></trkpt><trkpt lat="44.732464623784985" lon="8.919247542004822"><ele>443.0</ele><time>2026-03-28T13:33:39Z</time></trkpt><trkpt lat="44.73252426030633" lon="8.919295988980723"><ele>440.16666666666663</ele><time>2026-03-28T13:34:50Z</time></trkpt><trkpt lat="44.73260662702483" lon="8.919316453735142"><ele>437.3333333333333</ele><time>2026-03-28T13:35:11Z</time></trkpt><trkpt lat="44.73266896046101" lon="8.91934908480677"><ele>434.5</ele><time>2026-03-28T13:35:17Z</time></trkpt><trkpt lat="44.73272628205237" lon="8.919389313269663"><ele>431.66666666666663</ele><time>2026-03-28T13:35:24Z</time></trkpt><trkpt lat="44.73280214892084" lon="8.919401285985852"><ele>428.8333333333333</ele><time>2026-03-28T13:35:28Z</time></trkpt><trkpt lat="44.73289629782139" lon="8.919413200944067"><ele>426.0</ele><time>2026-03-28T13:35:30Z</time></trkpt><trkpt lat="44.73298864334065" lon="8.919446138749349"><ele>426.0</ele><time>2026-03-28T13:35:32Z</time></trkpt><trkpt lat="44.733090684868266" lon="8.919511395863207"><ele>426.0</ele><time>2026-03-28T13:35:34Z</time></trkpt><trkpt lat="44.73320664891422" lon="8.919541848027027"><ele>426.0</ele><time>2026-03-28T13:35:36Z</time></trkpt><trkpt lat="44.73326794840114" lon="8.919593916708841"><ele>426.0</ele><time>2026-03-28T13:35:39Z</time></trkpt><trkpt lat="44.73330069138811" lon="8.919709111269682"><ele>426.0</ele><time>2026-03-28T13:35:43Z</time></trkpt><trkpt lat="44.73328321437779" lon="8.919838212578053"><ele>426.0</ele><time>2026-03-28T13:36:09.001Z</time></trkpt><trkpt lat="44.73327385790638" lon="8.919985616165322"><ele>426.0</ele><time>2026-03-28T13:36:11.001Z</time></trkpt><trkpt lat="44.733246027503554" lon="8.920142366796117"><ele>426.0</ele><time>2026-03-28T13:36:13.001Z</time></trkpt><trkpt lat="44.73319146168898" lon="8.920190108623538"><ele>426.0</ele><time>2026-03-28T13:36:14.001Z</time></trkpt><trkpt lat="44.73311817088842" lon="8.920277415135455"><ele>426.0</ele><time>2026-03-28T13:36:16.001Z</time></trkpt><trkpt lat="44.73301776345102" lon="8.920342565199762"><ele>427.3333333333333</ele><time>2026-03-28T13:36:18.001Z</time></trkpt><trkpt lat="44.73295503418226" lon="8.92036953000012"><ele>428.66666666666663</ele><time>2026-03-28T13:36:19.001Z</time></trkpt><trkpt lat="44.73286682168036" lon="8.920389399058969"><ele>430.0</ele><time>2026-03-28T13:36:21.001Z</time></trkpt><trkpt lat="44.73280562795829" lon="8.920428238691285"><ele>431.3333333333333</ele><time>2026-03-28T13:36:23.001Z</time></trkpt><trkpt lat="44.73272674508217" lon="8.920431796036366"><ele>432.66666666666663</ele><time>2026-03-28T13:36:25.001Z</time></trkpt><trkpt lat="44.73262189976965" lon="8.920474644249474"><ele>434.0</ele><time>2026-03-28T13:36:27.001Z</time></trkpt><trkpt lat="44.73256134936143" lon="8.920501056123202"><ele>429.8333333333333</ele><time>2026-03-28T13:36:28.001Z</time></trkpt><trkpt lat="44.732484070427255" lon="8.920546719807207"><ele>425.66666666666663</ele><time>2026-03-28T13:36:29.001Z</time></trkpt><trkpt lat="44.73238174894426" lon="8.920600704279183"><ele>421.5</ele><time>2026-03-28T13:36:31.001Z</time></trkpt><trkpt lat="44.73231646538274" lon="8.920616256293744"><ele>417.33333333333337</ele><time>2026-03-28T13:36:32.001Z</time></trkpt><trkpt lat="44.73225312736371" lon="8.920650112989257"><ele>413.1666666666667</ele><time>2026-03-28T13:36:33.001Z</time></trkpt><trkpt lat="44.732170548015695" lon="8.920692488461162"><ele>409.0</ele><time>2026-03-28T13:36:34.001Z</time></trkpt><trkpt lat="44.732092274551036" lon="8.920776548170185"><ele>409.00000000000006</ele><time>2026-03-28T13:36:35.001Z</time></trkpt><trkpt lat="44.7320034595027" lon="8.920884294517613"><ele>409.0</ele><time>2026-03-28T13:36:36.001Z</time></trkpt><trkpt lat="44.73193532430327" lon="8.92097336998039"><ele>409.0</ele><time>2026-03-28T13:36:37.001Z</time></trkpt><trkpt lat="44.73186855223789" lon="8.921045595492282"><ele>409.0</ele><time>2026-03-28T13:36:38.001Z</time></trkpt><trkpt lat="44.73181682126195" lon="8.921103293343512"><ele>409.00000000000006</ele><time>2026-03-28T13:36:39.001Z</time></trkpt><trkpt lat="44.73175413306568" lon="8.921180950823981"><ele>409.0</ele><time>2026-03-28T13:36:41.001Z</time></trkpt><trkpt lat="44.73167436837124" lon="8.921240133807261"><ele>402.2</ele><time>2026-03-28T13:36:43.001Z</time></trkpt><trkpt lat="44.73161475503279" lon="8.921349966153683"><ele>395.4</ele><time>2026-03-28T13:36:45.001Z</time></trkpt><trkpt lat="44.73163963848063" lon="8.921472174977975"><ele>388.6</ele><time>2026-03-28T13:36:47.001Z</time></trkpt><trkpt lat="44.73168759408839" lon="8.921541745712732"><ele>381.8</ele><time>2026-03-28T13:36:48.001Z</time></trkpt><trkpt lat="44.73172984939853" lon="8.921638329383711"><ele>375.0</ele><time>2026-03-28T13:36:49.001Z</time></trkpt><trkpt lat="44.73182915559443" lon="8.921718514451353"><ele>370.4</ele><time>2026-03-28T13:36:51Z</time></trkpt><trkpt lat="44.73190868544611" lon="8.921751986383628"><ele>365.8</ele><time>2026-03-28T13:36:53Z</time></trkpt><trkpt lat="44.73198168108542" lon="8.921817376139643"><ele>361.20000000000005</ele><time>2026-03-28T13:36:55Z</time></trkpt><trkpt lat="44.73207954941777" lon="8.921848000197901"><ele>356.6</ele><time>2026-03-28T13:36:57Z</time></trkpt><trkpt lat="44.73217008638314" lon="8.921887142407096"><ele>352.0</ele><time>2026-03-28T13:36:59Z</time></trkpt><trkpt lat="44.732265034819356" lon="8.921921735133397"><ele>352.0</ele><time>2026-03-28T13:37:01Z</time></trkpt><trkpt lat="44.73235040468369" lon="8.921985366683781"><ele>352.0</ele><time>2026-03-28T13:37:03Z</time></trkpt><trkpt lat="44.732450868473336" lon="8.922029636478932"><ele>352.0</ele><time>2026-03-28T13:37:05Z</time></trkpt><trkpt lat="44.73253952987782" lon="8.922075992260293"><ele>352.0</ele><time>2026-03-28T13:37:07Z</time></trkpt><trkpt lat="44.732613703431646" lon="8.922114065230401"><ele>352.0</ele><time>2026-03-28T13:37:09Z</time></trkpt><trkpt lat="44.73269579271855" lon="8.922164785396161"><ele>352.0</ele><time>2026-03-28T13:37:11Z</time></trkpt><trkpt lat="44.73277165678944" lon="8.922231098353851"><ele>352.0</ele><time>2026-03-28T13:37:13Z</time></trkpt><trkpt lat="44.732849736409605" lon="8.922283040969193"><ele>352.0</ele><time>2026-03-28T13:37:15Z</time></trkpt><trkpt lat="44.73286778527905" lon="8.922373352906268"><ele>352.0</ele><time>2026-03-28T13:37:19Z</time></trkpt><trkpt lat="44.73279528614557" lon="8.92232365824848"><ele>352.0</ele><time>2026-03-28T13:37:22Z</time></trkpt><trkpt lat="44.732704352361125" lon="8.922296685610545"><ele>352.0</ele><time>2026-03-28T13:37:24Z</time></trkpt><trkpt lat="44.7325688673084" lon="8.922259013882616"><ele>352.0</ele><time>2026-03-28T13:37:26Z</time></trkpt><trkpt lat="44.7324966167683" lon="8.922264511263982"><ele>352.0</ele><time>2026-03-28T13:37:27Z</time></trkpt><trkpt lat="44.73241891390324" lon="8.922226608061251"><ele>352.0</ele><time>2026-03-28T13:37:29Z</time></trkpt><trkpt lat="44.73234621421747" lon="8.922230218896624"><ele>352.0</ele><time>2026-03-28T13:37:30Z</time></trkpt><trkpt lat="44.7322608779164" lon="8.922212222425125"><ele>352.0</ele><time>2026-03-28T13:37:31Z</time></trkpt><trkpt lat="44.73219329011044" lon="8.922212317537017"><ele>352.0</ele><time>2026-03-28T13:37:32Z</time></trkpt><trkpt lat="44.732127293391244" lon="8.922207060444595"><ele>352.0</ele><time>2026-03-28T13:37:33Z</time></trkpt><trkpt lat="44.73202278764122" lon="8.922178815845495"><ele>352.0</ele><time>2026-03-28T13:37:35Z</time></trkpt><trkpt lat="44.73195704415704" lon="8.922163243654417"><ele>352.0</ele><time>2026-03-28T13:37:37Z</time></trkpt><trkpt lat="44.731872303117" lon="8.92222300364503"><ele>352.0</ele><time>2026-03-28T13:37:39Z</time></trkpt><trkpt lat="44.73177540260152" lon="8.922289669775601"><ele>352.0</ele><time>2026-03-28T13:37:41Z</time></trkpt><trkpt lat="44.73165206331991" lon="8.922351023823484"><ele>352.0</ele><time>2026-03-28T13:37:43.001Z</time></trkpt><trkpt lat="44.73154433728281" lon="8.922340894261467"><ele>349.8333333333333</ele><time>2026-03-28T13:37:45.001Z</time></trkpt><trkpt lat="44.73147367997151" lon="8.922336937009131"><ele>347.66666666666663</ele><time>2026-03-28T13:37:47.001Z</time></trkpt><trkpt lat="44.73138258351797" lon="8.922315710855822"><ele>345.5</ele><time>2026-03-28T13:37:49.001Z</time></trkpt><trkpt lat="44.731310170795986" lon="8.922229315557692"><ele>343.3333333333333</ele><time>2026-03-28T13:37:51.001Z</time></trkpt><trkpt lat="44.73122851463279" lon="8.92216755521283"><ele>341.1666666666667</ele><time>2026-03-28T13:37:53.001Z</time></trkpt><trkpt lat="44.73114295085196" lon="8.92210288599367"><ele>339.0</ele><time>2026-03-28T13:37:55.001Z</time></trkpt><trkpt lat="44.73108667824776" lon="8.922060238197522"><ele>333.0</ele><time>2026-03-28T13:37:56.001Z</time></trkpt><trkpt lat="44.73097329648491" lon="8.92198467461763"><ele>327.0</ele><time>2026-03-28T13:37:58.001Z</time></trkpt><trkpt lat="44.73090523135799" lon="8.921898726170808"><ele>321.0</ele><time>2026-03-28T13:38:00.001Z</time></trkpt><trkpt lat="44.730839451738746" lon="8.921897493373192"><ele>315.0</ele><time>2026-03-28T13:38:11.001Z</time></trkpt><trkpt lat="44.7308347236661" lon="8.922042876321363"><ele>309.0</ele><time>2026-03-28T13:38:13.001Z</time></trkpt><trkpt lat="44.73086445258613" lon="8.922122724250874"><ele>309.0</ele><time>2026-03-28T13:38:14.001Z</time></trkpt><trkpt lat="44.730940710383514" lon="8.922257073926593"><ele>309.0</ele><time>2026-03-28T13:38:16.001Z</time></trkpt><trkpt lat="44.731010770293565" lon="8.922382230195382"><ele>309.0</ele><time>2026-03-28T13:38:18.001Z</time></trkpt><trkpt lat="44.73105289828812" lon="8.922451223668784"><ele>309.0</ele><time>2026-03-28T13:38:20.001Z</time></trkpt><trkpt lat="44.73109687078559" lon="8.922570439698681"><ele>309.0</ele><time>2026-03-28T13:38:23.001Z</time></trkpt><trkpt lat="44.73111276688478" lon="8.922674426927948"><ele>309.0</ele><time>2026-03-28T13:38:25.001Z</time></trkpt><trkpt lat="44.73098438348701" lon="8.92258859420886"><ele>309.0</ele><time>2026-03-28T13:38:30.001Z</time></trkpt><trkpt lat="44.73091125239766" lon="8.922496553580661"><ele>309.0</ele><time>2026-03-28T13:38:32.001Z</time></trkpt><trkpt lat="44.73085451378523" lon="8.922413548216564"><ele>309.0</ele><time>2026-03-28T13:38:34.001Z</time></trkpt><trkpt lat="44.73079270925407" lon="8.922351844609063"><ele>309.0</ele><time>2026-03-28T13:38:36.001Z</time></trkpt><trkpt lat="44.73073747755168" lon="8.922277998676027"><ele>309.0</ele><time>2026-03-28T13:38:38.001Z</time></trkpt><trkpt lat="44.730666170126824" lon="8.922227312915352"><ele>309.0</ele><time>2026-03-28T13:38:40.001Z</time></trkpt><trkpt lat="44.730572954240735" lon="8.922182169166089"><ele>309.0</ele><time>2026-03-28T13:38:42.001Z</time></trkpt><trkpt lat="44.730463187095914" lon="8.922147021827504"><ele>309.0</ele><time>2026-03-28T13:38:44.001Z</time></trkpt><trkpt lat="44.73035858752156" lon="8.92207201659511"><ele>309.0</ele><time>2026-03-28T13:38:46.001Z</time></trkpt><trkpt lat="44.7302612606407" lon="8.922020406662991"><ele>305.0</ele><time>2026-03-28T13:38:48.001Z</time></trkpt><trkpt lat="44.73016619670218" lon="8.921964648873022"><ele>301.0</ele><time>2026-03-28T13:38:50.001Z</time></trkpt><trkpt lat="44.73010674085924" lon="8.921927005002567"><ele>297.0</ele><time>2026-03-28T13:38:51.001Z</time></trkpt><trkpt lat="44.730007203526846" lon="8.921916492364534"><ele>293.0</ele><time>2026-03-28T13:38:53.001Z</time></trkpt><trkpt lat="44.729956626838984" lon="8.92184372181326"><ele>289.0</ele><time>2026-03-28T13:38:57Z</time></trkpt><trkpt lat="44.73002976790646" lon="8.921777789413174"><ele>285.0</ele><time>2026-03-28T13:38:59Z</time></trkpt><trkpt lat="44.730110725422335" lon="8.921716142499577"><ele>285.0</ele><time>2026-03-28T13:39:02Z</time></trkpt><trkpt lat="44.73015547342173" lon="8.92162279081354"><ele>285.0</ele><time>2026-03-28T13:39:04Z</time></trkpt><trkpt lat="44.7301391651393" lon="8.921536812742712"><ele>285.0</ele><time>2026-03-28T13:39:06Z</time></trkpt><trkpt lat="44.73004776062664" lon="8.92152747253929"><ele>285.0</ele><time>2026-03-28T13:39:08Z</time></trkpt><trkpt lat="44.72995370882263" lon="8.921599273981661"><ele>285.0</ele><time>2026-03-28T13:39:10Z</time></trkpt><trkpt lat="44.72988746439282" lon="8.921641733868196"><ele>285.0</ele><time>2026-03-28T13:39:12Z</time></trkpt><trkpt lat="44.729766311357864" lon="8.921679942753384"><ele>283.0</ele><time>2026-03-28T13:39:14Z</time></trkpt><trkpt lat="44.729698293677444" lon="8.92176611403337"><ele>281.0</ele><time>2026-03-28T13:39:28Z</time></trkpt><trkpt lat="44.729640483145104" lon="8.921848751399116"><ele>279.0</ele><time>2026-03-28T13:39:30.001Z</time></trkpt><trkpt lat="44.729551738322385" lon="8.921937349957991"><ele>277.0</ele><time>2026-03-28T13:39:32.001Z</time></trkpt><trkpt lat="44.72949873505792" lon="8.922007547994202"><ele>275.0</ele><time>2026-03-28T13:39:33.001Z</time></trkpt><trkpt lat="44.7294508040966" lon="8.922077780487777"><ele>273.0</ele><time>2026-03-28T13:39:34.001Z</time></trkpt><trkpt lat="44.72942232943007" lon="8.922159839832673"><ele>270.85714285714283</ele><time>2026-03-28T13:39:35.001Z</time></trkpt><trkpt lat="44.7293709425145" lon="8.922212946639135"><ele>268.7142857142857</ele><time>2026-03-28T13:39:36.001Z</time></trkpt><trkpt lat="44.72934347737923" lon="8.92230200729059"><ele>266.57142857142856</ele><time>2026-03-28T13:39:37.001Z</time></trkpt><trkpt lat="44.72930078645151" lon="8.92238330110252"><ele>264.42857142857144</ele><time>2026-03-28T13:39:38.001Z</time></trkpt><trkpt lat="44.72925150399017" lon="8.92247332887518"><ele>262.2857142857143</ele><time>2026-03-28T13:39:39.001Z</time></trkpt><trkpt lat="44.729205355653164" lon="8.922559428069231"><ele>260.1428571428571</ele><time>2026-03-28T13:39:40.001Z</time></trkpt><trkpt lat="44.729161640448105" lon="8.922638608907894"><ele>258.0</ele><time>2026-03-28T13:39:41.001Z</time></trkpt><trkpt lat="44.729118212714" lon="8.922710707381919"><ele>258.0</ele><time>2026-03-28T13:39:42.001Z</time></trkpt><trkpt lat="44.72906211437131" lon="8.92276007046813"><ele>258.0</ele><time>2026-03-28T13:39:43.001Z</time></trkpt><trkpt lat="44.728972746452676" lon="8.922860603839137"><ele>258.0</ele><time>2026-03-28T13:39:45.001Z</time></trkpt><trkpt lat="44.72891109097941" lon="8.922891578940886"><ele>258.0</ele><time>2026-03-28T13:39:46.001Z</time></trkpt><trkpt lat="44.72885728478184" lon="8.922941501635101"><ele>258.0</ele><time>2026-03-28T13:39:47.001Z</time></trkpt><trkpt lat="44.72880762717571" lon="8.923025295357977"><ele>258.0</ele><time>2026-03-28T13:39:48.001Z</time></trkpt><trkpt lat="44.72876726371912" lon="8.923148211400697"><ele>258.0</ele><time>2026-03-28T13:39:49.001Z</time></trkpt><trkpt lat="44.72872580525054" lon="8.923305380500285"><ele>258.0</ele><time>2026-03-28T13:39:50.001Z</time></trkpt><trkpt lat="44.72868302520724" lon="8.923457663454236"><ele>258.0</ele><time>2026-03-28T13:39:51.001Z</time></trkpt><trkpt lat="44.72864235071791" lon="8.92362776126321"><ele>258.0</ele><time>2026-03-28T13:39:52.001Z</time></trkpt><trkpt lat="44.728587379174606" lon="8.92382499993491"><ele>257.0</ele><time>2026-03-28T13:39:53.001Z</time></trkpt><trkpt lat="44.72852607917867" lon="8.924044727702524"><ele>256.0</ele><time>2026-03-28T13:39:54.001Z</time></trkpt><trkpt lat="44.7284695159909" lon="8.924259115211454"><ele>255.0</ele><time>2026-03-28T13:39:55.001Z</time></trkpt><trkpt lat="44.72841473909407" lon="8.924462401983405"><ele>255.0</ele><time>2026-03-28T13:39:56.001Z</time></trkpt><trkpt lat="44.72836437606617" lon="8.92464903720359"><ele>255.0</ele><time>2026-03-28T13:39:57.001Z</time></trkpt><trkpt lat="44.728316274210265" lon="8.92482807816282"><ele>255.0</ele><time>2026-03-28T13:39:58.001Z</time></trkpt><trkpt lat="44.72826749313292" lon="8.92500851368994"><ele>255.0</ele><time>2026-03-28T13:39:59.001Z</time></trkpt><trkpt lat="44.72821000100947" lon="8.925183636106023"><ele>254.75</ele><time>2026-03-28T13:40:00.001Z</time></trkpt><trkpt lat="44.72812820551987" lon="8.925325527129122"><ele>254.5</ele><time>2026-03-28T13:40:01.001Z</time></trkpt><trkpt lat="44.72804054028995" lon="8.925442639446313"><ele>254.25</ele><time>2026-03-28T13:40:02.001Z</time></trkpt><trkpt lat="44.727942425131545" lon="8.925554140129657"><ele>254.0</ele><time>2026-03-28T13:40:03.001Z</time></trkpt><trkpt lat="44.727820393798794" lon="8.925692181151685"><ele>253.66666666666669</ele><time>2026-03-28T13:40:04.001Z</time></trkpt><trkpt lat="44.72768573208847" lon="8.925876826435061"><ele>253.33333333333331</ele><time>2026-03-28T13:40:05.001Z</time></trkpt><trkpt lat="44.72754664884344" lon="8.92607795397972"><ele>253.0</ele><time>2026-03-28T13:40:06.001Z</time></trkpt><trkpt lat="44.72738888925446" lon="8.926291955042828"><ele>253.0</ele><time>2026-03-28T13:40:07.001Z</time></trkpt><trkpt lat="44.7272297600638" lon="8.926498915603151"><ele>253.0</ele><time>2026-03-28T13:40:08.001Z</time></trkpt><trkpt lat="44.727087446395984" lon="8.926685637239666"><ele>253.0</ele><time>2026-03-28T13:40:09.001Z</time></trkpt><trkpt lat="44.7269699431091" lon="8.926874824301226"><ele>255.0</ele><time>2026-03-28T13:40:10.001Z</time></trkpt><trkpt lat="44.72684311455022" lon="8.927034107786499"><ele>257.0</ele><time>2026-03-28T13:40:11.001Z</time></trkpt><trkpt lat="44.72672731072348" lon="8.927182333388844"><ele>259.0</ele><time>2026-03-28T13:40:12.001Z</time></trkpt><trkpt lat="44.726609932770586" lon="8.927297392426977"><ele>259.0</ele><time>2026-03-28T13:40:13.001Z</time></trkpt><trkpt lat="44.72651371627253" lon="8.927422019805842"><ele>259.0</ele><time>2026-03-28T13:40:14.001Z</time></trkpt><trkpt lat="44.726423073442234" lon="8.927556510838782"><ele>259.0</ele><time>2026-03-28T13:40:15.001Z</time></trkpt><trkpt lat="44.726331407646654" lon="8.927686803288772"><ele>259.0</ele><time>2026-03-28T13:40:16.001Z</time></trkpt><trkpt lat="44.72625970308152" lon="8.927838162145447"><ele>260.0</ele><time>2026-03-28T13:40:17.001Z</time></trkpt><trkpt lat="44.72620917080517" lon="8.927993868633854"><ele>261.0</ele><time>2026-03-28T13:40:18.001Z</time></trkpt><trkpt lat="44.72616723331472" lon="8.928126218013228"><ele>262.0</ele><time>2026-03-28T13:40:19.001Z</time></trkpt><trkpt lat="44.72612584357585" lon="8.928236376721959"><ele>263.0</ele><time>2026-03-28T13:40:20.001Z</time></trkpt><trkpt lat="44.726095395907706" lon="8.928350553087984"><ele>264.0</ele><time>2026-03-28T13:40:21.001Z</time></trkpt><trkpt lat="44.726068772786434" lon="8.928466712788103"><ele>264.0</ele><time>2026-03-28T13:40:22.001Z</time></trkpt><trkpt lat="44.72604330881772" lon="8.92859635599014"><ele>264.0</ele><time>2026-03-28T13:40:23.001Z</time></trkpt><trkpt lat="44.726046353094844" lon="8.92874386179171"><ele>264.0</ele><time>2026-03-28T13:40:24.001Z</time></trkpt><trkpt lat="44.72609195237905" lon="8.928894597506888"><ele>264.0</ele><time>2026-03-28T13:40:25.001Z</time></trkpt><trkpt lat="44.726164460276756" lon="8.92903108050081"><ele>264.0</ele><time>2026-03-28T13:40:26.001Z</time></trkpt><trkpt lat="44.7262441051848" lon="8.929129758823864"><ele>265.0</ele><time>2026-03-28T13:40:27.001Z</time></trkpt><trkpt lat="44.72630358867765" lon="8.929196236480967"><ele>266.0</ele><time>2026-03-28T13:40:28.001Z</time></trkpt><trkpt lat="44.726359522901575" lon="8.929304244408323"><ele>267.0</ele><time>2026-03-28T13:40:30.001Z</time></trkpt><trkpt lat="44.726413134273216" lon="8.92938597107554"><ele>268.0</ele><time>2026-03-28T13:41:08.001Z</time></trkpt><trkpt lat="44.726347061194616" lon="8.929522117255557"><ele>269.0</ele><time>2026-03-28T13:41:13Z</time></trkpt><trkpt lat="44.726402948286555" lon="8.929655591240783"><ele>269.75</ele><time>2026-03-28T13:41:14Z</time></trkpt><trkpt lat="44.726454777108614" lon="8.929770044242114"><ele>270.5</ele><time>2026-03-28T13:41:15Z</time></trkpt><trkpt lat="44.726521957263365" lon="8.929897421531033"><ele>271.25</ele><time>2026-03-28T13:41:16Z</time></trkpt><trkpt lat="44.72660897925499" lon="8.930065731641221"><ele>272.0</ele><time>2026-03-28T13:41:17Z</time></trkpt><trkpt lat="44.72669533159277" lon="8.93025260575291"><ele>272.0</ele><time>2026-03-28T13:41:18Z</time></trkpt><trkpt lat="44.72678740853315" lon="8.930468196983648"><ele>272.0</ele><time>2026-03-28T13:41:19Z</time></trkpt><trkpt lat="44.72688963839332" lon="8.930711231226708"><ele>272.0</ele><time>2026-03-28T13:41:20Z</time></trkpt><trkpt lat="44.72697463372464" lon="8.930948142703757"><ele>274.33333333333337</ele><time>2026-03-28T13:41:21Z</time></trkpt><trkpt lat="44.72704801629326" lon="8.931206547315487"><ele>276.6666666666667</ele><time>2026-03-28T13:41:22Z</time></trkpt><trkpt lat="44.727096405668505" lon="8.93144624933595"><ele>279.0</ele><time>2026-03-28T13:41:23Z</time></trkpt><trkpt lat="44.72712855099495" lon="8.931667571493314"><ele>279.0</ele><time>2026-03-28T13:41:24Z</time></trkpt><trkpt lat="44.727158639413226" lon="8.931881270991628"><ele>279.0</ele><time>2026-03-28T13:41:25Z</time></trkpt><trkpt lat="44.727179419962326" lon="8.932122519408901"><ele>279.0</ele><time>2026-03-28T13:41:26Z</time></trkpt><trkpt lat="44.727192486617746" lon="8.932385610295352"><ele>279.3333333333333</ele><time>2026-03-28T13:41:27Z</time></trkpt><trkpt lat="44.727198841674245" lon="8.932666853950126"><ele>279.66666666666663</ele><time>2026-03-28T13:41:28Z</time></trkpt><trkpt lat="44.72720316473694" lon="8.932933811982211"><ele>280.0</ele><time>2026-03-28T13:41:29Z</time></trkpt><trkpt lat="44.72720832955458" lon="8.933193714696065"><ele>280.3333333333333</ele><time>2026-03-28T13:41:30Z</time></trkpt><trkpt lat="44.72723269635516" lon="8.933471829810085"><ele>280.6666666666667</ele><time>2026-03-28T13:41:31Z</time></trkpt><trkpt lat="44.7272760326998" lon="8.933732269671872"><ele>281.0</ele><time>2026-03-28T13:41:32Z</time></trkpt><trkpt lat="44.72732295676572" lon="8.933972449322594"><ele>281.0</ele><time>2026-03-28T13:41:33Z</time></trkpt><trkpt lat="44.72736565379024" lon="8.934206175919583"><ele>281.0</ele><time>2026-03-28T13:41:34Z</time></trkpt><trkpt lat="44.7274078645079" lon="8.934442601934888"><ele>281.0</ele><time>2026-03-28T13:41:35Z</time></trkpt><trkpt lat="44.72745132802168" lon="8.934667765634378"><ele>281.0</ele><time>2026-03-28T13:41:36Z</time></trkpt><trkpt lat="44.727496574995754" lon="8.934872134268806"><ele>281.0</ele><time>2026-03-28T13:41:37Z</time></trkpt><trkpt lat="44.727535413668136" lon="8.935063649216831"><ele>281.0</ele><time>2026-03-28T13:41:38Z</time></trkpt><trkpt lat="44.7275691438981" lon="8.93524344261567"><ele>281.0</ele><time>2026-03-28T13:41:39Z</time></trkpt><trkpt lat="44.727602378681254" lon="8.935408611227789"><ele>281.25</ele><time>2026-03-28T13:41:40Z</time></trkpt><trkpt lat="44.727641250899794" lon="8.935575329967982"><ele>281.5</ele><time>2026-03-28T13:41:41.001Z</time></trkpt><trkpt lat="44.727681080957595" lon="8.935751566863136"><ele>281.75</ele><time>2026-03-28T13:41:42.001Z</time></trkpt><trkpt lat="44.72771758288855" lon="8.93593635239691"><ele>282.0</ele><time>2026-03-28T13:41:43.001Z</time></trkpt><trkpt lat="44.72775920966122" lon="8.93612664116441"><ele>283.3333333333333</ele><time>2026-03-28T13:41:44.001Z</time></trkpt><trkpt lat="44.72780423908838" lon="8.936329415642302"><ele>284.66666666666663</ele><time>2026-03-28T13:41:45.001Z</time></trkpt><trkpt lat="44.72785510738105" lon="8.936542085772075"><ele>286.0</ele><time>2026-03-28T13:41:46.001Z</time></trkpt><trkpt lat="44.727922535952764" lon="8.936763505340314"><ele>286.3333333333333</ele><time>2026-03-28T13:41:47.001Z</time></trkpt><trkpt lat="44.72800756451753" lon="8.93698223224821"><ele>286.6666666666667</ele><time>2026-03-28T13:41:48.001Z</time></trkpt><trkpt lat="44.728096058351795" lon="8.937162462412394"><ele>287.0</ele><time>2026-03-28T13:41:49.001Z</time></trkpt><trkpt lat="44.728181456424934" lon="8.937335746483761"><ele>287.0</ele><time>2026-03-28T13:41:50.001Z</time></trkpt><trkpt lat="44.72826788304005" lon="8.937511654448103"><ele>287.0</ele><time>2026-03-28T13:41:51.001Z</time></trkpt><trkpt lat="44.72835815091668" lon="8.937691832867134"><ele>287.0</ele><time>2026-03-28T13:41:52.001Z</time></trkpt><trkpt lat="44.728447603352144" lon="8.937869667738845"><ele>287.0</ele><time>2026-03-28T13:41:53.001Z</time></trkpt><trkpt lat="44.72852879760857" lon="8.938028622583744"><ele>287.0</ele><time>2026-03-28T13:41:54.001Z</time></trkpt><trkpt lat="44.72860214157215" lon="8.938178803379397"><ele>287.0</ele><time>2026-03-28T13:41:55.001Z</time></trkpt><trkpt lat="44.72867156796475" lon="8.93832550024908"><ele>287.0</ele><time>2026-03-28T13:41:56.001Z</time></trkpt><trkpt lat="44.72874519019337" lon="8.93848472736545"><ele>287.75</ele><time>2026-03-28T13:41:57.001Z</time></trkpt><trkpt lat="44.72882792691802" lon="8.938645192653667"><ele>288.5</ele><time>2026-03-28T13:41:58.001Z</time></trkpt><trkpt lat="44.72893179185466" lon="8.93879470021726"><ele>289.25</ele><time>2026-03-28T13:41:59.001Z</time></trkpt><trkpt lat="44.72904949379075" lon="8.938937238470844"><ele>290.0</ele><time>2026-03-28T13:42:00.001Z</time></trkpt><trkpt lat="44.72916982397568" lon="8.939085322089914"><ele>290.0</ele><time>2026-03-28T13:42:01.001Z</time></trkpt><trkpt lat="44.72929174710376" lon="8.939237746013134"><ele>290.0</ele><time>2026-03-28T13:42:02.001Z</time></trkpt><trkpt lat="44.72942028380249" lon="8.939390657909225"><ele>290.0</ele><time>2026-03-28T13:42:03.001Z</time></trkpt><trkpt lat="44.7295342577237" lon="8.939545225939865"><ele>290.5</ele><time>2026-03-28T13:42:04.001Z</time></trkpt><trkpt lat="44.729625761916914" lon="8.93970247120757"><ele>291.0</ele><time>2026-03-28T13:42:05.001Z</time></trkpt><trkpt lat="44.729707431202264" lon="8.93987304257293"><ele>291.5</ele><time>2026-03-28T13:42:06.001Z</time></trkpt><trkpt lat="44.72977869040741" lon="8.940062143066262"><ele>292.0</ele><time>2026-03-28T13:42:07.001Z</time></trkpt><trkpt lat="44.729830208084636" lon="8.940265622531724"><ele>292.0</ele><time>2026-03-28T13:42:08.001Z</time></trkpt><trkpt lat="44.72987436886012" lon="8.940478995189682"><ele>292.0</ele><time>2026-03-28T13:42:09.001Z</time></trkpt><trkpt lat="44.729921799232756" lon="8.940683647055033"><ele>292.0</ele><time>2026-03-28T13:42:10.001Z</time></trkpt><trkpt lat="44.729964753453764" lon="8.94086705256828"><ele>292.0</ele><time>2026-03-28T13:42:11.001Z</time></trkpt><trkpt lat="44.73000413408418" lon="8.941033476969324"><ele>292.25</ele><time>2026-03-28T13:42:12.001Z</time></trkpt><trkpt lat="44.73003917183711" lon="8.941193845852178"><ele>292.5</ele><time>2026-03-28T13:42:13.001Z</time></trkpt><trkpt lat="44.730078693053564" lon="8.941363422883875"><ele>292.75</ele><time>2026-03-28T13:42:14.001Z</time></trkpt><trkpt lat="44.73012406267457" lon="8.94155067941685"><ele>293.0</ele><time>2026-03-28T13:42:15.001Z</time></trkpt><trkpt lat="44.73018023053629" lon="8.941743064271984"><ele>293.5</ele><time>2026-03-28T13:42:16.001Z</time></trkpt><trkpt lat="44.73025106737129" lon="8.941930412802263"><ele>294.0</ele><time>2026-03-28T13:42:17.001Z</time></trkpt><trkpt lat="44.73032629287892" lon="8.942086392199155"><ele>294.5</ele><time>2026-03-28T13:42:18.001Z</time></trkpt><trkpt lat="44.73039899343568" lon="8.942226455929376"><ele>295.0</ele><time>2026-03-28T13:42:19.001Z</time></trkpt><trkpt lat="44.73046877152527" lon="8.942370515395508"><ele>295.0</ele><time>2026-03-28T13:42:20.001Z</time></trkpt><trkpt lat="44.7305378574068" lon="8.942529486943895"><ele>295.0</ele><time>2026-03-28T13:42:21.001Z</time></trkpt><trkpt lat="44.7305864961969" lon="8.9427027095772"><ele>295.0</ele><time>2026-03-28T13:42:22.001Z</time></trkpt><trkpt lat="44.73061577414857" lon="8.942876101982028"><ele>295.0</ele><time>2026-03-28T13:42:23.001Z</time></trkpt><trkpt lat="44.73063547623042" lon="8.943039887478392"><ele>295.0</ele><time>2026-03-28T13:42:24.001Z</time></trkpt><trkpt lat="44.73064368838099" lon="8.943185200569225"><ele>295.0</ele><time>2026-03-28T13:42:25.001Z</time></trkpt><trkpt lat="44.730634971484015" lon="8.943338536063878"><ele>295.0</ele><time>2026-03-28T13:42:26.001Z</time></trkpt><trkpt lat="44.7306584423164" lon="8.943497674777712"><ele>295.0</ele><time>2026-03-28T13:42:27.001Z</time></trkpt><trkpt lat="44.7306491753145" lon="8.943649558006264"><ele>295.0</ele><time>2026-03-28T13:42:28.001Z</time></trkpt><trkpt lat="44.730654240510084" lon="8.943784058640201"><ele>295.2</ele><time>2026-03-28T13:42:29.001Z</time></trkpt><trkpt lat="44.730658448210285" lon="8.943915154678052"><ele>295.4</ele><time>2026-03-28T13:42:30.001Z</time></trkpt><trkpt lat="44.73066278893711" lon="8.94405039555751"><ele>295.6</ele><time>2026-03-28T13:42:31.001Z</time></trkpt><trkpt lat="44.73066543543001" lon="8.944182805840507"><ele>295.8</ele><time>2026-03-28T13:42:32.001Z</time></trkpt><trkpt lat="44.73066585308881" lon="8.944306375722515"><ele>296.0</ele><time>2026-03-28T13:42:33.001Z</time></trkpt><trkpt lat="44.73066302338187" lon="8.944428717069588"><ele>296.1666666666667</ele><time>2026-03-28T13:42:34.001Z</time></trkpt><trkpt lat="44.730659466656455" lon="8.944544460164067"><ele>296.33333333333337</ele><time>2026-03-28T13:42:35.001Z</time></trkpt><trkpt lat="44.730655711483074" lon="8.944651657083387"><ele>296.5</ele><time>2026-03-28T13:42:36.001Z</time></trkpt><trkpt lat="44.730654753855255" lon="8.944772885519114"><ele>296.6666666666667</ele><time>2026-03-28T13:42:37.001Z</time></trkpt><trkpt lat="44.73066804117298" lon="8.944905128191634"><ele>296.8333333333333</ele><time>2026-03-28T13:42:38.001Z</time></trkpt><trkpt lat="44.730696012788336" lon="8.945024604018736"><ele>297.0</ele><time>2026-03-28T13:42:39.001Z</time></trkpt><trkpt lat="44.73072641289056" lon="8.945177850715222"><ele>297.0</ele><time>2026-03-28T13:42:41.001Z</time></trkpt><trkpt lat="44.73074721491577" lon="8.945294681067569"><ele>297.0</ele><time>2026-03-28T13:42:43.001Z</time></trkpt><trkpt lat="44.73082812883883" lon="8.945350588560222"><ele>297.0</ele><time>2026-03-28T13:42:45.001Z</time></trkpt><trkpt lat="44.73089178956211" lon="8.945312345903393"><ele>297.0</ele><time>2026-03-28T13:42:48.001Z</time></trkpt><trkpt lat="44.73076269115773" lon="8.945296551299188"><ele>297.0</ele><time>2026-03-28T13:44:42.001Z</time></trkpt><trkpt lat="44.730891383157946" lon="8.945252494403263"><ele>297.0</ele><time>2026-03-28T13:46:16.001Z</time></trkpt><trkpt lat="44.730748352113714" lon="8.945301217733155"><ele>297.0</ele><time>2026-03-28T13:46:39.001Z</time></trkpt><trkpt lat="44.7308654683509" lon="8.945261272874804"><ele>297.0</ele><time>2026-03-28T13:47:19.001Z</time></trkpt><trkpt lat="44.73075064353295" lon="8.945314389241357"><ele>297.0</ele><time>2026-03-28T13:47:56Z</time></trkpt><trkpt lat="44.730870957035066" lon="8.945273200671476"><ele>297.0</ele><time>2026-03-28T13:48:01Z</time></trkpt><trkpt lat="44.73075064355164" lon="8.94531438923496"><ele>297.0</ele><time>2026-03-28T13:48:28.001Z</time></trkpt><trkpt lat="44.730870957035066" lon="8.945273200671476"><ele>297.0</ele><time>2026-03-28T13:48:35.001Z</time></trkpt><trkpt lat="44.73074896738278" lon="8.945304754515641"><ele>297.0</ele><time>2026-03-28T13:49:06.001Z</time></trkpt><trkpt lat="44.73087029242817" lon="8.945263219650313"><ele>297.0</ele><time>2026-03-28T13:49:08.001Z</time></trkpt><trkpt lat="44.73075103126578" lon="8.945316617733331"><ele>297.0</ele><time>2026-03-28T13:49:32.001Z</time></trkpt><trkpt lat="44.73087354170072" lon="8.94527467705731"><ele>297.0</ele><time>2026-03-28T13:50:22.001Z</time></trkpt><trkpt lat="44.73075190282484" lon="8.945321627395003"><ele>297.0</ele><time>2026-03-28T13:54:23Z</time></trkpt><trkpt lat="44.73087003318491" lon="8.945283012570593"><ele>297.0</ele><time>2026-03-28T13:54:25Z</time></trkpt><trkpt lat="44.730752248170276" lon="8.945323612738079"><ele>297.0</ele><time>2026-03-28T13:54:42Z</time></trkpt><trkpt lat="44.730869968755606" lon="8.94528331183682"><ele>297.0</ele><time>2026-03-28T13:55:17Z</time></trkpt><trkpt lat="44.73075224818463" lon="8.945323612733166"><ele>297.0</ele><time>2026-03-28T13:55:42.001Z</time></trkpt><trkpt lat="44.730869968755606" lon="8.94528331183682"><ele>297.0</ele><time>2026-03-28T13:56:06Z</time></trkpt><trkpt lat="44.73075224819135" lon="8.945323612730865"><ele>297.0</ele><time>2026-03-28T13:56:12Z</time></trkpt><trkpt lat="44.730869968755606" lon="8.94528331183682"><ele>297.0</ele><time>2026-03-28T13:56:17Z</time></trkpt><trkpt lat="44.73075224819206" lon="8.945323612730622"><ele>297.0</ele><time>2026-03-28T13:56:20Z</time></trkpt><trkpt lat="44.730869968755606" lon="8.94528331183682"><ele>297.0</ele><time>2026-03-28T13:56:22Z</time></trkpt><trkpt lat="44.73075224818616" lon="8.945323612732643"><ele>297.0</ele><time>2026-03-28T13:56:32Z</time></trkpt><trkpt lat="44.730869968755606" lon="8.94528331183682"><ele>297.0</ele><time>2026-03-28T13:56:41Z</time></trkpt><trkpt lat="44.730752248238424" lon="8.94532361271475"><ele>297.0</ele><time>2026-03-28T13:57:02Z</time></trkpt><trkpt lat="44.730869968755606" lon="8.94528331183682"><ele>297.0</ele><time>2026-03-28T13:57:07Z</time></trkpt><trkpt lat="44.73075224820747" lon="8.945323612725346"><ele>297.0</ele><time>2026-03-28T13:57:28Z</time></trkpt><trkpt lat="44.730869968755606" lon="8.94528331183682"><ele>297.0</ele><time>2026-03-28T13:57:32.001Z</time></trkpt><trkpt lat="44.73075224818291" lon="8.945323612733757"><ele>297.0</ele><time>2026-03-28T13:57:37.001Z</time></trkpt><trkpt lat="44.730869968755606" lon="8.94528331183682"><ele>297.0</ele><time>2026-03-28T13:57:45.001Z</time></trkpt><trkpt lat="44.73075224818178" lon="8.945323612734143"><ele>297.0</ele><time>2026-03-28T13:58:27Z</time></trkpt><trkpt lat="44.730869968755606" lon="8.94528331183682"><ele>297.0</ele><time>2026-03-28T13:58:32Z</time></trkpt><trkpt lat="44.730752248188466" lon="8.945323612731853"><ele>297.0</ele><time>2026-03-28T13:58:51Z</time></trkpt><trkpt lat="44.730869968755606" lon="8.94528331183682"><ele>297.0</ele><time>2026-03-28T13:59:11Z</time></trkpt><trkpt lat="44.73094416960543" lon="8.945255371768317"><ele>297.0</ele><time>2026-03-28T14:05:04Z</time></trkpt><trkpt lat="44.73094504372782" lon="8.94537825880911"><ele>297.0</ele><time>2026-03-28T14:05:06Z</time></trkpt><trkpt lat="44.730903888904585" lon="8.945468203344815"><ele>297.0</ele><time>2026-03-28T14:05:08Z</time></trkpt><trkpt lat="44.7309810579202" lon="8.945500599738217"><ele>297.0</ele><time>2026-03-28T14:05:13Z</time></trkpt><trkpt lat="44.73109256473623" lon="8.94552435089348"><ele>297.0</ele><time>2026-03-28T14:05:15Z</time></trkpt><trkpt lat="44.73120494947829" lon="8.945512312767276"><ele>296.6</ele><time>2026-03-28T14:05:17Z</time></trkpt><trkpt lat="44.73129925697541" lon="8.945507732302547"><ele>296.2</ele><time>2026-03-28T14:05:19Z</time></trkpt><trkpt lat="44.731394035508" lon="8.945572998562955"><ele>295.8</ele><time>2026-03-28T14:05:21Z</time></trkpt><trkpt lat="44.731464091627004" lon="8.945628411076356"><ele>295.4</ele><time>2026-03-28T14:05:22Z</time></trkpt><trkpt lat="44.73153420723036" lon="8.945654953769703"><ele>295.0</ele><time>2026-03-28T14:05:23Z</time></trkpt><trkpt lat="44.731649307980554" lon="8.945762623174012"><ele>295.0</ele><time>2026-03-28T14:05:25Z</time></trkpt><trkpt lat="44.731722235247155" lon="8.945831953770549"><ele>295.0</ele><time>2026-03-28T14:05:26Z</time></trkpt><trkpt lat="44.73180666937595" lon="8.945902823761061"><ele>295.0</ele><time>2026-03-28T14:05:27Z</time></trkpt><trkpt lat="44.731895223185475" lon="8.94597929806556"><ele>295.0</ele><time>2026-03-28T14:05:28Z</time></trkpt><trkpt lat="44.731977106265546" lon="8.946088436856593"><ele>295.0</ele><time>2026-03-28T14:05:29Z</time></trkpt><trkpt lat="44.73207706168914" lon="8.946174970903286"><ele>295.4</ele><time>2026-03-28T14:05:30Z</time></trkpt><trkpt lat="44.732177028649964" lon="8.946229830585757"><ele>295.8</ele><time>2026-03-28T14:05:31Z</time></trkpt><trkpt lat="44.732265350042354" lon="8.94629931283651"><ele>296.2</ele><time>2026-03-28T14:05:32Z</time></trkpt><trkpt lat="44.732351699123136" lon="8.946374640796586"><ele>296.6</ele><time>2026-03-28T14:05:33Z</time></trkpt><trkpt lat="44.73244382758632" lon="8.946451371545214"><ele>297.0</ele><time>2026-03-28T14:05:34Z</time></trkpt><trkpt lat="44.732543400732354" lon="8.9465144569875"><ele>297.0</ele><time>2026-03-28T14:05:35Z</time></trkpt><trkpt lat="44.732639304122735" lon="8.946584393783718"><ele>297.0</ele><time>2026-03-28T14:05:36Z</time></trkpt><trkpt lat="44.73272898167964" lon="8.946649557046939"><ele>297.0</ele><time>2026-03-28T14:05:37Z</time></trkpt><trkpt lat="44.73278763083705" lon="8.946699041750808"><ele>297.0</ele><time>2026-03-28T14:05:38Z</time></trkpt><trkpt lat="44.73284674472689" lon="8.946732519864916"><ele>297.0</ele><time>2026-03-28T14:05:39Z</time></trkpt><trkpt lat="44.73290305310758" lon="8.946773147585596"><ele>297.0</ele><time>2026-03-28T14:05:40Z</time></trkpt><trkpt lat="44.732995791797485" lon="8.946825970645946"><ele>297.0</ele><time>2026-03-28T14:05:42Z</time></trkpt><trkpt lat="44.73310020866792" lon="8.946904505362593"><ele>297.0</ele><time>2026-03-28T14:05:50Z</time></trkpt><trkpt lat="44.73318146685844" lon="8.946960508481144"><ele>297.0</ele><time>2026-03-28T14:05:51Z</time></trkpt><trkpt lat="44.733280620596105" lon="8.947028859491883"><ele>297.0</ele><time>2026-03-28T14:05:52Z</time></trkpt><trkpt lat="44.733373461186396" lon="8.947091997675019"><ele>297.0</ele><time>2026-03-28T14:05:53Z</time></trkpt><trkpt lat="44.73347542220319" lon="8.947118837076905"><ele>296.6</ele><time>2026-03-28T14:05:54Z</time></trkpt><trkpt lat="44.73357755675377" lon="8.947176053346054"><ele>296.2</ele><time>2026-03-28T14:05:55Z</time></trkpt><trkpt lat="44.73366199606576" lon="8.94723436363163"><ele>295.8</ele><time>2026-03-28T14:05:56Z</time></trkpt><trkpt lat="44.733733567135225" lon="8.947305881516629"><ele>295.4</ele><time>2026-03-28T14:05:57Z</time></trkpt><trkpt lat="44.73380020988152" lon="8.947381482320715"><ele>295.0</ele><time>2026-03-28T14:05:58Z</time></trkpt><trkpt lat="44.73387133848594" lon="8.947435515471069"><ele>295.0</ele><time>2026-03-28T14:05:59Z</time></trkpt><trkpt lat="44.73394119939765" lon="8.94748374718889"><ele>295.0</ele><time>2026-03-28T14:06:00Z</time></trkpt><trkpt lat="44.73402003332201" lon="8.947545664730416"><ele>295.0</ele><time>2026-03-28T14:06:01Z</time></trkpt><trkpt lat="44.73408227484259" lon="8.947622267117492"><ele>295.0</ele><time>2026-03-28T14:06:02Z</time></trkpt><trkpt lat="44.73414313114338" lon="8.947692491701003"><ele>295.0</ele><time>2026-03-28T14:06:03Z</time></trkpt><trkpt lat="44.734201680924784" lon="8.947764240127947"><ele>295.0</ele><time>2026-03-28T14:06:04Z</time></trkpt><trkpt lat="44.73426464400224" lon="8.947828100573105"><ele>295.2</ele><time>2026-03-28T14:06:05Z</time></trkpt><trkpt lat="44.73433662333132" lon="8.947875491866535"><ele>295.4</ele><time>2026-03-28T14:06:06Z</time></trkpt><trkpt lat="44.73440672319528" lon="8.947902740824029"><ele>295.6</ele><time>2026-03-28T14:06:07Z</time></trkpt><trkpt lat="44.73455311964219" lon="8.947979263935842"><ele>295.8</ele><time>2026-03-28T14:06:09Z</time></trkpt><trkpt lat="44.73463329155914" lon="8.94800584829071"><ele>296.0</ele><time>2026-03-28T14:06:10Z</time></trkpt><trkpt lat="44.73471285193523" lon="8.948027726554377"><ele>296.0</ele><time>2026-03-28T14:06:11Z</time></trkpt><trkpt lat="44.734792579187" lon="8.948042685419336"><ele>296.0</ele><time>2026-03-28T14:06:12Z</time></trkpt><trkpt lat="44.7348676553975" lon="8.948056599481092"><ele>296.0</ele><time>2026-03-28T14:06:13Z</time></trkpt><trkpt lat="44.73499577813913" lon="8.948069091209298"><ele>296.0</ele><time>2026-03-28T14:06:14.999Z</time></trkpt><trkpt lat="44.735110933539" lon="8.948062135397052"><ele>296.0</ele><time>2026-03-28T14:06:16.999Z</time></trkpt><trkpt lat="44.73521243614154" lon="8.948117448698373"><ele>294.33333333333337</ele><time>2026-03-28T14:06:18.999Z</time></trkpt><trkpt lat="44.735281730753094" lon="8.948017597721474"><ele>292.6666666666667</ele><time>2026-03-28T14:06:19.999Z</time></trkpt><trkpt lat="44.73535954242878" lon="8.947963251094105"><ele>291.0</ele><time>2026-03-28T14:06:20.999Z</time></trkpt><trkpt lat="44.735407220325214" lon="8.947866578409446"><ele>289.3333333333333</ele><time>2026-03-28T14:06:21.999Z</time></trkpt><trkpt lat="44.73545624442894" lon="8.947782271094095"><ele>287.66666666666663</ele><time>2026-03-28T14:06:22.999Z</time></trkpt><trkpt lat="44.73549372982823" lon="8.947691658177407"><ele>286.0</ele><time>2026-03-28T14:06:23.999Z</time></trkpt><trkpt lat="44.73554280017467" lon="8.947608145646006"><ele>286.0</ele><time>2026-03-28T14:06:24.999Z</time></trkpt><trkpt lat="44.735562017284124" lon="8.947508356895186"><ele>286.0</ele><time>2026-03-28T14:06:25.999Z</time></trkpt><trkpt lat="44.735600545640004" lon="8.947412957411066"><ele>286.0</ele><time>2026-03-28T14:06:26.999Z</time></trkpt><trkpt lat="44.73565321860765" lon="8.947328762894157"><ele>286.0</ele><time>2026-03-28T14:06:27.999Z</time></trkpt><trkpt lat="44.73568424698727" lon="8.947222800687118"><ele>286.0</ele><time>2026-03-28T14:06:29Z</time></trkpt><trkpt lat="44.735738271062665" lon="8.947137334347953"><ele>286.0</ele><time>2026-03-28T14:06:30Z</time></trkpt><trkpt lat="44.73579793329199" lon="8.947064059348412"><ele>286.0</ele><time>2026-03-28T14:06:31Z</time></trkpt><trkpt lat="44.735864607102805" lon="8.946998679499922"><ele>286.0</ele><time>2026-03-28T14:06:32Z</time></trkpt><trkpt lat="44.7359316826085" lon="8.946931311181922"><ele>286.0</ele><time>2026-03-28T14:06:33Z</time></trkpt><trkpt lat="44.73600264661142" lon="8.946862051366246"><ele>286.0</ele><time>2026-03-28T14:06:34Z</time></trkpt><trkpt lat="44.73607325619776" lon="8.94679572959261"><ele>286.0</ele><time>2026-03-28T14:06:35Z</time></trkpt><trkpt lat="44.73614485835012" lon="8.946722270599208"><ele>286.0</ele><time>2026-03-28T14:06:36Z</time></trkpt><trkpt lat="44.73620863625178" lon="8.946652091414485"><ele>286.3333333333333</ele><time>2026-03-28T14:06:37Z</time></trkpt><trkpt lat="44.736262391250385" lon="8.946569984974433"><ele>286.66666666666663</ele><time>2026-03-28T14:06:38Z</time></trkpt><trkpt lat="44.7363203919006" lon="8.94648154877556"><ele>287.0</ele><time>2026-03-28T14:06:39Z</time></trkpt><trkpt lat="44.736371208841994" lon="8.946401236528624"><ele>287.3333333333333</ele><time>2026-03-28T14:06:40Z</time></trkpt><trkpt lat="44.736433624836664" lon="8.946317018030706"><ele>287.6666666666667</ele><time>2026-03-28T14:06:41Z</time></trkpt><trkpt lat="44.736500171636855" lon="8.946238831437919"><ele>288.0</ele><time>2026-03-28T14:06:42Z</time></trkpt><trkpt lat="44.73656168602345" lon="8.946157654315796"><ele>288.0</ele><time>2026-03-28T14:06:43Z</time></trkpt><trkpt lat="44.736620615635246" lon="8.946103924041799"><ele>288.0</ele><time>2026-03-28T14:06:44Z</time></trkpt><trkpt lat="44.736671823544604" lon="8.946034640690673"><ele>288.0</ele><time>2026-03-28T14:06:45Z</time></trkpt><trkpt lat="44.73671992537655" lon="8.945937193623077"><ele>288.0</ele><time>2026-03-28T14:06:46Z</time></trkpt><trkpt lat="44.73681490892944" lon="8.945995062601119"><ele>288.0</ele><time>2026-03-28T14:06:47Z</time></trkpt><trkpt lat="44.73689124352109" lon="8.946006421157643"><ele>288.0</ele><time>2026-03-28T14:06:48Z</time></trkpt><trkpt lat="44.73693357085631" lon="8.94578748039754"><ele>290.42857142857144</ele><time>2026-03-28T14:06:49Z</time></trkpt><trkpt lat="44.736981651320676" lon="8.945723584319413"><ele>292.8571428571429</ele><time>2026-03-28T14:06:50Z</time></trkpt><trkpt lat="44.73704080505866" lon="8.945648130368399"><ele>295.28571428571433</ele><time>2026-03-28T14:06:52Z</time></trkpt><trkpt lat="44.73709689881438" lon="8.945581335275515"><ele>297.7142857142857</ele><time>2026-03-28T14:06:55Z</time></trkpt><trkpt lat="44.73715839738265" lon="8.945542302167821"><ele>300.1428571428571</ele><time>2026-03-28T14:06:57Z</time></trkpt><trkpt lat="44.73724329564197" lon="8.945481332966029"><ele>302.5714285714286</ele><time>2026-03-28T14:06:59Z</time></trkpt><trkpt lat="44.73729656441967" lon="8.945429711994533"><ele>305.0</ele><time>2026-03-28T14:07:00Z</time></trkpt><trkpt lat="44.73735008514939" lon="8.945382769949937"><ele>305.0</ele><time>2026-03-28T14:07:01Z</time></trkpt><trkpt lat="44.73741044708361" lon="8.945334326081312"><ele>305.0</ele><time>2026-03-28T14:07:02Z</time></trkpt><trkpt lat="44.73750900512192" lon="8.945282617570546"><ele>305.0</ele><time>2026-03-28T14:07:04Z</time></trkpt><trkpt lat="44.737606189901136" lon="8.94517535705162"><ele>305.0</ele><time>2026-03-28T14:07:06Z</time></trkpt><trkpt lat="44.73767921637507" lon="8.945062900443602"><ele>305.0</ele><time>2026-03-28T14:07:08Z</time></trkpt><trkpt lat="44.737698999408856" lon="8.944926603090673"><ele>305.0</ele><time>2026-03-28T14:07:10Z</time></trkpt><trkpt lat="44.73773233271327" lon="8.944838370163696"><ele>305.0</ele><time>2026-03-28T14:07:11Z</time></trkpt><trkpt lat="44.737784178475984" lon="8.944769566824018"><ele>305.0</ele><time>2026-03-28T14:07:13Z</time></trkpt><trkpt lat="44.73774777795508" lon="8.944843027053864"><ele>305.0</ele><time>2026-03-28T14:09:23Z</time></trkpt><trkpt lat="44.73773225176378" lon="8.944938699111798"><ele>305.0</ele><time>2026-03-28T14:12:19.001Z</time></trkpt><trkpt lat="44.737674598484396" lon="8.945035822597793"><ele>305.0</ele><time>2026-03-28T14:12:24.001Z</time></trkpt><trkpt lat="44.73766077208685" lon="8.945125667598056"><ele>305.0</ele><time>2026-03-28T14:12:27.001Z</time></trkpt><trkpt lat="44.73761192512432" lon="8.945198212703257"><ele>305.0</ele><time>2026-03-28T14:12:31.001Z</time></trkpt><trkpt lat="44.737547615257306" lon="8.945265758395598"><ele>305.0</ele><time>2026-03-28T14:12:38Z</time></trkpt><trkpt lat="44.73746904887295" lon="8.945339834030712"><ele>305.0</ele><time>2026-03-28T14:12:41Z</time></trkpt><trkpt lat="44.737394357524444" lon="8.945383998634744"><ele>305.0</ele><time>2026-03-28T14:12:44Z</time></trkpt><trkpt lat="44.737341162651894" lon="8.945431559390126"><ele>305.0</ele><time>2026-03-28T14:12:47Z</time></trkpt><trkpt lat="44.7372688731335" lon="8.945493003550034"><ele>305.0</ele><time>2026-03-28T14:12:51Z</time></trkpt><trkpt lat="44.73719514889713" lon="8.9455678262483"><ele>305.0</ele><time>2026-03-28T14:12:54Z</time></trkpt><trkpt lat="44.737129795276964" lon="8.945622736697706"><ele>305.0</ele><time>2026-03-28T14:12:56Z</time></trkpt><trkpt lat="44.73707020561167" lon="8.945699377888022"><ele>305.0</ele><time>2026-03-28T14:12:58Z</time></trkpt><trkpt lat="44.73696823311956" lon="8.94582146118474"><ele>305.0</ele><time>2026-03-28T14:13:00Z</time></trkpt><trkpt lat="44.736864079131244" lon="8.945889846214499"><ele>305.0</ele><time>2026-03-28T14:13:02Z</time></trkpt><trkpt lat="44.73675819631436" lon="8.945947120178369"><ele>302.1666666666667</ele><time>2026-03-28T14:13:04Z</time></trkpt><trkpt lat="44.73666700379203" lon="8.946005561836767"><ele>299.33333333333337</ele><time>2026-03-28T14:13:06Z</time></trkpt><trkpt lat="44.73660051273668" lon="8.94606405373324"><ele>296.5</ele><time>2026-03-28T14:13:08Z</time></trkpt><trkpt lat="44.73654630901469" lon="8.946142684982544"><ele>293.6666666666667</ele><time>2026-03-28T14:13:10Z</time></trkpt><trkpt lat="44.73649757824496" lon="8.946205728885534"><ele>290.8333333333333</ele><time>2026-03-28T14:13:14Z</time></trkpt><trkpt lat="44.73643575169705" lon="8.946279091546899"><ele>288.0</ele><time>2026-03-28T14:13:18Z</time></trkpt><trkpt lat="44.73637558422466" lon="8.946383475001994"><ele>288.0</ele><time>2026-03-28T14:13:20Z</time></trkpt><trkpt lat="44.73632788255475" lon="8.946444788681921"><ele>288.0</ele><time>2026-03-28T14:13:21Z</time></trkpt><trkpt lat="44.73628331320051" lon="8.94650989718526"><ele>288.0</ele><time>2026-03-28T14:13:22Z</time></trkpt><trkpt lat="44.73623518638447" lon="8.946587288299257"><ele>288.0</ele><time>2026-03-28T14:13:23Z</time></trkpt><trkpt lat="44.73618082666935" lon="8.946665312654067"><ele>288.0</ele><time>2026-03-28T14:13:24Z</time></trkpt><trkpt lat="44.73611743879544" lon="8.946736874872153"><ele>288.0</ele><time>2026-03-28T14:13:25Z</time></trkpt><trkpt lat="44.73603314469289" lon="8.946798855801898"><ele>287.6</ele><time>2026-03-28T14:13:26Z</time></trkpt><trkpt lat="44.7359509734447" lon="8.946874505045221"><ele>287.20000000000005</ele><time>2026-03-28T14:13:27Z</time></trkpt><trkpt lat="44.73587107657019" lon="8.946972189111237"><ele>286.8</ele><time>2026-03-28T14:13:28Z</time></trkpt><trkpt lat="44.73578781390761" lon="8.947054007321245"><ele>286.40000000000003</ele><time>2026-03-28T14:13:29Z</time></trkpt><trkpt lat="44.73571321825431" lon="8.947117752063683"><ele>286.0</ele><time>2026-03-28T14:13:30Z</time></trkpt><trkpt lat="44.73566117303179" lon="8.947222309105006"><ele>286.0</ele><time>2026-03-28T14:13:31Z</time></trkpt><trkpt lat="44.735608735785064" lon="8.94734199050867"><ele>286.0</ele><time>2026-03-28T14:13:32Z</time></trkpt><trkpt lat="44.735542621006395" lon="8.94746627120096"><ele>286.0</ele><time>2026-03-28T14:13:33Z</time></trkpt><trkpt lat="44.73549729588932" lon="8.947598970843721"><ele>286.0</ele><time>2026-03-28T14:13:34Z</time></trkpt><trkpt lat="44.73545118189246" lon="8.947715105384109"><ele>286.0</ele><time>2026-03-28T14:13:35Z</time></trkpt><trkpt lat="44.73541264932952" lon="8.947811708366798"><ele>286.0</ele><time>2026-03-28T14:13:36Z</time></trkpt><trkpt lat="44.73535916591052" lon="8.947907429769147"><ele>286.0</ele><time>2026-03-28T14:13:37Z</time></trkpt><trkpt lat="44.73529910399875" lon="8.947981587688279"><ele>286.0</ele><time>2026-03-28T14:13:38Z</time></trkpt><trkpt lat="44.735238897045086" lon="8.94800905487747"><ele>286.0</ele><time>2026-03-28T14:13:39Z</time></trkpt><trkpt lat="44.735154309203644" lon="8.948071784680215"><ele>286.0</ele><time>2026-03-28T14:13:41Z</time></trkpt><trkpt lat="44.7351022614764" lon="8.948015362878355"><ele>286.0</ele><time>2026-03-28T14:13:43Z</time></trkpt><trkpt lat="44.73510988707675" lon="8.947820316685265"><ele>285.8</ele><time>2026-03-28T14:13:45Z</time></trkpt><trkpt lat="44.73510140227223" lon="8.947689780845243"><ele>285.6</ele><time>2026-03-28T14:13:46Z</time></trkpt><trkpt lat="44.73508659956336" lon="8.947543903043384"><ele>285.4</ele><time>2026-03-28T14:13:47Z</time></trkpt><trkpt lat="44.73507101672828" lon="8.947377347415397"><ele>285.2</ele><time>2026-03-28T14:13:48Z</time></trkpt><trkpt lat="44.73505967937949" lon="8.94720087878644"><ele>285.0</ele><time>2026-03-28T14:13:49Z</time></trkpt><trkpt lat="44.73504854235851" lon="8.947018969663855"><ele>285.0</ele><time>2026-03-28T14:13:50Z</time></trkpt><trkpt lat="44.73502276592012" lon="8.946830240038874"><ele>285.0</ele><time>2026-03-28T14:13:51Z</time></trkpt><trkpt lat="44.73502436787955" lon="8.946665753426503"><ele>285.0</ele><time>2026-03-28T14:13:52Z</time></trkpt><trkpt lat="44.73502830319586" lon="8.946482162311717"><ele>285.0</ele><time>2026-03-28T14:13:53Z</time></trkpt><trkpt lat="44.73505480700814" lon="8.946292660435036"><ele>284.75</ele><time>2026-03-28T14:13:54Z</time></trkpt><trkpt lat="44.73505352048423" lon="8.946096196589943"><ele>284.5</ele><time>2026-03-28T14:13:55Z</time></trkpt><trkpt lat="44.73507217138343" lon="8.94589737234974"><ele>284.25</ele><time>2026-03-28T14:13:56Z</time></trkpt><trkpt lat="44.735066511005975" lon="8.94572367546736"><ele>284.0</ele><time>2026-03-28T14:13:57Z</time></trkpt><trkpt lat="44.73503437863243" lon="8.945571758246972"><ele>284.0</ele><time>2026-03-28T14:13:58Z</time></trkpt><trkpt lat="44.735022949953986" lon="8.94545723660174"><ele>284.0</ele><time>2026-03-28T14:13:59Z</time></trkpt><trkpt lat="44.73502365760931" lon="8.945358339087038"><ele>284.0</ele><time>2026-03-28T14:14:00.001Z</time></trkpt><trkpt lat="44.73506375255506" lon="8.945223802096873"><ele>284.0</ele><time>2026-03-28T14:14:02.001Z</time></trkpt><trkpt lat="44.73511761509227" lon="8.945163737705037"><ele>284.0</ele><time>2026-03-28T14:14:03.001Z</time></trkpt><trkpt lat="44.73519861372328" lon="8.945135399668825"><ele>284.0</ele><time>2026-03-28T14:14:04.001Z</time></trkpt><trkpt lat="44.735282310258796" lon="8.945068170414652"><ele>285.33333333333337</ele><time>2026-03-28T14:14:05.001Z</time></trkpt><trkpt lat="44.73538465770964" lon="8.945025393669006"><ele>286.6666666666667</ele><time>2026-03-28T14:14:06.001Z</time></trkpt><trkpt lat="44.735467355960886" lon="8.944995047879841"><ele>288.0</ele><time>2026-03-28T14:14:07.001Z</time></trkpt><trkpt lat="44.735533558956476" lon="8.944925290003496"><ele>289.3333333333333</ele><time>2026-03-28T14:14:08.001Z</time></trkpt><trkpt lat="44.73557023070669" lon="8.944825936679836"><ele>290.66666666666663</ele><time>2026-03-28T14:14:09.001Z</time></trkpt><trkpt lat="44.73558468619343" lon="8.94470433904934"><ele>292.0</ele><time>2026-03-28T14:14:10.001Z</time></trkpt><trkpt lat="44.73559265287641" lon="8.94455039548315"><ele>292.0</ele><time>2026-03-28T14:14:11.001Z</time></trkpt><trkpt lat="44.73559980886746" lon="8.94437868868206"><ele>292.0</ele><time>2026-03-28T14:14:12.001Z</time></trkpt><trkpt lat="44.7355934911023" lon="8.944204977686855"><ele>292.0</ele><time>2026-03-28T14:14:13.001Z</time></trkpt><trkpt lat="44.73563418164793" lon="8.944016682626089"><ele>292.0</ele><time>2026-03-28T14:14:14.001Z</time></trkpt><trkpt lat="44.73562752677008" lon="8.943832634354058"><ele>292.4</ele><time>2026-03-28T14:14:15.001Z</time></trkpt><trkpt lat="44.73558346932846" lon="8.943671692892092"><ele>292.79999999999995</ele><time>2026-03-28T14:14:16.001Z</time></trkpt><trkpt lat="44.73555782937382" lon="8.943517440672878"><ele>293.2</ele><time>2026-03-28T14:14:17.001Z</time></trkpt><trkpt lat="44.73554893368351" lon="8.943411148275663"><ele>293.59999999999997</ele><time>2026-03-28T14:14:18.001Z</time></trkpt><trkpt lat="44.73555907614328" lon="8.943304877727691"><ele>294.0</ele><time>2026-03-28T14:14:19.001Z</time></trkpt><trkpt lat="44.73558885267191" lon="8.943205636631877"><ele>294.0</ele><time>2026-03-28T14:14:20.001Z</time></trkpt><trkpt lat="44.73564931853995" lon="8.94309229892248"><ele>294.0</ele><time>2026-03-28T14:14:21.001Z</time></trkpt><trkpt lat="44.735731507172204" lon="8.942972063613288"><ele>294.0</ele><time>2026-03-28T14:14:22.001Z</time></trkpt><trkpt lat="44.73579759966011" lon="8.942839004161112"><ele>294.0</ele><time>2026-03-28T14:14:23.001Z</time></trkpt><trkpt lat="44.73583860359105" lon="8.942698791365233"><ele>294.0</ele><time>2026-03-28T14:14:24.001Z</time></trkpt><trkpt lat="44.735847295696104" lon="8.942555253008841"><ele>293.25</ele><time>2026-03-28T14:14:25.001Z</time></trkpt><trkpt lat="44.73585102456346" lon="8.942365334717152"><ele>292.5</ele><time>2026-03-28T14:14:26.001Z</time></trkpt><trkpt lat="44.7358480676935" lon="8.942167526361825"><ele>291.75</ele><time>2026-03-28T14:14:27.001Z</time></trkpt><trkpt lat="44.735836193659" lon="8.942009914259982"><ele>291.0</ele><time>2026-03-28T14:14:28.001Z</time></trkpt><trkpt lat="44.73581602237653" lon="8.94187584034396"><ele>291.0</ele><time>2026-03-28T14:14:29.001Z</time></trkpt><trkpt lat="44.73579603590319" lon="8.941775575863742"><ele>291.0</ele><time>2026-03-28T14:14:30.001Z</time></trkpt><trkpt lat="44.73582406847086" lon="8.941691032326892"><ele>291.0</ele><time>2026-03-28T14:14:31.001Z</time></trkpt><trkpt lat="44.735885575915354" lon="8.94163310721437"><ele>291.0</ele><time>2026-03-28T14:14:32.001Z</time></trkpt><trkpt lat="44.7359796411563" lon="8.941605355652252"><ele>291.0</ele><time>2026-03-28T14:14:33.001Z</time></trkpt><trkpt lat="44.73608282015416" lon="8.941582355943002"><ele>291.0</ele><time>2026-03-28T14:14:34.001Z</time></trkpt><trkpt lat="44.736157053646316" lon="8.941571231400891"><ele>295.0</ele><time>2026-03-28T14:14:35.001Z</time></trkpt><trkpt lat="44.736213991778776" lon="8.941523289447506"><ele>299.0</ele><time>2026-03-28T14:14:36.001Z</time></trkpt><trkpt lat="44.73624733640874" lon="8.941444856863766"><ele>303.0</ele><time>2026-03-28T14:14:37.001Z</time></trkpt><trkpt lat="44.736251587995" lon="8.941338252690473"><ele>307.0</ele><time>2026-03-28T14:14:38.001Z</time></trkpt><trkpt lat="44.73621249080665" lon="8.941213001703824"><ele>311.0</ele><time>2026-03-28T14:14:39Z</time></trkpt><trkpt lat="44.7362039170849" lon="8.941079559088868"><ele>315.0</ele><time>2026-03-28T14:14:40Z</time></trkpt><trkpt lat="44.73618433332758" lon="8.940912524246198"><ele>315.4</ele><time>2026-03-28T14:14:41Z</time></trkpt><trkpt lat="44.736164646987255" lon="8.940722735637605"><ele>315.8</ele><time>2026-03-28T14:14:42Z</time></trkpt><trkpt lat="44.73615048019888" lon="8.940586158881377"><ele>316.2</ele><time>2026-03-28T14:14:43Z</time></trkpt><trkpt lat="44.736145612455374" lon="8.940492567566146"><ele>316.6</ele><time>2026-03-28T14:14:44Z</time></trkpt><trkpt lat="44.736176990628536" lon="8.940363556385442"><ele>317.0</ele><time>2026-03-28T14:14:46Z</time></trkpt><trkpt lat="44.73626734946746" lon="8.940351728970626"><ele>317.0</ele><time>2026-03-28T14:14:48Z</time></trkpt><trkpt lat="44.73632153545744" lon="8.940427347871896"><ele>317.0</ele><time>2026-03-28T14:14:49Z</time></trkpt><trkpt lat="44.7363581513775" lon="8.940555917585838"><ele>317.0</ele><time>2026-03-28T14:14:50Z</time></trkpt><trkpt lat="44.73640346745334" lon="8.940698688427648"><ele>317.0</ele><time>2026-03-28T14:14:51Z</time></trkpt><trkpt lat="44.73648120699086" lon="8.940868051740432"><ele>317.0</ele><time>2026-03-28T14:14:52Z</time></trkpt><trkpt lat="44.73655036266689" lon="8.94104517693361"><ele>316.5</ele><time>2026-03-28T14:14:53Z</time></trkpt><trkpt lat="44.7365835941827" lon="8.941241986423204"><ele>316.0</ele><time>2026-03-28T14:14:54Z</time></trkpt><trkpt lat="44.73662266382959" lon="8.94145555801266"><ele>315.5</ele><time>2026-03-28T14:14:55Z</time></trkpt><trkpt lat="44.73665114452688" lon="8.941657833739377"><ele>315.0</ele><time>2026-03-28T14:14:56Z</time></trkpt><trkpt lat="44.73668062262584" lon="8.941840094714939"><ele>315.0</ele><time>2026-03-28T14:14:57Z</time></trkpt><trkpt lat="44.73672369323524" lon="8.942009874204462"><ele>315.0</ele><time>2026-03-28T14:14:58Z</time></trkpt><trkpt lat="44.73674369671021" lon="8.942156440061208"><ele>315.0</ele><time>2026-03-28T14:14:59Z</time></trkpt><trkpt lat="44.736784612011874" lon="8.94230628460384"><ele>315.0</ele><time>2026-03-28T14:15:00Z</time></trkpt><trkpt lat="44.736850926176714" lon="8.942453020532152"><ele>316.1666666666667</ele><time>2026-03-28T14:15:01Z</time></trkpt><trkpt lat="44.73692368042719" lon="8.942588411774077"><ele>317.3333333333333</ele><time>2026-03-28T14:15:02Z</time></trkpt><trkpt lat="44.73698691205079" lon="8.942681939593863"><ele>318.5</ele><time>2026-03-28T14:15:03Z</time></trkpt><trkpt lat="44.73703641819087" lon="8.942755696843767"><ele>319.66666666666663</ele><time>2026-03-28T14:15:04Z</time></trkpt><trkpt lat="44.7371019775474" lon="8.942774226108467"><ele>320.8333333333333</ele><time>2026-03-28T14:15:05Z</time></trkpt><trkpt lat="44.73716368942283" lon="8.942717393872229"><ele>322.0</ele><time>2026-03-28T14:15:06Z</time></trkpt><trkpt lat="44.73720178394179" lon="8.942620656846936"><ele>322.8</ele><time>2026-03-28T14:15:07Z</time></trkpt><trkpt lat="44.7372267964433" lon="8.942487829149249"><ele>323.6</ele><time>2026-03-28T14:15:08Z</time></trkpt><trkpt lat="44.737258040864944" lon="8.942327351438653"><ele>324.40000000000003</ele><time>2026-03-28T14:15:09Z</time></trkpt><trkpt lat="44.73728808287884" lon="8.942191719707647"><ele>325.20000000000005</ele><time>2026-03-28T14:15:10Z</time></trkpt><trkpt lat="44.73732954026344" lon="8.942071583836453"><ele>326.0</ele><time>2026-03-28T14:15:11Z</time></trkpt><trkpt lat="44.737399036376274" lon="8.94195267046035"><ele>326.0</ele><time>2026-03-28T14:15:12Z</time></trkpt><trkpt lat="44.737484703506475" lon="8.941839939026323"><ele>326.0</ele><time>2026-03-28T14:15:13Z</time></trkpt><trkpt lat="44.73754411488492" lon="8.941683876020287"><ele>326.0</ele><time>2026-03-28T14:15:14Z</time></trkpt><trkpt lat="44.73758733628474" lon="8.941558386557872"><ele>326.0</ele><time>2026-03-28T14:15:15Z</time></trkpt><trkpt lat="44.73762123512891" lon="8.94145962822147"><ele>326.0</ele><time>2026-03-28T14:15:16Z</time></trkpt><trkpt lat="44.73768515437641" lon="8.941391501144198"><ele>329.8</ele><time>2026-03-28T14:15:17Z</time></trkpt><trkpt lat="44.73777877724584" lon="8.941333572528865"><ele>333.6</ele><time>2026-03-28T14:15:18Z</time></trkpt><trkpt lat="44.737895468308174" lon="8.941258921674736"><ele>337.4</ele><time>2026-03-28T14:15:19Z</time></trkpt><trkpt lat="44.737995055157704" lon="8.94116604956524"><ele>341.2</ele><time>2026-03-28T14:15:20Z</time></trkpt><trkpt lat="44.73804235152651" lon="8.94106163049029"><ele>345.0</ele><time>2026-03-28T14:15:21Z</time></trkpt><trkpt lat="44.73806924483041" lon="8.94095268634037"><ele>348.4</ele><time>2026-03-28T14:15:22Z</time></trkpt><trkpt lat="44.73806182308179" lon="8.940830369336567"><ele>351.8</ele><time>2026-03-28T14:15:23Z</time></trkpt><trkpt lat="44.73800899714866" lon="8.940723937244684"><ele>355.20000000000005</ele><time>2026-03-28T14:15:24Z</time></trkpt><trkpt lat="44.7379266040648" lon="8.940632412946666"><ele>358.6</ele><time>2026-03-28T14:15:25Z</time></trkpt><trkpt lat="44.73782736938726" lon="8.94050457377206"><ele>362.0</ele><time>2026-03-28T14:15:26Z</time></trkpt><trkpt lat="44.73772910110437" lon="8.94042467726261"><ele>359.20000000000005</ele><time>2026-03-28T14:15:27Z</time></trkpt><trkpt lat="44.73766590442576" lon="8.940342069703819"><ele>356.4</ele><time>2026-03-28T14:15:28Z</time></trkpt><trkpt lat="44.73761569465161" lon="8.940253128601558"><ele>353.6</ele><time>2026-03-28T14:15:29Z</time></trkpt><trkpt lat="44.737577262979265" lon="8.940132146155175"><ele>350.79999999999995</ele><time>2026-03-28T14:15:30Z</time></trkpt><trkpt lat="44.73754268724869" lon="8.939985573321215"><ele>348.0</ele><time>2026-03-28T14:15:31Z</time></trkpt><trkpt lat="44.73749952532439" lon="8.939820559855834"><ele>348.0</ele><time>2026-03-28T14:15:32Z</time></trkpt><trkpt lat="44.73746033486993" lon="8.93967683047997"><ele>348.0</ele><time>2026-03-28T14:15:33Z</time></trkpt><trkpt lat="44.737450301251094" lon="8.939552284574201"><ele>348.0</ele><time>2026-03-28T14:15:34Z</time></trkpt><trkpt lat="44.73747272824492" lon="8.939444895399996"><ele>348.0</ele><time>2026-03-28T14:15:35Z</time></trkpt><trkpt lat="44.7375291707244" lon="8.939371316131453"><ele>348.0</ele><time>2026-03-28T14:15:36Z</time></trkpt><trkpt lat="44.73761276579298" lon="8.939342685628315"><ele>348.0</ele><time>2026-03-28T14:15:37Z</time></trkpt><trkpt lat="44.7377067797506" lon="8.93933882918866"><ele>353.59999999999997</ele><time>2026-03-28T14:15:38Z</time></trkpt><trkpt lat="44.7378194165318" lon="8.93932640600443"><ele>359.2</ele><time>2026-03-28T14:15:39Z</time></trkpt><trkpt lat="44.737950435957046" lon="8.939324209874"><ele>364.8</ele><time>2026-03-28T14:15:40Z</time></trkpt><trkpt lat="44.73805324799411" lon="8.939327627418814"><ele>370.4</ele><time>2026-03-28T14:15:41Z</time></trkpt><trkpt lat="44.73813937503981" lon="8.939320562595915"><ele>376.0</ele><time>2026-03-28T14:15:42Z</time></trkpt><trkpt lat="44.73823014418632" lon="8.939277885975324"><ele>375.0</ele><time>2026-03-28T14:15:43Z</time></trkpt><trkpt lat="44.738328273702955" lon="8.939206012528034"><ele>374.0</ele><time>2026-03-28T14:15:44Z</time></trkpt><trkpt lat="44.73842736080683" lon="8.939113263329077"><ele>373.0</ele><time>2026-03-28T14:15:45Z</time></trkpt><trkpt lat="44.73851757395568" lon="8.938989050221535"><ele>372.0</ele><time>2026-03-28T14:15:46Z</time></trkpt><trkpt lat="44.73861841267305" lon="8.938860397492045"><ele>381.0</ele><time>2026-03-28T14:15:47Z</time></trkpt><trkpt lat="44.73872832561482" lon="8.93872712025403"><ele>390.0</ele><time>2026-03-28T14:15:48Z</time></trkpt><trkpt lat="44.738829726054334" lon="8.938592488204636"><ele>399.0</ele><time>2026-03-28T14:15:49Z</time></trkpt><trkpt lat="44.7389433477443" lon="8.938509201970655"><ele>408.0</ele><time>2026-03-28T14:15:50Z</time></trkpt><trkpt lat="44.73904552234461" lon="8.938391494278251"><ele>409.79999999999995</ele><time>2026-03-28T14:15:51Z</time></trkpt><trkpt lat="44.73913021826392" lon="8.938308153577466"><ele>411.6</ele><time>2026-03-28T14:15:52Z</time></trkpt><trkpt lat="44.73921767161145" lon="8.938246355759727"><ele>413.4</ele><time>2026-03-28T14:15:53.001Z</time></trkpt><trkpt lat="44.739321656876875" lon="8.938189865229438"><ele>415.20000000000005</ele><time>2026-03-28T14:15:54.001Z</time></trkpt><trkpt lat="44.73942609065472" lon="8.938172687301103"><ele>417.0</ele><time>2026-03-28T14:15:55.001Z</time></trkpt><trkpt lat="44.73953514319791" lon="8.938199715760279"><ele>417.0</ele><time>2026-03-28T14:15:56.001Z</time></trkpt><trkpt lat="44.73963848740921" lon="8.9382075166276"><ele>417.0</ele><time>2026-03-28T14:15:57.001Z</time></trkpt><trkpt lat="44.73973889771628" lon="8.938168774596097"><ele>417.0</ele><time>2026-03-28T14:15:58.001Z</time></trkpt><trkpt lat="44.73983481603494" lon="8.938091607035306"><ele>417.0</ele><time>2026-03-28T14:15:59.001Z</time></trkpt><trkpt lat="44.73994788593533" lon="8.938006894146534"><ele>417.0</ele><time>2026-03-28T14:16:00.001Z</time></trkpt><trkpt lat="44.7400622998403" lon="8.937951789918355"><ele>417.0</ele><time>2026-03-28T14:16:01.001Z</time></trkpt><trkpt lat="44.74018262107034" lon="8.937924945749016"><ele>417.0</ele><time>2026-03-28T14:16:02.001Z</time></trkpt><trkpt lat="44.74029476366316" lon="8.937881309571736"><ele>417.0</ele><time>2026-03-28T14:16:03.001Z</time></trkpt><trkpt lat="44.74039226652623" lon="8.937840353887061"><ele>417.0</ele><time>2026-03-28T14:16:04.001Z</time></trkpt><trkpt lat="44.740463486566966" lon="8.93778696572519"><ele>417.0</ele><time>2026-03-28T14:16:05.001Z</time></trkpt><trkpt lat="44.740509633228726" lon="8.937710771336443"><ele>418.6</ele><time>2026-03-28T14:16:06.001Z</time></trkpt><trkpt lat="44.74053468608348" lon="8.937618757858923"><ele>420.20000000000005</ele><time>2026-03-28T14:16:07.001Z</time></trkpt><trkpt lat="44.74054988652958" lon="8.937501504922174"><ele>421.8</ele><time>2026-03-28T14:16:08.001Z</time></trkpt><trkpt lat="44.74055732923049" lon="8.93736928295725"><ele>423.4</ele><time>2026-03-28T14:16:09.001Z</time></trkpt><trkpt lat="44.74054296453829" lon="8.937225430878438"><ele>425.0</ele><time>2026-03-28T14:16:10.001Z</time></trkpt><trkpt lat="44.74051182743141" lon="8.937077468380785"><ele>425.0</ele><time>2026-03-28T14:16:11.001Z</time></trkpt><trkpt lat="44.74047157333491" lon="8.936950120872403"><ele>425.0</ele><time>2026-03-28T14:16:12.001Z</time></trkpt><trkpt lat="44.74043753959637" lon="8.936833312849656"><ele>425.0</ele><time>2026-03-28T14:16:13.001Z</time></trkpt><trkpt lat="44.740417570405704" lon="8.936691129357083"><ele>425.0</ele><time>2026-03-28T14:16:14.001Z</time></trkpt><trkpt lat="44.740403478489284" lon="8.93652677441016"><ele>425.0</ele><time>2026-03-28T14:16:15.001Z</time></trkpt><trkpt lat="44.74037123848475" lon="8.936382387022908"><ele>425.25</ele><time>2026-03-28T14:16:16.001Z</time></trkpt><trkpt lat="44.74033320675807" lon="8.936244151534344"><ele>425.5</ele><time>2026-03-28T14:16:17.001Z</time></trkpt><trkpt lat="44.74027139659957" lon="8.936095395927932"><ele>425.75</ele><time>2026-03-28T14:16:18.001Z</time></trkpt><trkpt lat="44.74019477430371" lon="8.935952757449487"><ele>426.0</ele><time>2026-03-28T14:16:19.001Z</time></trkpt><trkpt lat="44.74010662994474" lon="8.93584013380307"><ele>426.0</ele><time>2026-03-28T14:16:20.001Z</time></trkpt><trkpt lat="44.74002558496659" lon="8.935741232110647"><ele>426.0</ele><time>2026-03-28T14:16:21.001Z</time></trkpt><trkpt lat="44.7399454502877" lon="8.935663248299837"><ele>426.0</ele><time>2026-03-28T14:16:22.001Z</time></trkpt><trkpt lat="44.73987122676695" lon="8.935609221379863"><ele>426.0</ele><time>2026-03-28T14:16:23.001Z</time></trkpt><trkpt lat="44.73978805237824" lon="8.935546726568873"><ele>426.0</ele><time>2026-03-28T14:16:24.001Z</time></trkpt><trkpt lat="44.73969267491848" lon="8.935576009893422"><ele>426.0</ele><time>2026-03-28T14:16:25.001Z</time></trkpt><trkpt lat="44.73961500203843" lon="8.93559683105624"><ele>426.0</ele><time>2026-03-28T14:16:26.001Z</time></trkpt><trkpt lat="44.73955340350775" lon="8.935617434031702"><ele>426.0</ele><time>2026-03-28T14:16:27.001Z</time></trkpt><trkpt lat="44.73946051649659" lon="8.935624666486131"><ele>426.0</ele><time>2026-03-28T14:16:29.001Z</time></trkpt><trkpt lat="44.739463458167236" lon="8.935531610341103"><ele>426.0</ele><time>2026-03-28T14:16:32.001Z</time></trkpt><trkpt lat="44.73958703081944" lon="8.935439613906043"><ele>426.0</ele><time>2026-03-28T14:16:34.001Z</time></trkpt><trkpt lat="44.73968142824366" lon="8.93539640495095"><ele>426.0</ele><time>2026-03-28T14:16:35.001Z</time></trkpt><trkpt lat="44.739769888811495" lon="8.93531081616195"><ele>426.0</ele><time>2026-03-28T14:16:36.001Z</time></trkpt><trkpt lat="44.73987529250963" lon="8.935271516971655"><ele>426.0</ele><time>2026-03-28T14:16:37.001Z</time></trkpt><trkpt lat="44.73997735094664" lon="8.93526605445948"><ele>426.0</ele><time>2026-03-28T14:16:38.001Z</time></trkpt><trkpt lat="44.7400915133344" lon="8.935274831811267"><ele>426.0</ele><time>2026-03-28T14:16:39.001Z</time></trkpt><trkpt lat="44.74019519088677" lon="8.93529909037205"><ele>431.25</ele><time>2026-03-28T14:16:40.001Z</time></trkpt><trkpt lat="44.74031625170302" lon="8.935359491618893"><ele>436.5</ele><time>2026-03-28T14:16:41.001Z</time></trkpt><trkpt lat="44.740435212303204" lon="8.935432917926807"><ele>441.75</ele><time>2026-03-28T14:16:42.001Z</time></trkpt><trkpt lat="44.74054659796465" lon="8.935516168143295"><ele>447.0</ele><time>2026-03-28T14:16:43.001Z</time></trkpt><trkpt lat="44.74065122408669" lon="8.9356181910386"><ele>447.0</ele><time>2026-03-28T14:16:44.001Z</time></trkpt><trkpt lat="44.7407528894862" lon="8.935742010675261"><ele>447.0</ele><time>2026-03-28T14:16:45Z</time></trkpt><trkpt lat="44.740816537237635" lon="8.935886060010102"><ele>447.0</ele><time>2026-03-28T14:16:46Z</time></trkpt><trkpt lat="44.7408918819927" lon="8.936004676718559"><ele>447.0</ele><time>2026-03-28T14:16:47Z</time></trkpt><trkpt lat="44.740947293711685" lon="8.936146046160186"><ele>444.6</ele><time>2026-03-28T14:16:48Z</time></trkpt><trkpt lat="44.74099919065722" lon="8.936268484532684"><ele>442.20000000000005</ele><time>2026-03-28T14:16:49Z</time></trkpt><trkpt lat="44.741063946086705" lon="8.936381545528622"><ele>439.8</ele><time>2026-03-28T14:16:50Z</time></trkpt><trkpt lat="44.74113690804001" lon="8.936464415462199"><ele>437.4</ele><time>2026-03-28T14:16:51Z</time></trkpt><trkpt lat="44.741224161556474" lon="8.93653589791086"><ele>435.0</ele><time>2026-03-28T14:16:52Z</time></trkpt><trkpt lat="44.74131736043335" lon="8.936627808366572"><ele>441.25</ele><time>2026-03-28T14:16:53Z</time></trkpt><trkpt lat="44.741385614106726" lon="8.936751380548243"><ele>447.5</ele><time>2026-03-28T14:16:54Z</time></trkpt><trkpt lat="44.74145223596547" lon="8.936878353342806"><ele>453.75</ele><time>2026-03-28T14:16:55Z</time></trkpt><trkpt lat="44.74150209237743" lon="8.937030424339156"><ele>460.0</ele><time>2026-03-28T14:16:56Z</time></trkpt><trkpt lat="44.74153905045272" lon="8.93719638356711"><ele>460.0</ele><time>2026-03-28T14:16:57Z</time></trkpt><trkpt lat="44.74157552659516" lon="8.937370593333592"><ele>460.0</ele><time>2026-03-28T14:16:58Z</time></trkpt><trkpt lat="44.74159683404867" lon="8.93752565376428"><ele>460.0</ele><time>2026-03-28T14:16:59Z</time></trkpt><trkpt lat="44.741607750300865" lon="8.937668614388231"><ele>460.0</ele><time>2026-03-28T14:17:00Z</time></trkpt><trkpt lat="44.741611599632925" lon="8.937787788660426"><ele>460.0</ele><time>2026-03-28T14:17:01Z</time></trkpt><trkpt lat="44.74160776986435" lon="8.937876465743875"><ele>460.00000000000006</ele><time>2026-03-28T14:17:02Z</time></trkpt><trkpt lat="44.74152811233952" lon="8.937992588003793"><ele>460.0</ele><time>2026-03-28T14:17:04Z</time></trkpt><trkpt lat="44.74148032141432" lon="8.938068622500001"><ele>460.0</ele><time>2026-03-28T14:17:05Z</time></trkpt><trkpt lat="44.74144388393917" lon="8.93814468530113"><ele>460.0</ele><time>2026-03-28T14:17:06Z</time></trkpt><trkpt lat="44.7414034471007" lon="8.938231927594629"><ele>460.00000000000006</ele><time>2026-03-28T14:17:07Z</time></trkpt><trkpt lat="44.74136144430229" lon="8.938322548316952"><ele>460.0</ele><time>2026-03-28T14:17:08Z</time></trkpt><trkpt lat="44.74131354839107" lon="8.938412393228015"><ele>460.0</ele><time>2026-03-28T14:17:09Z</time></trkpt><trkpt lat="44.74125172425958" lon="8.938477754043213"><ele>460.0</ele><time>2026-03-28T14:17:10Z</time></trkpt><trkpt lat="44.741172699651756" lon="8.938523616712613"><ele>460.0</ele><time>2026-03-28T14:17:11Z</time></trkpt><trkpt lat="44.741087103264114" lon="8.938569921893755"><ele>460.0</ele><time>2026-03-28T14:17:12Z</time></trkpt><trkpt lat="44.740993732386094" lon="8.938612808690259"><ele>460.0</ele><time>2026-03-28T14:17:13Z</time></trkpt><trkpt lat="44.7408966751926" lon="8.938663463920166"><ele>457.6666666666667</ele><time>2026-03-28T14:17:14Z</time></trkpt><trkpt lat="44.74081960216827" lon="8.93871340320433"><ele>455.33333333333337</ele><time>2026-03-28T14:17:15Z</time></trkpt><trkpt lat="44.740766377818076" lon="8.93876082837993"><ele>453.0</ele><time>2026-03-28T14:17:16Z</time></trkpt><trkpt lat="44.740738634268325" lon="8.938915047614099"><ele>450.66666666666663</ele><time>2026-03-28T14:17:18Z</time></trkpt><trkpt lat="44.74082507600129" lon="8.93899921873888"><ele>448.3333333333333</ele><time>2026-03-28T14:17:20Z</time></trkpt><trkpt lat="44.740904595100545" lon="8.938967325328077"><ele>446.0</ele><time>2026-03-28T14:17:21Z</time></trkpt><trkpt lat="44.740984579577045" lon="8.93890783466375"><ele>448.8</ele><time>2026-03-28T14:17:22Z</time></trkpt><trkpt lat="44.74108787923604" lon="8.938899160376488"><ele>451.6</ele><time>2026-03-28T14:17:23Z</time></trkpt><trkpt lat="44.74119519162633" lon="8.93887830613554"><ele>454.4</ele><time>2026-03-28T14:17:24Z</time></trkpt><trkpt lat="44.74130489980827" lon="8.938869264222634"><ele>457.2</ele><time>2026-03-28T14:17:25Z</time></trkpt><trkpt lat="44.74140674494417" lon="8.938850398293152"><ele>460.0</ele><time>2026-03-28T14:17:26Z</time></trkpt><trkpt lat="44.74150806800588" lon="8.938796511510683"><ele>460.0</ele><time>2026-03-28T14:17:27Z</time></trkpt><trkpt lat="44.74160812372784" lon="8.938736080438337"><ele>460.0</ele><time>2026-03-28T14:17:28Z</time></trkpt><trkpt lat="44.74169528363327" lon="8.938648414759522"><ele>460.0</ele><time>2026-03-28T14:17:29Z</time></trkpt><trkpt lat="44.741786214709386" lon="8.93857743975632"><ele>460.0</ele><time>2026-03-28T14:17:30Z</time></trkpt><trkpt lat="44.74187578582557" lon="8.938508906298697"><ele>460.0</ele><time>2026-03-28T14:17:31Z</time></trkpt><trkpt lat="44.74195740142161" lon="8.938434987717473"><ele>469.0</ele><time>2026-03-28T14:17:32Z</time></trkpt><trkpt lat="44.74202795384598" lon="8.938343899563417"><ele>478.0</ele><time>2026-03-28T14:17:33Z</time></trkpt><trkpt lat="44.74207559996471" lon="8.938235330656239"><ele>487.0</ele><time>2026-03-28T14:17:34Z</time></trkpt><trkpt lat="44.74210169162109" lon="8.93810309804418"><ele>496.0</ele><time>2026-03-28T14:17:35Z</time></trkpt><trkpt lat="44.742136927309616" lon="8.93796419984969"><ele>505.0</ele><time>2026-03-28T14:17:36Z</time></trkpt><trkpt lat="44.742148713362255" lon="8.93782197587145"><ele>505.0</ele><time>2026-03-28T14:17:37Z</time></trkpt><trkpt lat="44.742189016959315" lon="8.937686395508678"><ele>505.0</ele><time>2026-03-28T14:17:38Z</time></trkpt><trkpt lat="44.74221698493067" lon="8.937539108086403"><ele>505.0</ele><time>2026-03-28T14:17:39Z</time></trkpt><trkpt lat="44.74224344977669" lon="8.937401963768446"><ele>505.0</ele><time>2026-03-28T14:17:40Z</time></trkpt><trkpt lat="44.7422741180505" lon="8.937284785434455"><ele>505.0</ele><time>2026-03-28T14:17:41Z</time></trkpt><trkpt lat="44.74230017566035" lon="8.937167598917572"><ele>504.00000000000006</ele><time>2026-03-28T14:17:42Z</time></trkpt><trkpt lat="44.74231446218013" lon="8.937049108415568"><ele>503.0</ele><time>2026-03-28T14:17:43Z</time></trkpt><trkpt lat="44.742329540951374" lon="8.93694599250935"><ele>502.0</ele><time>2026-03-28T14:17:44.001Z</time></trkpt><trkpt lat="44.7423456402372" lon="8.936857461645733"><ele>501.0</ele><time>2026-03-28T14:17:45.001Z</time></trkpt><trkpt lat="44.742362564158185" lon="8.936687194644701"><ele>500.00000000000006</ele><time>2026-03-28T14:17:47.001Z</time></trkpt><trkpt lat="44.74239057352286" lon="8.936556973969234"><ele>499.0</ele><time>2026-03-28T14:17:49.001Z</time></trkpt><trkpt lat="44.742442185470914" lon="8.936463641375594"><ele>497.6666666666667</ele><time>2026-03-28T14:18:34.001Z</time></trkpt><trkpt lat="44.742522876863305" lon="8.93641040801777"><ele>496.33333333333337</ele><time>2026-03-28T14:18:36.001Z</time></trkpt><trkpt lat="44.74260626085482" lon="8.936457257983742"><ele>495.0</ele><time>2026-03-28T14:18:38.001Z</time></trkpt><trkpt lat="44.74263696493839" lon="8.936557389378173"><ele>493.66666666666663</ele><time>2026-03-28T14:18:39.001Z</time></trkpt><trkpt lat="44.74269403408391" lon="8.936639552590947"><ele>492.3333333333333</ele><time>2026-03-28T14:18:40.001Z</time></trkpt><trkpt lat="44.74274215106344" lon="8.936724001084778"><ele>491.0</ele><time>2026-03-28T14:18:41.001Z</time></trkpt><trkpt lat="44.74280131270362" lon="8.936800027139569"><ele>496.0</ele><time>2026-03-28T14:18:42.001Z</time></trkpt><trkpt lat="44.74287552064383" lon="8.936867842671434"><ele>501.0</ele><time>2026-03-28T14:18:43.001Z</time></trkpt><trkpt lat="44.74297988105163" lon="8.936942313764833"><ele>506.0</ele><time>2026-03-28T14:18:44.001Z</time></trkpt><trkpt lat="44.74309266726467" lon="8.936955779646924"><ele>511.0</ele><time>2026-03-28T14:18:45.001Z</time></trkpt><trkpt lat="44.7431833117091" lon="8.937009193344862"><ele>516.0</ele><time>2026-03-28T14:18:46.001Z</time></trkpt><trkpt lat="44.74327152684199" lon="8.93708118754211"><ele>516.0</ele><time>2026-03-28T14:18:47.001Z</time></trkpt><trkpt lat="44.74334976431593" lon="8.937148169609832"><ele>516.0</ele><time>2026-03-28T14:18:48.001Z</time></trkpt><trkpt lat="44.74343771764394" lon="8.93722894917607"><ele>516.0</ele><time>2026-03-28T14:18:49.001Z</time></trkpt><trkpt lat="44.74355944898211" lon="8.937150246472099"><ele>516.0</ele><time>2026-03-28T14:18:50.001Z</time></trkpt><trkpt lat="44.74369772116809" lon="8.937225238839739"><ele>516.75</ele><time>2026-03-28T14:18:51Z</time></trkpt><trkpt lat="44.7438299445537" lon="8.937329941126233"><ele>517.5</ele><time>2026-03-28T14:18:52Z</time></trkpt><trkpt lat="44.74397109285917" lon="8.93734042647465"><ele>518.25</ele><time>2026-03-28T14:18:53Z</time></trkpt><trkpt lat="44.74407697543775" lon="8.93732965919942"><ele>519.0</ele><time>2026-03-28T14:18:54Z</time></trkpt><trkpt lat="44.74415411872877" lon="8.937310906888872"><ele>519.0</ele><time>2026-03-28T14:18:55Z</time></trkpt><trkpt lat="44.74421687886931" lon="8.937206021697516"><ele>519.0</ele><time>2026-03-28T14:18:56Z</time></trkpt><trkpt lat="44.74429274645244" lon="8.937081516121442"><ele>519.0</ele><time>2026-03-28T14:18:57Z</time></trkpt><trkpt lat="44.74434816227466" lon="8.936921757083375"><ele>519.0</ele><time>2026-03-28T14:18:58Z</time></trkpt><trkpt lat="44.74437038192556" lon="8.936737150282811"><ele>517.4</ele><time>2026-03-28T14:18:59Z</time></trkpt><trkpt lat="44.74443915498133" lon="8.936648017210919"><ele>515.8</ele><time>2026-03-28T14:19:00Z</time></trkpt><trkpt lat="44.744525410562424" lon="8.936526848424005"><ele>514.2</ele><time>2026-03-28T14:19:01Z</time></trkpt><trkpt lat="44.744602139667116" lon="8.936378487367989"><ele>512.6</ele><time>2026-03-28T14:19:02Z</time></trkpt><trkpt lat="44.744650564685756" lon="8.936274011346597"><ele>511.0</ele><time>2026-03-28T14:19:03Z</time></trkpt><trkpt lat="44.74471665944795" lon="8.93626440126661"><ele>511.0</ele><time>2026-03-28T14:19:06Z</time></trkpt><trkpt lat="44.744747551915026" lon="8.936400125026106"><ele>511.0</ele><time>2026-03-28T14:19:08Z</time></trkpt><trkpt lat="44.7446896068099" lon="8.936554346369373"><ele>511.0</ele><time>2026-03-28T14:19:10Z</time></trkpt><trkpt lat="44.74463715717504" lon="8.936676807147487"><ele>511.0</ele><time>2026-03-28T14:19:11Z</time></trkpt><trkpt lat="44.74462402904896" lon="8.936826677735203"><ele>511.0</ele><time>2026-03-28T14:19:12Z</time></trkpt><trkpt lat="44.74457958971934" lon="8.936996894499527"><ele>510.0</ele><time>2026-03-28T14:19:13Z</time></trkpt><trkpt lat="44.744541638282534" lon="8.937184582349522"><ele>509.0</ele><time>2026-03-28T14:19:14Z</time></trkpt><trkpt lat="44.74452238247828" lon="8.937301142522182"><ele>508.0</ele><time>2026-03-28T14:19:15Z</time></trkpt><trkpt lat="44.74450328969394" lon="8.937444470317416"><ele>507.0</ele><time>2026-03-28T14:19:16Z</time></trkpt><trkpt lat="44.744431625805525" lon="8.937546989918722"><ele>506.0</ele><time>2026-03-28T14:19:17Z</time></trkpt><trkpt lat="44.74434171182912" lon="8.937698729110293"><ele>513.0</ele><time>2026-03-28T14:19:18Z</time></trkpt><trkpt lat="44.74423345959304" lon="8.937872952879339"><ele>520.0</ele><time>2026-03-28T14:19:19Z</time></trkpt><trkpt lat="44.74415327008211" lon="8.938020969833172"><ele>527.0</ele><time>2026-03-28T14:19:20Z</time></trkpt><trkpt lat="44.744066416651776" lon="8.938115210520863"><ele>534.0</ele><time>2026-03-28T14:19:21Z</time></trkpt><trkpt lat="44.74397806531347" lon="8.938198194894255"><ele>534.0</ele><time>2026-03-28T14:19:22Z</time></trkpt><trkpt lat="44.743877297034665" lon="8.938266309795955"><ele>534.0</ele><time>2026-03-28T14:19:23Z</time></trkpt><trkpt lat="44.74379044544731" lon="8.938275541399577"><ele>534.0</ele><time>2026-03-28T14:19:24Z</time></trkpt><trkpt lat="44.74368569238747" lon="8.93829437100171"><ele>534.0</ele><time>2026-03-28T14:19:25Z</time></trkpt><trkpt lat="44.74358051512705" lon="8.93829471421098"><ele>534.0</ele><time>2026-03-28T14:19:26Z</time></trkpt><trkpt lat="44.7435134905564" lon="8.938316990385838"><ele>533.6666666666666</ele><time>2026-03-28T14:19:27Z</time></trkpt><trkpt lat="44.743462085133494" lon="8.938372827894229"><ele>533.3333333333334</ele><time>2026-03-28T14:19:29Z</time></trkpt><trkpt lat="44.74348836375737" lon="8.938479209092927"><ele>533.0</ele><time>2026-03-28T14:19:31Z</time></trkpt><trkpt lat="44.74356214207832" lon="8.938513824986556"><ele>532.6666666666667</ele><time>2026-03-28T14:19:32Z</time></trkpt><trkpt lat="44.74366552503284" lon="8.93854892453289"><ele>532.3333333333334</ele><time>2026-03-28T14:19:33Z</time></trkpt><trkpt lat="44.743752973595136" lon="8.938612288725848"><ele>532.0</ele><time>2026-03-28T14:19:34Z</time></trkpt><trkpt lat="44.74382354303568" lon="8.938710470776117"><ele>534.0</ele><time>2026-03-28T14:19:35Z</time></trkpt><trkpt lat="44.74388669475917" lon="8.938849357974773"><ele>536.0</ele><time>2026-03-28T14:19:36Z</time></trkpt><trkpt lat="44.743987719694694" lon="8.938968152125504"><ele>538.0</ele><time>2026-03-28T14:19:37Z</time></trkpt><trkpt lat="44.74405811932947" lon="8.939187534473605"><ele>540.0</ele><time>2026-03-28T14:19:38Z</time></trkpt><trkpt lat="44.74411047828424" lon="8.93933891067766"><ele>540.75</ele><time>2026-03-28T14:19:39Z</time></trkpt><trkpt lat="44.74419193286055" lon="8.939503500851016"><ele>541.5</ele><time>2026-03-28T14:19:40Z</time></trkpt><trkpt lat="44.74426714062457" lon="8.939662787528576"><ele>542.25</ele><time>2026-03-28T14:19:41Z</time></trkpt><trkpt lat="44.744345164443686" lon="8.939816088596091"><ele>543.0</ele><time>2026-03-28T14:19:42Z</time></trkpt><trkpt lat="44.74441337653492" lon="8.939960038062607"><ele>547.8</ele><time>2026-03-28T14:19:43Z</time></trkpt><trkpt lat="44.74447770442567" lon="8.940051826641461"><ele>552.5999999999999</ele><time>2026-03-28T14:19:44Z</time></trkpt><trkpt lat="44.744535150698155" lon="8.940156716774782"><ele>557.4000000000001</ele><time>2026-03-28T14:19:45Z</time></trkpt><trkpt lat="44.74459540343805" lon="8.940266991038516"><ele>562.2</ele><time>2026-03-28T14:19:46Z</time></trkpt><trkpt lat="44.744683649132334" lon="8.940361723204376"><ele>567.0</ele><time>2026-03-28T14:19:47Z</time></trkpt><trkpt lat="44.7447867712363" lon="8.940441177864994"><ele>567.0</ele><time>2026-03-28T14:19:48.001Z</time></trkpt><trkpt lat="44.744877640339716" lon="8.940476806563794"><ele>567.0</ele><time>2026-03-28T14:19:49.001Z</time></trkpt><trkpt lat="44.74497766235721" lon="8.940461250024038"><ele>567.0</ele><time>2026-03-28T14:19:50.001Z</time></trkpt><trkpt lat="44.74510548763782" lon="8.940428794397569"><ele>567.0</ele><time>2026-03-28T14:19:51.001Z</time></trkpt><trkpt lat="44.74522645374108" lon="8.940406938362331"><ele>567.0</ele><time>2026-03-28T14:19:52.001Z</time></trkpt><trkpt lat="44.745324217971074" lon="8.940379130644528"><ele>568.0</ele><time>2026-03-28T14:19:53.001Z</time></trkpt><trkpt lat="44.745395892873155" lon="8.940377252069801"><ele>569.0</ele><time>2026-03-28T14:19:54.001Z</time></trkpt><trkpt lat="44.745474047666434" lon="8.940421676015943"><ele>570.0</ele><time>2026-03-28T14:19:55.001Z</time></trkpt><trkpt lat="44.74556039422469" lon="8.940507844160381"><ele>571.0</ele><time>2026-03-28T14:19:56.001Z</time></trkpt><trkpt lat="44.74564074827902" lon="8.94057785501294"><ele>572.0</ele><time>2026-03-28T14:19:57.001Z</time></trkpt><trkpt lat="44.74570542330155" lon="8.940596220850137"><ele>573.0</ele><time>2026-03-28T14:19:58.001Z</time></trkpt><trkpt lat="44.74579369512741" lon="8.940670220967009"><ele>573.0</ele><time>2026-03-28T14:19:59.001Z</time></trkpt><trkpt lat="44.745853254425604" lon="8.940770684396472"><ele>573.0</ele><time>2026-03-28T14:20:00.001Z</time></trkpt><trkpt lat="44.745896542703335" lon="8.940898528886784"><ele>573.0</ele><time>2026-03-28T14:20:01.001Z</time></trkpt><trkpt lat="44.74597988751786" lon="8.941000520152485"><ele>573.0</ele><time>2026-03-28T14:20:02.001Z</time></trkpt><trkpt lat="44.74606638651221" lon="8.941089845287506"><ele>573.0</ele><time>2026-03-28T14:20:03.001Z</time></trkpt><trkpt lat="44.74612954586944" lon="8.94114982903392"><ele>574.0</ele><time>2026-03-28T14:20:04.001Z</time></trkpt><trkpt lat="44.746189056073305" lon="8.941235648608366"><ele>575.0</ele><time>2026-03-28T14:20:05.001Z</time></trkpt><trkpt lat="44.746282957175886" lon="8.941290394218628"><ele>576.0</ele><time>2026-03-28T14:20:06.001Z</time></trkpt><trkpt lat="44.74639393171008" lon="8.941334173080662"><ele>577.0</ele><time>2026-03-28T14:20:07.001Z</time></trkpt><trkpt lat="44.746483683250844" lon="8.941364988801425"><ele>578.0</ele><time>2026-03-28T14:20:08.001Z</time></trkpt><trkpt lat="44.746551708602" lon="8.941411885747561"><ele>578.0</ele><time>2026-03-28T14:20:09.001Z</time></trkpt><trkpt lat="44.74661815503054" lon="8.941497154575387"><ele>578.0</ele><time>2026-03-28T14:20:10.001Z</time></trkpt><trkpt lat="44.74669822592968" lon="8.941614069169463"><ele>578.0</ele><time>2026-03-28T14:20:11.001Z</time></trkpt><trkpt lat="44.746746728456415" lon="8.94172619117313"><ele>578.0</ele><time>2026-03-28T14:20:12.001Z</time></trkpt><trkpt lat="44.74680413922616" lon="8.941816364892558"><ele>578.0</ele><time>2026-03-28T14:20:13.001Z</time></trkpt><trkpt lat="44.74684819324954" lon="8.941895392381584"><ele>574.1999999999999</ele><time>2026-03-28T14:20:14.001Z</time></trkpt><trkpt lat="44.74687978665024" lon="8.941994895661418"><ele>570.4</ele><time>2026-03-28T14:20:15.001Z</time></trkpt><trkpt lat="44.74694740063277" lon="8.942134853488604"><ele>566.5999999999999</ele><time>2026-03-28T14:20:17.001Z</time></trkpt><trkpt lat="44.74700700176267" lon="8.942172366037928"><ele>562.8</ele><time>2026-03-28T14:20:18.001Z</time></trkpt><trkpt lat="44.747115647984245" lon="8.942209467950416"><ele>559.0</ele><time>2026-03-28T14:20:20.001Z</time></trkpt><trkpt lat="44.74720908578843" lon="8.94221014649355"><ele>559.0</ele><time>2026-03-28T14:20:22.001Z</time></trkpt><trkpt lat="44.747286354854864" lon="8.942247394644358"><ele>559.0</ele><time>2026-03-28T14:20:24.001Z</time></trkpt><trkpt lat="44.7473593017164" lon="8.942275345587596"><ele>559.0</ele><time>2026-03-28T14:20:26.001Z</time></trkpt><trkpt lat="44.74744517673361" lon="8.942352875156843"><ele>559.0</ele><time>2026-03-28T14:20:28.001Z</time></trkpt><trkpt lat="44.7475361096119" lon="8.942464393488908"><ele>559.0</ele><time>2026-03-28T14:20:30.001Z</time></trkpt><trkpt lat="44.74758478999346" lon="8.942553779947295"><ele>556.6</ele><time>2026-03-28T14:20:31.001Z</time></trkpt><trkpt lat="44.747620990289974" lon="8.942647161747288"><ele>554.2</ele><time>2026-03-28T14:20:32.001Z</time></trkpt><trkpt lat="44.74765210186168" lon="8.942757796584003"><ele>551.8000000000001</ele><time>2026-03-28T14:20:33.001Z</time></trkpt><trkpt lat="44.74769432853858" lon="8.942846963225948"><ele>549.4</ele><time>2026-03-28T14:20:34.001Z</time></trkpt><trkpt lat="44.747768832790946" lon="8.942955342593804"><ele>547.0</ele><time>2026-03-28T14:20:36.001Z</time></trkpt><trkpt lat="44.74782689757021" lon="8.943089621415622"><ele>547.0</ele><time>2026-03-28T14:20:38.001Z</time></trkpt><trkpt lat="44.747858178908025" lon="8.943247471311645"><ele>547.0</ele><time>2026-03-28T14:20:40.001Z</time></trkpt><trkpt lat="44.74789015406967" lon="8.943388434229885"><ele>547.0</ele><time>2026-03-28T14:20:42.001Z</time></trkpt><trkpt lat="44.74792357212491" lon="8.943555439683566"><ele>547.0</ele><time>2026-03-28T14:20:44.001Z</time></trkpt><trkpt lat="44.747971923881515" lon="8.943643520494913"><ele>547.0</ele><time>2026-03-28T14:20:45.001Z</time></trkpt><trkpt lat="44.748020670608476" lon="8.94371459687107"><ele>546.0</ele><time>2026-03-28T14:20:46.001Z</time></trkpt><trkpt lat="44.74809115813429" lon="8.943842141586128"><ele>545.0</ele><time>2026-03-28T14:20:48.001Z</time></trkpt><trkpt lat="44.748127600629196" lon="8.943978921297264"><ele>544.0</ele><time>2026-03-28T14:20:50.001Z</time></trkpt><trkpt lat="44.74816137960521" lon="8.944138528927901"><ele>543.0</ele><time>2026-03-28T14:20:52.001Z</time></trkpt><trkpt lat="44.748173531107035" lon="8.944227573710872"><ele>542.0</ele><time>2026-03-28T14:20:53.001Z</time></trkpt><trkpt lat="44.7482178794057" lon="8.944394711031613"><ele>540.6666666666666</ele><time>2026-03-28T14:20:55.001Z</time></trkpt><trkpt lat="44.74829252940697" lon="8.944531394288546"><ele>539.3333333333333</ele><time>2026-03-28T14:20:57Z</time></trkpt><trkpt lat="44.748350010627505" lon="8.944579153766261"><ele>538.0</ele><time>2026-03-28T14:20:58Z</time></trkpt><trkpt lat="44.7484074210935" lon="8.944619028707343"><ele>536.6666666666666</ele><time>2026-03-28T14:20:59Z</time></trkpt><trkpt lat="44.74845808699056" lon="8.944682039243176"><ele>535.3333333333334</ele><time>2026-03-28T14:21:01Z</time></trkpt><trkpt lat="44.748425053013904" lon="8.944768656092052"><ele>534.0</ele><time>2026-03-28T14:21:04Z</time></trkpt><trkpt lat="44.748390451494814" lon="8.944878501513394"><ele>534.0</ele><time>2026-03-28T14:21:17Z</time></trkpt><trkpt lat="44.748377493204046" lon="8.944973546780062"><ele>534.0</ele><time>2026-03-28T14:21:18Z</time></trkpt><trkpt lat="44.74837766204419" lon="8.94506540652187"><ele>534.0</ele><time>2026-03-28T14:21:19Z</time></trkpt><trkpt lat="44.74838268588406" lon="8.94524881805276"><ele>534.0</ele><time>2026-03-28T14:21:21Z</time></trkpt><trkpt lat="44.74839470595978" lon="8.945365215764934"><ele>534.0</ele><time>2026-03-28T14:21:22Z</time></trkpt><trkpt lat="44.74842158797273" lon="8.945508195735457"><ele>534.8</ele><time>2026-03-28T14:21:23Z</time></trkpt><trkpt lat="44.748446432295104" lon="8.945649966614091"><ele>535.5999999999999</ele><time>2026-03-28T14:21:24Z</time></trkpt><trkpt lat="44.74842865500495" lon="8.945770623517197"><ele>536.4</ele><time>2026-03-28T14:21:25Z</time></trkpt><trkpt lat="44.74840885354565" lon="8.945905735364466"><ele>537.1999999999999</ele><time>2026-03-28T14:21:26Z</time></trkpt><trkpt lat="44.748376530640634" lon="8.946027362340766"><ele>538.0</ele><time>2026-03-28T14:21:27Z</time></trkpt><trkpt lat="44.748336978440356" lon="8.946123495659375"><ele>539.8333333333334</ele><time>2026-03-28T14:21:28Z</time></trkpt><trkpt lat="44.74828596978138" lon="8.946209778400723"><ele>541.6666666666667</ele><time>2026-03-28T14:21:29Z</time></trkpt><trkpt lat="44.74820581936425" lon="8.946218384413283"><ele>543.5</ele><time>2026-03-28T14:21:30Z</time></trkpt><trkpt lat="44.74813292837421" lon="8.946291098832573"><ele>545.3333333333334</ele><time>2026-03-28T14:21:31Z</time></trkpt><trkpt lat="44.74807851822269" lon="8.946348030819825"><ele>547.1666666666666</ele><time>2026-03-28T14:21:32Z</time></trkpt><trkpt lat="44.74807791932806" lon="8.946482996749122"><ele>549.0</ele><time>2026-03-28T14:21:33Z</time></trkpt><trkpt lat="44.74810318952637" lon="8.94659846095386"><ele>547.5</ele><time>2026-03-28T14:21:34Z</time></trkpt><trkpt lat="44.748152494507465" lon="8.946721867819067"><ele>546.0</ele><time>2026-03-28T14:21:35Z</time></trkpt><trkpt lat="44.74817661213819" lon="8.946881952210042"><ele>544.5</ele><time>2026-03-28T14:21:36Z</time></trkpt><trkpt lat="44.74819871025157" lon="8.947050434125156"><ele>543.0</ele><time>2026-03-28T14:21:37Z</time></trkpt><trkpt lat="44.748206126435946" lon="8.947207145484626"><ele>543.0</ele><time>2026-03-28T14:21:38Z</time></trkpt><trkpt lat="44.74822001502834" lon="8.947335674341844"><ele>543.0</ele><time>2026-03-28T14:21:39Z</time></trkpt><trkpt lat="44.748251559323194" lon="8.947421647929353"><ele>543.0</ele><time>2026-03-28T14:21:40Z</time></trkpt><trkpt lat="44.74832484846607" lon="8.947485140370553"><ele>543.0</ele><time>2026-03-28T14:21:41Z</time></trkpt><trkpt lat="44.748403069809875" lon="8.947543558374395"><ele>543.0</ele><time>2026-03-28T14:21:42Z</time></trkpt><trkpt lat="44.748474588727355" lon="8.947624629500226"><ele>543.0</ele><time>2026-03-28T14:21:43Z</time></trkpt><trkpt lat="44.7485380516713" lon="8.947701635599309"><ele>541.6</ele><time>2026-03-28T14:21:44Z</time></trkpt><trkpt lat="44.74859253922555" lon="8.94778028438831"><ele>540.1999999999999</ele><time>2026-03-28T14:21:45Z</time></trkpt><trkpt lat="44.74864945243254" lon="8.947861440298091"><ele>538.8</ele><time>2026-03-28T14:21:46Z</time></trkpt><trkpt lat="44.748724168502044" lon="8.947908989887404"><ele>537.4</ele><time>2026-03-28T14:21:47Z</time></trkpt><trkpt lat="44.748809076770875" lon="8.947927850378278"><ele>536.0</ele><time>2026-03-28T14:21:48Z</time></trkpt><trkpt lat="44.74892487982953" lon="8.948005358817715"><ele>536.0</ele><time>2026-03-28T14:21:49Z</time></trkpt><trkpt lat="44.74901753708367" lon="8.948068088921094"><ele>536.0</ele><time>2026-03-28T14:21:50Z</time></trkpt><trkpt lat="44.74910197013247" lon="8.948135819089995"><ele>536.0</ele><time>2026-03-28T14:21:51Z</time></trkpt><trkpt lat="44.74916456526583" lon="8.948243854085973"><ele>536.0</ele><time>2026-03-28T14:21:52Z</time></trkpt><trkpt lat="44.74923537657616" lon="8.948369639680573"><ele>536.0</ele><time>2026-03-28T14:21:53Z</time></trkpt><trkpt lat="44.74929583437686" lon="8.948494746862025"><ele>537.0</ele><time>2026-03-28T14:21:54Z</time></trkpt><trkpt lat="44.74936756967879" lon="8.94859350402686"><ele>538.0</ele><time>2026-03-28T14:21:55Z</time></trkpt><trkpt lat="44.749425100920114" lon="8.94870156686275"><ele>539.0</ele><time>2026-03-28T14:21:56.001Z</time></trkpt><trkpt lat="44.74949340819478" lon="8.948798458508406"><ele>540.0</ele><time>2026-03-28T14:21:57.001Z</time></trkpt><trkpt lat="44.749551372377226" lon="8.948863621584355"><ele>541.0</ele><time>2026-03-28T14:21:58.001Z</time></trkpt><trkpt lat="44.749604073823754" lon="8.948942412668368"><ele>542.0</ele><time>2026-03-28T14:21:59.001Z</time></trkpt><trkpt lat="44.749644856815685" lon="8.949021454794059"><ele>542.0</ele><time>2026-03-28T14:22:00.001Z</time></trkpt><trkpt lat="44.74969451274955" lon="8.949114057566748"><ele>542.0</ele><time>2026-03-28T14:22:01.001Z</time></trkpt><trkpt lat="44.74972611794506" lon="8.949247381549537"><ele>542.0</ele><time>2026-03-28T14:22:02.001Z</time></trkpt><trkpt lat="44.74974003776667" lon="8.94936741265208"><ele>542.0</ele><time>2026-03-28T14:22:03.001Z</time></trkpt><trkpt lat="44.74973897664267" lon="8.949474547143431"><ele>542.0</ele><time>2026-03-28T14:22:04.001Z</time></trkpt><trkpt lat="44.7497379962631" lon="8.949637182694794"><ele>541.2</ele><time>2026-03-28T14:22:05.001Z</time></trkpt><trkpt lat="44.74974458325064" lon="8.949811850847054"><ele>540.4000000000001</ele><time>2026-03-28T14:22:06.001Z</time></trkpt><trkpt lat="44.74975412143174" lon="8.949957741802681"><ele>539.5999999999999</ele><time>2026-03-28T14:22:07.001Z</time></trkpt><trkpt lat="44.74977552702758" lon="8.950073072289998"><ele>538.8</ele><time>2026-03-28T14:22:08.001Z</time></trkpt><trkpt lat="44.749779245517104" lon="8.950217336005656"><ele>538.0</ele><time>2026-03-28T14:22:09.001Z</time></trkpt><trkpt lat="44.749840059505196" lon="8.95034558508762"><ele>535.6</ele><time>2026-03-28T14:22:10.001Z</time></trkpt><trkpt lat="44.74987222216518" lon="8.950468694171878"><ele>533.1999999999999</ele><time>2026-03-28T14:22:11.001Z</time></trkpt><trkpt lat="44.74991551296816" lon="8.950579174124826"><ele>530.8</ele><time>2026-03-28T14:22:12.001Z</time></trkpt><trkpt lat="44.749949064759285" lon="8.950683031168037"><ele>528.4</ele><time>2026-03-28T14:22:13.001Z</time></trkpt><trkpt lat="44.749991122033045" lon="8.950864354012138"><ele>526.0</ele><time>2026-03-28T14:22:15.001Z</time></trkpt><trkpt lat="44.75000824000129" lon="8.950989868301846"><ele>525.3333333333334</ele><time>2026-03-28T14:22:16.001Z</time></trkpt><trkpt lat="44.7500161063899" lon="8.951111893975003"><ele>524.6666666666667</ele><time>2026-03-28T14:22:17.001Z</time></trkpt><trkpt lat="44.75001159931316" lon="8.951219369788863"><ele>524.0</ele><time>2026-03-28T14:22:18.001Z</time></trkpt><trkpt lat="44.75000156685774" lon="8.951344019228932"><ele>523.3333333333334</ele><time>2026-03-28T14:22:19.001Z</time></trkpt><trkpt lat="44.749979395590096" lon="8.95147011017158"><ele>522.6666666666666</ele><time>2026-03-28T14:22:20.001Z</time></trkpt><trkpt lat="44.74996167791561" lon="8.95159298418951"><ele>522.0</ele><time>2026-03-28T14:22:21.001Z</time></trkpt><trkpt lat="44.749952509907125" lon="8.951704071645334"><ele>521.5</ele><time>2026-03-28T14:22:22.001Z</time></trkpt><trkpt lat="44.749956635870475" lon="8.951812042658855"><ele>521.0</ele><time>2026-03-28T14:22:23.001Z</time></trkpt><trkpt lat="44.749961540513134" lon="8.951914200357447"><ele>520.5</ele><time>2026-03-28T14:22:24.001Z</time></trkpt><trkpt lat="44.74997113300459" lon="8.952011905015912"><ele>520.0</ele><time>2026-03-28T14:22:25.001Z</time></trkpt><trkpt lat="44.74996301483298" lon="8.952115540667283"><ele>519.5</ele><time>2026-03-28T14:22:26.001Z</time></trkpt><trkpt lat="44.74998020886284" lon="8.952220173957084"><ele>519.0</ele><time>2026-03-28T14:22:27.001Z</time></trkpt><trkpt lat="44.749980627328505" lon="8.952336029637772"><ele>519.0</ele><time>2026-03-28T14:22:28.001Z</time></trkpt><trkpt lat="44.74996776778767" lon="8.952440097204395"><ele>519.0</ele><time>2026-03-28T14:22:29.001Z</time></trkpt><trkpt lat="44.74993892413331" lon="8.952534255688919"><ele>519.0</ele><time>2026-03-28T14:22:30.001Z</time></trkpt><trkpt lat="44.74987292309569" lon="8.952679134997451"><ele>519.0</ele><time>2026-03-28T14:22:32.001Z</time></trkpt><trkpt lat="44.74981942935248" lon="8.952772892102693"><ele>519.0</ele><time>2026-03-28T14:22:33.001Z</time></trkpt><trkpt lat="44.749769101156716" lon="8.952871992444384"><ele>519.0</ele><time>2026-03-28T14:22:34.001Z</time></trkpt><trkpt lat="44.74973064012313" lon="8.95297871300743"><ele>518.8</ele><time>2026-03-28T14:22:35.001Z</time></trkpt><trkpt lat="44.74971184558446" lon="8.953083139107063"><ele>518.5999999999999</ele><time>2026-03-28T14:22:36.001Z</time></trkpt><trkpt lat="44.74971320652568" lon="8.95321756397325"><ele>518.4</ele><time>2026-03-28T14:22:37.001Z</time></trkpt><trkpt lat="44.749735471276" lon="8.953339954997135"><ele>518.1999999999999</ele><time>2026-03-28T14:22:38.001Z</time></trkpt><trkpt lat="44.74980562230527" lon="8.953447409954343"><ele>518.0</ele><time>2026-03-28T14:22:39.001Z</time></trkpt><trkpt lat="44.74990505057723" lon="8.9535082362366"><ele>516.1999999999999</ele><time>2026-03-28T14:22:40.001Z</time></trkpt><trkpt lat="44.75000267147232" lon="8.953504847281678"><ele>514.4</ele><time>2026-03-28T14:22:41.001Z</time></trkpt><trkpt lat="44.75008248836766" lon="8.953534122942905"><ele>512.5999999999999</ele><time>2026-03-28T14:22:42.001Z</time></trkpt><trkpt lat="44.75015937664969" lon="8.953543126024982"><ele>510.79999999999995</ele><time>2026-03-28T14:22:43.001Z</time></trkpt><trkpt lat="44.750259134274955" lon="8.953542369424802"><ele>509.0</ele><time>2026-03-28T14:22:44.001Z</time></trkpt><trkpt lat="44.750358478215546" lon="8.953579242603936"><ele>509.0</ele><time>2026-03-28T14:22:45.001Z</time></trkpt><trkpt lat="44.7504508839228" lon="8.95362609555734"><ele>509.0</ele><time>2026-03-28T14:22:46.001Z</time></trkpt><trkpt lat="44.75053593802302" lon="8.953664871169575"><ele>509.0</ele><time>2026-03-28T14:22:47.001Z</time></trkpt><trkpt lat="44.75062136706562" lon="8.95370916158146"><ele>509.0</ele><time>2026-03-28T14:22:48.001Z</time></trkpt><trkpt lat="44.75070755798543" lon="8.953767122871469"><ele>509.0</ele><time>2026-03-28T14:22:49.001Z</time></trkpt><trkpt lat="44.75077428773587" lon="8.95382292129413"><ele>508.99999999999994</ele><time>2026-03-28T14:22:50.001Z</time></trkpt><trkpt lat="44.75083997204284" lon="8.953891883857155"><ele>509.0</ele><time>2026-03-28T14:22:51.001Z</time></trkpt><trkpt lat="44.75092684713002" lon="8.953953860164143"><ele>509.0</ele><time>2026-03-28T14:22:52.001Z</time></trkpt><trkpt lat="44.75099029820823" lon="8.954023482026692"><ele>509.0</ele><time>2026-03-28T14:22:53.001Z</time></trkpt><trkpt lat="44.75106107345145" lon="8.954086666393803"><ele>508.99999999999994</ele><time>2026-03-28T14:22:54.001Z</time></trkpt><trkpt lat="44.751128516070665" lon="8.954155688362487"><ele>509.0</ele><time>2026-03-28T14:22:55.001Z</time></trkpt><trkpt lat="44.75119048162682" lon="8.954193270663673"><ele>509.16666666666663</ele><time>2026-03-28T14:22:56.001Z</time></trkpt><trkpt lat="44.75126149982951" lon="8.954221433605888"><ele>509.3333333333333</ele><time>2026-03-28T14:22:57.001Z</time></trkpt><trkpt lat="44.751352619590584" lon="8.95424084036615"><ele>509.5</ele><time>2026-03-28T14:22:58.001Z</time></trkpt><trkpt lat="44.75144811062666" lon="8.954264715083099"><ele>509.66666666666663</ele><time>2026-03-28T14:22:59.001Z</time></trkpt><trkpt lat="44.75154151128245" lon="8.95429285441928"><ele>509.8333333333333</ele><time>2026-03-28T14:23:00.001Z</time></trkpt><trkpt lat="44.751620502540995" lon="8.954320812321356"><ele>510.0</ele><time>2026-03-28T14:23:01.001Z</time></trkpt><trkpt lat="44.75168901057472" lon="8.954370089618784"><ele>510.0</ele><time>2026-03-28T14:23:02.001Z</time></trkpt><trkpt lat="44.75174780645219" lon="8.954440596997006"><ele>510.0</ele><time>2026-03-28T14:23:03Z</time></trkpt><trkpt lat="44.75179031810559" lon="8.954516358584172"><ele>510.0</ele><time>2026-03-28T14:23:04Z</time></trkpt><trkpt lat="44.751844323300844" lon="8.954605594100672"><ele>510.0</ele><time>2026-03-28T14:23:05Z</time></trkpt><trkpt lat="44.75190894550186" lon="8.954704828503642"><ele>510.0</ele><time>2026-03-28T14:23:06Z</time></trkpt><trkpt lat="44.75197040916983" lon="8.954812062328672"><ele>510.0</ele><time>2026-03-28T14:23:07Z</time></trkpt><trkpt lat="44.752021323746355" lon="8.954905024585992"><ele>509.5</ele><time>2026-03-28T14:23:08Z</time></trkpt><trkpt lat="44.75206475245781" lon="8.954985360095987"><ele>509.0</ele><time>2026-03-28T14:23:09Z</time></trkpt><trkpt lat="44.75215855642972" lon="8.95508036672809"><ele>508.5</ele><time>2026-03-28T14:23:11Z</time></trkpt><trkpt lat="44.7522238916794" lon="8.95510923493144"><ele>508.0</ele><time>2026-03-28T14:23:12Z</time></trkpt><trkpt lat="44.7523057287255" lon="8.955158023044126"><ele>507.5</ele><time>2026-03-28T14:23:13Z</time></trkpt><trkpt lat="44.752374707810695" lon="8.955223146029814"><ele>507.0</ele><time>2026-03-28T14:23:14Z</time></trkpt><trkpt lat="44.75244321727141" lon="8.955296169242756"><ele>507.0</ele><time>2026-03-28T14:23:15Z</time></trkpt><trkpt lat="44.75250717745515" lon="8.95537219857086"><ele>507.00000000000006</ele><time>2026-03-28T14:23:16Z</time></trkpt><trkpt lat="44.752570366800754" lon="8.955451046572145"><ele>507.00000000000006</ele><time>2026-03-28T14:23:17Z</time></trkpt><trkpt lat="44.752636469002766" lon="8.955505237081033"><ele>507.0</ele><time>2026-03-28T14:23:18Z</time></trkpt><trkpt lat="44.75270638668309" lon="8.955610937040626"><ele>507.0</ele><time>2026-03-28T14:23:20Z</time></trkpt><trkpt lat="44.75271975822903" lon="8.955773449568385"><ele>507.0</ele><time>2026-03-28T14:23:22Z</time></trkpt><trkpt lat="44.75272679572561" lon="8.955883458439084"><ele>507.0</ele><time>2026-03-28T14:23:23Z</time></trkpt><trkpt lat="44.75276498911366" lon="8.956021458415824"><ele>507.0</ele><time>2026-03-28T14:23:25Z</time></trkpt><trkpt lat="44.7527859465592" lon="8.956120921440155"><ele>507.0</ele><time>2026-03-28T14:23:26Z</time></trkpt><trkpt lat="44.752808858633834" lon="8.956224407672568"><ele>507.0</ele><time>2026-03-28T14:23:27Z</time></trkpt><trkpt lat="44.75282443457527" lon="8.95631391972128"><ele>507.0</ele><time>2026-03-28T14:23:28Z</time></trkpt><trkpt lat="44.75285347469713" lon="8.956402662210754"><ele>507.0</ele><time>2026-03-28T14:23:30Z</time></trkpt><trkpt lat="44.75287912882683" lon="8.956527288385336"><ele>507.00000000000006</ele><time>2026-03-28T14:23:46Z</time></trkpt><trkpt lat="44.75287794712136" lon="8.956689599719992"><ele>507.00000000000006</ele><time>2026-03-28T14:23:48Z</time></trkpt><trkpt lat="44.75287752950715" lon="8.956846583982703"><ele>507.0</ele><time>2026-03-28T14:23:50Z</time></trkpt><trkpt lat="44.75288220320404" lon="8.956983104779738"><ele>507.0</ele><time>2026-03-28T14:23:52Z</time></trkpt><trkpt lat="44.75285981510382" lon="8.95713478937127"><ele>505.20000000000005</ele><time>2026-03-28T14:23:54Z</time></trkpt><trkpt lat="44.75286097065348" lon="8.957228538661347"><ele>503.40000000000003</ele><time>2026-03-28T14:23:55Z</time></trkpt><trkpt lat="44.75283014216221" lon="8.957315688285592"><ele>501.59999999999997</ele><time>2026-03-28T14:23:56Z</time></trkpt><trkpt lat="44.75280373669676" lon="8.957484152479697"><ele>499.79999999999995</ele><time>2026-03-28T14:23:58Z</time></trkpt><trkpt lat="44.752811095229966" lon="8.957640145689139"><ele>498.0</ele><time>2026-03-28T14:24:00Z</time></trkpt><trkpt lat="44.752888799119" lon="8.957738685963566"><ele>495.5</ele><time>2026-03-28T14:24:02.001Z</time></trkpt><trkpt lat="44.75300422441807" lon="8.957772415188876"><ele>493.0</ele><time>2026-03-28T14:24:04.001Z</time></trkpt><trkpt lat="44.753070775642044" lon="8.957769997875051"><ele>490.5</ele><time>2026-03-28T14:24:05.001Z</time></trkpt><trkpt lat="44.753154090964244" lon="8.95778409956436"><ele>488.0</ele><time>2026-03-28T14:24:06.001Z</time></trkpt><trkpt lat="44.753222514750206" lon="8.95777071590073"><ele>485.5</ele><time>2026-03-28T14:24:07.001Z</time></trkpt><trkpt lat="44.75328376249687" lon="8.957733902777413"><ele>483.0</ele><time>2026-03-28T14:24:08.001Z</time></trkpt><trkpt lat="44.75339557245044" lon="8.957710819011496"><ele>483.0</ele><time>2026-03-28T14:24:10.001Z</time></trkpt><trkpt lat="44.75350437999805" lon="8.957679313685736"><ele>482.99999999999994</ele><time>2026-03-28T14:24:12.001Z</time></trkpt><trkpt lat="44.75357748261797" lon="8.957646164809915"><ele>482.99999999999994</ele><time>2026-03-28T14:24:14.001Z</time></trkpt><trkpt lat="44.7536590066222" lon="8.957766237749222"><ele>483.0</ele><time>2026-03-28T14:24:15.001Z</time></trkpt><trkpt lat="44.753740814952565" lon="8.957821739099028"><ele>483.0</ele><time>2026-03-28T14:24:16.001Z</time></trkpt><trkpt lat="44.753833282962155" lon="8.957894971142064"><ele>483.5</ele><time>2026-03-28T14:24:17.001Z</time></trkpt><trkpt lat="44.753934639392774" lon="8.957968598474075"><ele>484.0</ele><time>2026-03-28T14:24:18.001Z</time></trkpt><trkpt lat="44.75403626643615" lon="8.958039854249476"><ele>484.5</ele><time>2026-03-28T14:24:19.001Z</time></trkpt><trkpt lat="44.754158316444745" lon="8.95814014394462"><ele>485.0</ele><time>2026-03-28T14:24:20.001Z</time></trkpt><trkpt lat="44.75425805147714" lon="8.958225523095384"><ele>485.0</ele><time>2026-03-28T14:24:21.001Z</time></trkpt><trkpt lat="44.75436794916697" lon="8.958311793391879"><ele>485.0</ele><time>2026-03-28T14:24:22.001Z</time></trkpt><trkpt lat="44.75449248295533" lon="8.958400833795505"><ele>485.0</ele><time>2026-03-28T14:24:23.001Z</time></trkpt><trkpt lat="44.75462045457802" lon="8.958494156683159"><ele>485.0</ele><time>2026-03-28T14:24:24.001Z</time></trkpt><trkpt lat="44.754764598230416" lon="8.958575990307835"><ele>484.25</ele><time>2026-03-28T14:24:25.001Z</time></trkpt><trkpt lat="44.754903097514195" lon="8.958672657765229"><ele>483.5</ele><time>2026-03-28T14:24:26.001Z</time></trkpt><trkpt lat="44.75504201810139" lon="8.958759214774732"><ele>482.75</ele><time>2026-03-28T14:24:27.001Z</time></trkpt><trkpt lat="44.75516345849682" lon="8.958849396296662"><ele>482.0</ele><time>2026-03-28T14:24:28.001Z</time></trkpt><trkpt lat="44.75527606361743" lon="8.958919489825124"><ele>484.5</ele><time>2026-03-28T14:24:29.001Z</time></trkpt><trkpt lat="44.755390812689086" lon="8.958978464208421"><ele>487.0</ele><time>2026-03-28T14:24:30.001Z</time></trkpt><trkpt lat="44.75551277740528" lon="8.959023119406169"><ele>489.5</ele><time>2026-03-28T14:24:31.001Z</time></trkpt><trkpt lat="44.75564210747052" lon="8.959042572491741"><ele>492.0</ele><time>2026-03-28T14:24:32.001Z</time></trkpt><trkpt lat="44.755770344640965" lon="8.959040634417102"><ele>492.0</ele><time>2026-03-28T14:24:33.001Z</time></trkpt><trkpt lat="44.75589011006163" lon="8.95903839920471"><ele>492.0</ele><time>2026-03-28T14:24:34.001Z</time></trkpt><trkpt lat="44.75601449665412" lon="8.95904815045626"><ele>492.0</ele><time>2026-03-28T14:24:35.001Z</time></trkpt><trkpt lat="44.75613720990969" lon="8.959069118790197"><ele>492.0</ele><time>2026-03-28T14:24:36.001Z</time></trkpt><trkpt lat="44.75626305299104" lon="8.959083015149224"><ele>491.75</ele><time>2026-03-28T14:24:37.001Z</time></trkpt><trkpt lat="44.7563879458346" lon="8.959075970976667"><ele>491.5</ele><time>2026-03-28T14:24:38.001Z</time></trkpt><trkpt lat="44.75649880768257" lon="8.95905641611699"><ele>491.25</ele><time>2026-03-28T14:24:39.001Z</time></trkpt><trkpt lat="44.75661308643066" lon="8.959029954788145"><ele>491.0</ele><time>2026-03-28T14:24:40.001Z</time></trkpt><trkpt lat="44.75672328689358" lon="8.95900788124482"><ele>491.0</ele><time>2026-03-28T14:24:41.001Z</time></trkpt><trkpt lat="44.756832596328756" lon="8.959002837501377"><ele>491.0</ele><time>2026-03-28T14:24:42.001Z</time></trkpt><trkpt lat="44.75693460402753" lon="8.959022794417544"><ele>491.0</ele><time>2026-03-28T14:24:43.001Z</time></trkpt><trkpt lat="44.75702623098191" lon="8.959052337594683"><ele>491.0</ele><time>2026-03-28T14:24:44.001Z</time></trkpt><trkpt lat="44.75710378566092" lon="8.959083624750233"><ele>491.0</ele><time>2026-03-28T14:24:45.001Z</time></trkpt><trkpt lat="44.75721172555267" lon="8.959134477496196"><ele>490.20000000000005</ele><time>2026-03-28T14:24:47.001Z</time></trkpt><trkpt lat="44.75730527824867" lon="8.959271126350743"><ele>489.40000000000003</ele><time>2026-03-28T14:24:49.001Z</time></trkpt><trkpt lat="44.757377407230344" lon="8.959353007560303"><ele>488.6</ele><time>2026-03-28T14:24:50.001Z</time></trkpt><trkpt lat="44.75747386916489" lon="8.959425106755702"><ele>487.8</ele><time>2026-03-28T14:24:51.001Z</time></trkpt><trkpt lat="44.75755818613195" lon="8.959508056958047"><ele>487.0</ele><time>2026-03-28T14:24:52.001Z</time></trkpt><trkpt lat="44.75764679267061" lon="8.959595095839754"><ele>485.6</ele><time>2026-03-28T14:24:53.001Z</time></trkpt><trkpt lat="44.757726697066545" lon="8.959711313754005"><ele>484.20000000000005</ele><time>2026-03-28T14:24:54.001Z</time></trkpt><trkpt lat="44.75780698936503" lon="8.959816955932466"><ele>482.8</ele><time>2026-03-28T14:24:55.001Z</time></trkpt><trkpt lat="44.75787006747529" lon="8.959934506527807"><ele>481.4</ele><time>2026-03-28T14:24:56.001Z</time></trkpt><trkpt lat="44.757927575350344" lon="8.960023725783618"><ele>480.0</ele><time>2026-03-28T14:24:57.001Z</time></trkpt><trkpt lat="44.757988177141236" lon="8.960102204338503"><ele>480.0</ele><time>2026-03-28T14:24:58.001Z</time></trkpt><trkpt lat="44.75805538072011" lon="8.960166618346085"><ele>480.0</ele><time>2026-03-28T14:24:59.001Z</time></trkpt><trkpt lat="44.7581269427157" lon="8.960216373606384"><ele>480.0</ele><time>2026-03-28T14:25:00.001Z</time></trkpt><trkpt lat="44.758198260254105" lon="8.960265415994812"><ele>480.0</ele><time>2026-03-28T14:25:01.001Z</time></trkpt><trkpt lat="44.75827361271975" lon="8.960318591383519"><ele>480.0</ele><time>2026-03-28T14:25:02.001Z</time></trkpt><trkpt lat="44.75836636154525" lon="8.960374148904027"><ele>480.0</ele><time>2026-03-28T14:25:03.001Z</time></trkpt><trkpt lat="44.758473030837344" lon="8.960437554749292"><ele>485.25</ele><time>2026-03-28T14:25:04.001Z</time></trkpt><trkpt lat="44.75857896056721" lon="8.960507295481511"><ele>490.5</ele><time>2026-03-28T14:25:05.001Z</time></trkpt><trkpt lat="44.75867985774348" lon="8.960579502812438"><ele>495.75</ele><time>2026-03-28T14:25:06.001Z</time></trkpt><trkpt lat="44.75877704143783" lon="8.960659153266258"><ele>501.0</ele><time>2026-03-28T14:25:07.001Z</time></trkpt><trkpt lat="44.75886876285029" lon="8.960747218353783"><ele>501.0</ele><time>2026-03-28T14:25:08.001Z</time></trkpt><trkpt lat="44.75894617951756" lon="8.960850562412304"><ele>501.0</ele><time>2026-03-28T14:25:09Z</time></trkpt><trkpt lat="44.75901013175481" lon="8.96096669693114"><ele>501.0</ele><time>2026-03-28T14:25:10Z</time></trkpt><trkpt lat="44.75906976897478" lon="8.961085377668105"><ele>501.0</ele><time>2026-03-28T14:25:11Z</time></trkpt><trkpt lat="44.759129141799114" lon="8.96119553699879"><ele>501.0</ele><time>2026-03-28T14:25:12Z</time></trkpt><trkpt lat="44.75918360809689" lon="8.961298845172658"><ele>498.6666666666667</ele><time>2026-03-28T14:25:13Z</time></trkpt><trkpt lat="44.759235928532924" lon="8.961394616808866"><ele>496.33333333333337</ele><time>2026-03-28T14:25:14Z</time></trkpt><trkpt lat="44.759285290224405" lon="8.961494860830948"><ele>494.0</ele><time>2026-03-28T14:25:15Z</time></trkpt><trkpt lat="44.75932386097867" lon="8.961592356986337"><ele>491.6666666666667</ele><time>2026-03-28T14:25:16Z</time></trkpt><trkpt lat="44.759343852834526" lon="8.961678090123385"><ele>489.33333333333337</ele><time>2026-03-28T14:25:17Z</time></trkpt><trkpt lat="44.75931575409364" lon="8.96177329064327"><ele>487.0</ele><time>2026-03-28T14:25:19Z</time></trkpt><trkpt lat="44.75932970653799" lon="8.961574695170771"><ele>487.0</ele><time>2026-03-28T14:25:40Z</time></trkpt><trkpt lat="44.75894529696581" lon="8.961693856648656"><ele>487.0</ele><time>2026-03-28T14:25:41Z</time></trkpt><trkpt lat="44.758879812448" lon="8.961561941093061"><ele>487.0</ele><time>2026-03-28T14:25:42Z</time></trkpt><trkpt lat="44.75882061863814" lon="8.9614274589447"><ele>487.00000000000006</ele><time>2026-03-28T14:25:43Z</time></trkpt><trkpt lat="44.75873916951926" lon="8.96126022238434"><ele>487.00000000000006</ele><time>2026-03-28T14:25:45Z</time></trkpt><trkpt lat="44.75869428860793" lon="8.961185213413591"><ele>487.0</ele><time>2026-03-28T14:25:46Z</time></trkpt><trkpt lat="44.758617229051545" lon="8.961094132874168"><ele>487.0</ele><time>2026-03-28T14:25:48Z</time></trkpt><trkpt lat="44.75851199388576" lon="8.961013434695333"><ele>482.6666666666667</ele><time>2026-03-28T14:25:50Z</time></trkpt><trkpt lat="44.758436799988715" lon="8.960980884657738"><ele>478.33333333333337</ele><time>2026-03-28T14:25:51Z</time></trkpt><trkpt lat="44.75836093808" lon="8.960967155991558"><ele>474.0</ele><time>2026-03-28T14:25:52Z</time></trkpt><trkpt lat="44.7582833319144" lon="8.96095926909423"><ele>469.66666666666663</ele><time>2026-03-28T14:25:53Z</time></trkpt><trkpt lat="44.758207204431656" lon="8.960964903252458"><ele>465.3333333333333</ele><time>2026-03-28T14:25:54Z</time></trkpt><trkpt lat="44.75807744763023" lon="8.960947133826863"><ele>461.0</ele><time>2026-03-28T14:25:56Z</time></trkpt><trkpt lat="44.75800231853058" lon="8.960928667952375"><ele>509.0</ele><time>2026-03-28T14:25:57Z</time></trkpt><trkpt lat="44.75785026345633" lon="8.959866113135421"><ele>509.0</ele><time>2026-03-28T14:25:58Z</time></trkpt><trkpt lat="44.75778150706835" lon="8.959743243015208"><ele>509.0</ele><time>2026-03-28T14:25:59Z</time></trkpt><trkpt lat="44.75770163569605" lon="8.959623270786388"><ele>509.0</ele><time>2026-03-28T14:26:00Z</time></trkpt><trkpt lat="44.75760695229992" lon="8.959516913300678"><ele>509.0</ele><time>2026-03-28T14:26:01Z</time></trkpt><trkpt lat="44.757498702095994" lon="8.959437894206031"><ele>506.0</ele><time>2026-03-28T14:26:02Z</time></trkpt><trkpt lat="44.757401874933876" lon="8.959375528172359"><ele>503.0</ele><time>2026-03-28T14:26:03Z</time></trkpt><trkpt lat="44.75732934177671" lon="8.959298702693454"><ele>500.0</ele><time>2026-03-28T14:26:04Z</time></trkpt><trkpt lat="44.75728854308515" lon="8.959218709263904"><ele>497.0</ele><time>2026-03-28T14:26:05Z</time></trkpt><trkpt lat="44.7572806770539" lon="8.959102688791964"><ele>494.0</ele><time>2026-03-28T14:26:07.001Z</time></trkpt><trkpt lat="44.75735834939974" lon="8.95899011618785"><ele>494.0</ele><time>2026-03-28T14:26:09.001Z</time></trkpt><trkpt lat="44.757446919130686" lon="8.958962258382897"><ele>494.0</ele><time>2026-03-28T14:26:10.001Z</time></trkpt><trkpt lat="44.757544912971305" lon="8.958960097361008"><ele>494.0</ele><time>2026-03-28T14:26:11.001Z</time></trkpt><trkpt lat="44.75766736617983" lon="8.958972414970162"><ele>494.0</ele><time>2026-03-28T14:26:12.001Z</time></trkpt><trkpt lat="44.75781383474392" lon="8.958971388238412"><ele>498.4</ele><time>2026-03-28T14:26:13.001Z</time></trkpt><trkpt lat="44.75794996150694" lon="8.95895652095042"><ele>502.79999999999995</ele><time>2026-03-28T14:26:14.001Z</time></trkpt><trkpt lat="44.75806456988808" lon="8.958930496482456"><ele>507.20000000000005</ele><time>2026-03-28T14:26:15.001Z</time></trkpt><trkpt lat="44.758161048079366" lon="8.958886647432815"><ele>511.6</ele><time>2026-03-28T14:26:16.001Z</time></trkpt><trkpt lat="44.758246081743245" lon="8.958830358705223"><ele>516.0</ele><time>2026-03-28T14:26:17.001Z</time></trkpt><trkpt lat="44.758339471647986" lon="8.958759147774296"><ele>516.0</ele><time>2026-03-28T14:26:18.001Z</time></trkpt><trkpt lat="44.75844201396561" lon="8.95867741582057"><ele>516.0</ele><time>2026-03-28T14:26:19.001Z</time></trkpt><trkpt lat="44.758538467419896" lon="8.958583878663822"><ele>516.0</ele><time>2026-03-28T14:26:20.001Z</time></trkpt><trkpt lat="44.758605088580964" lon="8.958478167243713"><ele>516.0</ele><time>2026-03-28T14:26:21.001Z</time></trkpt><trkpt lat="44.758667831758856" lon="8.958346314010228"><ele>516.0</ele><time>2026-03-28T14:26:22.001Z</time></trkpt><trkpt lat="44.75874133125555" lon="8.958198721892943"><ele>519.5</ele><time>2026-03-28T14:26:23.001Z</time></trkpt><trkpt lat="44.758817868405906" lon="8.958033643538792"><ele>523.0</ele><time>2026-03-28T14:26:24.001Z</time></trkpt><trkpt lat="44.758888696599996" lon="8.957871571329374"><ele>526.5</ele><time>2026-03-28T14:26:25.001Z</time></trkpt><trkpt lat="44.75894554747265" lon="8.957740210246836"><ele>530.0</ele><time>2026-03-28T14:26:26.001Z</time></trkpt><trkpt lat="44.758999878106415" lon="8.957629066918317"><ele>530.0</ele><time>2026-03-28T14:26:27.001Z</time></trkpt><trkpt lat="44.75904948715183" lon="8.957553917731039"><ele>530.0</ele><time>2026-03-28T14:26:28.001Z</time></trkpt><trkpt lat="44.759151701785534" lon="8.957505130361273"><ele>530.0</ele><time>2026-03-28T14:26:30.001Z</time></trkpt><trkpt lat="44.75922218886085" lon="8.957611518239666"><ele>530.0</ele><time>2026-03-28T14:26:32.001Z</time></trkpt><trkpt lat="44.75917606357041" lon="8.95776898342764"><ele>530.0</ele><time>2026-03-28T14:26:34.001Z</time></trkpt><trkpt lat="44.75911294001346" lon="8.95791204251735"><ele>530.0</ele><time>2026-03-28T14:26:35.001Z</time></trkpt><trkpt lat="44.75903603924107" lon="8.958094303389068"><ele>530.0</ele><time>2026-03-28T14:26:36.001Z</time></trkpt><trkpt lat="44.75894715681845" lon="8.958308604448199"><ele>530.0</ele><time>2026-03-28T14:26:37.001Z</time></trkpt><trkpt lat="44.758853149419274" lon="8.958542695813048"><ele>533.3333333333333</ele><time>2026-03-28T14:26:38.001Z</time></trkpt><trkpt lat="44.75877002141552" lon="8.958753137787951"><ele>536.6666666666666</ele><time>2026-03-28T14:26:39.001Z</time></trkpt><trkpt lat="44.758695872205415" lon="8.958940849539514"><ele>540.0</ele><time>2026-03-28T14:26:40.001Z</time></trkpt><trkpt lat="44.75862577359319" lon="8.959111794852712"><ele>537.6</ele><time>2026-03-28T14:26:41.001Z</time></trkpt><trkpt lat="44.75856175102085" lon="8.95926265259198"><ele>535.2</ele><time>2026-03-28T14:26:42.001Z</time></trkpt><trkpt lat="44.758509929091325" lon="8.959401171466288"><ele>532.8</ele><time>2026-03-28T14:26:43.001Z</time></trkpt><trkpt lat="44.758483277825796" lon="8.959539686235587"><ele>530.4</ele><time>2026-03-28T14:26:44.001Z</time></trkpt><trkpt lat="44.75849374673432" lon="8.959676116458411"><ele>528.0</ele><time>2026-03-28T14:26:45.001Z</time></trkpt><trkpt lat="44.75853849568314" lon="8.959786552124651"><ele>528.0</ele><time>2026-03-28T14:26:46.001Z</time></trkpt><trkpt lat="44.75863273443231" lon="8.959827269470308"><ele>528.0</ele><time>2026-03-28T14:26:47.001Z</time></trkpt><trkpt lat="44.758721517306384" lon="8.95981581021596"><ele>528.0</ele><time>2026-03-28T14:26:48.001Z</time></trkpt><trkpt lat="44.75880963720783" lon="8.959753919653638"><ele>528.0</ele><time>2026-03-28T14:26:49.001Z</time></trkpt><trkpt lat="44.75891736608135" lon="8.959678010690356"><ele>528.0</ele><time>2026-03-28T14:26:50.001Z</time></trkpt><trkpt lat="44.759064647122564" lon="8.959688517721824"><ele>528.0</ele><time>2026-03-28T14:26:51.001Z</time></trkpt><trkpt lat="44.7592218048897" lon="8.959732971806282"><ele>528.0</ele><time>2026-03-28T14:26:52.001Z</time></trkpt><trkpt lat="44.75938904683656" lon="8.959761372136589"><ele>528.0</ele><time>2026-03-28T14:26:53.001Z</time></trkpt><trkpt lat="44.75956005582099" lon="8.959842658046844"><ele>531.0</ele><time>2026-03-28T14:26:54.001Z</time></trkpt><trkpt lat="44.759697895632755" lon="8.959972946105493"><ele>534.0</ele><time>2026-03-28T14:26:55.001Z</time></trkpt><trkpt lat="44.75981072604076" lon="8.960094959290288"><ele>537.0</ele><time>2026-03-28T14:26:56.001Z</time></trkpt><trkpt lat="44.759917007648376" lon="8.960249458743384"><ele>537.0</ele><time>2026-03-28T14:26:57.001Z</time></trkpt><trkpt lat="44.76003933754309" lon="8.96040653462031"><ele>537.0</ele><time>2026-03-28T14:26:58.001Z</time></trkpt><trkpt lat="44.760144383063775" lon="8.960572062189835"><ele>537.0</ele><time>2026-03-28T14:26:59.001Z</time></trkpt><trkpt lat="44.76021548469281" lon="8.960748766565963"><ele>544.25</ele><time>2026-03-28T14:27:00.001Z</time></trkpt><trkpt lat="44.76022608285528" lon="8.960947928783114"><ele>551.5</ele><time>2026-03-28T14:27:01.001Z</time></trkpt><trkpt lat="44.76025333770125" lon="8.9611313754588"><ele>558.75</ele><time>2026-03-28T14:27:02.001Z</time></trkpt><trkpt lat="44.760275003984994" lon="8.961314885229795"><ele>566.0</ele><time>2026-03-28T14:27:03.001Z</time></trkpt><trkpt lat="44.76033390099713" lon="8.961499504481795"><ele>566.0</ele><time>2026-03-28T14:27:04.001Z</time></trkpt><trkpt lat="44.76039438631691" lon="8.96168915796107"><ele>566.0</ele><time>2026-03-28T14:27:05.001Z</time></trkpt><trkpt lat="44.76050527396136" lon="8.961839077923058"><ele>566.0</ele><time>2026-03-28T14:27:06.001Z</time></trkpt><trkpt lat="44.7606047606286" lon="8.962008315997315"><ele>561.6666666666666</ele><time>2026-03-28T14:27:07.001Z</time></trkpt><trkpt lat="44.760705373426255" lon="8.96220488734295"><ele>557.3333333333334</ele><time>2026-03-28T14:27:08.001Z</time></trkpt><trkpt lat="44.76080794896539" lon="8.962425758787004"><ele>553.0</ele><time>2026-03-28T14:27:09.001Z</time></trkpt><trkpt lat="44.760901463390454" lon="8.96265451391207"><ele>549.6666666666667</ele><time>2026-03-28T14:27:10.001Z</time></trkpt><trkpt lat="44.76097734108505" lon="8.962882416492517"><ele>546.3333333333334</ele><time>2026-03-28T14:27:11.001Z</time></trkpt><trkpt lat="44.76103366299459" lon="8.963117916146762"><ele>543.0</ele><time>2026-03-28T14:27:12.001Z</time></trkpt><trkpt lat="44.76107400784266" lon="8.963352490023091"><ele>553.0</ele><time>2026-03-28T14:27:13.001Z</time></trkpt><trkpt lat="44.76110385743238" lon="8.963568183750033"><ele>563.0</ele><time>2026-03-28T14:27:14.001Z</time></trkpt><trkpt lat="44.76114883458634" lon="8.963771328820169"><ele>573.0</ele><time>2026-03-28T14:27:15Z</time></trkpt><trkpt lat="44.76116647651866" lon="8.96396390611841"><ele>583.0</ele><time>2026-03-28T14:27:16Z</time></trkpt><trkpt lat="44.761190642111096" lon="8.96414515947526"><ele>579.0</ele><time>2026-03-28T14:27:17Z</time></trkpt><trkpt lat="44.76122022130628" lon="8.964317441862423"><ele>575.0</ele><time>2026-03-28T14:27:18Z</time></trkpt><trkpt lat="44.761266668974216" lon="8.96449389886827"><ele>571.0</ele><time>2026-03-28T14:27:19Z</time></trkpt><trkpt lat="44.761327996374355" lon="8.964681343103612"><ele>567.0</ele><time>2026-03-28T14:27:20Z</time></trkpt><trkpt lat="44.76141497724754" lon="8.964881439546012"><ele>560.6666666666666</ele><time>2026-03-28T14:27:21Z</time></trkpt><trkpt lat="44.76151113230313" lon="8.965077345315585"><ele>554.3333333333333</ele><time>2026-03-28T14:27:22Z</time></trkpt><trkpt lat="44.76159866279796" lon="8.965259809415317"><ele>548.0</ele><time>2026-03-28T14:27:23Z</time></trkpt><trkpt lat="44.761663555234406" lon="8.965459172843973"><ele>548.0</ele><time>2026-03-28T14:27:24Z</time></trkpt><trkpt lat="44.76174532512499" lon="8.965649329579009"><ele>548.0</ele><time>2026-03-28T14:27:25Z</time></trkpt><trkpt lat="44.761829814903436" lon="8.965811304066818"><ele>548.0</ele><time>2026-03-28T14:27:26Z</time></trkpt><trkpt lat="44.76189170820248" lon="8.965973209486485"><ele>548.0</ele><time>2026-03-28T14:27:27Z</time></trkpt><trkpt lat="44.7619553381003" lon="8.966124953566055"><ele>551.0</ele><time>2026-03-28T14:27:28Z</time></trkpt><trkpt lat="44.76201999166992" lon="8.96626489277674"><ele>554.0</ele><time>2026-03-28T14:27:29Z</time></trkpt><trkpt lat="44.76208496460938" lon="8.966402647088758"><ele>557.0</ele><time>2026-03-28T14:27:30Z</time></trkpt><trkpt lat="44.762160129439536" lon="8.966532910391514"><ele>560.0</ele><time>2026-03-28T14:27:31Z</time></trkpt><trkpt lat="44.76225676024607" lon="8.966640903045374"><ele>556.75</ele><time>2026-03-28T14:27:32Z</time></trkpt><trkpt lat="44.762355996865544" lon="8.966739663307784"><ele>553.5</ele><time>2026-03-28T14:27:33Z</time></trkpt><trkpt lat="44.76245443323953" lon="8.966845127774569"><ele>550.25</ele><time>2026-03-28T14:27:34Z</time></trkpt><trkpt lat="44.76255310818669" lon="8.966957464152895"><ele>547.0</ele><time>2026-03-28T14:27:35Z</time></trkpt><trkpt lat="44.76265149175235" lon="8.967080714189699"><ele>555.25</ele><time>2026-03-28T14:27:36Z</time></trkpt><trkpt lat="44.76271710233243" lon="8.967241581426833"><ele>563.5</ele><time>2026-03-28T14:27:37Z</time></trkpt><trkpt lat="44.76278021483328" lon="8.967402161228993"><ele>571.75</ele><time>2026-03-28T14:27:38Z</time></trkpt><trkpt lat="44.762847339935895" lon="8.967571849605644"><ele>580.0</ele><time>2026-03-28T14:27:39Z</time></trkpt><trkpt lat="44.762897159909095" lon="8.967756095772359"><ele>580.0</ele><time>2026-03-28T14:27:40Z</time></trkpt><trkpt lat="44.76295342235569" lon="8.967943605958673"><ele>580.0</ele><time>2026-03-28T14:27:41Z</time></trkpt><trkpt lat="44.76301723657762" lon="8.968137613259122"><ele>580.0</ele><time>2026-03-28T14:27:42Z</time></trkpt><trkpt lat="44.76306837183747" lon="8.968338163147763"><ele>580.0</ele><time>2026-03-28T14:27:43Z</time></trkpt><trkpt lat="44.76312726796885" lon="8.96852144467782"><ele>576.75</ele><time>2026-03-28T14:27:44Z</time></trkpt><trkpt lat="44.763163713227705" lon="8.968708930824866"><ele>573.5</ele><time>2026-03-28T14:27:45Z</time></trkpt><trkpt lat="44.763174997427605" lon="8.968919367832902"><ele>570.25</ele><time>2026-03-28T14:27:46Z</time></trkpt><trkpt lat="44.76322825149159" lon="8.969124725214712"><ele>567.0</ele><time>2026-03-28T14:27:47Z</time></trkpt><trkpt lat="44.76328000972988" lon="8.969335649522433"><ele>565.0</ele><time>2026-03-28T14:27:48Z</time></trkpt><trkpt lat="44.76334974942024" lon="8.969552977458068"><ele>563.0</ele><time>2026-03-28T14:27:49Z</time></trkpt><trkpt lat="44.7634286270672" lon="8.96977506070037"><ele>561.0</ele><time>2026-03-28T14:27:50Z</time></trkpt><trkpt lat="44.76348577803431" lon="8.970010870354084"><ele>561.0</ele><time>2026-03-28T14:27:51Z</time></trkpt><trkpt lat="44.76352486292657" lon="8.970230476595662"><ele>561.0</ele><time>2026-03-28T14:27:52Z</time></trkpt><trkpt lat="44.76358105362507" lon="8.970457009608413"><ele>561.0</ele><time>2026-03-28T14:27:53Z</time></trkpt><trkpt lat="44.76361771648189" lon="8.970684767797694"><ele>569.0</ele><time>2026-03-28T14:27:54Z</time></trkpt><trkpt lat="44.76365582053278" lon="8.970900097291738"><ele>577.0</ele><time>2026-03-28T14:27:55Z</time></trkpt><trkpt lat="44.763700660647345" lon="8.971096121341366"><ele>585.0</ele><time>2026-03-28T14:27:56Z</time></trkpt><trkpt lat="44.763714389827626" lon="8.971278815805892"><ele>593.0</ele><time>2026-03-28T14:27:57Z</time></trkpt><trkpt lat="44.7637385552493" lon="8.971435290359118"><ele>593.0</ele><time>2026-03-28T14:27:58Z</time></trkpt><trkpt lat="44.76375161480523" lon="8.971594561240035"><ele>593.0</ele><time>2026-03-28T14:27:59Z</time></trkpt><trkpt lat="44.76372493220839" lon="8.971758085638248"><ele>593.0</ele><time>2026-03-28T14:28:00Z</time></trkpt><trkpt lat="44.76369426588437" lon="8.971908736149835"><ele>593.0</ele><time>2026-03-28T14:28:01Z</time></trkpt><trkpt lat="44.763686330916876" lon="8.97205547523704"><ele>593.0</ele><time>2026-03-28T14:28:02Z</time></trkpt><trkpt lat="44.76368662859782" lon="8.972219244546407"><ele>591.25</ele><time>2026-03-28T14:28:03Z</time></trkpt><trkpt lat="44.763729979577924" lon="8.972380340595238"><ele>589.5</ele><time>2026-03-28T14:28:04Z</time></trkpt><trkpt lat="44.76378096349659" lon="8.972539293576817"><ele>587.75</ele><time>2026-03-28T14:28:05Z</time></trkpt><trkpt lat="44.763826682293775" lon="8.972694577269252"><ele>586.0</ele><time>2026-03-28T14:28:06Z</time></trkpt><trkpt lat="44.76386780467317" lon="8.972852494515628"><ele>585.0</ele><time>2026-03-28T14:28:07Z</time></trkpt><trkpt lat="44.76389734839964" lon="8.973015559337936"><ele>584.0</ele><time>2026-03-28T14:28:08Z</time></trkpt><trkpt lat="44.763939812766054" lon="8.97315564395625"><ele>583.0</ele><time>2026-03-28T14:28:09.001Z</time></trkpt><trkpt lat="44.76394755968319" lon="8.97329213689423"><ele>582.0</ele><time>2026-03-28T14:28:10.001Z</time></trkpt><trkpt lat="44.763955304805" lon="8.973419236760655"><ele>581.0</ele><time>2026-03-28T14:28:11.001Z</time></trkpt><trkpt lat="44.7639650675569" lon="8.97353293847634"><ele>580.4</ele><time>2026-03-28T14:28:12.001Z</time></trkpt><trkpt lat="44.763981799458016" lon="8.973628598106648"><ele>579.8</ele><time>2026-03-28T14:28:13.001Z</time></trkpt><trkpt lat="44.76402691759833" lon="8.973794968733253"><ele>579.1999999999999</ele><time>2026-03-28T14:28:15.001Z</time></trkpt><trkpt lat="44.76404614462237" lon="8.973884576237593"><ele>578.6</ele><time>2026-03-28T14:28:17.001Z</time></trkpt><trkpt lat="44.76403002024746" lon="8.973994501132966"><ele>578.0</ele><time>2026-03-28T14:28:19.001Z</time></trkpt><trkpt lat="44.76393457973082" lon="8.97414447799653"><ele>578.8</ele><time>2026-03-28T14:28:21.001Z</time></trkpt><trkpt lat="44.763881382664124" lon="8.974251289576186"><ele>579.5999999999999</ele><time>2026-03-28T14:28:22.001Z</time></trkpt><trkpt lat="44.76384093542676" lon="8.974357798197719"><ele>580.4000000000001</ele><time>2026-03-28T14:28:23.001Z</time></trkpt><trkpt lat="44.76384094252342" lon="8.974481762918844"><ele>581.2</ele><time>2026-03-28T14:28:24.001Z</time></trkpt><trkpt lat="44.76381835839538" lon="8.974609955131701"><ele>582.0</ele><time>2026-03-28T14:28:25.001Z</time></trkpt><trkpt lat="44.76381571813918" lon="8.974744191338845"><ele>582.0</ele><time>2026-03-28T14:28:26.001Z</time></trkpt><trkpt lat="44.76380901597296" lon="8.97488708763888"><ele>582.0</ele><time>2026-03-28T14:28:27.001Z</time></trkpt><trkpt lat="44.76381017065216" lon="8.97504549583094"><ele>582.0</ele><time>2026-03-28T14:28:28.001Z</time></trkpt><trkpt lat="44.763837813557785" lon="8.975219569164961"><ele>582.0</ele><time>2026-03-28T14:28:29.001Z</time></trkpt><trkpt lat="44.763864507477855" lon="8.975410975872077"><ele>582.0</ele><time>2026-03-28T14:28:30.001Z</time></trkpt><trkpt lat="44.763884476366464" lon="8.975612958096006"><ele>582.0</ele><time>2026-03-28T14:28:31.001Z</time></trkpt><trkpt lat="44.763899998387544" lon="8.975817282322243"><ele>582.0</ele><time>2026-03-28T14:28:32.001Z</time></trkpt><trkpt lat="44.76391492126524" lon="8.975993915431557"><ele>582.0</ele><time>2026-03-28T14:28:33.001Z</time></trkpt><trkpt lat="44.76393171994158" lon="8.976152277180502"><ele>582.1666666666666</ele><time>2026-03-28T14:28:34.001Z</time></trkpt><trkpt lat="44.763925280010646" lon="8.976293780109549"><ele>582.3333333333334</ele><time>2026-03-28T14:28:35.001Z</time></trkpt><trkpt lat="44.76391669045429" lon="8.976418313027247"><ele>582.5</ele><time>2026-03-28T14:28:36.001Z</time></trkpt><trkpt lat="44.76392904036732" lon="8.976527643124669"><ele>582.6666666666667</ele><time>2026-03-28T14:28:37.001Z</time></trkpt><trkpt lat="44.76394141846974" lon="8.97664539312823"><ele>582.8333333333334</ele><time>2026-03-28T14:28:38.001Z</time></trkpt><trkpt lat="44.763958823020744" lon="8.976763899441023"><ele>583.0</ele><time>2026-03-28T14:28:39.001Z</time></trkpt><trkpt lat="44.76398226314707" lon="8.976887868983937"><ele>582.0</ele><time>2026-03-28T14:28:40.001Z</time></trkpt><trkpt lat="44.76402877234162" lon="8.97702614679524"><ele>581.0</ele><time>2026-03-28T14:28:41.001Z</time></trkpt><trkpt lat="44.764085097322855" lon="8.977170244641336"><ele>580.0</ele><time>2026-03-28T14:28:42.001Z</time></trkpt><trkpt lat="44.76414881916726" lon="8.97732179817604"><ele>579.0</ele><time>2026-03-28T14:28:43.001Z</time></trkpt><trkpt lat="44.76422458190999" lon="8.977475608468863"><ele>577.75</ele><time>2026-03-28T14:28:44.001Z</time></trkpt><trkpt lat="44.76430896471523" lon="8.977622593485954"><ele>576.5</ele><time>2026-03-28T14:28:45.001Z</time></trkpt><trkpt lat="44.764386824639956" lon="8.977775192695056"><ele>575.25</ele><time>2026-03-28T14:28:46.001Z</time></trkpt><trkpt lat="44.76444174085435" lon="8.977960718112758"><ele>574.0</ele><time>2026-03-28T14:28:47.001Z</time></trkpt><trkpt lat="44.764461356295314" lon="8.978161883228648"><ele>578.25</ele><time>2026-03-28T14:28:48.001Z</time></trkpt><trkpt lat="44.764510950985674" lon="8.978360579243121"><ele>582.5</ele><time>2026-03-28T14:28:49.001Z</time></trkpt><trkpt lat="44.764545362772175" lon="8.978550140226126"><ele>586.75</ele><time>2026-03-28T14:28:50.001Z</time></trkpt><trkpt lat="44.76458022127533" lon="8.978724146433642"><ele>591.0</ele><time>2026-03-28T14:28:51.001Z</time></trkpt><trkpt lat="44.76460822348121" lon="8.978878400667021"><ele>591.0</ele><time>2026-03-28T14:28:52.001Z</time></trkpt><trkpt lat="44.76463609148513" lon="8.979019366488513"><ele>591.0</ele><time>2026-03-28T14:28:53.001Z</time></trkpt><trkpt lat="44.76468581202334" lon="8.979146004065964"><ele>591.0</ele><time>2026-03-28T14:28:54.001Z</time></trkpt><trkpt lat="44.76476305777418" lon="8.979265120838413"><ele>591.0</ele><time>2026-03-28T14:28:55.001Z</time></trkpt><trkpt lat="44.76486291969087" lon="8.979371010593859"><ele>591.0</ele><time>2026-03-28T14:28:56.001Z</time></trkpt><trkpt lat="44.76496904523868" lon="8.979477710831523"><ele>590.25</ele><time>2026-03-28T14:28:57.001Z</time></trkpt><trkpt lat="44.76507287684014" lon="8.979602793436067"><ele>589.5</ele><time>2026-03-28T14:28:58.001Z</time></trkpt><trkpt lat="44.76516284804571" lon="8.979761192456762"><ele>588.75</ele><time>2026-03-28T14:28:59.001Z</time></trkpt><trkpt lat="44.76524978583422" lon="8.979933077894145"><ele>588.0</ele><time>2026-03-28T14:29:00.001Z</time></trkpt><trkpt lat="44.765339753778626" lon="8.980086306966616"><ele>588.0</ele><time>2026-03-28T14:29:01.001Z</time></trkpt><trkpt lat="44.76542705408465" lon="8.98023400447595"><ele>588.0</ele><time>2026-03-28T14:29:02.001Z</time></trkpt><trkpt lat="44.76549494734252" lon="8.980402093563288"><ele>588.0</ele><time>2026-03-28T14:29:03.001Z</time></trkpt><trkpt lat="44.76553424908904" lon="8.980574906929744"><ele>588.0</ele><time>2026-03-28T14:29:04.001Z</time></trkpt><trkpt lat="44.765571898421534" lon="8.98075997302874"><ele>584.5</ele><time>2026-03-28T14:29:05.001Z</time></trkpt><trkpt lat="44.765609962556944" lon="8.980949069196903"><ele>581.0</ele><time>2026-03-28T14:29:06.001Z</time></trkpt><trkpt lat="44.765659132305224" lon="8.98113080930859"><ele>577.5</ele><time>2026-03-28T14:29:07.001Z</time></trkpt><trkpt lat="44.76573121938261" lon="8.981281936221375"><ele>574.0</ele><time>2026-03-28T14:29:08.001Z</time></trkpt><trkpt lat="44.76582029331749" lon="8.981419168263702"><ele>574.0</ele><time>2026-03-28T14:29:09.001Z</time></trkpt><trkpt lat="44.76590990522439" lon="8.98156123309268"><ele>574.0</ele><time>2026-03-28T14:29:10.001Z</time></trkpt><trkpt lat="44.7659846800495" lon="8.981698979151902"><ele>574.0</ele><time>2026-03-28T14:29:11.001Z</time></trkpt><trkpt lat="44.76605152641839" lon="8.981842760052876"><ele>574.0</ele><time>2026-03-28T14:29:12.001Z</time></trkpt><trkpt lat="44.76608393468664" lon="8.982020794884928"><ele>575.5</ele><time>2026-03-28T14:29:13.001Z</time></trkpt><trkpt lat="44.76612507600731" lon="8.98220275806057"><ele>577.0</ele><time>2026-03-28T14:29:14.001Z</time></trkpt><trkpt lat="44.766146818597285" lon="8.982385611068812"><ele>578.5</ele><time>2026-03-28T14:29:15.001Z</time></trkpt><trkpt lat="44.766170659966285" lon="8.982567842411143"><ele>580.0</ele><time>2026-03-28T14:29:16.001Z</time></trkpt><trkpt lat="44.76619442695841" lon="8.98275090241113"><ele>580.0</ele><time>2026-03-28T14:29:17.001Z</time></trkpt><trkpt lat="44.7661831290342" lon="8.98292480176857"><ele>580.0</ele><time>2026-03-28T14:29:18.001Z</time></trkpt><trkpt lat="44.76618198335083" lon="8.983061077547399"><ele>580.0</ele><time>2026-03-28T14:29:19.001Z</time></trkpt><trkpt lat="44.766190269529936" lon="8.983177078982303"><ele>580.0</ele><time>2026-03-28T14:29:20.001Z</time></trkpt><trkpt lat="44.76619107172691" lon="8.983285231270964"><ele>580.0</ele><time>2026-03-28T14:29:21Z</time></trkpt><trkpt lat="44.76619077095541" lon="8.98339295984644"><ele>576.1666666666667</ele><time>2026-03-28T14:29:22Z</time></trkpt><trkpt lat="44.76619195369821" lon="8.983498496439498"><ele>572.3333333333334</ele><time>2026-03-28T14:29:23Z</time></trkpt><trkpt lat="44.766192880388886" lon="8.983603497104811"><ele>568.5</ele><time>2026-03-28T14:29:24Z</time></trkpt><trkpt lat="44.766194128295204" lon="8.983706047525926"><ele>564.6666666666666</ele><time>2026-03-28T14:29:25Z</time></trkpt><trkpt lat="44.76621768952593" lon="8.983797453737585"><ele>560.8333333333333</ele><time>2026-03-28T14:29:26Z</time></trkpt><trkpt lat="44.766308326601866" lon="8.983850683675376"><ele>557.0</ele><time>2026-03-28T14:29:28Z</time></trkpt><trkpt lat="44.76624519854672" lon="8.983861605703863"><ele>557.0</ele><time>2026-03-28T14:29:39Z</time></trkpt><trkpt lat="44.766189670593526" lon="8.983795064812037"><ele>557.0</ele><time>2026-03-28T14:29:41Z</time></trkpt><trkpt lat="44.76584959704754" lon="8.984141460477122"><ele>556.4</ele><time>2026-03-28T14:29:44Z</time></trkpt><trkpt lat="44.76574691043032" lon="8.98399375903306"><ele>555.8000000000001</ele><time>2026-03-28T14:29:45Z</time></trkpt><trkpt lat="44.76566432594373" lon="8.983961351025915"><ele>555.2</ele><time>2026-03-28T14:29:46Z</time></trkpt><trkpt lat="44.76560081250791" lon="8.983936426634394"><ele>554.6</ele><time>2026-03-28T14:29:47Z</time></trkpt><trkpt lat="44.76549683390415" lon="8.983889914588206"><ele>554.0</ele><time>2026-03-28T14:29:49Z</time></trkpt><trkpt lat="44.76538946118473" lon="8.9838229214408"><ele>554.0</ele><time>2026-03-28T14:29:51Z</time></trkpt><trkpt lat="44.765331270174144" lon="8.983788365760583"><ele>554.0</ele><time>2026-03-28T14:29:52Z</time></trkpt><trkpt lat="44.76526802892454" lon="8.983763182727404"><ele>554.0</ele><time>2026-03-28T14:29:53Z</time></trkpt><trkpt lat="44.765188852964584" lon="8.983771292079533"><ele>554.0</ele><time>2026-03-28T14:29:54Z</time></trkpt><trkpt lat="44.76512982036668" lon="8.983810938985798"><ele>554.0</ele><time>2026-03-28T14:29:55Z</time></trkpt><trkpt lat="44.76507050438256" lon="8.98385525614557"><ele>554.0</ele><time>2026-03-28T14:29:56Z</time></trkpt><trkpt lat="44.7650148654786" lon="8.983900408089676"><ele>554.0</ele><time>2026-03-28T14:29:57Z</time></trkpt><trkpt lat="44.76495173076137" lon="8.983943300056227"><ele>552.7142857142857</ele><time>2026-03-28T14:29:58Z</time></trkpt><trkpt lat="44.764890192224165" lon="8.983985989144072"><ele>551.4285714285713</ele><time>2026-03-28T14:29:59Z</time></trkpt><trkpt lat="44.76481636119464" lon="8.983988547273805"><ele>550.1428571428571</ele><time>2026-03-28T14:30:00Z</time></trkpt><trkpt lat="44.76474800954802" lon="8.984006895701011"><ele>548.8571428571429</ele><time>2026-03-28T14:30:01Z</time></trkpt><trkpt lat="44.7646808694171" lon="8.984030451327891"><ele>547.5714285714287</ele><time>2026-03-28T14:30:02Z</time></trkpt><trkpt lat="44.76461528074002" lon="8.984059852670546"><ele>546.2857142857143</ele><time>2026-03-28T14:30:03Z</time></trkpt><trkpt lat="44.76454885361024" lon="8.98409265613815"><ele>545.0</ele><time>2026-03-28T14:30:04Z</time></trkpt><trkpt lat="44.76447726314651" lon="8.984126632224934"><ele>545.0</ele><time>2026-03-28T14:30:05Z</time></trkpt><trkpt lat="44.76440845015893" lon="8.984161469585496"><ele>545.0</ele><time>2026-03-28T14:30:06Z</time></trkpt><trkpt lat="44.76435001253895" lon="8.98420520156265"><ele>545.0</ele><time>2026-03-28T14:30:07Z</time></trkpt><trkpt lat="44.76429692975673" lon="8.984254689984827"><ele>545.0</ele><time>2026-03-28T14:30:08Z</time></trkpt><trkpt lat="44.76424971092131" lon="8.984319379402713"><ele>545.0</ele><time>2026-03-28T14:30:09Z</time></trkpt><trkpt lat="44.76421548436341" lon="8.98447999981209"><ele>545.0</ele><time>2026-03-28T14:30:11Z</time></trkpt><trkpt lat="44.76427235478658" lon="8.984562424469006"><ele>543.6666666666666</ele><time>2026-03-28T14:30:12Z</time></trkpt><trkpt lat="44.764324348720464" lon="8.984650148104313"><ele>542.3333333333333</ele><time>2026-03-28T14:30:13Z</time></trkpt><trkpt lat="44.764393515892905" lon="8.984748098934842"><ele>541.0</ele><time>2026-03-28T14:30:14Z</time></trkpt><trkpt lat="44.76446469975274" lon="8.98484992369544"><ele>539.6666666666666</ele><time>2026-03-28T14:30:15Z</time></trkpt><trkpt lat="44.76452877463545" lon="8.984931599539468"><ele>538.3333333333334</ele><time>2026-03-28T14:30:16Z</time></trkpt><trkpt lat="44.76457809560499" lon="8.984998263865707"><ele>537.0</ele><time>2026-03-28T14:30:17Z</time></trkpt><trkpt lat="44.76460046895537" lon="8.985086814886683"><ele>533.0</ele><time>2026-03-28T14:30:18Z</time></trkpt><trkpt lat="44.76460434037763" lon="8.985271928239568"><ele>529.0</ele><time>2026-03-28T14:30:20.001Z</time></trkpt><trkpt lat="44.764584602629" lon="8.985413978063791"><ele>525.0</ele><time>2026-03-28T14:30:22.001Z</time></trkpt><trkpt lat="44.764564381595996" lon="8.985600782029845"><ele>521.0</ele><time>2026-03-28T14:30:24.001Z</time></trkpt><trkpt lat="44.76456750543737" lon="8.98569560860204"><ele>517.0</ele><time>2026-03-28T14:30:25.001Z</time></trkpt><trkpt lat="44.764609427346926" lon="8.985803193841331"><ele>515.2</ele><time>2026-03-28T14:30:26.001Z</time></trkpt><trkpt lat="44.764646275844186" lon="8.985915138891514"><ele>513.4000000000001</ele><time>2026-03-28T14:30:27.001Z</time></trkpt><trkpt lat="44.764682712269845" lon="8.986037967160827"><ele>511.59999999999997</ele><time>2026-03-28T14:30:28.001Z</time></trkpt><trkpt lat="44.76467964522154" lon="8.986171099526867"><ele>509.79999999999995</ele><time>2026-03-28T14:30:29.001Z</time></trkpt><trkpt lat="44.764679853755396" lon="8.986321569123628"><ele>508.0</ele><time>2026-03-28T14:30:30.001Z</time></trkpt><trkpt lat="44.76467750541609" lon="8.986492511303306"><ele>508.0</ele><time>2026-03-28T14:30:31.001Z</time></trkpt><trkpt lat="44.76468099636112" lon="8.986644957503326"><ele>507.99999999999994</ele><time>2026-03-28T14:30:32.001Z</time></trkpt><trkpt lat="44.76466674428647" lon="8.98679309326585"><ele>507.99999999999994</ele><time>2026-03-28T14:30:33.001Z</time></trkpt><trkpt lat="44.76465037605822" lon="8.986929183232277"><ele>508.0</ele><time>2026-03-28T14:30:34.001Z</time></trkpt><trkpt lat="44.764621932226845" lon="8.987048260637525"><ele>508.0</ele><time>2026-03-28T14:30:35.001Z</time></trkpt><trkpt lat="44.76457370872115" lon="8.987143940833892"><ele>507.79999999999995</ele><time>2026-03-28T14:30:36.001Z</time></trkpt><trkpt lat="44.76451916628445" lon="8.987260577492"><ele>507.59999999999997</ele><time>2026-03-28T14:30:37.001Z</time></trkpt><trkpt lat="44.764458651088226" lon="8.98738672425711"><ele>507.40000000000003</ele><time>2026-03-28T14:30:38.001Z</time></trkpt><trkpt lat="44.76441122947251" lon="8.987539647501578"><ele>507.20000000000005</ele><time>2026-03-28T14:30:39.001Z</time></trkpt><trkpt lat="44.764331089818626" lon="8.987646009106518"><ele>507.0</ele><time>2026-03-28T14:30:40.001Z</time></trkpt><trkpt lat="44.76426568302057" lon="8.987732181080355"><ele>507.0</ele><time>2026-03-28T14:30:41.001Z</time></trkpt><trkpt lat="44.764194792197266" lon="8.987809653835368"><ele>507.0</ele><time>2026-03-28T14:30:42.001Z</time></trkpt><trkpt lat="44.76409697892434" lon="8.987900099669211"><ele>507.0</ele><time>2026-03-28T14:30:43.001Z</time></trkpt><trkpt lat="44.76398960100632" lon="8.987985937573068"><ele>507.0</ele><time>2026-03-28T14:30:44.001Z</time></trkpt><trkpt lat="44.76387189809479" lon="8.988062129502431"><ele>507.0</ele><time>2026-03-28T14:30:45.001Z</time></trkpt><trkpt lat="44.76374324424805" lon="8.988131474405149"><ele>507.0</ele><time>2026-03-28T14:30:46.001Z</time></trkpt><trkpt lat="44.763625922726376" lon="8.988193708483436"><ele>507.0</ele><time>2026-03-28T14:30:47.001Z</time></trkpt><trkpt lat="44.76351682166369" lon="8.988285699474316"><ele>507.0</ele><time>2026-03-28T14:30:48.001Z</time></trkpt><trkpt lat="44.76340534231319" lon="8.988373678454444"><ele>505.0</ele><time>2026-03-28T14:30:49.001Z</time></trkpt><trkpt lat="44.76330538351689" lon="8.988463534165657"><ele>503.0</ele><time>2026-03-28T14:30:50.001Z</time></trkpt><trkpt lat="44.76320086954718" lon="8.98856716678109"><ele>501.0</ele><time>2026-03-28T14:30:51.001Z</time></trkpt><trkpt lat="44.763078805091254" lon="8.988659962927716"><ele>499.0</ele><time>2026-03-28T14:30:52.001Z</time></trkpt><trkpt lat="44.76296761024021" lon="8.98872891248615"><ele>499.0</ele><time>2026-03-28T14:30:53.001Z</time></trkpt><trkpt lat="44.76284906859459" lon="8.988776140890575"><ele>499.0</ele><time>2026-03-28T14:30:54.001Z</time></trkpt><trkpt lat="44.76273306034587" lon="8.98881468053356"><ele>499.0</ele><time>2026-03-28T14:30:55.001Z</time></trkpt><trkpt lat="44.76262581196876" lon="8.988873930271204"><ele>499.0</ele><time>2026-03-28T14:30:56.001Z</time></trkpt><trkpt lat="44.76252812853111" lon="8.988914101003346"><ele>500.1666666666667</ele><time>2026-03-28T14:30:57.001Z</time></trkpt><trkpt lat="44.762447397216626" lon="8.988961071647307"><ele>501.33333333333337</ele><time>2026-03-28T14:30:58.001Z</time></trkpt><trkpt lat="44.762372017017434" lon="8.9889805863516"><ele>502.5</ele><time>2026-03-28T14:30:59.001Z</time></trkpt><trkpt lat="44.762293958491874" lon="8.988972421728349"><ele>503.66666666666663</ele><time>2026-03-28T14:31:00.001Z</time></trkpt><trkpt lat="44.762215897253455" lon="8.988979615119733"><ele>504.8333333333333</ele><time>2026-03-28T14:31:01.001Z</time></trkpt><trkpt lat="44.762139054479746" lon="8.98900220610347"><ele>506.0</ele><time>2026-03-28T14:31:02.001Z</time></trkpt><trkpt lat="44.76206047762446" lon="8.988962365905238"><ele>506.0</ele><time>2026-03-28T14:31:03.001Z</time></trkpt><trkpt lat="44.76198564709493" lon="8.988915484385458"><ele>506.0</ele><time>2026-03-28T14:31:04.001Z</time></trkpt><trkpt lat="44.76191028618607" lon="8.98885856475635"><ele>506.0</ele><time>2026-03-28T14:31:05.001Z</time></trkpt><trkpt lat="44.76181633153956" lon="8.988776035451473"><ele>506.0</ele><time>2026-03-28T14:31:06.001Z</time></trkpt><trkpt lat="44.76171676517475" lon="8.988676082448809"><ele>506.0</ele><time>2026-03-28T14:31:07.001Z</time></trkpt><trkpt lat="44.761635540666624" lon="8.988600697165268"><ele>506.20000000000005</ele><time>2026-03-28T14:31:08.001Z</time></trkpt><trkpt lat="44.761554885120994" lon="8.988572640019402"><ele>506.40000000000003</ele><time>2026-03-28T14:31:09.001Z</time></trkpt><trkpt lat="44.76146734600392" lon="8.98857820177452"><ele>506.6</ele><time>2026-03-28T14:31:10.001Z</time></trkpt><trkpt lat="44.76137361878634" lon="8.988601326809093"><ele>506.8</ele><time>2026-03-28T14:31:11.001Z</time></trkpt><trkpt lat="44.76127358505803" lon="8.988663480901723"><ele>507.0</ele><time>2026-03-28T14:31:12.001Z</time></trkpt><trkpt lat="44.76118828242515" lon="8.988720626347328"><ele>507.0</ele><time>2026-03-28T14:31:13.001Z</time></trkpt><trkpt lat="44.761107218372246" lon="8.988784012196481"><ele>507.00000000000006</ele><time>2026-03-28T14:31:14.001Z</time></trkpt><trkpt lat="44.76102147355974" lon="8.988846331660291"><ele>507.00000000000006</ele><time>2026-03-28T14:31:15.001Z</time></trkpt><trkpt lat="44.76094892190904" lon="8.988916530918141"><ele>507.0</ele><time>2026-03-28T14:31:16.001Z</time></trkpt><trkpt lat="44.76087082787906" lon="8.988978683699285"><ele>507.0</ele><time>2026-03-28T14:31:17.001Z</time></trkpt><trkpt lat="44.760789418691616" lon="8.989018850136347"><ele>504.1666666666667</ele><time>2026-03-28T14:31:18.001Z</time></trkpt><trkpt lat="44.76071175721612" lon="8.989048719564487"><ele>501.33333333333337</ele><time>2026-03-28T14:31:19.001Z</time></trkpt><trkpt lat="44.76063548371814" lon="8.989072467581805"><ele>498.5</ele><time>2026-03-28T14:31:20.001Z</time></trkpt><trkpt lat="44.76056000374886" lon="8.989074359613769"><ele>495.6666666666667</ele><time>2026-03-28T14:31:21.001Z</time></trkpt><trkpt lat="44.76049233099148" lon="8.989034256775875"><ele>492.83333333333337</ele><time>2026-03-28T14:31:22.001Z</time></trkpt><trkpt lat="44.76041247305105" lon="8.988975512190853"><ele>490.0</ele><time>2026-03-28T14:31:23.001Z</time></trkpt><trkpt lat="44.760328879182524" lon="8.98891957760528"><ele>490.00000000000006</ele><time>2026-03-28T14:31:24.001Z</time></trkpt><trkpt lat="44.76025342849757" lon="8.9888655288112"><ele>490.0</ele><time>2026-03-28T14:31:25.001Z</time></trkpt><trkpt lat="44.760174745028976" lon="8.988808017223734"><ele>490.0</ele><time>2026-03-28T14:31:26.001Z</time></trkpt><trkpt lat="44.76010339810175" lon="8.988752690895339"><ele>490.0</ele><time>2026-03-28T14:31:27Z</time></trkpt><trkpt lat="44.76004230509298" lon="8.988718948685339"><ele>490.00000000000006</ele><time>2026-03-28T14:31:28Z</time></trkpt><trkpt lat="44.75993468665654" lon="8.988692098170834"><ele>490.0</ele><time>2026-03-28T14:31:30Z</time></trkpt><trkpt lat="44.75986293767742" lon="8.988756232149086"><ele>485.8</ele><time>2026-03-28T14:31:32Z</time></trkpt><trkpt lat="44.75978448261158" lon="8.988785346549761"><ele>481.6</ele><time>2026-03-28T14:31:35Z</time></trkpt><trkpt lat="44.759715654804474" lon="8.988813403887036"><ele>477.4</ele><time>2026-03-28T14:31:37Z</time></trkpt><trkpt lat="44.75960111950777" lon="8.988861165062753"><ele>473.2</ele><time>2026-03-28T14:31:39Z</time></trkpt><trkpt lat="44.75948293777338" lon="8.988879586599134"><ele>469.0</ele><time>2026-03-28T14:31:41Z</time></trkpt><trkpt lat="44.75934856147068" lon="8.988859988566372"><ele>464.75</ele><time>2026-03-28T14:31:43Z</time></trkpt><trkpt lat="44.75925136457414" lon="8.988800062722726"><ele>460.5</ele><time>2026-03-28T14:31:44Z</time></trkpt><trkpt lat="44.75913944789537" lon="8.988754209008464"><ele>456.25</ele><time>2026-03-28T14:31:45Z</time></trkpt><trkpt lat="44.75900952402857" lon="8.988723531700535"><ele>452.0</ele><time>2026-03-28T14:31:46Z</time></trkpt><trkpt lat="44.75887269984796" lon="8.988661788056802"><ele>452.0</ele><time>2026-03-28T14:31:47Z</time></trkpt><trkpt lat="44.758752216780906" lon="8.988626378855463"><ele>452.0</ele><time>2026-03-28T14:31:48Z</time></trkpt><trkpt lat="44.75863541881369" lon="8.988622834342433"><ele>452.0</ele><time>2026-03-28T14:31:49Z</time></trkpt><trkpt lat="44.75852951897995" lon="8.988649626110615"><ele>452.0</ele><time>2026-03-28T14:31:50Z</time></trkpt><trkpt lat="44.75843327058658" lon="8.988740460727811"><ele>451.5</ele><time>2026-03-28T14:31:51Z</time></trkpt><trkpt lat="44.758318994841986" lon="8.988835362444444"><ele>451.0</ele><time>2026-03-28T14:31:52Z</time></trkpt><trkpt lat="44.75819098619969" lon="8.988916060811746"><ele>450.5</ele><time>2026-03-28T14:31:53Z</time></trkpt><trkpt lat="44.75807477684495" lon="8.989005883358063"><ele>450.0</ele><time>2026-03-28T14:31:54Z</time></trkpt><trkpt lat="44.75797759275855" lon="8.98905941119072"><ele>450.0</ele><time>2026-03-28T14:31:55Z</time></trkpt><trkpt lat="44.75787341481134" lon="8.989094829879477"><ele>450.0</ele><time>2026-03-28T14:31:56Z</time></trkpt><trkpt lat="44.757761548272455" lon="8.989110314289924"><ele>450.0</ele><time>2026-03-28T14:31:57Z</time></trkpt><trkpt lat="44.75765800983551" lon="8.989106758013047"><ele>450.0</ele><time>2026-03-28T14:31:58Z</time></trkpt><trkpt lat="44.75757237376328" lon="8.989077343419279"><ele>450.0</ele><time>2026-03-28T14:31:59Z</time></trkpt><trkpt lat="44.757485612903466" lon="8.989032627325322"><ele>450.8</ele><time>2026-03-28T14:32:00Z</time></trkpt><trkpt lat="44.75738591991384" lon="8.988992917497612"><ele>451.6</ele><time>2026-03-28T14:32:01Z</time></trkpt><trkpt lat="44.75729979299711" lon="8.988961444077844"><ele>452.4</ele><time>2026-03-28T14:32:02Z</time></trkpt><trkpt lat="44.75722696441689" lon="8.988935457200075"><ele>453.2</ele><time>2026-03-28T14:32:03Z</time></trkpt><trkpt lat="44.757111482189615" lon="8.988915492944257"><ele>454.0</ele><time>2026-03-28T14:32:05Z</time></trkpt><trkpt lat="44.757041378674515" lon="8.98893246980149"><ele>454.00000000000006</ele><time>2026-03-28T14:32:06Z</time></trkpt><trkpt lat="44.75698044821285" lon="8.988959658369462"><ele>454.0</ele><time>2026-03-28T14:32:07Z</time></trkpt><trkpt lat="44.75690450506062" lon="8.989005054386794"><ele>454.0</ele><time>2026-03-28T14:32:08Z</time></trkpt><trkpt lat="44.756828020481116" lon="8.98903352020159"><ele>454.0</ele><time>2026-03-28T14:32:09Z</time></trkpt><trkpt lat="44.7567215949704" lon="8.98903740029163"><ele>454.00000000000006</ele><time>2026-03-28T14:32:11Z</time></trkpt><trkpt lat="44.75665030257595" lon="8.9890327533803"><ele>454.0</ele><time>2026-03-28T14:32:12Z</time></trkpt><trkpt lat="44.756563541457176" lon="8.98902167756413"><ele>453.0</ele><time>2026-03-28T14:32:13Z</time></trkpt><trkpt lat="44.75644508981501" lon="8.989013201110879"><ele>452.0</ele><time>2026-03-28T14:32:14Z</time></trkpt><trkpt lat="44.75634865343101" lon="8.988946019659831"><ele>451.0</ele><time>2026-03-28T14:32:15Z</time></trkpt><trkpt lat="44.756264222957526" lon="8.988897338837745"><ele>450.0</ele><time>2026-03-28T14:32:16Z</time></trkpt><trkpt lat="44.756198761275215" lon="8.988824793034805"><ele>449.0</ele><time>2026-03-28T14:32:17Z</time></trkpt><trkpt lat="44.756130997946514" lon="8.988757254583696"><ele>448.99999999999994</ele><time>2026-03-28T14:32:18Z</time></trkpt><trkpt lat="44.75604577466109" lon="8.988680616422142"><ele>449.0</ele><time>2026-03-28T14:32:19Z</time></trkpt><trkpt lat="44.755951790237084" lon="8.988635078356625"><ele>449.0</ele><time>2026-03-28T14:32:20Z</time></trkpt><trkpt lat="44.75587663168156" lon="8.988561706926735"><ele>449.0</ele><time>2026-03-28T14:32:21Z</time></trkpt><trkpt lat="44.755808831046636" lon="8.988522308804043"><ele>448.99999999999994</ele><time>2026-03-28T14:32:22.001Z</time></trkpt><trkpt lat="44.75574682298321" lon="8.988498829182424"><ele>449.0</ele><time>2026-03-28T14:32:23.001Z</time></trkpt><trkpt lat="44.75561519454376" lon="8.988438847225249"><ele>449.4</ele><time>2026-03-28T14:32:25.001Z</time></trkpt><trkpt lat="44.755499072854" lon="8.98846132349554"><ele>449.79999999999995</ele><time>2026-03-28T14:32:26.001Z</time></trkpt><trkpt lat="44.75539974289198" lon="8.988433950605263"><ele>450.20000000000005</ele><time>2026-03-28T14:32:27.001Z</time></trkpt><trkpt lat="44.75530765976925" lon="8.988421274655494"><ele>450.6</ele><time>2026-03-28T14:32:28.001Z</time></trkpt><trkpt lat="44.75522888513983" lon="8.988410430732797"><ele>451.0</ele><time>2026-03-28T14:32:29.001Z</time></trkpt><trkpt lat="44.75516213384803" lon="8.988407643721914"><ele>451.4</ele><time>2026-03-28T14:32:30.001Z</time></trkpt><trkpt lat="44.755080653550806" lon="8.988383499270071"><ele>451.8</ele><time>2026-03-28T14:33:00.001Z</time></trkpt><trkpt lat="44.75498138879047" lon="8.988362457261202"><ele>452.19999999999993</ele><time>2026-03-28T14:33:02.001Z</time></trkpt><trkpt lat="44.75484088247494" lon="8.988332672947875"><ele>452.59999999999997</ele><time>2026-03-28T14:33:04.001Z</time></trkpt><trkpt lat="44.75474454586517" lon="8.98831052238132"><ele>453.0</ele><time>2026-03-28T14:33:05.001Z</time></trkpt><trkpt lat="44.75463466865638" lon="8.98828118416301"><ele>451.75</ele><time>2026-03-28T14:33:06.001Z</time></trkpt><trkpt lat="44.754514646130445" lon="8.988235288347276"><ele>450.5</ele><time>2026-03-28T14:33:07.001Z</time></trkpt><trkpt lat="44.754401326471196" lon="8.98817278643722"><ele>449.25</ele><time>2026-03-28T14:33:08.001Z</time></trkpt><trkpt lat="44.75430557154301" lon="8.988099086074211"><ele>448.0</ele><time>2026-03-28T14:33:09.001Z</time></trkpt><trkpt lat="44.754193658206056" lon="8.98801830578041"><ele>448.0</ele><time>2026-03-28T14:33:10.001Z</time></trkpt><trkpt lat="44.75412009728543" lon="8.987913722327358"><ele>447.99999999999994</ele><time>2026-03-28T14:33:11.001Z</time></trkpt><trkpt lat="44.75404318708417" lon="8.987852631139749"><ele>447.99999999999994</ele><time>2026-03-28T14:33:12.001Z</time></trkpt><trkpt lat="44.75398596521916" lon="8.987747828919698"><ele>448.0</ele><time>2026-03-28T14:33:13.001Z</time></trkpt><trkpt lat="44.753922348834585" lon="8.987635636931532"><ele>448.0</ele><time>2026-03-28T14:33:14.001Z</time></trkpt><trkpt lat="44.75385647015836" lon="8.987546803550934"><ele>445.59999999999997</ele><time>2026-03-28T14:33:15.001Z</time></trkpt><trkpt lat="44.75379184101057" lon="8.987466393974191"><ele>443.19999999999993</ele><time>2026-03-28T14:33:16.001Z</time></trkpt><trkpt lat="44.75372005597629" lon="8.987375132305251"><ele>440.8</ele><time>2026-03-28T14:33:17.001Z</time></trkpt><trkpt lat="44.75362121003665" lon="8.98729313567505"><ele>438.4</ele><time>2026-03-28T14:33:18.001Z</time></trkpt><trkpt lat="44.7535342731966" lon="8.987195201268095"><ele>436.0</ele><time>2026-03-28T14:33:19.001Z</time></trkpt><trkpt lat="44.75344073753541" lon="8.98710554049847"><ele>436.0</ele><time>2026-03-28T14:33:20.001Z</time></trkpt><trkpt lat="44.753338938357956" lon="8.987010810264922"><ele>436.0</ele><time>2026-03-28T14:33:21.001Z</time></trkpt><trkpt lat="44.75323232064525" lon="8.98687663119238"><ele>436.0</ele><time>2026-03-28T14:33:22.001Z</time></trkpt><trkpt lat="44.75313367356708" lon="8.986731147645605"><ele>436.0</ele><time>2026-03-28T14:33:23.001Z</time></trkpt><trkpt lat="44.753061213549316" lon="8.986595455011493"><ele>432.0</ele><time>2026-03-28T14:33:24.001Z</time></trkpt><trkpt lat="44.75298498315793" lon="8.986480124988406"><ele>428.0</ele><time>2026-03-28T14:33:25.001Z</time></trkpt><trkpt lat="44.75289183761841" lon="8.98635648524355"><ele>424.0</ele><time>2026-03-28T14:33:26.001Z</time></trkpt><trkpt lat="44.752796185230885" lon="8.986229918242678"><ele>420.0</ele><time>2026-03-28T14:33:27.001Z</time></trkpt><trkpt lat="44.75271893547802" lon="8.986125231245598"><ele>420.3333333333333</ele><time>2026-03-28T14:33:28.001Z</time></trkpt><trkpt lat="44.75265310989487" lon="8.986036861921674"><ele>420.66666666666663</ele><time>2026-03-28T14:33:29.001Z</time></trkpt><trkpt lat="44.752581309704226" lon="8.9859768150744"><ele>421.0</ele><time>2026-03-28T14:33:30.001Z</time></trkpt><trkpt lat="44.75250873082819" lon="8.985952641710789"><ele>421.3333333333333</ele><time>2026-03-28T14:33:31.001Z</time></trkpt><trkpt lat="44.75244060337993" lon="8.98594828899936"><ele>421.66666666666663</ele><time>2026-03-28T14:33:32.001Z</time></trkpt><trkpt lat="44.752335525565115" lon="8.985915107902308"><ele>422.0</ele><time>2026-03-28T14:33:34Z</time></trkpt><trkpt lat="44.75241259077695" lon="8.985984664116293"><ele>422.0</ele><time>2026-03-28T14:43:19.001Z</time></trkpt><trkpt lat="44.752500092118645" lon="8.986008369916814"><ele>422.0</ele><time>2026-03-28T14:43:20.001Z</time></trkpt><trkpt lat="44.75256375612356" lon="8.986040774529373"><ele>422.0</ele><time>2026-03-28T14:43:22.001Z</time></trkpt><trkpt lat="44.75249896885357" lon="8.986011706436292"><ele>422.0</ele><time>2026-03-28T14:52:54Z</time></trkpt><trkpt lat="44.75243319882674" lon="8.985990580892027"><ele>422.0</ele><time>2026-03-28T14:52:58Z</time></trkpt><trkpt lat="44.75235134906047" lon="8.985963200096341"><ele>422.0</ele><time>2026-03-28T14:53:02Z</time></trkpt><trkpt lat="44.752286350208976" lon="8.985937189089267"><ele>422.0</ele><time>2026-03-28T14:53:05Z</time></trkpt><trkpt lat="44.752224543121216" lon="8.985905201005334"><ele>421.99999999999994</ele><time>2026-03-28T14:53:08Z</time></trkpt><trkpt lat="44.75216193411984" lon="8.98586818252451"><ele>422.0</ele><time>2026-03-28T14:53:12Z</time></trkpt><trkpt lat="44.75209895570654" lon="8.985793354273154"><ele>422.0</ele><time>2026-03-28T14:53:17Z</time></trkpt><trkpt lat="44.7520545952493" lon="8.98571468280761"><ele>422.0</ele><time>2026-03-28T14:53:26Z</time></trkpt><trkpt lat="44.75202821671857" lon="8.985629156676211"><ele>421.99999999999994</ele><time>2026-03-28T14:53:33.001Z</time></trkpt><trkpt lat="44.75201624640225" lon="8.985512401489792"><ele>422.0</ele><time>2026-03-28T14:59:10Z</time></trkpt><trkpt lat="44.75202219688354" lon="8.985371344903607"><ele>418.8</ele><time>2026-03-28T14:59:12Z</time></trkpt><trkpt lat="44.752064246590606" lon="8.985219112330533"><ele>415.6</ele><time>2026-03-28T14:59:14Z</time></trkpt><trkpt lat="44.752050100544245" lon="8.985124828282057"><ele>412.40000000000003</ele><time>2026-03-28T14:59:15Z</time></trkpt><trkpt lat="44.751991383236884" lon="8.98498224637505"><ele>409.20000000000005</ele><time>2026-03-28T14:59:17Z</time></trkpt><trkpt lat="44.75188992751753" lon="8.984904325195352"><ele>406.0</ele><time>2026-03-28T14:59:19Z</time></trkpt><trkpt lat="44.751787736" lon="8.984832237208698"><ele>402.8</ele><time>2026-03-28T14:59:22Z</time></trkpt><trkpt lat="44.751684498889034" lon="8.984766159250276"><ele>399.6</ele><time>2026-03-28T14:59:24Z</time></trkpt><trkpt lat="44.75157201837641" lon="8.984691335469412"><ele>396.4</ele><time>2026-03-28T14:59:26Z</time></trkpt><trkpt lat="44.75152026379973" lon="8.98463855608975"><ele>393.2</ele><time>2026-03-28T14:59:27Z</time></trkpt><trkpt lat="44.75146868483882" lon="8.984562746113632"><ele>390.0</ele><time>2026-03-28T14:59:28Z</time></trkpt><trkpt lat="44.75140513379883" lon="8.984505859084342"><ele>390.0</ele><time>2026-03-28T14:59:29Z</time></trkpt><trkpt lat="44.75136019469497" lon="8.984422768578003"><ele>390.0</ele><time>2026-03-28T14:59:30Z</time></trkpt><trkpt lat="44.751300258363194" lon="8.984354794035522"><ele>390.0</ele><time>2026-03-28T14:59:31Z</time></trkpt><trkpt lat="44.75124574784198" lon="8.984289306527184"><ele>390.0</ele><time>2026-03-28T14:59:32Z</time></trkpt><trkpt lat="44.75115185775296" lon="8.984151933098063"><ele>390.0</ele><time>2026-03-28T14:59:34Z</time></trkpt><trkpt lat="44.751114619396624" lon="8.984079067339309"><ele>390.0</ele><time>2026-03-28T14:59:35Z</time></trkpt><trkpt lat="44.75107838400019" lon="8.98400040578496"><ele>389.6</ele><time>2026-03-28T14:59:36Z</time></trkpt><trkpt lat="44.751028148165524" lon="8.983861011189987"><ele>389.2</ele><time>2026-03-28T14:59:38Z</time></trkpt><trkpt lat="44.75100359617572" lon="8.983760658282813"><ele>388.79999999999995</ele><time>2026-03-28T14:59:39.001Z</time></trkpt><trkpt lat="44.750993359217254" lon="8.983633707114436"><ele>388.4</ele><time>2026-03-28T14:59:41.001Z</time></trkpt><trkpt lat="44.75098473797501" lon="8.983477113739962"><ele>388.0</ele><time>2026-03-28T14:59:43.001Z</time></trkpt><trkpt lat="44.750948195917324" lon="8.983328097618783"><ele>385.83333333333337</ele><time>2026-03-28T14:59:45.001Z</time></trkpt><trkpt lat="44.750917926518625" lon="8.983249259887478"><ele>383.6666666666667</ele><time>2026-03-28T14:59:46.001Z</time></trkpt><trkpt lat="44.75086779368221" lon="8.98316334649885"><ele>381.5</ele><time>2026-03-28T14:59:47.001Z</time></trkpt><trkpt lat="44.75080181863138" lon="8.983099524501094"><ele>379.33333333333337</ele><time>2026-03-28T14:59:48.001Z</time></trkpt><trkpt lat="44.750734039964165" lon="8.983054019421955"><ele>377.1666666666667</ele><time>2026-03-28T14:59:49.001Z</time></trkpt><trkpt lat="44.750639901377404" lon="8.982978047811194"><ele>375.0</ele><time>2026-03-28T14:59:51.001Z</time></trkpt><trkpt lat="44.75056485760765" lon="8.982919233947763"><ele>375.0</ele><time>2026-03-28T14:59:53.001Z</time></trkpt><trkpt lat="44.75049552000333" lon="8.98286166959714"><ele>375.0</ele><time>2026-03-28T14:59:55.001Z</time></trkpt><trkpt lat="44.750402963327595" lon="8.982772174078216"><ele>375.0</ele><time>2026-03-28T14:59:57.001Z</time></trkpt><trkpt lat="44.75034753771691" lon="8.982711590088476"><ele>375.0</ele><time>2026-03-28T14:59:58.001Z</time></trkpt><trkpt lat="44.75028091741672" lon="8.982637618697458"><ele>375.0</ele><time>2026-03-28T14:59:59.001Z</time></trkpt><trkpt lat="44.750210496104245" lon="8.982563307725046"><ele>375.0</ele><time>2026-03-28T15:00:00.001Z</time></trkpt><trkpt lat="44.7501462295571" lon="8.982496868475943"><ele>375.0</ele><time>2026-03-28T15:00:01.001Z</time></trkpt><trkpt lat="44.75007657113947" lon="8.982426327933588"><ele>375.0</ele><time>2026-03-28T15:00:02.001Z</time></trkpt><trkpt lat="44.75000693661124" lon="8.982364912155191"><ele>375.0</ele><time>2026-03-28T15:00:03.001Z</time></trkpt><trkpt lat="44.74993738591696" lon="8.982322675647943"><ele>375.0</ele><time>2026-03-28T15:00:04.001Z</time></trkpt><trkpt lat="44.74985642333559" lon="8.982309046431595"><ele>375.0</ele><time>2026-03-28T15:00:05.001Z</time></trkpt><trkpt lat="44.74978289039661" lon="8.982284852767046"><ele>375.0</ele><time>2026-03-28T15:00:06.001Z</time></trkpt><trkpt lat="44.74970799293333" lon="8.982269876552337"><ele>375.0</ele><time>2026-03-28T15:00:07.001Z</time></trkpt><trkpt lat="44.74963745591706" lon="8.982277444219896"><ele>375.0</ele><time>2026-03-28T15:00:08.001Z</time></trkpt><trkpt lat="44.749561316856024" lon="8.982284831241707"><ele>375.0</ele><time>2026-03-28T15:00:09.001Z</time></trkpt><trkpt lat="44.74947067012069" lon="8.982288304569561"><ele>375.0</ele><time>2026-03-28T15:00:10.001Z</time></trkpt><trkpt lat="44.74940336560809" lon="8.982299955310475"><ele>375.0</ele><time>2026-03-28T15:00:11.001Z</time></trkpt><trkpt lat="44.74932672470574" lon="8.982260601222311"><ele>375.0</ele><time>2026-03-28T15:00:12.001Z</time></trkpt><trkpt lat="44.74924371737627" lon="8.982230766610126"><ele>376.14285714285717</ele><time>2026-03-28T15:00:13.001Z</time></trkpt><trkpt lat="44.74918637493432" lon="8.982185607352118"><ele>377.2857142857143</ele><time>2026-03-28T15:00:14.001Z</time></trkpt><trkpt lat="44.74911943234558" lon="8.98214191401181"><ele>378.42857142857144</ele><time>2026-03-28T15:00:15.001Z</time></trkpt><trkpt lat="44.74904882872334" lon="8.982119235802585"><ele>379.57142857142856</ele><time>2026-03-28T15:00:16.001Z</time></trkpt><trkpt lat="44.74898575321781" lon="8.982074511634325"><ele>380.71428571428567</ele><time>2026-03-28T15:00:17.001Z</time></trkpt><trkpt lat="44.74892556371418" lon="8.982031277585744"><ele>381.85714285714283</ele><time>2026-03-28T15:00:18.001Z</time></trkpt><trkpt lat="44.74885492645976" lon="8.981989749300395"><ele>383.0</ele><time>2026-03-28T15:00:19.001Z</time></trkpt><trkpt lat="44.74878382166907" lon="8.981944050777452"><ele>383.0</ele><time>2026-03-28T15:00:20.001Z</time></trkpt><trkpt lat="44.748715707780256" lon="8.981896541750077"><ele>383.0</ele><time>2026-03-28T15:00:21.001Z</time></trkpt><trkpt lat="44.74864796904051" lon="8.981848458020696"><ele>383.0</ele><time>2026-03-28T15:00:22.001Z</time></trkpt><trkpt lat="44.74858200943692" lon="8.98178186896769"><ele>383.0</ele><time>2026-03-28T15:00:23.001Z</time></trkpt><trkpt lat="44.748512478075334" lon="8.981707747253347"><ele>383.0</ele><time>2026-03-28T15:00:24.001Z</time></trkpt><trkpt lat="44.74843690708265" lon="8.98163434336979"><ele>383.0</ele><time>2026-03-28T15:00:25.001Z</time></trkpt><trkpt lat="44.74836015820631" lon="8.98155254991374"><ele>380.4</ele><time>2026-03-28T15:00:26.001Z</time></trkpt><trkpt lat="44.748286568918424" lon="8.9814794441877"><ele>377.79999999999995</ele><time>2026-03-28T15:00:27.001Z</time></trkpt><trkpt lat="44.74820760831457" lon="8.981422065234485"><ele>375.2</ele><time>2026-03-28T15:00:28.001Z</time></trkpt><trkpt lat="44.74811628100838" lon="8.98137472605003"><ele>372.6</ele><time>2026-03-28T15:00:29.001Z</time></trkpt><trkpt lat="44.74802426622639" lon="8.981340501087207"><ele>370.0</ele><time>2026-03-28T15:00:30.001Z</time></trkpt><trkpt lat="44.74792492111918" lon="8.981316225595803"><ele>370.0</ele><time>2026-03-28T15:00:31.001Z</time></trkpt><trkpt lat="44.74782284673359" lon="8.98129718245972"><ele>370.0</ele><time>2026-03-28T15:00:32.001Z</time></trkpt><trkpt lat="44.74772221086633" lon="8.981298112223767"><ele>370.0</ele><time>2026-03-28T15:00:33.001Z</time></trkpt><trkpt lat="44.74764181356718" lon="8.981300816693976"><ele>370.0</ele><time>2026-03-28T15:00:34.001Z</time></trkpt><trkpt lat="44.747535764589045" lon="8.981321592756968"><ele>370.0</ele><time>2026-03-28T15:00:36.001Z</time></trkpt><trkpt lat="44.747439089109015" lon="8.981347158524231"><ele>370.0</ele><time>2026-03-28T15:00:38.001Z</time></trkpt><trkpt lat="44.74733335529534" lon="8.98140943713775"><ele>370.0</ele><time>2026-03-28T15:00:40.001Z</time></trkpt><trkpt lat="44.747284863897875" lon="8.981479661257996"><ele>370.0</ele><time>2026-03-28T15:00:41.001Z</time></trkpt><trkpt lat="44.74724790579677" lon="8.981553824973744"><ele>370.0</ele><time>2026-03-28T15:00:42.001Z</time></trkpt><trkpt lat="44.74721871337184" lon="8.981634791992072"><ele>370.0</ele><time>2026-03-28T15:00:43.001Z</time></trkpt><trkpt lat="44.7471911878871" lon="8.981718759928999"><ele>370.0</ele><time>2026-03-28T15:00:44.001Z</time></trkpt><trkpt lat="44.74713232946141" lon="8.981872741339076"><ele>370.0</ele><time>2026-03-28T15:00:46.001Z</time></trkpt><trkpt lat="44.74707761157852" lon="8.982029944620328"><ele>370.0</ele><time>2026-03-28T15:00:48.001Z</time></trkpt><trkpt lat="44.747062436286974" lon="8.98211613212319"><ele>370.0</ele><time>2026-03-28T15:00:49.001Z</time></trkpt><trkpt lat="44.747049422826834" lon="8.982204088614534"><ele>370.0</ele><time>2026-03-28T15:00:50.001Z</time></trkpt><trkpt lat="44.74700726579692" lon="8.982346977952368"><ele>370.0</ele><time>2026-03-28T15:00:52Z</time></trkpt><trkpt lat="44.7469807893453" lon="8.982474310661605"><ele>368.0</ele><time>2026-03-28T15:00:54Z</time></trkpt><trkpt lat="44.74695452072936" lon="8.982618148328902"><ele>366.0</ele><time>2026-03-28T15:00:56Z</time></trkpt><trkpt lat="44.74692311684911" lon="8.98273577190783"><ele>364.0</ele><time>2026-03-28T15:00:58Z</time></trkpt><trkpt lat="44.746852730590625" lon="8.98284282937945"><ele>362.0</ele><time>2026-03-28T15:01:00Z</time></trkpt><trkpt lat="44.746781688610575" lon="8.982981843254116"><ele>360.0</ele><time>2026-03-28T15:01:02Z</time></trkpt><trkpt lat="44.74674311590794" lon="8.983059447408992"><ele>356.1666666666667</ele><time>2026-03-28T15:01:03Z</time></trkpt><trkpt lat="44.74671110034282" lon="8.983143124365256"><ele>352.3333333333333</ele><time>2026-03-28T15:01:04Z</time></trkpt><trkpt lat="44.74669659929412" lon="8.98323314679476"><ele>348.5</ele><time>2026-03-28T15:01:05Z</time></trkpt><trkpt lat="44.74663491376004" lon="8.983348586468976"><ele>344.66666666666663</ele><time>2026-03-28T15:01:07Z</time></trkpt><trkpt lat="44.746602493294205" lon="8.983435294066375"><ele>340.8333333333333</ele><time>2026-03-28T15:01:09Z</time></trkpt><trkpt lat="44.746511109587324" lon="8.983337308181687"><ele>337.0</ele><time>2026-03-28T15:02:31.001Z</time></trkpt><trkpt lat="44.74646031599588" lon="8.983263720600725"><ele>337.0</ele><time>2026-03-28T15:02:32.001Z</time></trkpt><trkpt lat="44.74641203450244" lon="8.983193488384424"><ele>337.0</ele><time>2026-03-28T15:02:33.001Z</time></trkpt><trkpt lat="44.74635534021858" lon="8.983103607352096"><ele>337.0</ele><time>2026-03-28T15:02:34.001Z</time></trkpt><trkpt lat="44.74630271800408" lon="8.983002659491563"><ele>337.0</ele><time>2026-03-28T15:02:35.001Z</time></trkpt><trkpt lat="44.746251075653376" lon="8.982879112730464"><ele>337.0</ele><time>2026-03-28T15:02:36.001Z</time></trkpt><trkpt lat="44.74620686713327" lon="8.982746820109146"><ele>337.0</ele><time>2026-03-28T15:02:37.001Z</time></trkpt><trkpt lat="44.7461716474849" lon="8.98261460528231"><ele>335.75</ele><time>2026-03-28T15:02:38.001Z</time></trkpt><trkpt lat="44.74613561288185" lon="8.982459371509732"><ele>334.5</ele><time>2026-03-28T15:02:39.001Z</time></trkpt><trkpt lat="44.746098440233375" lon="8.982289237160238"><ele>333.25</ele><time>2026-03-28T15:02:40.001Z</time></trkpt><trkpt lat="44.74605600679983" lon="8.982107925308835"><ele>332.0</ele><time>2026-03-28T15:02:41.001Z</time></trkpt><trkpt lat="44.746010127384636" lon="8.981919370326048"><ele>332.0</ele><time>2026-03-28T15:02:42.001Z</time></trkpt><trkpt lat="44.74595015794128" lon="8.981748226419704"><ele>332.0</ele><time>2026-03-28T15:02:43.001Z</time></trkpt><trkpt lat="44.74590772660683" lon="8.98157773583352"><ele>332.0</ele><time>2026-03-28T15:02:44.001Z</time></trkpt><trkpt lat="44.74586483659002" lon="8.981410111895721"><ele>332.0</ele><time>2026-03-28T15:02:45.001Z</time></trkpt><trkpt lat="44.7458198922025" lon="8.981234253432675"><ele>331.75</ele><time>2026-03-28T15:02:46.001Z</time></trkpt><trkpt lat="44.7457453128683" lon="8.981077753799937"><ele>331.5</ele><time>2026-03-28T15:02:47.001Z</time></trkpt><trkpt lat="44.745662644224716" lon="8.980928873039122"><ele>331.25</ele><time>2026-03-28T15:02:48.001Z</time></trkpt><trkpt lat="44.74556361632654" lon="8.980802914992214"><ele>331.0</ele><time>2026-03-28T15:02:49.001Z</time></trkpt><trkpt lat="44.74547949464164" lon="8.980666714501824"><ele>331.5</ele><time>2026-03-28T15:02:50.001Z</time></trkpt><trkpt lat="44.74540859304035" lon="8.980523647343672"><ele>332.0</ele><time>2026-03-28T15:02:51.001Z</time></trkpt><trkpt lat="44.74532184936671" lon="8.980387347015295"><ele>332.5</ele><time>2026-03-28T15:02:52.001Z</time></trkpt><trkpt lat="44.74522665404179" lon="8.980266701215779"><ele>333.0</ele><time>2026-03-28T15:02:53.001Z</time></trkpt><trkpt lat="44.7451434970917" lon="8.980135333452283"><ele>331.25</ele><time>2026-03-28T15:02:54.001Z</time></trkpt><trkpt lat="44.745059747041196" lon="8.97999558995885"><ele>329.5</ele><time>2026-03-28T15:02:55.001Z</time></trkpt><trkpt lat="44.74496867108564" lon="8.979849746131311"><ele>327.75</ele><time>2026-03-28T15:02:56.001Z</time></trkpt><trkpt lat="44.744867138783285" lon="8.97970358063056"><ele>326.0</ele><time>2026-03-28T15:02:57Z</time></trkpt><trkpt lat="44.744770442532555" lon="8.979541386633318"><ele>326.0</ele><time>2026-03-28T15:02:58Z</time></trkpt><trkpt lat="44.744675019536665" lon="8.97938835055862"><ele>326.0</ele><time>2026-03-28T15:02:59Z</time></trkpt><trkpt lat="44.744575182211754" lon="8.97923732512761"><ele>326.0</ele><time>2026-03-28T15:03:00Z</time></trkpt><trkpt lat="44.744469947782946" lon="8.97907874694384"><ele>326.0</ele><time>2026-03-28T15:03:01Z</time></trkpt><trkpt lat="44.74436182408408" lon="8.978912310173728"><ele>326.0</ele><time>2026-03-28T15:03:02Z</time></trkpt><trkpt lat="44.74425413591225" lon="8.978740080588729"><ele>326.0</ele><time>2026-03-28T15:03:03Z</time></trkpt><trkpt lat="44.74414530982144" lon="8.978567298860474"><ele>326.0</ele><time>2026-03-28T15:03:04Z</time></trkpt><trkpt lat="44.74404008620799" lon="8.978398682628054"><ele>328.6666666666667</ele><time>2026-03-28T15:03:05Z</time></trkpt><trkpt lat="44.74393234464538" lon="8.978221704610961"><ele>331.3333333333333</ele><time>2026-03-28T15:03:06Z</time></trkpt><trkpt lat="44.74382683135628" lon="8.978041457415767"><ele>334.0</ele><time>2026-03-28T15:03:07Z</time></trkpt><trkpt lat="44.743729811749006" lon="8.97785382259544"><ele>334.0</ele><time>2026-03-28T15:03:08Z</time></trkpt><trkpt lat="44.74364078953141" lon="8.9776613060066"><ele>334.0</ele><time>2026-03-28T15:03:09Z</time></trkpt><trkpt lat="44.74355045496131" lon="8.97746193088746"><ele>334.0</ele><time>2026-03-28T15:03:10Z</time></trkpt><trkpt lat="44.743463424963565" lon="8.977265444813684"><ele>330.66666666666663</ele><time>2026-03-28T15:03:11Z</time></trkpt><trkpt lat="44.74337875923675" lon="8.977072611747248"><ele>327.3333333333333</ele><time>2026-03-28T15:03:12Z</time></trkpt><trkpt lat="44.743298567386866" lon="8.976889897573106"><ele>324.0</ele><time>2026-03-28T15:03:13Z</time></trkpt><trkpt lat="44.74322343574995" lon="8.976718210200572"><ele>324.25</ele><time>2026-03-28T15:03:14Z</time></trkpt><trkpt lat="44.743151527648166" lon="8.97655660508839"><ele>324.5</ele><time>2026-03-28T15:03:15Z</time></trkpt><trkpt lat="44.74308543789237" lon="8.976402103810091"><ele>324.75</ele><time>2026-03-28T15:03:16Z</time></trkpt><trkpt lat="44.74302247017734" lon="8.976244327981146"><ele>325.0</ele><time>2026-03-28T15:03:17Z</time></trkpt><trkpt lat="44.74295523250809" lon="8.976081855953778"><ele>325.0</ele><time>2026-03-28T15:03:18Z</time></trkpt><trkpt lat="44.74288898334733" lon="8.975908560256737"><ele>325.0</ele><time>2026-03-28T15:03:19Z</time></trkpt><trkpt lat="44.74283426642175" lon="8.975719200121981"><ele>325.0</ele><time>2026-03-28T15:03:20Z</time></trkpt><trkpt lat="44.74278769087607" lon="8.975518923980493"><ele>325.0</ele><time>2026-03-28T15:03:21Z</time></trkpt><trkpt lat="44.74274186826947" lon="8.975311184856867"><ele>323.3333333333333</ele><time>2026-03-28T15:03:22Z</time></trkpt><trkpt lat="44.74269631820581" lon="8.975093801892093"><ele>321.6666666666667</ele><time>2026-03-28T15:03:23Z</time></trkpt><trkpt lat="44.74265362908797" lon="8.974869761649598"><ele>320.0</ele><time>2026-03-28T15:03:24Z</time></trkpt><trkpt lat="44.74260770024787" lon="8.974641722099959"><ele>319.33333333333337</ele><time>2026-03-28T15:03:25Z</time></trkpt><trkpt lat="44.74256129836403" lon="8.974407006580794"><ele>318.6666666666667</ele><time>2026-03-28T15:03:26Z</time></trkpt><trkpt lat="44.742515775851295" lon="8.974165613437656"><ele>318.0</ele><time>2026-03-28T15:03:27Z</time></trkpt><trkpt lat="44.74247201634434" lon="8.97392816992475"><ele>317.6666666666667</ele><time>2026-03-28T15:03:28Z</time></trkpt><trkpt lat="44.74243042724435" lon="8.973698650285558"><ele>317.33333333333337</ele><time>2026-03-28T15:03:29Z</time></trkpt><trkpt lat="44.742385490828" lon="8.973467217439527"><ele>317.0</ele><time>2026-03-28T15:03:30Z</time></trkpt><trkpt lat="44.742333929290574" lon="8.973234814711683"><ele>317.6666666666667</ele><time>2026-03-28T15:03:31Z</time></trkpt><trkpt lat="44.742268806813506" lon="8.973003973389906"><ele>318.3333333333333</ele><time>2026-03-28T15:03:32Z</time></trkpt><trkpt lat="44.74220150808787" lon="8.972772107285337"><ele>319.0</ele><time>2026-03-28T15:03:33Z</time></trkpt><trkpt lat="44.74208601616314" lon="8.972571225687311"><ele>319.0</ele><time>2026-03-28T15:03:34Z</time></trkpt><trkpt lat="44.7419787620022" lon="8.97236769554802"><ele>319.0</ele><time>2026-03-28T15:03:35Z</time></trkpt><trkpt lat="44.741866916405634" lon="8.972164241944535"><ele>319.0</ele><time>2026-03-28T15:03:36Z</time></trkpt><trkpt lat="44.74176411315091" lon="8.971971497321407"><ele>318.3333333333333</ele><time>2026-03-28T15:03:37Z</time></trkpt><trkpt lat="44.74166583073272" lon="8.971782258094182"><ele>317.6666666666667</ele><time>2026-03-28T15:03:38Z</time></trkpt><trkpt lat="44.741572549702155" lon="8.97159314215138"><ele>317.0</ele><time>2026-03-28T15:03:39Z</time></trkpt><trkpt lat="44.74148616682024" lon="8.971405537642038"><ele>317.0</ele><time>2026-03-28T15:03:40Z</time></trkpt><trkpt lat="44.74140246951053" lon="8.97121190311698"><ele>317.0</ele><time>2026-03-28T15:03:41Z</time></trkpt><trkpt lat="44.741318988931276" lon="8.971012764405375"><ele>317.0</ele><time>2026-03-28T15:03:42Z</time></trkpt><trkpt lat="44.74123678307385" lon="8.97082037732405"><ele>317.0</ele><time>2026-03-28T15:03:43Z</time></trkpt><trkpt lat="44.741155021463015" lon="8.97062106512524"><ele>317.0</ele><time>2026-03-28T15:03:44Z</time></trkpt><trkpt lat="44.74107484521874" lon="8.970421651713531"><ele>317.0</ele><time>2026-03-28T15:03:45Z</time></trkpt><trkpt lat="44.74099607719347" lon="8.970216491553435"><ele>314.6666666666667</ele><time>2026-03-28T15:03:46Z</time></trkpt><trkpt lat="44.74091539933893" lon="8.970014697844253"><ele>312.3333333333333</ele><time>2026-03-28T15:03:47Z</time></trkpt><trkpt lat="44.740832269707035" lon="8.96982523257932"><ele>310.0</ele><time>2026-03-28T15:03:48Z</time></trkpt><trkpt lat="44.74074356914376" lon="8.969636167127714"><ele>310.0</ele><time>2026-03-28T15:03:49Z</time></trkpt><trkpt lat="44.74065264191724" lon="8.969446284030663"><ele>310.0</ele><time>2026-03-28T15:03:50Z</time></trkpt><trkpt lat="44.740558741333764" lon="8.969254645471421"><ele>310.0</ele><time>2026-03-28T15:03:51Z</time></trkpt><trkpt lat="44.74046252783672" lon="8.969061747608755"><ele>310.3333333333333</ele><time>2026-03-28T15:03:52Z</time></trkpt><trkpt lat="44.7403674693622" lon="8.968872397897538"><ele>310.6666666666667</ele><time>2026-03-28T15:03:53Z</time></trkpt><trkpt lat="44.74027357802177" lon="8.968684880831967"><ele>311.0</ele><time>2026-03-28T15:03:54Z</time></trkpt><trkpt lat="44.74017801582257" lon="8.968496428755966"><ele>311.25</ele><time>2026-03-28T15:03:55Z</time></trkpt><trkpt lat="44.740088414729016" lon="8.968312861146451"><ele>311.5</ele><time>2026-03-28T15:03:56Z</time></trkpt><trkpt lat="44.74001009171945" lon="8.968139072320808"><ele>311.75</ele><time>2026-03-28T15:03:57Z</time></trkpt><trkpt lat="44.739939418981244" lon="8.967963904290517"><ele>312.0</ele><time>2026-03-28T15:03:58Z</time></trkpt><trkpt lat="44.73989101997467" lon="8.967776599554965"><ele>312.0</ele><time>2026-03-28T15:03:59Z</time></trkpt><trkpt lat="44.739860167876586" lon="8.967577692669515"><ele>312.0</ele><time>2026-03-28T15:04:00Z</time></trkpt><trkpt lat="44.73983812378127" lon="8.967370517975537"><ele>312.0</ele><time>2026-03-28T15:04:01Z</time></trkpt><trkpt lat="44.73980318846433" lon="8.967159230621252"><ele>312.0</ele><time>2026-03-28T15:04:02Z</time></trkpt><trkpt lat="44.739737182458086" lon="8.96695076843554"><ele>315.6666666666667</ele><time>2026-03-28T15:04:03Z</time></trkpt><trkpt lat="44.7396445929533" lon="8.966748809008843"><ele>319.33333333333337</ele><time>2026-03-28T15:04:04Z</time></trkpt><trkpt lat="44.739548859254874" lon="8.966539067518779"><ele>323.0</ele><time>2026-03-28T15:04:05Z</time></trkpt><trkpt lat="44.739451463386175" lon="8.966321268934777"><ele>320.33333333333337</ele><time>2026-03-28T15:04:06Z</time></trkpt><trkpt lat="44.739362771825945" lon="8.96608797159406"><ele>317.6666666666667</ele><time>2026-03-28T15:04:07.001Z</time></trkpt><trkpt lat="44.73924458732018" lon="8.96587227197103"><ele>315.0</ele><time>2026-03-28T15:04:08.001Z</time></trkpt><trkpt lat="44.73910050116586" lon="8.965696914160432"><ele>314.3333333333333</ele><time>2026-03-28T15:04:09.001Z</time></trkpt><trkpt lat="44.73896047646651" lon="8.965529519979171"><ele>313.66666666666663</ele><time>2026-03-28T15:04:10.001Z</time></trkpt><trkpt lat="44.73881257159419" lon="8.965365761025932"><ele>313.0</ele><time>2026-03-28T15:04:11.001Z</time></trkpt><trkpt lat="44.73866464201823" lon="8.965203600388545"><ele>313.3333333333333</ele><time>2026-03-28T15:04:12.001Z</time></trkpt><trkpt lat="44.73851389496786" lon="8.965036296760971"><ele>313.6666666666667</ele><time>2026-03-28T15:04:13.001Z</time></trkpt><trkpt lat="44.738363540152264" lon="8.96486677507088"><ele>314.0</ele><time>2026-03-28T15:04:14.001Z</time></trkpt><trkpt lat="44.73821772427167" lon="8.964693625703083"><ele>314.0</ele><time>2026-03-28T15:04:15.001Z</time></trkpt><trkpt lat="44.738078838359655" lon="8.964515880036174"><ele>314.0</ele><time>2026-03-28T15:04:16.001Z</time></trkpt><trkpt lat="44.73794329285654" lon="8.964336437337485"><ele>314.0</ele><time>2026-03-28T15:04:17.001Z</time></trkpt><trkpt lat="44.73780551233068" lon="8.964157844655045"><ele>313.0</ele><time>2026-03-28T15:04:18.001Z</time></trkpt><trkpt lat="44.737666385548415" lon="8.963979018673985"><ele>312.0</ele><time>2026-03-28T15:04:19.001Z</time></trkpt><trkpt lat="44.73752490559519" lon="8.9637998335861"><ele>311.0</ele><time>2026-03-28T15:04:20.001Z</time></trkpt><trkpt lat="44.73738155499513" lon="8.96361824387622"><ele>311.0</ele><time>2026-03-28T15:04:21.001Z</time></trkpt><trkpt lat="44.737240741863666" lon="8.963436833025561"><ele>311.0</ele><time>2026-03-28T15:04:22.001Z</time></trkpt><trkpt lat="44.73711166877084" lon="8.963267478044255"><ele>311.0</ele><time>2026-03-28T15:04:23.001Z</time></trkpt><trkpt lat="44.73699212687209" lon="8.963109442540626"><ele>309.5</ele><time>2026-03-28T15:04:24.001Z</time></trkpt><trkpt lat="44.73688063289401" lon="8.962961957201351"><ele>308.0</ele><time>2026-03-28T15:04:25.001Z</time></trkpt><trkpt lat="44.736775264501844" lon="8.962827809707012"><ele>306.5</ele><time>2026-03-28T15:04:26.001Z</time></trkpt><trkpt lat="44.73666376223307" lon="8.962717784966806"><ele>305.0</ele><time>2026-03-28T15:04:27.001Z</time></trkpt><trkpt lat="44.73654762175183" lon="8.962610590819867"><ele>305.0</ele><time>2026-03-28T15:04:28.001Z</time></trkpt><trkpt lat="44.73639229555387" lon="8.962562345593323"><ele>305.0</ele><time>2026-03-28T15:04:29.001Z</time></trkpt><trkpt lat="44.73623023860233" lon="8.962588526754592"><ele>305.0</ele><time>2026-03-28T15:04:30.001Z</time></trkpt><trkpt lat="44.73606907800726" lon="8.962602031954333"><ele>304.33333333333337</ele><time>2026-03-28T15:04:31.001Z</time></trkpt><trkpt lat="44.73591157818416" lon="8.962619869439589"><ele>303.6666666666667</ele><time>2026-03-28T15:04:32.001Z</time></trkpt><trkpt lat="44.735766059831775" lon="8.962637079494835"><ele>303.0</ele><time>2026-03-28T15:04:33.001Z</time></trkpt><trkpt lat="44.735620337466635" lon="8.962650799475833"><ele>303.0</ele><time>2026-03-28T15:04:34.001Z</time></trkpt><trkpt lat="44.73547041776839" lon="8.962656297009206"><ele>303.0</ele><time>2026-03-28T15:04:35.001Z</time></trkpt><trkpt lat="44.73532943112114" lon="8.962648257107206"><ele>303.0</ele><time>2026-03-28T15:04:36.001Z</time></trkpt><trkpt lat="44.73518709717689" lon="8.962615406180586"><ele>303.0</ele><time>2026-03-28T15:04:37.001Z</time></trkpt><trkpt lat="44.73505599563672" lon="8.962553827308529"><ele>302.5</ele><time>2026-03-28T15:04:38.001Z</time></trkpt><trkpt lat="44.734942141353045" lon="8.962446923238934"><ele>302.0</ele><time>2026-03-28T15:04:39.001Z</time></trkpt><trkpt lat="44.73481620148551" lon="8.962350205313545"><ele>301.5</ele><time>2026-03-28T15:04:40.001Z</time></trkpt><trkpt lat="44.73468890793943" lon="8.962249901340021"><ele>301.0</ele><time>2026-03-28T15:04:41.001Z</time></trkpt><trkpt lat="44.73454760585109" lon="8.96216448258092"><ele>301.0</ele><time>2026-03-28T15:04:42.001Z</time></trkpt><trkpt lat="44.73441115724302" lon="8.962054487203964"><ele>301.0</ele><time>2026-03-28T15:04:43.001Z</time></trkpt><trkpt lat="44.73427252472302" lon="8.961939775398161"><ele>301.0</ele><time>2026-03-28T15:04:44.001Z</time></trkpt><trkpt lat="44.73414605324912" lon="8.961832118947406"><ele>302.5</ele><time>2026-03-28T15:04:45.001Z</time></trkpt><trkpt lat="44.734029274725735" lon="8.961740483901057"><ele>304.0</ele><time>2026-03-28T15:04:46.001Z</time></trkpt><trkpt lat="44.73392057003593" lon="8.961641737937407"><ele>305.5</ele><time>2026-03-28T15:04:47.001Z</time></trkpt><trkpt lat="44.73379624940081" lon="8.961598139545325"><ele>307.0</ele><time>2026-03-28T15:04:48.001Z</time></trkpt><trkpt lat="44.733673240727555" lon="8.961566273253602"><ele>307.4</ele><time>2026-03-28T15:04:49.001Z</time></trkpt><trkpt lat="44.73355060066671" lon="8.961566977560116"><ele>307.79999999999995</ele><time>2026-03-28T15:04:50.001Z</time></trkpt><trkpt lat="44.73344916559683" lon="8.961575636905826"><ele>308.2</ele><time>2026-03-28T15:04:51.001Z</time></trkpt><trkpt lat="44.733366254425306" lon="8.961580470488546"><ele>308.59999999999997</ele><time>2026-03-28T15:04:52.001Z</time></trkpt><trkpt lat="44.733272092866194" lon="8.961592334690279"><ele>309.0</ele><time>2026-03-28T15:04:54.001Z</time></trkpt><trkpt lat="44.73320762730966" lon="8.961594335750672"><ele>309.0</ele><time>2026-03-28T15:04:57.001Z</time></trkpt><trkpt lat="44.73311341826433" lon="8.961672432533417"><ele>309.0</ele><time>2026-03-28T15:05:00.001Z</time></trkpt><trkpt lat="44.73310983388218" lon="8.961788385391541"><ele>309.0</ele><time>2026-03-28T15:05:01.001Z</time></trkpt><trkpt lat="44.733116599843406" lon="8.961921687070863"><ele>309.0</ele><time>2026-03-28T15:05:02.001Z</time></trkpt><trkpt lat="44.733113382919136" lon="8.962048105289027"><ele>309.0</ele><time>2026-03-28T15:05:03Z</time></trkpt><trkpt lat="44.73310565041888" lon="8.962175626680002"><ele>309.25</ele><time>2026-03-28T15:05:04Z</time></trkpt><trkpt lat="44.73309319056529" lon="8.962328772552835"><ele>309.5</ele><time>2026-03-28T15:05:05Z</time></trkpt><trkpt lat="44.733078822065075" lon="8.96251831661742"><ele>309.75</ele><time>2026-03-28T15:05:06Z</time></trkpt><trkpt lat="44.73306087701361" lon="8.962710786234373"><ele>310.0</ele><time>2026-03-28T15:05:07Z</time></trkpt><trkpt lat="44.73303211930229" lon="8.962926355845282"><ele>311.3333333333333</ele><time>2026-03-28T15:05:08Z</time></trkpt><trkpt lat="44.7329939223045" lon="8.963158700398353"><ele>312.6666666666667</ele><time>2026-03-28T15:05:09Z</time></trkpt><trkpt lat="44.73294726002091" lon="8.963414827362357"><ele>314.0</ele><time>2026-03-28T15:05:10Z</time></trkpt><trkpt lat="44.73289571362076" lon="8.963682851025533"><ele>314.0</ele><time>2026-03-28T15:05:11Z</time></trkpt><trkpt lat="44.73283311697311" lon="8.963946454551689"><ele>314.0</ele><time>2026-03-28T15:05:12Z</time></trkpt><trkpt lat="44.732758190426395" lon="8.964188027609582"><ele>314.0</ele><time>2026-03-28T15:05:13Z</time></trkpt><trkpt lat="44.73267696728912" lon="8.964421589245513"><ele>314.0</ele><time>2026-03-28T15:05:14Z</time></trkpt><trkpt lat="44.73259100384716" lon="8.96465365130259"><ele>314.0</ele><time>2026-03-28T15:05:15Z</time></trkpt><trkpt lat="44.732503916185756" lon="8.964882402427861"><ele>314.0</ele><time>2026-03-28T15:05:16Z</time></trkpt><trkpt lat="44.7324099630782" lon="8.96510015492442"><ele>314.0</ele><time>2026-03-28T15:05:17Z</time></trkpt><trkpt lat="44.73231333427627" lon="8.965292094000112"><ele>314.0</ele><time>2026-03-28T15:05:18Z</time></trkpt><trkpt lat="44.732212590913036" lon="8.965489774605642"><ele>314.0</ele><time>2026-03-28T15:05:19Z</time></trkpt><trkpt lat="44.732106093976945" lon="8.965681863934044"><ele>314.6666666666667</ele><time>2026-03-28T15:05:20Z</time></trkpt><trkpt lat="44.731993548641626" lon="8.965866894400436"><ele>315.3333333333333</ele><time>2026-03-28T15:05:21Z</time></trkpt><trkpt lat="44.731880119893404" lon="8.96604516453258"><ele>316.0</ele><time>2026-03-28T15:05:22Z</time></trkpt><trkpt lat="44.73176615031182" lon="8.966220286135513"><ele>316.0</ele><time>2026-03-28T15:05:23Z</time></trkpt><trkpt lat="44.731652738734084" lon="8.966396511211864"><ele>316.0</ele><time>2026-03-28T15:05:24Z</time></trkpt><trkpt lat="44.73154186883869" lon="8.96657026349163"><ele>316.0</ele><time>2026-03-28T15:05:25Z</time></trkpt><trkpt lat="44.73143238408788" lon="8.966742800755323"><ele>316.0</ele><time>2026-03-28T15:05:26Z</time></trkpt><trkpt lat="44.73132347150235" lon="8.96691602769492"><ele>316.0</ele><time>2026-03-28T15:05:27Z</time></trkpt><trkpt lat="44.731219314419896" lon="8.967096536161755"><ele>316.0</ele><time>2026-03-28T15:05:28Z</time></trkpt><trkpt lat="44.731121172030505" lon="8.967289392562094"><ele>316.3333333333333</ele><time>2026-03-28T15:05:29Z</time></trkpt><trkpt lat="44.731039871156064" lon="8.967482388879928"><ele>316.6666666666667</ele><time>2026-03-28T15:05:30Z</time></trkpt><trkpt lat="44.73096847167334" lon="8.967674162966011"><ele>317.0</ele><time>2026-03-28T15:05:31Z</time></trkpt><trkpt lat="44.730900628835904" lon="8.967870954654698"><ele>317.0</ele><time>2026-03-28T15:05:32Z</time></trkpt><trkpt lat="44.7308413983789" lon="8.968051177614015"><ele>317.0</ele><time>2026-03-28T15:05:33Z</time></trkpt><trkpt lat="44.73078339044952" lon="8.968225748911053"><ele>317.0</ele><time>2026-03-28T15:05:34Z</time></trkpt><trkpt lat="44.730732000187395" lon="8.968380479794874"><ele>317.0</ele><time>2026-03-28T15:05:35Z</time></trkpt><trkpt lat="44.730686788959474" lon="8.968509237721388"><ele>317.8</ele><time>2026-03-28T15:05:36Z</time></trkpt><trkpt lat="44.73063487391461" lon="8.968624476451378"><ele>318.6</ele><time>2026-03-28T15:05:37Z</time></trkpt><trkpt lat="44.73056434163553" lon="8.96871465624111"><ele>319.40000000000003</ele><time>2026-03-28T15:05:38Z</time></trkpt><trkpt lat="44.730467850419544" lon="8.968782327686165"><ele>320.2</ele><time>2026-03-28T15:05:39Z</time></trkpt><trkpt lat="44.73036071759578" lon="8.968812868208017"><ele>321.0</ele><time>2026-03-28T15:05:40Z</time></trkpt><trkpt lat="44.73025529630127" lon="8.968810822472648"><ele>320.8</ele><time>2026-03-28T15:05:41Z</time></trkpt><trkpt lat="44.73014773552631" lon="8.968804994648954"><ele>320.6</ele><time>2026-03-28T15:05:42Z</time></trkpt><trkpt lat="44.730030742639855" lon="8.968810101436405"><ele>320.4</ele><time>2026-03-28T15:05:43Z</time></trkpt><trkpt lat="44.72991652163687" lon="8.968816260239493"><ele>320.2</ele><time>2026-03-28T15:05:44Z</time></trkpt><trkpt lat="44.72981115066843" lon="8.968813754451473"><ele>320.0</ele><time>2026-03-28T15:05:45Z</time></trkpt><trkpt lat="44.729709895761836" lon="8.968815005197728"><ele>320.0</ele><time>2026-03-28T15:05:46Z</time></trkpt><trkpt lat="44.729612434941096" lon="8.968828912901364"><ele>320.0</ele><time>2026-03-28T15:05:47Z</time></trkpt><trkpt lat="44.72951689244034" lon="8.968868483464602"><ele>320.0</ele><time>2026-03-28T15:05:48Z</time></trkpt><trkpt lat="44.729431942567096" lon="8.968935087646567"><ele>320.0</ele><time>2026-03-28T15:05:49Z</time></trkpt><trkpt lat="44.729363630987784" lon="8.969044828895038"><ele>320.0</ele><time>2026-03-28T15:05:50Z</time></trkpt><trkpt lat="44.72930704837557" lon="8.969169752706682"><ele>319.6666666666667</ele><time>2026-03-28T15:05:51Z</time></trkpt><trkpt lat="44.72925952251803" lon="8.969288505332683"><ele>319.33333333333337</ele><time>2026-03-28T15:05:52Z</time></trkpt><trkpt lat="44.72921355105085" lon="8.96939471697901"><ele>319.0</ele><time>2026-03-28T15:05:53Z</time></trkpt><trkpt lat="44.72917458455574" lon="8.969491832256573"><ele>318.6666666666667</ele><time>2026-03-28T15:05:54Z</time></trkpt><trkpt lat="44.72913695447067" lon="8.969585702755687"><ele>318.3333333333333</ele><time>2026-03-28T15:05:55Z</time></trkpt><trkpt lat="44.72909594716352" lon="8.969685373419967"><ele>318.0</ele><time>2026-03-28T15:05:56Z</time></trkpt><trkpt lat="44.72904671127219" lon="8.969797160042008"><ele>318.0</ele><time>2026-03-28T15:05:57Z</time></trkpt><trkpt lat="44.72900188398929" lon="8.969905879424456"><ele>318.0</ele><time>2026-03-28T15:05:58Z</time></trkpt><trkpt lat="44.72895195313881" lon="8.970024028705033"><ele>318.0</ele><time>2026-03-28T15:05:59Z</time></trkpt><trkpt lat="44.728899012802415" lon="8.970146547662715"><ele>318.0</ele><time>2026-03-28T15:06:00Z</time></trkpt><trkpt lat="44.72884102633867" lon="8.970272078694759"><ele>318.0</ele><time>2026-03-28T15:06:01Z</time></trkpt><trkpt lat="44.72878200176693" lon="8.970390420288352"><ele>318.25</ele><time>2026-03-28T15:06:02Z</time></trkpt><trkpt lat="44.72872367961958" lon="8.970510776771794"><ele>318.5</ele><time>2026-03-28T15:06:03Z</time></trkpt><trkpt lat="44.72866402035771" lon="8.97064459947582"><ele>318.75</ele><time>2026-03-28T15:06:04Z</time></trkpt><trkpt lat="44.72860573227585" lon="8.970787814710915"><ele>319.0</ele><time>2026-03-28T15:06:05Z</time></trkpt><trkpt lat="44.72855062934557" lon="8.970935109879404"><ele>316.8</ele><time>2026-03-28T15:06:06Z</time></trkpt><trkpt lat="44.72850594601528" lon="8.971068798009162"><ele>314.59999999999997</ele><time>2026-03-28T15:06:07Z</time></trkpt><trkpt lat="44.72847101728208" lon="8.971201419104425"><ele>312.4</ele><time>2026-03-28T15:06:08Z</time></trkpt><trkpt lat="44.728484526132526" lon="8.971344689373153"><ele>310.2</ele><time>2026-03-28T15:06:09Z</time></trkpt><trkpt lat="44.728505864141844" lon="8.97148762895905"><ele>308.0</ele><time>2026-03-28T15:06:10Z</time></trkpt><trkpt lat="44.728552651425694" lon="8.971644689597055"><ele>310.75</ele><time>2026-03-28T15:06:11Z</time></trkpt><trkpt lat="44.72859815118158" lon="8.971807008662944"><ele>313.5</ele><time>2026-03-28T15:06:12Z</time></trkpt><trkpt lat="44.728625425315975" lon="8.971965613603844"><ele>316.25</ele><time>2026-03-28T15:06:13Z</time></trkpt><trkpt lat="44.72863775349839" lon="8.972120015723863"><ele>319.0</ele><time>2026-03-28T15:06:14Z</time></trkpt><trkpt lat="44.728641907738094" lon="8.972284218645129"><ele>319.0</ele><time>2026-03-28T15:06:15Z</time></trkpt><trkpt lat="44.72866082110537" lon="8.97245968577147"><ele>319.0</ele><time>2026-03-28T15:06:16Z</time></trkpt><trkpt lat="44.72867482307992" lon="8.97264090210664"><ele>319.0</ele><time>2026-03-28T15:06:17Z</time></trkpt><trkpt lat="44.72871857610066" lon="8.97279389218499"><ele>319.0</ele><time>2026-03-28T15:06:18.001Z</time></trkpt><trkpt lat="44.72873823587165" lon="8.972952076267488"><ele>316.59999999999997</ele><time>2026-03-28T15:06:19.001Z</time></trkpt><trkpt lat="44.72879939192881" lon="8.973081595212186"><ele>314.2</ele><time>2026-03-28T15:06:20.001Z</time></trkpt><trkpt lat="44.7289007704205" lon="8.973143827961827"><ele>311.79999999999995</ele><time>2026-03-28T15:06:21.001Z</time></trkpt><trkpt lat="44.728994646161794" lon="8.97318117727738"><ele>309.4</ele><time>2026-03-28T15:06:22.001Z</time></trkpt><trkpt lat="44.72908174265401" lon="8.973222942717175"><ele>307.0</ele><time>2026-03-28T15:06:23.001Z</time></trkpt><trkpt lat="44.72916331992385" lon="8.973307947343546"><ele>307.5</ele><time>2026-03-28T15:06:24.001Z</time></trkpt><trkpt lat="44.72921501571115" lon="8.973449493830277"><ele>308.0</ele><time>2026-03-28T15:06:25.001Z</time></trkpt><trkpt lat="44.729226206724135" lon="8.973626060771942"><ele>308.5</ele><time>2026-03-28T15:06:26.001Z</time></trkpt><trkpt lat="44.72921240223321" lon="8.973823303667888"><ele>309.0</ele><time>2026-03-28T15:06:27.001Z</time></trkpt><trkpt lat="44.72917715927921" lon="8.974035014624192"><ele>309.3333333333333</ele><time>2026-03-28T15:06:28.001Z</time></trkpt><trkpt lat="44.729104543814266" lon="8.974233823865694"><ele>309.66666666666663</ele><time>2026-03-28T15:06:29.001Z</time></trkpt><trkpt lat="44.72904463649444" lon="8.974427977760975"><ele>310.0</ele><time>2026-03-28T15:06:30.001Z</time></trkpt><trkpt lat="44.72898277105806" lon="8.974613475676158"><ele>310.0</ele><time>2026-03-28T15:06:31.001Z</time></trkpt><trkpt lat="44.728878458944365" lon="8.974777554874432"><ele>310.0</ele><time>2026-03-28T15:06:32.001Z</time></trkpt><trkpt lat="44.72876658388004" lon="8.974963844062831"><ele>310.0</ele><time>2026-03-28T15:06:33.001Z</time></trkpt><trkpt lat="44.72866092224738" lon="8.975174801490875"><ele>310.66666666666663</ele><time>2026-03-28T15:06:34.001Z</time></trkpt><trkpt lat="44.72853303510507" lon="8.97534742162479"><ele>311.3333333333333</ele><time>2026-03-28T15:06:35.001Z</time></trkpt><trkpt lat="44.72843937485399" lon="8.975529039348471"><ele>312.0</ele><time>2026-03-28T15:06:36.001Z</time></trkpt><trkpt lat="44.728308447837854" lon="8.975653591805022"><ele>312.0</ele><time>2026-03-28T15:06:37.001Z</time></trkpt><trkpt lat="44.728165499037615" lon="8.975718796090606"><ele>312.0</ele><time>2026-03-28T15:06:38.001Z</time></trkpt><trkpt lat="44.728018935197255" lon="8.975707437683846"><ele>312.0</ele><time>2026-03-28T15:06:39.001Z</time></trkpt><trkpt lat="44.7278774455754" lon="8.975647457410778"><ele>312.0</ele><time>2026-03-28T15:06:40.001Z</time></trkpt><trkpt lat="44.72774518142685" lon="8.97559309085225"><ele>311.25</ele><time>2026-03-28T15:06:41.001Z</time></trkpt><trkpt lat="44.727619075284856" lon="8.975608431579582"><ele>310.5</ele><time>2026-03-28T15:06:42.001Z</time></trkpt><trkpt lat="44.72750830821482" lon="8.975686753972786"><ele>309.75</ele><time>2026-03-28T15:06:43.001Z</time></trkpt><trkpt lat="44.72743880244928" lon="8.975823535704047"><ele>309.0</ele><time>2026-03-28T15:06:44.001Z</time></trkpt><trkpt lat="44.72739538328899" lon="8.975991642414082"><ele>311.0</ele><time>2026-03-28T15:06:45.001Z</time></trkpt><trkpt lat="44.727367172261275" lon="8.976196645516707"><ele>313.0</ele><time>2026-03-28T15:06:46.001Z</time></trkpt><trkpt lat="44.727328826382404" lon="8.97641220357527"><ele>315.0</ele><time>2026-03-28T15:06:47.001Z</time></trkpt><trkpt lat="44.7272808562015" lon="8.976637196303065"><ele>315.6666666666667</ele><time>2026-03-28T15:06:48.001Z</time></trkpt><trkpt lat="44.727241221844515" lon="8.976864458840177"><ele>316.33333333333337</ele><time>2026-03-28T15:06:49.001Z</time></trkpt><trkpt lat="44.72721955184486" lon="8.977100484580719"><ele>317.0</ele><time>2026-03-28T15:06:50.001Z</time></trkpt><trkpt lat="44.727263698344785" lon="8.977352592023411"><ele>317.0</ele><time>2026-03-28T15:06:51.001Z</time></trkpt><trkpt lat="44.72730819187978" lon="8.977616943257996"><ele>317.0</ele><time>2026-03-28T15:06:52.001Z</time></trkpt><trkpt lat="44.727349587228225" lon="8.977886298289741"><ele>317.0</ele><time>2026-03-28T15:06:53.001Z</time></trkpt><trkpt lat="44.72739439819487" lon="8.97816328163707"><ele>317.33333333333337</ele><time>2026-03-28T15:06:54.001Z</time></trkpt><trkpt lat="44.72743695411543" lon="8.978446922027542"><ele>317.6666666666667</ele><time>2026-03-28T15:06:55.001Z</time></trkpt><trkpt lat="44.727474675525556" lon="8.978711799083827"><ele>318.0</ele><time>2026-03-28T15:06:56.001Z</time></trkpt><trkpt lat="44.72751357434105" lon="8.97897697823423"><ele>319.0</ele><time>2026-03-28T15:06:57.001Z</time></trkpt><trkpt lat="44.727555796930915" lon="8.979239159924939"><ele>320.0</ele><time>2026-03-28T15:06:58.001Z</time></trkpt><trkpt lat="44.72758760878808" lon="8.979480858550168"><ele>321.0</ele><time>2026-03-28T15:06:59.001Z</time></trkpt><trkpt lat="44.72759385501826" lon="8.979710465861228"><ele>321.0</ele><time>2026-03-28T15:07:00.001Z</time></trkpt><trkpt lat="44.727538829615874" lon="8.979925974727973"><ele>321.0</ele><time>2026-03-28T15:07:01.001Z</time></trkpt><trkpt lat="44.72745790818479" lon="8.980127711904355"><ele>321.0</ele><time>2026-03-28T15:07:02.001Z</time></trkpt><trkpt lat="44.727354472192786" lon="8.980342990550314"><ele>323.0</ele><time>2026-03-28T15:07:03.001Z</time></trkpt><trkpt lat="44.72725864576884" lon="8.98058234422033"><ele>325.0</ele><time>2026-03-28T15:07:04.001Z</time></trkpt><trkpt lat="44.72714498714258" lon="8.980812200440067"><ele>327.0</ele><time>2026-03-28T15:07:05.001Z</time></trkpt><trkpt lat="44.72703787914095" lon="8.981046681561509"><ele>326.0</ele><time>2026-03-28T15:07:06.001Z</time></trkpt><trkpt lat="44.726927016982735" lon="8.981272300374178"><ele>325.0</ele><time>2026-03-28T15:07:07.001Z</time></trkpt><trkpt lat="44.72679680271594" lon="8.981476554621665"><ele>324.0</ele><time>2026-03-28T15:07:08.001Z</time></trkpt><trkpt lat="44.72664895065703" lon="8.981639926361341"><ele>329.6666666666667</ele><time>2026-03-28T15:07:09Z</time></trkpt><trkpt lat="44.726485351696304" lon="8.98176389585813"><ele>335.33333333333337</ele><time>2026-03-28T15:07:10Z</time></trkpt><trkpt lat="44.726318076390804" lon="8.98188595028268"><ele>341.0</ele><time>2026-03-28T15:07:11Z</time></trkpt><trkpt lat="44.726160204356525" lon="8.982034501016818"><ele>339.6666666666667</ele><time>2026-03-28T15:07:12Z</time></trkpt><trkpt lat="44.72602350669484" lon="8.982222711759356"><ele>338.3333333333333</ele><time>2026-03-28T15:07:13Z</time></trkpt><trkpt lat="44.72590810614185" lon="8.982442485678193"><ele>337.0</ele><time>2026-03-28T15:07:14Z</time></trkpt><trkpt lat="44.725794832728454" lon="8.98266853376253"><ele>337.0</ele><time>2026-03-28T15:07:15Z</time></trkpt><trkpt lat="44.72567706651088" lon="8.98290028922989"><ele>337.0</ele><time>2026-03-28T15:07:16Z</time></trkpt><trkpt lat="44.72555811338774" lon="8.98313099293662"><ele>337.0</ele><time>2026-03-28T15:07:17Z</time></trkpt><trkpt lat="44.72544486767752" lon="8.983363487074405"><ele>335.3333333333333</ele><time>2026-03-28T15:07:18Z</time></trkpt><trkpt lat="44.72534303645357" lon="8.983599860084183"><ele>333.6666666666667</ele><time>2026-03-28T15:07:19Z</time></trkpt><trkpt lat="44.725244032414196" lon="8.983845326576732"><ele>332.0</ele><time>2026-03-28T15:07:20Z</time></trkpt><trkpt lat="44.72514499811617" lon="8.9841007565676"><ele>336.0</ele><time>2026-03-28T15:07:21Z</time></trkpt><trkpt lat="44.72505591494506" lon="8.984370461322984"><ele>340.0</ele><time>2026-03-28T15:07:22Z</time></trkpt><trkpt lat="44.7249713582051" lon="8.984650310825943"><ele>344.0</ele><time>2026-03-28T15:07:23Z</time></trkpt><trkpt lat="44.72489037420498" lon="8.984938290904712"><ele>349.0</ele><time>2026-03-28T15:07:24Z</time></trkpt><trkpt lat="44.72481670299662" lon="8.98523249279501"><ele>354.0</ele><time>2026-03-28T15:07:25Z</time></trkpt><trkpt lat="44.724746529909304" lon="8.98551672643817"><ele>359.0</ele><time>2026-03-28T15:07:26Z</time></trkpt><trkpt lat="44.72468167857895" lon="8.985781281121476"><ele>365.0</ele><time>2026-03-28T15:07:27Z</time></trkpt><trkpt lat="44.72462214746501" lon="8.986011658198558"><ele>371.0</ele><time>2026-03-28T15:07:28Z</time></trkpt><trkpt lat="44.72455052066783" lon="8.986212135799128"><ele>377.0</ele><time>2026-03-28T15:07:29Z</time></trkpt><trkpt lat="44.72443846297634" lon="8.98635979858835"><ele>365.33333333333337</ele><time>2026-03-28T15:07:30Z</time></trkpt><trkpt lat="44.72432160180685" lon="8.98649607603911"><ele>353.6666666666667</ele><time>2026-03-28T15:07:31Z</time></trkpt><trkpt lat="44.72418052609922" lon="8.986575595813115"><ele>342.0</ele><time>2026-03-28T15:07:32Z</time></trkpt><trkpt lat="44.72403599705701" lon="8.986662504715547"><ele>346.6666666666667</ele><time>2026-03-28T15:07:33Z</time></trkpt><trkpt lat="44.72392660171163" lon="8.98685316804716"><ele>351.33333333333337</ele><time>2026-03-28T15:07:34Z</time></trkpt><trkpt lat="44.72383859886015" lon="8.987077883645735"><ele>356.0</ele><time>2026-03-28T15:07:35Z</time></trkpt><trkpt lat="44.72377755279531" lon="8.987338616787277"><ele>360.6666666666667</ele><time>2026-03-28T15:07:36Z</time></trkpt><trkpt lat="44.72372543281131" lon="8.987614913675984"><ele>365.3333333333333</ele><time>2026-03-28T15:07:37Z</time></trkpt><trkpt lat="44.72366680834884" lon="8.987882965830856"><ele>370.0</ele><time>2026-03-28T15:07:38Z</time></trkpt><trkpt lat="44.72360808547769" lon="8.988148230556584"><ele>360.3333333333333</ele><time>2026-03-28T15:07:39Z</time></trkpt><trkpt lat="44.72354796851445" lon="8.98842758011465"><ele>350.6666666666667</ele><time>2026-03-28T15:07:40Z</time></trkpt><trkpt lat="44.723483094510165" lon="8.988715682311389"><ele>341.0</ele><time>2026-03-28T15:07:41Z</time></trkpt><trkpt lat="44.723411824195544" lon="8.989018647746622"><ele>343.0</ele><time>2026-03-28T15:07:42Z</time></trkpt><trkpt lat="44.72334246965962" lon="8.98933968718309"><ele>345.0</ele><time>2026-03-28T15:07:43Z</time></trkpt><trkpt lat="44.72328641212515" lon="8.98966611017866"><ele>345.0</ele><time>2026-03-28T15:07:44Z</time></trkpt><trkpt lat="44.72322723480812" lon="8.989968558174304"><ele>345.0</ele><time>2026-03-28T15:07:45Z</time></trkpt><trkpt lat="44.72320840464136" lon="8.990260110900074"><ele>345.0</ele><time>2026-03-28T15:07:46Z</time></trkpt><trkpt lat="44.72315647163769" lon="8.990523504269428"><ele>347.0</ele><time>2026-03-28T15:07:47Z</time></trkpt><trkpt lat="44.72308453572427" lon="8.990757909376745"><ele>349.0</ele><time>2026-03-28T15:07:48Z</time></trkpt><trkpt lat="44.7229887840492" lon="8.990962357123557"><ele>351.0</ele><time>2026-03-28T15:07:49Z</time></trkpt><trkpt lat="44.72288656034169" lon="8.991158732174295"><ele>356.6666666666667</ele><time>2026-03-28T15:07:50Z</time></trkpt><trkpt lat="44.72281152755619" lon="8.991379041671104"><ele>362.33333333333337</ele><time>2026-03-28T15:07:51Z</time></trkpt><trkpt lat="44.72277055657666" lon="8.991626218098245"><ele>368.0</ele><time>2026-03-28T15:07:52Z</time></trkpt><trkpt lat="44.72274878569094" lon="8.99185814092878"><ele>368.25</ele><time>2026-03-28T15:07:53Z</time></trkpt><trkpt lat="44.72273400715255" lon="8.992073230908296"><ele>368.5</ele><time>2026-03-28T15:07:54Z</time></trkpt><trkpt lat="44.722747527593356" lon="8.992281088845951"><ele>368.75</ele><time>2026-03-28T15:07:55Z</time></trkpt><trkpt lat="44.72279873640155" lon="8.992464756271806"><ele>369.0</ele><time>2026-03-28T15:07:56Z</time></trkpt><trkpt lat="44.72287654114415" lon="8.99263948000537"><ele>364.6666666666667</ele><time>2026-03-28T15:07:57Z</time></trkpt><trkpt lat="44.72298696432855" lon="8.992806782039859"><ele>360.33333333333337</ele><time>2026-03-28T15:07:58Z</time></trkpt><trkpt lat="44.72310713613223" lon="8.99297990337475"><ele>356.0</ele><time>2026-03-28T15:07:59Z</time></trkpt><trkpt lat="44.72320914329406" lon="8.99316753607723"><ele>354.8</ele><time>2026-03-28T15:08:00Z</time></trkpt><trkpt lat="44.723287308295674" lon="8.993341858088927"><ele>353.6</ele><time>2026-03-28T15:08:01Z</time></trkpt><trkpt lat="44.72334435787972" lon="8.993477455499187"><ele>352.4</ele><time>2026-03-28T15:08:02Z</time></trkpt><trkpt lat="44.72338296614045" lon="8.993605917793687"><ele>351.2</ele><time>2026-03-28T15:08:03Z</time></trkpt><trkpt lat="44.72338458154842" lon="8.993728740880822"><ele>350.0</ele><time>2026-03-28T15:08:04Z</time></trkpt><trkpt lat="44.723340665219936" lon="8.993847283362891"><ele>350.0</ele><time>2026-03-28T15:08:05Z</time></trkpt><trkpt lat="44.723235460790654" lon="8.993909892505767"><ele>350.0</ele><time>2026-03-28T15:08:06Z</time></trkpt><trkpt lat="44.723130866803544" lon="8.994000602741343"><ele>350.0</ele><time>2026-03-28T15:08:07Z</time></trkpt><trkpt lat="44.72300500374726" lon="8.99408578938782"><ele>350.0</ele><time>2026-03-28T15:08:08Z</time></trkpt><trkpt lat="44.7228601251875" lon="8.994176945126426"><ele>353.0</ele><time>2026-03-28T15:08:09Z</time></trkpt><trkpt lat="44.72269332325185" lon="8.994258614236616"><ele>356.0</ele><time>2026-03-28T15:08:10Z</time></trkpt><trkpt lat="44.72252928964428" lon="8.99427987894837"><ele>359.0</ele><time>2026-03-28T15:08:11Z</time></trkpt><trkpt lat="44.722389471667036" lon="8.9943383247211"><ele>359.0</ele><time>2026-03-28T15:08:12Z</time></trkpt><trkpt lat="44.72224718935321" lon="8.994394196176886"><ele>359.0</ele><time>2026-03-28T15:08:13Z</time></trkpt><trkpt lat="44.722097828147554" lon="8.99450469986979"><ele>359.0</ele><time>2026-03-28T15:08:14Z</time></trkpt><trkpt lat="44.72195681476019" lon="8.994674552308835"><ele>360.33333333333337</ele><time>2026-03-28T15:08:15Z</time></trkpt><trkpt lat="44.72183651611369" lon="8.994845513499323"><ele>361.6666666666667</ele><time>2026-03-28T15:08:16Z</time></trkpt><trkpt lat="44.72173197192925" lon="8.99499463800721"><ele>363.0</ele><time>2026-03-28T15:08:17Z</time></trkpt><trkpt lat="44.72162253987525" lon="8.99513690978961"><ele>363.0</ele><time>2026-03-28T15:08:18Z</time></trkpt><trkpt lat="44.72150344236841" lon="8.995286321721089"><ele>363.0</ele><time>2026-03-28T15:08:19Z</time></trkpt><trkpt lat="44.72138628351036" lon="8.995440537216298"><ele>363.0</ele><time>2026-03-28T15:08:20Z</time></trkpt><trkpt lat="44.72126109914827" lon="8.995606456002346"><ele>363.0</ele><time>2026-03-28T15:08:21Z</time></trkpt><trkpt lat="44.721119576239474" lon="8.995786951012642"><ele>363.0</ele><time>2026-03-28T15:08:22.001Z</time></trkpt><trkpt lat="44.7209456655683" lon="8.995943490499778"><ele>363.0</ele><time>2026-03-28T15:08:23.001Z</time></trkpt><trkpt lat="44.72077778313225" lon="8.996132167628245"><ele>364.6666666666667</ele><time>2026-03-28T15:08:24.001Z</time></trkpt><trkpt lat="44.720592249281744" lon="8.996290668079125"><ele>366.33333333333337</ele><time>2026-03-28T15:08:25.001Z</time></trkpt><trkpt lat="44.720420794309625" lon="8.996438269280423"><ele>368.0</ele><time>2026-03-28T15:08:26.001Z</time></trkpt><trkpt lat="44.72026089335198" lon="8.996582535005908"><ele>364.0</ele><time>2026-03-28T15:08:27.001Z</time></trkpt><trkpt lat="44.72011085630949" lon="8.996718624403712"><ele>360.0</ele><time>2026-03-28T15:08:28.001Z</time></trkpt><trkpt lat="44.71996958589699" lon="8.996853763479374"><ele>356.0</ele><time>2026-03-28T15:08:29.001Z</time></trkpt><trkpt lat="44.71983559113955" lon="8.997020693248508"><ele>356.0</ele><time>2026-03-28T15:08:30.001Z</time></trkpt><trkpt lat="44.719721658568446" lon="8.997229298362846"><ele>356.0</ele><time>2026-03-28T15:08:31.001Z</time></trkpt><trkpt lat="44.71963270573675" lon="8.997476670760598"><ele>356.0</ele><time>2026-03-28T15:08:32.001Z</time></trkpt><trkpt lat="44.71956930876196" lon="8.997752538858379"><ele>359.33333333333337</ele><time>2026-03-28T15:08:33.001Z</time></trkpt><trkpt lat="44.71953962475695" lon="8.998047630217517"><ele>362.6666666666667</ele><time>2026-03-28T15:08:34.001Z</time></trkpt><trkpt lat="44.71953611689569" lon="8.998349482255243"><ele>366.0</ele><time>2026-03-28T15:08:35.001Z</time></trkpt><trkpt lat="44.71952968831512" lon="8.998645832348608"><ele>369.3333333333333</ele><time>2026-03-28T15:08:36.001Z</time></trkpt><trkpt lat="44.71951505396147" lon="8.998922939108711"><ele>372.66666666666663</ele><time>2026-03-28T15:08:37.001Z</time></trkpt><trkpt lat="44.719494091971164" lon="8.999186788065183"><ele>376.0</ele><time>2026-03-28T15:08:38.001Z</time></trkpt><trkpt lat="44.71945038543621" lon="8.999438648242366"><ele>364.0</ele><time>2026-03-28T15:08:39.001Z</time></trkpt><trkpt lat="44.71939073342693" lon="8.999673946535818"><ele>352.0</ele><time>2026-03-28T15:08:40.001Z</time></trkpt><trkpt lat="44.719345411618754" lon="8.999893971942457"><ele>340.0</ele><time>2026-03-28T15:08:41.001Z</time></trkpt><trkpt lat="44.719319539377366" lon="9.000125307186131"><ele>340.0</ele><time>2026-03-28T15:08:42.001Z</time></trkpt><trkpt lat="44.71932111060435" lon="9.000362603368009"><ele>340.0</ele><time>2026-03-28T15:08:43.001Z</time></trkpt><trkpt lat="44.71935921682831" lon="9.000596029545289"><ele>340.0</ele><time>2026-03-28T15:08:44.001Z</time></trkpt><trkpt lat="44.7194361708629" lon="9.000815237396175"><ele>348.0</ele><time>2026-03-28T15:08:45.001Z</time></trkpt><trkpt lat="44.71954660644881" lon="9.00102189521117"><ele>356.0</ele><time>2026-03-28T15:08:46.001Z</time></trkpt><trkpt lat="44.719673816742294" lon="9.001242641917603"><ele>364.0</ele><time>2026-03-28T15:08:47.001Z</time></trkpt><trkpt lat="44.719804615311595" lon="9.00147481467679"><ele>359.3333333333333</ele><time>2026-03-28T15:08:48.001Z</time></trkpt><trkpt lat="44.71993015856193" lon="9.001694921107353"><ele>354.6666666666667</ele><time>2026-03-28T15:08:49.001Z</time></trkpt><trkpt lat="44.7200426249959" lon="9.001898645112334"><ele>350.0</ele><time>2026-03-28T15:08:50.001Z</time></trkpt><trkpt lat="44.720144633989534" lon="9.002101005803338"><ele>350.0</ele><time>2026-03-28T15:08:51.001Z</time></trkpt><trkpt lat="44.720227981666724" lon="9.002321476387477"><ele>350.0</ele><time>2026-03-28T15:08:52.001Z</time></trkpt><trkpt lat="44.72024932821891" lon="9.00255914294936"><ele>350.0</ele><time>2026-03-28T15:08:53.001Z</time></trkpt><trkpt lat="44.72027438683522" lon="9.002782218195742"><ele>355.33333333333337</ele><time>2026-03-28T15:08:54.001Z</time></trkpt><trkpt lat="44.72029867006549" lon="9.003010188471764"><ele>360.6666666666667</ele><time>2026-03-28T15:08:55.001Z</time></trkpt><trkpt lat="44.72035210414169" lon="9.003221425565082"><ele>366.0</ele><time>2026-03-28T15:08:56.001Z</time></trkpt><trkpt lat="44.72040805599116" lon="9.00343362930215"><ele>366.0</ele><time>2026-03-28T15:08:57.001Z</time></trkpt><trkpt lat="44.720476922670606" lon="9.003624200758386"><ele>366.0</ele><time>2026-03-28T15:08:58.001Z</time></trkpt><trkpt lat="44.720536783163176" lon="9.003799959940267"><ele>366.0</ele><time>2026-03-28T15:08:59.001Z</time></trkpt><trkpt lat="44.72057639072608" lon="9.003972161912433"><ele>366.0</ele><time>2026-03-28T15:09:00.001Z</time></trkpt><trkpt lat="44.72057881790209" lon="9.00413841071229"><ele>361.0</ele><time>2026-03-28T15:09:01.001Z</time></trkpt><trkpt lat="44.72055334972792" lon="9.00429713860894"><ele>356.0</ele><time>2026-03-28T15:09:02.001Z</time></trkpt><trkpt lat="44.72052546403778" lon="9.004470037140882"><ele>351.0</ele><time>2026-03-28T15:09:03.001Z</time></trkpt><trkpt lat="44.72049506826037" lon="9.004665669273116"><ele>346.0</ele><time>2026-03-28T15:09:04.001Z</time></trkpt><trkpt lat="44.720467705255885" lon="9.004866495299208"><ele>349.0</ele><time>2026-03-28T15:09:05.001Z</time></trkpt><trkpt lat="44.72046068735701" lon="9.005077009954114"><ele>352.0</ele><time>2026-03-28T15:09:06.001Z</time></trkpt><trkpt lat="44.72048369991437" lon="9.005301041256585"><ele>355.0</ele><time>2026-03-28T15:09:07.001Z</time></trkpt><trkpt lat="44.72055344420176" lon="9.005501540536201"><ele>355.0</ele><time>2026-03-28T15:09:08.001Z</time></trkpt><trkpt lat="44.720608769313834" lon="9.005686095490752"><ele>355.0</ele><time>2026-03-28T15:09:09.001Z</time></trkpt><trkpt lat="44.7206661307875" lon="9.005874780992446"><ele>355.0</ele><time>2026-03-28T15:09:10.001Z</time></trkpt><trkpt lat="44.720698054870645" lon="9.006087461981295"><ele>355.0</ele><time>2026-03-28T15:09:11.001Z</time></trkpt><trkpt lat="44.720689327985944" lon="9.006307549598688"><ele>358.0</ele><time>2026-03-28T15:09:12.001Z</time></trkpt><trkpt lat="44.72064861935028" lon="9.006532947405503"><ele>361.0</ele><time>2026-03-28T15:09:13.001Z</time></trkpt><trkpt lat="44.720610190117064" lon="9.006774213950548"><ele>364.0</ele><time>2026-03-28T15:09:14.001Z</time></trkpt><trkpt lat="44.72061355932754" lon="9.007033062065007"><ele>364.0</ele><time>2026-03-28T15:09:15Z</time></trkpt><trkpt lat="44.72063399565601" lon="9.007282969128099"><ele>364.0</ele><time>2026-03-28T15:09:16Z</time></trkpt><trkpt lat="44.72062596996378" lon="9.007520830190574"><ele>364.0</ele><time>2026-03-28T15:09:17Z</time></trkpt><trkpt lat="44.72061989855521" lon="9.007745343838087"><ele>362.0</ele><time>2026-03-28T15:09:18Z</time></trkpt><trkpt lat="44.72065805663629" lon="9.007974465288768"><ele>360.0</ele><time>2026-03-28T15:09:19Z</time></trkpt><trkpt lat="44.72073243024119" lon="9.00820232538485"><ele>358.0</ele><time>2026-03-28T15:09:20Z</time></trkpt><trkpt lat="44.72081755795172" lon="9.008421924935776"><ele>355.3333333333333</ele><time>2026-03-28T15:09:21Z</time></trkpt><trkpt lat="44.72089612496256" lon="9.008651232626582"><ele>352.6666666666667</ele><time>2026-03-28T15:09:22Z</time></trkpt><trkpt lat="44.72095324364939" lon="9.008879489265363"><ele>350.0</ele><time>2026-03-28T15:09:23Z</time></trkpt><trkpt lat="44.720976348271925" lon="9.009107057971235"><ele>348.33333333333337</ele><time>2026-03-28T15:09:24Z</time></trkpt><trkpt lat="44.7210055703098" lon="9.009323910938834"><ele>346.6666666666667</ele><time>2026-03-28T15:09:25Z</time></trkpt><trkpt lat="44.72105072975972" lon="9.009527703874783"><ele>345.0</ele><time>2026-03-28T15:09:26Z</time></trkpt><trkpt lat="44.72088913436533" lon="9.009821428243823"><ele>347.6666666666667</ele><time>2026-03-28T15:09:27Z</time></trkpt><trkpt lat="44.720831146325615" lon="9.010055960210702"><ele>350.33333333333337</ele><time>2026-03-28T15:09:28Z</time></trkpt><trkpt lat="44.720742157206395" lon="9.010283683175917"><ele>353.0</ele><time>2026-03-28T15:09:29Z</time></trkpt><trkpt lat="44.72062734575015" lon="9.010502853976257"><ele>353.0</ele><time>2026-03-28T15:09:30Z</time></trkpt><trkpt lat="44.72050819986064" lon="9.01069498792898"><ele>353.0</ele><time>2026-03-28T15:09:31Z</time></trkpt><trkpt lat="44.72040279181888" lon="9.010837493174007"><ele>353.0</ele><time>2026-03-28T15:09:32Z</time></trkpt><trkpt lat="44.72028634196811" lon="9.01093818445807"><ele>355.33333333333337</ele><time>2026-03-28T15:09:33Z</time></trkpt><trkpt lat="44.720144033305644" lon="9.011001083292168"><ele>357.6666666666667</ele><time>2026-03-28T15:09:34Z</time></trkpt><trkpt lat="44.719992399038155" lon="9.011024542567712"><ele>360.0</ele><time>2026-03-28T15:09:35Z</time></trkpt><trkpt lat="44.71983573098191" lon="9.0110810372129"><ele>360.0</ele><time>2026-03-28T15:09:36Z</time></trkpt><trkpt lat="44.71968145992519" lon="9.011206351915007"><ele>360.0</ele><time>2026-03-28T15:09:37Z</time></trkpt><trkpt lat="44.7195399617416" lon="9.011384306299316"><ele>360.0</ele><time>2026-03-28T15:09:38Z</time></trkpt><trkpt lat="44.71939701807443" lon="9.01158780887691"><ele>360.6666666666667</ele><time>2026-03-28T15:09:39Z</time></trkpt><trkpt lat="44.71925625804426" lon="9.011780794157215"><ele>361.33333333333337</ele><time>2026-03-28T15:09:40Z</time></trkpt><trkpt lat="44.719127651113105" lon="9.011944017691334"><ele>362.0</ele><time>2026-03-28T15:09:41Z</time></trkpt><trkpt lat="44.718994753164495" lon="9.01207599613953"><ele>362.0</ele><time>2026-03-28T15:09:42Z</time></trkpt><trkpt lat="44.718843711273244" lon="9.012152730012755"><ele>362.0</ele><time>2026-03-28T15:09:43Z</time></trkpt><trkpt lat="44.718693838814424" lon="9.01219256641041"><ele>362.0</ele><time>2026-03-28T15:09:44Z</time></trkpt><trkpt lat="44.71856254419579" lon="9.01222536953633"><ele>362.0</ele><time>2026-03-28T15:09:45Z</time></trkpt><trkpt lat="44.71844889702083" lon="9.012315373651804"><ele>360.5</ele><time>2026-03-28T15:09:46Z</time></trkpt><trkpt lat="44.71836659819799" lon="9.012469654175433"><ele>359.0</ele><time>2026-03-28T15:09:47Z</time></trkpt><trkpt lat="44.71831934451295" lon="9.012661052791314"><ele>357.5</ele><time>2026-03-28T15:09:48Z</time></trkpt><trkpt lat="44.71828851123773" lon="9.01288476473408"><ele>356.0</ele><time>2026-03-28T15:09:49Z</time></trkpt><trkpt lat="44.718228526232146" lon="9.01310234900964"><ele>356.0</ele><time>2026-03-28T15:09:50Z</time></trkpt><trkpt lat="44.71821303273653" lon="9.013308510753388"><ele>356.0</ele><time>2026-03-28T15:09:51Z</time></trkpt><trkpt lat="44.718226500119144" lon="9.013521640467648"><ele>356.0</ele><time>2026-03-28T15:09:52Z</time></trkpt><trkpt lat="44.71828662882465" lon="9.013723193819436"><ele>360.0</ele><time>2026-03-28T15:09:53Z</time></trkpt><trkpt lat="44.71837737036652" lon="9.013907197021597"><ele>364.0</ele><time>2026-03-28T15:09:54Z</time></trkpt><trkpt lat="44.718465423682105" lon="9.014083069862394"><ele>368.0</ele><time>2026-03-28T15:09:55Z</time></trkpt><trkpt lat="44.71851543121723" lon="9.014280439486344"><ele>368.0</ele><time>2026-03-28T15:09:56Z</time></trkpt><trkpt lat="44.71850488616548" lon="9.01450089085308"><ele>368.0</ele><time>2026-03-28T15:09:57Z</time></trkpt><trkpt lat="44.71852241132108" lon="9.0147342175962"><ele>368.0</ele><time>2026-03-28T15:09:58Z</time></trkpt><trkpt lat="44.71852453264991" lon="9.014973986211944"><ele>367.33333333333337</ele><time>2026-03-28T15:09:59Z</time></trkpt><trkpt lat="44.71853245539369" lon="9.015210856940008"><ele>366.6666666666667</ele><time>2026-03-28T15:10:00Z</time></trkpt><trkpt lat="44.7185504457124" lon="9.015450308792952"><ele>366.0</ele><time>2026-03-28T15:10:01Z</time></trkpt><trkpt lat="44.71858058082088" lon="9.015689917992479"><ele>385.66666666666663</ele><time>2026-03-28T15:10:02Z</time></trkpt><trkpt lat="44.71860594319099" lon="9.015933214740286"><ele>405.3333333333333</ele><time>2026-03-28T15:10:03Z</time></trkpt><trkpt lat="44.71861540137224" lon="9.016185520269309"><ele>425.0</ele><time>2026-03-28T15:10:04Z</time></trkpt><trkpt lat="44.71860254728343" lon="9.016438199138523"><ele>424.0</ele><time>2026-03-28T15:10:05Z</time></trkpt><trkpt lat="44.71860412258951" lon="9.016673914696689"><ele>423.0</ele><time>2026-03-28T15:10:06Z</time></trkpt><trkpt lat="44.718616081190284" lon="9.016898167171911"><ele>422.0</ele><time>2026-03-28T15:10:07Z</time></trkpt><trkpt lat="44.718591772874774" lon="9.017122644110602"><ele>403.3333333333333</ele><time>2026-03-28T15:10:08Z</time></trkpt><trkpt lat="44.7185298967506" lon="9.017322309398779"><ele>384.66666666666663</ele><time>2026-03-28T15:10:09Z</time></trkpt><trkpt lat="44.71851360409929" lon="9.017529453890788"><ele>366.0</ele><time>2026-03-28T15:10:10Z</time></trkpt><trkpt lat="44.71848577822087" lon="9.017736706459687"><ele>366.0</ele><time>2026-03-28T15:10:11Z</time></trkpt><trkpt lat="44.718510103724874" lon="9.017967171143747"><ele>366.0</ele><time>2026-03-28T15:10:12Z</time></trkpt><trkpt lat="44.71858864104366" lon="9.0181789025445"><ele>366.0</ele><time>2026-03-28T15:10:13Z</time></trkpt><trkpt lat="44.718672368720654" lon="9.018393785431988"><ele>378.66666666666663</ele><time>2026-03-28T15:10:14Z</time></trkpt><trkpt lat="44.71876586628047" lon="9.018613738866653"><ele>391.3333333333333</ele><time>2026-03-28T15:10:15Z</time></trkpt><trkpt lat="44.71887520065355" lon="9.01883851502574"><ele>404.0</ele><time>2026-03-28T15:10:16Z</time></trkpt><trkpt lat="44.719012678292245" lon="9.019053253471888"><ele>409.0</ele><time>2026-03-28T15:10:17Z</time></trkpt><trkpt lat="44.719169110569986" lon="9.019259902728239"><ele>414.0</ele><time>2026-03-28T15:10:18Z</time></trkpt><trkpt lat="44.71933171961625" lon="9.019439124992484"><ele>419.0</ele><time>2026-03-28T15:10:19Z</time></trkpt><trkpt lat="44.71949889968815" lon="9.019597366830567"><ele>419.0</ele><time>2026-03-28T15:10:20Z</time></trkpt><trkpt lat="44.71968220737535" lon="9.019745980619664"><ele>419.0</ele><time>2026-03-28T15:10:21Z</time></trkpt><trkpt lat="44.71986643530634" lon="9.019899672442689"><ele>419.0</ele><time>2026-03-28T15:10:22Z</time></trkpt><trkpt lat="44.72003506654552" lon="9.020088077683114"><ele>420.66666666666663</ele><time>2026-03-28T15:10:23Z</time></trkpt><trkpt lat="44.720185222463705" lon="9.020313131544537"><ele>422.33333333333337</ele><time>2026-03-28T15:10:24Z</time></trkpt><trkpt lat="44.72032504829652" lon="9.020526225287426"><ele>424.0</ele><time>2026-03-28T15:10:25Z</time></trkpt><trkpt lat="44.72046239061156" lon="9.020714808482312"><ele>412.0</ele><time>2026-03-28T15:10:26Z</time></trkpt><trkpt lat="44.720605525458005" lon="9.020878121874611"><ele>400.0</ele><time>2026-03-28T15:10:27Z</time></trkpt><trkpt lat="44.720770743963925" lon="9.021011380158379"><ele>388.0</ele><time>2026-03-28T15:10:28Z</time></trkpt><trkpt lat="44.7209518870527" lon="9.021092467673428"><ele>400.6666666666667</ele><time>2026-03-28T15:10:29Z</time></trkpt><trkpt lat="44.72112485093723" lon="9.021161838563795"><ele>413.33333333333337</ele><time>2026-03-28T15:10:30Z</time></trkpt><trkpt lat="44.721253447885154" lon="9.021312846383646"><ele>426.0</ele><time>2026-03-28T15:10:31Z</time></trkpt><trkpt lat="44.72137615827948" lon="9.021457751971475"><ele>426.0</ele><time>2026-03-28T15:10:32Z</time></trkpt><trkpt lat="44.72150100074134" lon="9.021582903883218"><ele>426.0</ele><time>2026-03-28T15:10:33.001Z</time></trkpt><trkpt lat="44.72166216717101" lon="9.021631952015577"><ele>426.0</ele><time>2026-03-28T15:10:34.001Z</time></trkpt><trkpt lat="44.721821379097996" lon="9.021700109280907"><ele>424.33333333333337</ele><time>2026-03-28T15:10:35.001Z</time></trkpt><trkpt lat="44.72194280914288" lon="9.02185940845672"><ele>422.6666666666667</ele><time>2026-03-28T15:10:36.001Z</time></trkpt><trkpt lat="44.72207272152758" lon="9.022027548640672"><ele>421.0</ele><time>2026-03-28T15:10:37.001Z</time></trkpt><trkpt lat="44.72220081299353" lon="9.022216601401336"><ele>421.0</ele><time>2026-03-28T15:10:38.001Z</time></trkpt><trkpt lat="44.7223390636362" lon="9.022375506482053"><ele>421.0</ele><time>2026-03-28T15:10:39.001Z</time></trkpt><trkpt lat="44.722486272410144" lon="9.022493142836575"><ele>421.0</ele><time>2026-03-28T15:10:40.001Z</time></trkpt><trkpt lat="44.722642733337665" lon="9.022554724449677"><ele>421.0</ele><time>2026-03-28T15:10:41.001Z</time></trkpt><trkpt lat="44.72278011048296" lon="9.022651048505994"><ele>421.0</ele><time>2026-03-28T15:10:42.001Z</time></trkpt><trkpt lat="44.72289852511113" lon="9.022808200199798"><ele>421.0</ele><time>2026-03-28T15:10:43.001Z</time></trkpt><trkpt lat="44.72302346385795" lon="9.022992073035441"><ele>421.0</ele><time>2026-03-28T15:10:44.001Z</time></trkpt><trkpt lat="44.72315669872114" lon="9.02316695902996"><ele>421.0</ele><time>2026-03-28T15:10:45.001Z</time></trkpt><trkpt lat="44.72327017216659" lon="9.02332632729407"><ele>421.0</ele><time>2026-03-28T15:10:46.001Z</time></trkpt><trkpt lat="44.72336416232451" lon="9.023420642461327"><ele>418.6</ele><time>2026-03-28T15:10:47.001Z</time></trkpt><trkpt lat="44.72344127695573" lon="9.023462186273047"><ele>416.20000000000005</ele><time>2026-03-28T15:10:48.001Z</time></trkpt><trkpt lat="44.7235351714511" lon="9.023521163590857"><ele>413.79999999999995</ele><time>2026-03-28T15:10:50.001Z</time></trkpt><trkpt lat="44.72359990910048" lon="9.023554234148913"><ele>411.4</ele><time>2026-03-28T15:10:52.001Z</time></trkpt><trkpt lat="44.723679333983824" lon="9.023587694679174"><ele>409.0</ele><time>2026-03-28T15:11:51Z</time></trkpt><trkpt lat="44.72378387460107" lon="9.023651171271975"><ele>409.00000000000006</ele><time>2026-03-28T15:11:53Z</time></trkpt><trkpt lat="44.72386414831252" lon="9.023663057453408"><ele>409.0</ele><time>2026-03-28T15:11:54Z</time></trkpt><trkpt lat="44.72394365564739" lon="9.023710000765728"><ele>409.0</ele><time>2026-03-28T15:11:55Z</time></trkpt><trkpt lat="44.72402279570571" lon="9.023745550425925"><ele>409.0</ele><time>2026-03-28T15:11:56Z</time></trkpt><trkpt lat="44.72409821125972" lon="9.023772583765467"><ele>409.00000000000006</ele><time>2026-03-28T15:11:57Z</time></trkpt><trkpt lat="44.72417245027516" lon="9.023809609672128"><ele>409.0</ele><time>2026-03-28T15:11:58Z</time></trkpt><trkpt lat="44.7242448097027" lon="9.023879750566667"><ele>409.0</ele><time>2026-03-28T15:11:59Z</time></trkpt><trkpt lat="44.7242866504908" lon="9.024000677064446"><ele>409.0</ele><time>2026-03-28T15:12:00Z</time></trkpt><trkpt lat="44.724339832126326" lon="9.024127000393003"><ele>409.0</ele><time>2026-03-28T15:12:01Z</time></trkpt><trkpt lat="44.7244053965961" lon="9.02425258753233"><ele>409.0</ele><time>2026-03-28T15:12:02Z</time></trkpt><trkpt lat="44.72446117373651" lon="9.024392731224273"><ele>409.0</ele><time>2026-03-28T15:12:03Z</time></trkpt><trkpt lat="44.72452475747076" lon="9.02454809954407"><ele>407.25</ele><time>2026-03-28T15:12:04Z</time></trkpt><trkpt lat="44.72459581148088" lon="9.024724696093537"><ele>405.5</ele><time>2026-03-28T15:12:05Z</time></trkpt><trkpt lat="44.72467289291516" lon="9.024915097354915"><ele>403.75</ele><time>2026-03-28T15:12:06Z</time></trkpt><trkpt lat="44.724749712218596" lon="9.025093935335919"><ele>402.0</ele><time>2026-03-28T15:12:07Z</time></trkpt><trkpt lat="44.72483199842323" lon="9.025282242555932"><ele>396.33333333333337</ele><time>2026-03-28T15:12:08Z</time></trkpt><trkpt lat="44.724909766747764" lon="9.0254693697283"><ele>390.6666666666667</ele><time>2026-03-28T15:12:09Z</time></trkpt><trkpt lat="44.724996993910175" lon="9.025652918028847"><ele>385.0</ele><time>2026-03-28T15:12:10Z</time></trkpt><trkpt lat="44.72509185588971" lon="9.025836109731316"><ele>383.6666666666667</ele><time>2026-03-28T15:12:11Z</time></trkpt><trkpt lat="44.725192598428" lon="9.026008462132827"><ele>382.33333333333337</ele><time>2026-03-28T15:12:12Z</time></trkpt><trkpt lat="44.72529109385259" lon="9.02618988455725"><ele>381.0</ele><time>2026-03-28T15:12:13Z</time></trkpt><trkpt lat="44.72538350750804" lon="9.026367007855493"><ele>388.75</ele><time>2026-03-28T15:12:14Z</time></trkpt><trkpt lat="44.72546804263516" lon="9.02652570987743"><ele>396.5</ele><time>2026-03-28T15:12:15Z</time></trkpt><trkpt lat="44.72554946622544" lon="9.026663771943031"><ele>404.25</ele><time>2026-03-28T15:12:16Z</time></trkpt><trkpt lat="44.72561699308914" lon="9.02680063539384"><ele>412.0</ele><time>2026-03-28T15:12:17Z</time></trkpt><trkpt lat="44.72566086267421" lon="9.026952586058169"><ele>412.0</ele><time>2026-03-28T15:12:18Z</time></trkpt><trkpt lat="44.72565147120014" lon="9.027130356075435"><ele>412.0</ele><time>2026-03-28T15:12:19Z</time></trkpt><trkpt lat="44.72566334212747" lon="9.02732705233935"><ele>412.0</ele><time>2026-03-28T15:12:20Z</time></trkpt><trkpt lat="44.725656141320606" lon="9.027531376268175"><ele>412.0</ele><time>2026-03-28T15:12:21Z</time></trkpt><trkpt lat="44.72565792486304" lon="9.027728182942305"><ele>411.5</ele><time>2026-03-28T15:12:22Z</time></trkpt><trkpt lat="44.72564330232172" lon="9.027910552702586"><ele>411.0</ele><time>2026-03-28T15:12:23Z</time></trkpt><trkpt lat="44.72559324381305" lon="9.028088397594502"><ele>410.5</ele><time>2026-03-28T15:12:24Z</time></trkpt><trkpt lat="44.72549437495322" lon="9.02823666178465"><ele>410.0</ele><time>2026-03-28T15:12:25Z</time></trkpt><trkpt lat="44.7254164743457" lon="9.028406077875038"><ele>411.5</ele><time>2026-03-28T15:12:26Z</time></trkpt><trkpt lat="44.725338953671816" lon="9.02856036128202"><ele>413.0</ele><time>2026-03-28T15:12:27Z</time></trkpt><trkpt lat="44.72526198712511" lon="9.028702364262838"><ele>414.5</ele><time>2026-03-28T15:12:28Z</time></trkpt><trkpt lat="44.72517706415994" lon="9.028830269074072"><ele>416.0</ele><time>2026-03-28T15:12:29Z</time></trkpt><trkpt lat="44.725117624179255" lon="9.02897777016479"><ele>414.20000000000005</ele><time>2026-03-28T15:12:30Z</time></trkpt><trkpt lat="44.72510306245406" lon="9.029126719731945"><ele>412.40000000000003</ele><time>2026-03-28T15:12:31Z</time></trkpt><trkpt lat="44.72512346618778" lon="9.029258363836876"><ele>410.6</ele><time>2026-03-28T15:12:32Z</time></trkpt><trkpt lat="44.72518411523574" lon="9.029370217533097"><ele>408.8</ele><time>2026-03-28T15:12:33Z</time></trkpt><trkpt lat="44.72528700520064" lon="9.029453358784277"><ele>407.0</ele><time>2026-03-28T15:12:34Z</time></trkpt><trkpt lat="44.72542478021565" lon="9.029509828679947"><ele>407.0</ele><time>2026-03-28T15:12:35Z</time></trkpt><trkpt lat="44.72557709628209" lon="9.02958389204674"><ele>407.0</ele><time>2026-03-28T15:12:36Z</time></trkpt><trkpt lat="44.72572887397478" lon="9.029683756104532"><ele>407.0</ele><time>2026-03-28T15:12:37Z</time></trkpt><trkpt lat="44.72586342740969" lon="9.02978963150826"><ele>407.0</ele><time>2026-03-28T15:12:38Z</time></trkpt><trkpt lat="44.72596545358746" lon="9.029942894755111"><ele>407.0</ele><time>2026-03-28T15:12:39Z</time></trkpt><trkpt lat="44.726072812785226" lon="9.030110254297007"><ele>407.0</ele><time>2026-03-28T15:12:40Z</time></trkpt><trkpt lat="44.72619575113009" lon="9.030249969050745"><ele>409.25</ele><time>2026-03-28T15:12:41Z</time></trkpt><trkpt lat="44.72630244264699" lon="9.030378716093205"><ele>411.5</ele><time>2026-03-28T15:12:42Z</time></trkpt><trkpt lat="44.72638925906535" lon="9.03051774946424"><ele>413.75</ele><time>2026-03-28T15:12:43.001Z</time></trkpt><trkpt lat="44.72643274884612" lon="9.030694034573521"><ele>416.0</ele><time>2026-03-28T15:12:44.001Z</time></trkpt><trkpt lat="44.72651181888475" lon="9.030834246401666"><ele>415.0</ele><time>2026-03-28T15:12:45.001Z</time></trkpt><trkpt lat="44.72659465363983" lon="9.030960229427583"><ele>414.0</ele><time>2026-03-28T15:12:46.001Z</time></trkpt><trkpt lat="44.72670583519946" lon="9.031043306819237"><ele>413.0</ele><time>2026-03-28T15:12:47.001Z</time></trkpt><trkpt lat="44.726834847574224" lon="9.031081817469063"><ele>412.0</ele><time>2026-03-28T15:12:48.001Z</time></trkpt><trkpt lat="44.7269782571534" lon="9.031082148069093"><ele>412.0</ele><time>2026-03-28T15:12:49.001Z</time></trkpt><trkpt lat="44.72711575820182" lon="9.031106298013228"><ele>412.0</ele><time>2026-03-28T15:12:50.001Z</time></trkpt><trkpt lat="44.727260865254124" lon="9.03116306801567"><ele>412.0</ele><time>2026-03-28T15:12:51.001Z</time></trkpt><trkpt lat="44.7273921851415" lon="9.031222936234412"><ele>412.0</ele><time>2026-03-28T15:12:52.001Z</time></trkpt><trkpt lat="44.72751005262484" lon="9.031308984117713"><ele>412.0</ele><time>2026-03-28T15:12:53.001Z</time></trkpt><trkpt lat="44.72761362600505" lon="9.031442858025635"><ele>412.0</ele><time>2026-03-28T15:12:54.001Z</time></trkpt><trkpt lat="44.727696416399326" lon="9.031605878970613"><ele>412.0</ele><time>2026-03-28T15:12:55.001Z</time></trkpt><trkpt lat="44.72775841838922" lon="9.031794711957057"><ele>412.0</ele><time>2026-03-28T15:12:56.001Z</time></trkpt><trkpt lat="44.72780126298817" lon="9.032002421127176"><ele>404.0</ele><time>2026-03-28T15:12:57.001Z</time></trkpt><trkpt lat="44.72783710256556" lon="9.032218441284298"><ele>396.0</ele><time>2026-03-28T15:12:58.001Z</time></trkpt><trkpt lat="44.72787451673757" lon="9.032441011534047"><ele>388.0</ele><time>2026-03-28T15:12:59.001Z</time></trkpt><trkpt lat="44.72791096590283" lon="9.032667369184491"><ele>385.33333333333337</ele><time>2026-03-28T15:13:00.001Z</time></trkpt><trkpt lat="44.72794428786162" lon="9.03289080346897"><ele>382.6666666666667</ele><time>2026-03-28T15:13:01.001Z</time></trkpt><trkpt lat="44.72797235781235" lon="9.03312322324673"><ele>380.0</ele><time>2026-03-28T15:13:02.001Z</time></trkpt><trkpt lat="44.728003995087136" lon="9.033348282464347"><ele>379.33333333333337</ele><time>2026-03-28T15:13:03.001Z</time></trkpt><trkpt lat="44.72802325408763" lon="9.033563361997109"><ele>378.6666666666667</ele><time>2026-03-28T15:13:04.001Z</time></trkpt><trkpt lat="44.72806206187601" lon="9.033772290848873"><ele>378.0</ele><time>2026-03-28T15:13:05.001Z</time></trkpt><trkpt lat="44.728089958639195" lon="9.03398129604493"><ele>376.0</ele><time>2026-03-28T15:13:06.001Z</time></trkpt><trkpt lat="44.72810167779548" lon="9.034197726484468"><ele>374.0</ele><time>2026-03-28T15:13:07.001Z</time></trkpt><trkpt lat="44.72812569228375" lon="9.034412054096867"><ele>372.0</ele><time>2026-03-28T15:13:08.001Z</time></trkpt><trkpt lat="44.728149273836806" lon="9.034625288741909"><ele>372.0</ele><time>2026-03-28T15:13:09.001Z</time></trkpt><trkpt lat="44.72816052086528" lon="9.034838381467388"><ele>372.0</ele><time>2026-03-28T15:13:10.001Z</time></trkpt><trkpt lat="44.72816957707724" lon="9.03505882448905"><ele>372.0</ele><time>2026-03-28T15:13:11.001Z</time></trkpt><trkpt lat="44.728187390664694" lon="9.0352847575048"><ele>371.6666666666667</ele><time>2026-03-28T15:13:12.001Z</time></trkpt><trkpt lat="44.728191419678176" lon="9.035513043029207"><ele>371.33333333333337</ele><time>2026-03-28T15:13:13.001Z</time></trkpt><trkpt lat="44.728187708926264" lon="9.035734430321034"><ele>371.0</ele><time>2026-03-28T15:13:14.001Z</time></trkpt><trkpt lat="44.728153758030295" lon="9.035948636923445"><ele>370.25</ele><time>2026-03-28T15:13:15.001Z</time></trkpt><trkpt lat="44.72810549967262" lon="9.036148254286807"><ele>369.5</ele><time>2026-03-28T15:13:16.001Z</time></trkpt><trkpt lat="44.72802542892668" lon="9.03630317622107"><ele>368.75</ele><time>2026-03-28T15:13:17.001Z</time></trkpt><trkpt lat="44.72791383379874" lon="9.036424182299536"><ele>368.0</ele><time>2026-03-28T15:13:18.001Z</time></trkpt><trkpt lat="44.727776044728856" lon="9.036511334797877"><ele>365.0</ele><time>2026-03-28T15:13:19.001Z</time></trkpt><trkpt lat="44.72761446033891" lon="9.036611233677311"><ele>362.0</ele><time>2026-03-28T15:13:20.001Z</time></trkpt><trkpt lat="44.7274461270408" lon="9.036739821167252"><ele>359.0</ele><time>2026-03-28T15:13:21.001Z</time></trkpt><trkpt lat="44.72725933803166" lon="9.036836405938587"><ele>359.0</ele><time>2026-03-28T15:13:22.001Z</time></trkpt><trkpt lat="44.727100591515125" lon="9.03696450276475"><ele>359.0</ele><time>2026-03-28T15:13:23.001Z</time></trkpt><trkpt lat="44.72693291239987" lon="9.037079009668256"><ele>359.0</ele><time>2026-03-28T15:13:24.001Z</time></trkpt><trkpt lat="44.72676710707394" lon="9.037198924967536"><ele>359.0</ele><time>2026-03-28T15:13:25.001Z</time></trkpt><trkpt lat="44.7266052852744" lon="9.037323682376446"><ele>359.0</ele><time>2026-03-28T15:13:26.001Z</time></trkpt><trkpt lat="44.72643755629113" lon="9.037476878363712"><ele>359.0</ele><time>2026-03-28T15:13:27Z</time></trkpt><trkpt lat="44.726262425693584" lon="9.037667765674088"><ele>359.5</ele><time>2026-03-28T15:13:28Z</time></trkpt><trkpt lat="44.726082304914435" lon="9.037881535295183"><ele>360.0</ele><time>2026-03-28T15:13:29Z</time></trkpt><trkpt lat="44.725909093194936" lon="9.038088666251996"><ele>360.0</ele><time>2026-03-28T15:13:30Z</time></trkpt><trkpt lat="44.7257532553038" lon="9.038274874615798"><ele>360.0</ele><time>2026-03-28T15:13:31Z</time></trkpt><trkpt lat="44.725605393937265" lon="9.038456130802787"><ele>360.0</ele><time>2026-03-28T15:13:32Z</time></trkpt><trkpt lat="44.72545831754485" lon="9.038637865595359"><ele>360.6666666666667</ele><time>2026-03-28T15:13:33Z</time></trkpt><trkpt lat="44.72530871192631" lon="9.038823328024463"><ele>361.33333333333337</ele><time>2026-03-28T15:13:34Z</time></trkpt><trkpt lat="44.72515467893125" lon="9.039014117859091"><ele>362.0</ele><time>2026-03-28T15:13:35Z</time></trkpt><trkpt lat="44.72499929163703" lon="9.039205158201568"><ele>363.6666666666667</ele><time>2026-03-28T15:13:36Z</time></trkpt><trkpt lat="44.72484929465194" lon="9.0393842706482"><ele>365.3333333333333</ele><time>2026-03-28T15:13:37Z</time></trkpt><trkpt lat="44.72470239571162" lon="9.039560725700492"><ele>367.0</ele><time>2026-03-28T15:13:38Z</time></trkpt><trkpt lat="44.72455248669948" lon="9.039746686424515"><ele>367.0</ele><time>2026-03-28T15:13:39Z</time></trkpt><trkpt lat="44.72440288123927" lon="9.039932665703857"><ele>367.0</ele><time>2026-03-28T15:13:40Z</time></trkpt><trkpt lat="44.72423506633216" lon="9.040098502607224"><ele>367.0</ele><time>2026-03-28T15:13:41Z</time></trkpt><trkpt lat="44.72408023941792" lon="9.040302019935758"><ele>367.3333333333333</ele><time>2026-03-28T15:13:42Z</time></trkpt><trkpt lat="44.723905581260475" lon="9.0404770910099"><ele>367.6666666666667</ele><time>2026-03-28T15:13:43Z</time></trkpt><trkpt lat="44.723729831436174" lon="9.040652027986024"><ele>368.0</ele><time>2026-03-28T15:13:44Z</time></trkpt><trkpt lat="44.72355543793749" lon="9.040826858111815"><ele>368.33333333333337</ele><time>2026-03-28T15:13:45Z</time></trkpt><trkpt lat="44.72338745574738" lon="9.040993298318632"><ele>368.6666666666667</ele><time>2026-03-28T15:13:46Z</time></trkpt><trkpt lat="44.72322423658021" lon="9.041152465923373"><ele>369.0</ele><time>2026-03-28T15:13:47Z</time></trkpt><trkpt lat="44.72305622241951" lon="9.0413215404038"><ele>369.0</ele><time>2026-03-28T15:13:48Z</time></trkpt><trkpt lat="44.722889370145786" lon="9.041490024012276"><ele>369.0</ele><time>2026-03-28T15:13:49Z</time></trkpt><trkpt lat="44.72271766463771" lon="9.041661855031128"><ele>369.0</ele><time>2026-03-28T15:13:50Z</time></trkpt><trkpt lat="44.72253910511429" lon="9.041845314844888"><ele>369.5</ele><time>2026-03-28T15:13:51Z</time></trkpt><trkpt lat="44.72236075502825" lon="9.042045830204612"><ele>370.0</ele><time>2026-03-28T15:13:52Z</time></trkpt><trkpt lat="44.72218235557258" lon="9.042239545306135"><ele>369.66666666666663</ele><time>2026-03-28T15:13:53Z</time></trkpt><trkpt lat="44.72204039855982" lon="9.042466388040523"><ele>369.3333333333333</ele><time>2026-03-28T15:13:54Z</time></trkpt><trkpt lat="44.72189174170311" lon="9.042676201829183"><ele>369.0</ele><time>2026-03-28T15:13:55Z</time></trkpt><trkpt lat="44.72175062444028" lon="9.042876570270483"><ele>369.0</ele><time>2026-03-28T15:13:56Z</time></trkpt><trkpt lat="44.721600764762115" lon="9.04306944312817"><ele>369.0</ele><time>2026-03-28T15:13:57Z</time></trkpt><trkpt lat="44.72144097584006" lon="9.04323948544651"><ele>369.0</ele><time>2026-03-28T15:13:58Z</time></trkpt><trkpt lat="44.72126391767272" lon="9.043348501545779"><ele>369.3333333333333</ele><time>2026-03-28T15:13:59Z</time></trkpt><trkpt lat="44.72109902106755" lon="9.043468059523745"><ele>369.66666666666663</ele><time>2026-03-28T15:14:00Z</time></trkpt><trkpt lat="44.720942673410256" lon="9.043577707313416"><ele>370.0</ele><time>2026-03-28T15:14:01Z</time></trkpt><trkpt lat="44.72078445387664" lon="9.043687701229809"><ele>370.0</ele><time>2026-03-28T15:14:02Z</time></trkpt><trkpt lat="44.72063302562752" lon="9.043790398309161"><ele>370.0</ele><time>2026-03-28T15:14:03Z</time></trkpt><trkpt lat="44.720494749194984" lon="9.043886738217722"><ele>370.0</ele><time>2026-03-28T15:14:04Z</time></trkpt><trkpt lat="44.72036469832037" lon="9.043965804389282"><ele>370.0</ele><time>2026-03-28T15:14:05Z</time></trkpt><trkpt lat="44.72022099340595" lon="9.04396612170817"><ele>370.0</ele><time>2026-03-28T15:14:06Z</time></trkpt><trkpt lat="44.72007602907135" lon="9.044002132386456"><ele>370.0</ele><time>2026-03-28T15:14:07Z</time></trkpt><trkpt lat="44.719932989080775" lon="9.04399944347878"><ele>370.0</ele><time>2026-03-28T15:14:08Z</time></trkpt><trkpt lat="44.71978995797568" lon="9.043994367232589"><ele>370.0</ele><time>2026-03-28T15:14:09Z</time></trkpt><trkpt lat="44.71963229616882" lon="9.044013934303223"><ele>370.0</ele><time>2026-03-28T15:14:10Z</time></trkpt><trkpt lat="44.71947531810459" lon="9.043995460792972"><ele>370.0</ele><time>2026-03-28T15:14:11Z</time></trkpt><trkpt lat="44.71933328095993" lon="9.044002019736302"><ele>370.5</ele><time>2026-03-28T15:14:12Z</time></trkpt><trkpt lat="44.71921221043526" lon="9.044004389761648"><ele>371.0</ele><time>2026-03-28T15:14:13Z</time></trkpt><trkpt lat="44.71908713484355" lon="9.044005635708265"><ele>371.5</ele><time>2026-03-28T15:14:14Z</time></trkpt><trkpt lat="44.71896310135333" lon="9.044031318560592"><ele>372.0</ele><time>2026-03-28T15:14:15Z</time></trkpt><trkpt lat="44.718863147101395" lon="9.044119807820756"><ele>373.0</ele><time>2026-03-28T15:14:16Z</time></trkpt><trkpt lat="44.71878782950235" lon="9.044226107629322"><ele>374.0</ele><time>2026-03-28T15:14:17Z</time></trkpt><trkpt lat="44.71875379391243" lon="9.04435563415959"><ele>375.0</ele><time>2026-03-28T15:14:18Z</time></trkpt><trkpt lat="44.71875039584954" lon="9.044495765185513"><ele>376.0</ele><time>2026-03-28T15:14:19Z</time></trkpt><trkpt lat="44.71872695352781" lon="9.044658211260277"><ele>377.0</ele><time>2026-03-28T15:14:20Z</time></trkpt><trkpt lat="44.7187130965623" lon="9.044859353101563"><ele>377.0</ele><time>2026-03-28T15:14:21Z</time></trkpt><trkpt lat="44.718662849988995" lon="9.0450677124141"><ele>377.0</ele><time>2026-03-28T15:14:22Z</time></trkpt><trkpt lat="44.71860688940969" lon="9.045262286299907"><ele>377.0</ele><time>2026-03-28T15:14:23Z</time></trkpt><trkpt lat="44.718541541838725" lon="9.045425079717067"><ele>377.0</ele><time>2026-03-28T15:14:24Z</time></trkpt><trkpt lat="44.71845795346506" lon="9.045568535158953"><ele>377.0</ele><time>2026-03-28T15:14:25Z</time></trkpt><trkpt lat="44.718323490385934" lon="9.04563616302881"><ele>377.0</ele><time>2026-03-28T15:14:26Z</time></trkpt><trkpt lat="44.71819343735996" lon="9.045739621218376"><ele>377.0</ele><time>2026-03-28T15:14:27Z</time></trkpt><trkpt lat="44.718041549554904" lon="9.045857722807863"><ele>378.33333333333337</ele><time>2026-03-28T15:14:28Z</time></trkpt><trkpt lat="44.717865121504104" lon="9.045994774613732"><ele>379.6666666666667</ele><time>2026-03-28T15:14:29Z</time></trkpt><trkpt lat="44.71767416368637" lon="9.046163996910884"><ele>381.0</ele><time>2026-03-28T15:14:30Z</time></trkpt><trkpt lat="44.717458872917874" lon="9.046305418300477"><ele>381.0</ele><time>2026-03-28T15:14:31Z</time></trkpt><trkpt lat="44.71725377529598" lon="9.04646785915984"><ele>381.0</ele><time>2026-03-28T15:14:32Z</time></trkpt><trkpt lat="44.71706460980284" lon="9.046639565193665"><ele>382.5</ele><time>2026-03-28T15:14:33Z</time></trkpt><trkpt lat="44.71685998960908" lon="9.046775854981803"><ele>384.0</ele><time>2026-03-28T15:14:34Z</time></trkpt><trkpt lat="44.71663126863675" lon="9.046856527476056"><ele>384.0</ele><time>2026-03-28T15:14:35Z</time></trkpt><trkpt lat="44.716402023765696" lon="9.046946706065286"><ele>384.0</ele><time>2026-03-28T15:14:36Z</time></trkpt><trkpt lat="44.716191103596444" lon="9.047046727771962"><ele>383.0</ele><time>2026-03-28T15:14:37.001Z</time></trkpt><trkpt lat="44.71598947695386" lon="9.047122521046091"><ele>382.0</ele><time>2026-03-28T15:14:38.001Z</time></trkpt><trkpt lat="44.71578650470905" lon="9.047195216212195"><ele>381.0</ele><time>2026-03-28T15:14:39.001Z</time></trkpt><trkpt lat="44.715571713469814" lon="9.047266038688193"><ele>381.0</ele><time>2026-03-28T15:14:40.001Z</time></trkpt><trkpt lat="44.7153574418892" lon="9.04731325163744"><ele>381.0</ele><time>2026-03-28T15:14:41.001Z</time></trkpt><trkpt lat="44.71515578218375" lon="9.04738771547509"><ele>381.0</ele><time>2026-03-28T15:14:42.001Z</time></trkpt><trkpt lat="44.71493788537456" lon="9.047496055317866"><ele>381.5</ele><time>2026-03-28T15:14:43.001Z</time></trkpt><trkpt lat="44.7147247415515" lon="9.04762167977188"><ele>382.0</ele><time>2026-03-28T15:14:44.001Z</time></trkpt><trkpt lat="44.71452444504678" lon="9.047765057496"><ele>381.3333333333333</ele><time>2026-03-28T15:14:45.001Z</time></trkpt><trkpt lat="44.7143254439599" lon="9.047873451631732"><ele>380.6666666666667</ele><time>2026-03-28T15:14:46.001Z</time></trkpt><trkpt lat="44.71413368029614" lon="9.047989388984485"><ele>380.0</ele><time>2026-03-28T15:14:47.001Z</time></trkpt><trkpt lat="44.7139486971922" lon="9.048104124135367"><ele>380.0</ele><time>2026-03-28T15:14:48.001Z</time></trkpt><trkpt lat="44.713765692873444" lon="9.048214550883582"><ele>380.0</ele><time>2026-03-28T15:14:49.001Z</time></trkpt><trkpt lat="44.713571730886585" lon="9.048304076640042"><ele>380.0</ele><time>2026-03-28T15:14:50.001Z</time></trkpt><trkpt lat="44.71339393502602" lon="9.048430408313981"><ele>380.0</ele><time>2026-03-28T15:14:51.001Z</time></trkpt><trkpt lat="44.71321560707314" lon="9.048531392021948"><ele>380.0</ele><time>2026-03-28T15:14:52.001Z</time></trkpt><trkpt lat="44.713041697924446" lon="9.04864837026118"><ele>380.0</ele><time>2026-03-28T15:14:53.001Z</time></trkpt><trkpt lat="44.71288672467737" lon="9.048784802748635"><ele>380.0</ele><time>2026-03-28T15:14:54.001Z</time></trkpt><trkpt lat="44.712744418874955" lon="9.048947270864033"><ele>380.0</ele><time>2026-03-28T15:14:55.001Z</time></trkpt><trkpt lat="44.71261888446606" lon="9.049139408683777"><ele>380.0</ele><time>2026-03-28T15:14:56.001Z</time></trkpt><trkpt lat="44.71250850635125" lon="9.049371588782737"><ele>382.0</ele><time>2026-03-28T15:14:57.001Z</time></trkpt><trkpt lat="44.71239996854082" lon="9.049641111765995"><ele>384.0</ele><time>2026-03-28T15:14:58.001Z</time></trkpt><trkpt lat="44.71228025522127" lon="9.04992594106132"><ele>386.0</ele><time>2026-03-28T15:14:59.001Z</time></trkpt><trkpt lat="44.712149311228565" lon="9.050214078473443"><ele>388.0</ele><time>2026-03-28T15:15:00.001Z</time></trkpt><trkpt lat="44.71203323118728" lon="9.0504680148652"><ele>388.0</ele><time>2026-03-28T15:15:01.001Z</time></trkpt><trkpt lat="44.71193016548549" lon="9.050694934636065"><ele>388.0</ele><time>2026-03-28T15:15:02.001Z</time></trkpt><trkpt lat="44.71182619080044" lon="9.050894029821563"><ele>388.0</ele><time>2026-03-28T15:15:03.001Z</time></trkpt><trkpt lat="44.71170240894904" lon="9.051082161431157"><ele>388.0</ele><time>2026-03-28T15:15:04.001Z</time></trkpt><trkpt lat="44.7115623750296" lon="9.051262943994173"><ele>388.0</ele><time>2026-03-28T15:15:05.001Z</time></trkpt><trkpt lat="44.711429636480496" lon="9.051430986953273"><ele>388.0</ele><time>2026-03-28T15:15:06.001Z</time></trkpt><trkpt lat="44.71131189366046" lon="9.051592824505642"><ele>388.75</ele><time>2026-03-28T15:15:07.001Z</time></trkpt><trkpt lat="44.711206948363454" lon="9.05173720363006"><ele>389.5</ele><time>2026-03-28T15:15:08.001Z</time></trkpt><trkpt lat="44.71108746542152" lon="9.051816608111446"><ele>390.25</ele><time>2026-03-28T15:15:09.001Z</time></trkpt><trkpt lat="44.71097629271802" lon="9.051910435324128"><ele>391.0</ele><time>2026-03-28T15:15:10.001Z</time></trkpt><trkpt lat="44.7108652295305" lon="9.05199490230153"><ele>391.0</ele><time>2026-03-28T15:15:11.001Z</time></trkpt><trkpt lat="44.71077537522003" lon="9.052119793475235"><ele>391.0</ele><time>2026-03-28T15:15:12.001Z</time></trkpt><trkpt lat="44.71073477608877" lon="9.052327453709895"><ele>391.0</ele><time>2026-03-28T15:15:13.001Z</time></trkpt><trkpt lat="44.71068771689282" lon="9.052555812597472"><ele>391.0</ele><time>2026-03-28T15:15:14.001Z</time></trkpt><trkpt lat="44.710611312177306" lon="9.052793934430438"><ele>391.6666666666667</ele><time>2026-03-28T15:15:15.001Z</time></trkpt><trkpt lat="44.710492835132655" lon="9.052985376602464"><ele>392.33333333333337</ele><time>2026-03-28T15:15:16.001Z</time></trkpt><trkpt lat="44.71034886893847" lon="9.053182043062598"><ele>393.0</ele><time>2026-03-28T15:15:17.001Z</time></trkpt><trkpt lat="44.71018503169643" lon="9.053401276992743"><ele>393.0</ele><time>2026-03-28T15:15:18.001Z</time></trkpt><trkpt lat="44.71002280529795" lon="9.053664972160265"><ele>393.0</ele><time>2026-03-28T15:15:19.001Z</time></trkpt><trkpt lat="44.70985506061118" lon="9.053927270450878"><ele>397.0</ele><time>2026-03-28T15:15:20.001Z</time></trkpt><trkpt lat="44.709667865262496" lon="9.054173634796454"><ele>401.0</ele><time>2026-03-28T15:15:21.001Z</time></trkpt><trkpt lat="44.709479709353694" lon="9.054423523982194"><ele>397.5</ele><time>2026-03-28T15:15:22.001Z</time></trkpt><trkpt lat="44.70930949698359" lon="9.054664155112071"><ele>394.0</ele><time>2026-03-28T15:15:23.001Z</time></trkpt><trkpt lat="44.7091812010269" lon="9.054921745470816"><ele>396.6666666666667</ele><time>2026-03-28T15:15:24.001Z</time></trkpt><trkpt lat="44.709068984550505" lon="9.05517108905538"><ele>399.33333333333337</ele><time>2026-03-28T15:15:25.001Z</time></trkpt><trkpt lat="44.7089747929864" lon="9.055453034073857"><ele>402.0</ele><time>2026-03-28T15:15:26.001Z</time></trkpt><trkpt lat="44.70887423380217" lon="9.05575558181127"><ele>400.66666666666663</ele><time>2026-03-28T15:15:27.001Z</time></trkpt><trkpt lat="44.708767516021666" lon="9.056038566691822"><ele>399.3333333333333</ele><time>2026-03-28T15:15:28.001Z</time></trkpt><trkpt lat="44.70866147406658" lon="9.056287280093668"><ele>398.0</ele><time>2026-03-28T15:15:29.001Z</time></trkpt><trkpt lat="44.708548027174736" lon="9.056524122999322"><ele>401.0</ele><time>2026-03-28T15:15:30.001Z</time></trkpt><trkpt lat="44.70843905917469" lon="9.056756885192293"><ele>404.0</ele><time>2026-03-28T15:15:31.001Z</time></trkpt><trkpt lat="44.708357124736374" lon="9.056995310270585"><ele>407.0</ele><time>2026-03-28T15:15:32.001Z</time></trkpt><trkpt lat="44.708292402258806" lon="9.057225505732971"><ele>407.0</ele><time>2026-03-28T15:15:33Z</time></trkpt><trkpt lat="44.708241709057674" lon="9.057437406496442"><ele>407.0</ele><time>2026-03-28T15:15:34Z</time></trkpt><trkpt lat="44.70819582923081" lon="9.057633623770773"><ele>407.0</ele><time>2026-03-28T15:15:35Z</time></trkpt><trkpt lat="44.70811676196603" lon="9.057797492007353"><ele>407.0</ele><time>2026-03-28T15:15:36Z</time></trkpt><trkpt lat="44.70802860601932" lon="9.057930603768297"><ele>407.0</ele><time>2026-03-28T15:15:37Z</time></trkpt><trkpt lat="44.707918915924864" lon="9.058057290316338"><ele>407.0</ele><time>2026-03-28T15:15:38Z</time></trkpt><trkpt lat="44.70778404745034" lon="9.058116565239343"><ele>407.0</ele><time>2026-03-28T15:15:39Z</time></trkpt><trkpt lat="44.707642904654335" lon="9.058140750042496"><ele>407.0</ele><time>2026-03-28T15:15:40Z</time></trkpt><trkpt lat="44.70749601829152" lon="9.058161520948738"><ele>407.0</ele><time>2026-03-28T15:15:41Z</time></trkpt><trkpt lat="44.707338838212245" lon="9.058153158454356"><ele>407.0</ele><time>2026-03-28T15:15:42Z</time></trkpt><trkpt lat="44.707215940815324" lon="9.058163542039468"><ele>407.0</ele><time>2026-03-28T15:15:43Z</time></trkpt><trkpt lat="44.70708296339671" lon="9.058240090841585"><ele>407.0</ele><time>2026-03-28T15:15:44Z</time></trkpt><trkpt lat="44.70696248025422" lon="9.058380150144108"><ele>408.0</ele><time>2026-03-28T15:15:45Z</time></trkpt><trkpt lat="44.70683458966561" lon="9.058557344703903"><ele>409.0</ele><time>2026-03-28T15:15:46Z</time></trkpt><trkpt lat="44.70669535130438" lon="9.058740605054275"><ele>410.0</ele><time>2026-03-28T15:15:47Z</time></trkpt><trkpt lat="44.70655694244648" lon="9.058946828057993"><ele>412.66666666666663</ele><time>2026-03-28T15:15:48Z</time></trkpt><trkpt lat="44.70642037952448" lon="9.059184526229927"><ele>415.33333333333337</ele><time>2026-03-28T15:15:49Z</time></trkpt><trkpt lat="44.706291532542195" lon="9.059444132332196"><ele>418.0</ele><time>2026-03-28T15:15:50Z</time></trkpt><trkpt lat="44.70617729090703" lon="9.059698748341114"><ele>417.33333333333337</ele><time>2026-03-28T15:15:51Z</time></trkpt><trkpt lat="44.70606722641677" lon="9.059950107381272"><ele>416.66666666666663</ele><time>2026-03-28T15:15:52Z</time></trkpt><trkpt lat="44.70596100732473" lon="9.0601886151506"><ele>416.0</ele><time>2026-03-28T15:15:53Z</time></trkpt><trkpt lat="44.705860839210516" lon="9.060430229194106"><ele>416.0</ele><time>2026-03-28T15:15:54Z</time></trkpt><trkpt lat="44.705775225531696" lon="9.060686917255843"><ele>416.0</ele><time>2026-03-28T15:15:55Z</time></trkpt><trkpt lat="44.70570546236106" lon="9.060952358669942"><ele>416.0</ele><time>2026-03-28T15:15:56Z</time></trkpt><trkpt lat="44.705643490129084" lon="9.061204444299687"><ele>417.3333333333333</ele><time>2026-03-28T15:15:57Z</time></trkpt><trkpt lat="44.70557951822148" lon="9.06144971586929"><ele>418.66666666666663</ele><time>2026-03-28T15:15:58Z</time></trkpt><trkpt lat="44.70549554508179" lon="9.061689470802722"><ele>420.0</ele><time>2026-03-28T15:15:59Z</time></trkpt><trkpt lat="44.705380907677835" lon="9.061907273455796"><ele>418.33333333333337</ele><time>2026-03-28T15:16:00Z</time></trkpt><trkpt lat="44.705244655078815" lon="9.062093894377165"><ele>416.6666666666667</ele><time>2026-03-28T15:16:01Z</time></trkpt><trkpt lat="44.705106577577624" lon="9.06225444046458"><ele>415.0</ele><time>2026-03-28T15:16:02Z</time></trkpt><trkpt lat="44.70495584495317" lon="9.06241382922139"><ele>417.33333333333337</ele><time>2026-03-28T15:16:03Z</time></trkpt><trkpt lat="44.70478075096616" lon="9.062557894141193"><ele>419.66666666666663</ele><time>2026-03-28T15:16:04Z</time></trkpt><trkpt lat="44.70461448331524" lon="9.062722497204915"><ele>422.0</ele><time>2026-03-28T15:16:05Z</time></trkpt><trkpt lat="44.70446261016426" lon="9.062875781649113"><ele>420.66666666666663</ele><time>2026-03-28T15:16:06Z</time></trkpt><trkpt lat="44.704307358703254" lon="9.06302708385517"><ele>419.33333333333337</ele><time>2026-03-28T15:16:07Z</time></trkpt><trkpt lat="44.704150093504666" lon="9.063159742671855"><ele>418.0</ele><time>2026-03-28T15:16:08Z</time></trkpt><trkpt lat="44.70398626193056" lon="9.063260797255149"><ele>417.33333333333337</ele><time>2026-03-28T15:16:09Z</time></trkpt><trkpt lat="44.703835020704794" lon="9.063377345503188"><ele>416.66666666666663</ele><time>2026-03-28T15:16:10Z</time></trkpt><trkpt lat="44.703686897801525" lon="9.063514377998477"><ele>416.0</ele><time>2026-03-28T15:16:11Z</time></trkpt><trkpt lat="44.70354887938793" lon="9.063684859664784"><ele>416.0</ele><time>2026-03-28T15:16:12Z</time></trkpt><trkpt lat="44.70342227012595" lon="9.063851928888527"><ele>416.0</ele><time>2026-03-28T15:16:13Z</time></trkpt><trkpt lat="44.703300624322175" lon="9.064002753285216"><ele>416.0</ele><time>2026-03-28T15:16:14Z</time></trkpt><trkpt lat="44.70318988435504" lon="9.064150876666174"><ele>418.0</ele><time>2026-03-28T15:16:15Z</time></trkpt><trkpt lat="44.703098741241604" lon="9.064322869928878"><ele>420.0</ele><time>2026-03-28T15:16:16Z</time></trkpt><trkpt lat="44.70303058572524" lon="9.064523457377353"><ele>422.0</ele><time>2026-03-28T15:16:17Z</time></trkpt><trkpt lat="44.70296854874824" lon="9.064713231456738"><ele>422.0</ele><time>2026-03-28T15:16:18Z</time></trkpt><trkpt lat="44.70290361300302" lon="9.064871348812169"><ele>422.0</ele><time>2026-03-28T15:16:19Z</time></trkpt><trkpt lat="44.70283318133643" lon="9.065002810812873"><ele>422.0</ele><time>2026-03-28T15:16:20Z</time></trkpt><trkpt lat="44.702761006727734" lon="9.065129948347147"><ele>422.0</ele><time>2026-03-28T15:16:21Z</time></trkpt><trkpt lat="44.702707747464984" lon="9.065281657444448"><ele>421.5</ele><time>2026-03-28T15:16:22Z</time></trkpt><trkpt lat="44.7026485367652" lon="9.065414748237687"><ele>421.0</ele><time>2026-03-28T15:16:23.001Z</time></trkpt><trkpt lat="44.702582604125816" lon="9.065562654198152"><ele>420.5</ele><time>2026-03-28T15:16:24.001Z</time></trkpt><trkpt lat="44.70250714340464" lon="9.065694124695636"><ele>420.0</ele><time>2026-03-28T15:16:25.001Z</time></trkpt><trkpt lat="44.702444242144324" lon="9.065816489477982"><ele>420.0</ele><time>2026-03-28T15:16:26.001Z</time></trkpt><trkpt lat="44.70236643389343" lon="9.06590942047065"><ele>420.0</ele><time>2026-03-28T15:16:27.001Z</time></trkpt><trkpt lat="44.702293019781386" lon="9.06599289016955"><ele>420.0</ele><time>2026-03-28T15:16:28.001Z</time></trkpt><trkpt lat="44.70223044906526" lon="9.066065907474123"><ele>420.0</ele><time>2026-03-28T15:16:29.001Z</time></trkpt><trkpt lat="44.702177384419876" lon="9.066130269731445"><ele>420.0</ele><time>2026-03-28T15:16:30.001Z</time></trkpt><trkpt lat="44.70210361515233" lon="9.066213247741475"><ele>420.0</ele><time>2026-03-28T15:16:32.001Z</time></trkpt><trkpt lat="44.702057236429916" lon="9.066273400117911"><ele>420.0</ele><time>2026-03-28T15:19:12.001Z</time></trkpt><trkpt lat="44.7020062835541" lon="9.066339485087534"><ele>420.0</ele><time>2026-03-28T15:19:22.001Z</time></trkpt><trkpt lat="44.70207266572947" lon="9.066329353484043"><ele>420.0</ele><time>2026-03-28T15:51:38Z</time></trkpt><trkpt lat="44.70213386060334" lon="9.066285360507603"><ele>420.0</ele><time>2026-03-28T15:51:48Z</time></trkpt></trkseg></trk></gpx>